<?xml version="1.0" encoding="UTF-8" standalone="no" ?>
<gpx xmlns="http://www.topografix.com/GPX/1/1" xmlns:xsi="http://www.w3.org/2001/XMLSchema-instance" xsi:schemaLocation="http://www.topografix.com/GPX/1/1 http://www.topografix.com/GPX/1/1/gpx.xsd" version="1.1" creator="VisuGPX - https://www.visugpx.com">
  <metadata>
    <name>Redon Josselin</name>
    <desc><![CDATA[26 avril 2017 voyage grande bretagne]]></desc>
  </metadata>
  <trk>
    <name><![CDATA[Redon Josselin_1]]></name>
    <trkseg>
      <trkpt lat="47.67624" lon="-2.0927">
        <ele>51.1175</ele>
        <time>2017-04-26T08:44:20Z</time>
      </trkpt>
      <trkpt lat="47.67642" lon="-2.09292">
        <ele>53.173515</ele>
        <time>2017-04-26T08:44:26Z</time>
      </trkpt>
      <trkpt lat="47.67654" lon="-2.09329">
        <ele>54.165318</ele>
        <time>2017-04-26T08:44:31Z</time>
      </trkpt>
      <trkpt lat="47.67667" lon="-2.09356">
        <ele>53.752705</ele>
        <time>2017-04-26T08:44:37Z</time>
      </trkpt>
      <trkpt lat="47.67672" lon="-2.09366">
        <ele>56.141182</ele>
        <time>2017-04-26T08:45:27Z</time>
      </trkpt>
      <trkpt lat="47.67681" lon="-2.09384">
        <ele>56.14507</ele>
        <time>2017-04-26T08:45:33Z</time>
      </trkpt>
      <trkpt lat="47.67691" lon="-2.09402">
        <ele>56.238625</ele>
        <time>2017-04-26T08:45:38Z</time>
      </trkpt>
      <trkpt lat="47.67701" lon="-2.09431">
        <ele>55.39225</ele>
        <time>2017-04-26T08:45:44Z</time>
      </trkpt>
      <trkpt lat="47.67711" lon="-2.09464">
        <ele>55.826794</ele>
        <time>2017-04-26T08:45:50Z</time>
      </trkpt>
      <trkpt lat="47.67719" lon="-2.09493">
        <ele>55.474606</ele>
        <time>2017-04-26T08:45:55Z</time>
      </trkpt>
      <trkpt lat="47.67729" lon="-2.09528">
        <ele>57.527977</ele>
        <time>2017-04-26T08:46:01Z</time>
      </trkpt>
      <trkpt lat="47.67739" lon="-2.09556">
        <ele>57.29536</ele>
        <time>2017-04-26T08:46:06Z</time>
      </trkpt>
      <trkpt lat="47.67751" lon="-2.09592">
        <ele>52.89769</ele>
        <time>2017-04-26T08:46:12Z</time>
      </trkpt>
      <trkpt lat="47.6776" lon="-2.09629">
        <ele>49.66537</ele>
        <time>2017-04-26T08:46:18Z</time>
      </trkpt>
      <trkpt lat="47.67769" lon="-2.09662">
        <ele>50.990562</ele>
        <time>2017-04-26T08:46:23Z</time>
      </trkpt>
      <trkpt lat="47.67779" lon="-2.09701">
        <ele>52.854294</ele>
        <time>2017-04-26T08:46:29Z</time>
      </trkpt>
      <trkpt lat="47.67789" lon="-2.09731">
        <ele>54.47114</ele>
        <time>2017-04-26T08:46:34Z</time>
      </trkpt>
      <trkpt lat="47.67801" lon="-2.09768">
        <ele>53.73521</ele>
        <time>2017-04-26T08:46:40Z</time>
      </trkpt>
      <trkpt lat="47.67809" lon="-2.09801">
        <ele>52.47498</ele>
        <time>2017-04-26T08:46:45Z</time>
      </trkpt>
      <trkpt lat="47.67816" lon="-2.09834">
        <ele>53.354027</ele>
        <time>2017-04-26T08:46:51Z</time>
      </trkpt>
      <trkpt lat="47.67822" lon="-2.09863">
        <ele>54.540417</ele>
        <time>2017-04-26T08:46:56Z</time>
      </trkpt>
      <trkpt lat="47.67833" lon="-2.09897">
        <ele>54.314228</ele>
        <time>2017-04-26T08:47:02Z</time>
      </trkpt>
      <trkpt lat="47.67846" lon="-2.09929">
        <ele>53.702198</ele>
        <time>2017-04-26T08:47:08Z</time>
      </trkpt>
      <trkpt lat="47.67854" lon="-2.09964">
        <ele>51.725166</ele>
        <time>2017-04-26T08:47:14Z</time>
      </trkpt>
      <trkpt lat="47.67861" lon="-2.09996">
        <ele>52.232433</ele>
        <time>2017-04-26T08:47:20Z</time>
      </trkpt>
      <trkpt lat="47.6787" lon="-2.10022">
        <ele>52.897736</ele>
        <time>2017-04-26T08:47:25Z</time>
      </trkpt>
      <trkpt lat="47.6788" lon="-2.10057">
        <ele>51.72232</ele>
        <time>2017-04-26T08:47:31Z</time>
      </trkpt>
      <trkpt lat="47.67888" lon="-2.10085">
        <ele>53.60149</ele>
        <time>2017-04-26T08:47:36Z</time>
      </trkpt>
      <trkpt lat="47.67898" lon="-2.10119">
        <ele>52.981213</ele>
        <time>2017-04-26T08:47:42Z</time>
      </trkpt>
      <trkpt lat="47.67905" lon="-2.10146">
        <ele>51.710247</ele>
        <time>2017-04-26T08:47:47Z</time>
      </trkpt>
      <trkpt lat="47.67915" lon="-2.1018">
        <ele>52.78634</ele>
        <time>2017-04-26T08:47:53Z</time>
      </trkpt>
      <trkpt lat="47.67923" lon="-2.10213">
        <ele>54.456696</ele>
        <time>2017-04-26T08:47:59Z</time>
      </trkpt>
      <trkpt lat="47.67932" lon="-2.10248">
        <ele>55.767925</ele>
        <time>2017-04-26T08:48:05Z</time>
      </trkpt>
      <trkpt lat="47.67942" lon="-2.10282">
        <ele>56.556812</ele>
        <time>2017-04-26T08:48:11Z</time>
      </trkpt>
      <trkpt lat="47.67953" lon="-2.10318">
        <ele>56.21856</ele>
        <time>2017-04-26T08:48:17Z</time>
      </trkpt>
      <trkpt lat="47.67963" lon="-2.10355">
        <ele>56.116817</ele>
        <time>2017-04-26T08:48:23Z</time>
      </trkpt>
      <trkpt lat="47.67971" lon="-2.10384">
        <ele>55.319515</ele>
        <time>2017-04-26T08:48:28Z</time>
      </trkpt>
      <trkpt lat="47.6798" lon="-2.10419">
        <ele>56.98342</ele>
        <time>2017-04-26T08:48:34Z</time>
      </trkpt>
      <trkpt lat="47.6799" lon="-2.10455">
        <ele>57.28587</ele>
        <time>2017-04-26T08:48:40Z</time>
      </trkpt>
      <trkpt lat="47.68001" lon="-2.10493">
        <ele>55.560917</ele>
        <time>2017-04-26T08:48:46Z</time>
      </trkpt>
      <trkpt lat="47.68011" lon="-2.10523">
        <ele>55.191452</ele>
        <time>2017-04-26T08:48:51Z</time>
      </trkpt>
      <trkpt lat="47.68022" lon="-2.10561">
        <ele>51.79092</ele>
        <time>2017-04-26T08:48:57Z</time>
      </trkpt>
      <trkpt lat="47.68031" lon="-2.10591">
        <ele>53.376785</ele>
        <time>2017-04-26T08:49:02Z</time>
      </trkpt>
      <trkpt lat="47.68042" lon="-2.10629">
        <ele>57.222507</ele>
        <time>2017-04-26T08:49:08Z</time>
      </trkpt>
      <trkpt lat="47.68049" lon="-2.10661">
        <ele>57.704655</ele>
        <time>2017-04-26T08:49:13Z</time>
      </trkpt>
      <trkpt lat="47.68059" lon="-2.10696">
        <ele>58.76955</ele>
        <time>2017-04-26T08:49:19Z</time>
      </trkpt>
      <trkpt lat="47.6807" lon="-2.10734">
        <ele>57.28764</ele>
        <time>2017-04-26T08:49:25Z</time>
      </trkpt>
      <trkpt lat="47.68078" lon="-2.10763">
        <ele>56.71368</ele>
        <time>2017-04-26T08:49:30Z</time>
      </trkpt>
      <trkpt lat="47.68088" lon="-2.10798">
        <ele>57.52996</ele>
        <time>2017-04-26T08:49:36Z</time>
      </trkpt>
      <trkpt lat="47.68099" lon="-2.10835">
        <ele>57.33244</ele>
        <time>2017-04-26T08:49:42Z</time>
      </trkpt>
      <trkpt lat="47.68107" lon="-2.10865">
        <ele>56.180676</ele>
        <time>2017-04-26T08:49:47Z</time>
      </trkpt>
      <trkpt lat="47.68117" lon="-2.10902">
        <ele>54.944214</ele>
        <time>2017-04-26T08:49:53Z</time>
      </trkpt>
      <trkpt lat="47.68127" lon="-2.10933">
        <ele>54.731228</ele>
        <time>2017-04-26T08:49:58Z</time>
      </trkpt>
      <trkpt lat="47.68137" lon="-2.10969">
        <ele>53.321983</ele>
        <time>2017-04-26T08:50:04Z</time>
      </trkpt>
      <trkpt lat="47.68146" lon="-2.11007">
        <ele>52.348194</ele>
        <time>2017-04-26T08:50:10Z</time>
      </trkpt>
      <trkpt lat="47.68155" lon="-2.11038">
        <ele>53.01108</ele>
        <time>2017-04-26T08:50:15Z</time>
      </trkpt>
      <trkpt lat="47.68165" lon="-2.11075">
        <ele>55.352135</ele>
        <time>2017-04-26T08:50:21Z</time>
      </trkpt>
      <trkpt lat="47.68177" lon="-2.11111">
        <ele>56.10973</ele>
        <time>2017-04-26T08:50:27Z</time>
      </trkpt>
      <trkpt lat="47.68188" lon="-2.11148">
        <ele>55.559307</ele>
        <time>2017-04-26T08:50:33Z</time>
      </trkpt>
      <trkpt lat="47.68196" lon="-2.11179">
        <ele>55.24214</ele>
        <time>2017-04-26T08:50:38Z</time>
      </trkpt>
      <trkpt lat="47.68205" lon="-2.11218">
        <ele>56.63002</ele>
        <time>2017-04-26T08:50:44Z</time>
      </trkpt>
      <trkpt lat="47.68212" lon="-2.1125">
        <ele>56.40164</ele>
        <time>2017-04-26T08:50:49Z</time>
      </trkpt>
      <trkpt lat="47.68223" lon="-2.11288">
        <ele>55.255047</ele>
        <time>2017-04-26T08:50:55Z</time>
      </trkpt>
      <trkpt lat="47.68233" lon="-2.11324">
        <ele>54.558228</ele>
        <time>2017-04-26T08:51:01Z</time>
      </trkpt>
      <trkpt lat="47.68241" lon="-2.11349">
        <ele>55.677486</ele>
        <time>2017-04-26T08:51:06Z</time>
      </trkpt>
      <trkpt lat="47.68251" lon="-2.11383">
        <ele>59.503593</ele>
        <time>2017-04-26T08:51:12Z</time>
      </trkpt>
      <trkpt lat="47.68262" lon="-2.11421">
        <ele>57.534225</ele>
        <time>2017-04-26T08:51:18Z</time>
      </trkpt>
      <trkpt lat="47.68274" lon="-2.1146">
        <ele>56.586174</ele>
        <time>2017-04-26T08:51:24Z</time>
      </trkpt>
      <trkpt lat="47.68284" lon="-2.11495">
        <ele>55.693413</ele>
        <time>2017-04-26T08:51:30Z</time>
      </trkpt>
      <trkpt lat="47.68294" lon="-2.1153">
        <ele>57.053284</ele>
        <time>2017-04-26T08:51:36Z</time>
      </trkpt>
      <trkpt lat="47.68304" lon="-2.11566">
        <ele>58.207462</ele>
        <time>2017-04-26T08:51:42Z</time>
      </trkpt>
      <trkpt lat="47.68312" lon="-2.11596">
        <ele>58.166454</ele>
        <time>2017-04-26T08:51:47Z</time>
      </trkpt>
      <trkpt lat="47.68323" lon="-2.11633">
        <ele>57.339756</ele>
        <time>2017-04-26T08:51:53Z</time>
      </trkpt>
      <trkpt lat="47.68334" lon="-2.1167">
        <ele>54.073753</ele>
        <time>2017-04-26T08:51:59Z</time>
      </trkpt>
      <trkpt lat="47.68341" lon="-2.11696">
        <ele>53.084263</ele>
        <time>2017-04-26T08:52:04Z</time>
      </trkpt>
      <trkpt lat="47.68351" lon="-2.11732">
        <ele>54.27401</ele>
        <time>2017-04-26T08:52:10Z</time>
      </trkpt>
      <trkpt lat="47.6836" lon="-2.11764">
        <ele>55.99795</ele>
        <time>2017-04-26T08:52:16Z</time>
      </trkpt>
      <trkpt lat="47.68369" lon="-2.11798">
        <ele>58.422493</ele>
        <time>2017-04-26T08:52:22Z</time>
      </trkpt>
      <trkpt lat="47.68376" lon="-2.11825">
        <ele>54.687325</ele>
        <time>2017-04-26T08:52:27Z</time>
      </trkpt>
      <trkpt lat="47.68385" lon="-2.11851">
        <ele>52.624744</ele>
        <time>2017-04-26T08:52:32Z</time>
      </trkpt>
      <trkpt lat="47.68392" lon="-2.11881">
        <ele>52.803</ele>
        <time>2017-04-26T08:52:38Z</time>
      </trkpt>
      <trkpt lat="47.68404" lon="-2.11892">
        <ele>52.954365</ele>
        <time>2017-04-26T08:52:44Z</time>
      </trkpt>
      <trkpt lat="47.684" lon="-2.11871">
        <ele>51.9773</ele>
        <time>2017-04-26T08:52:50Z</time>
      </trkpt>
      <trkpt lat="47.68397" lon="-2.11841">
        <ele>51.283226</ele>
        <time>2017-04-26T08:52:56Z</time>
      </trkpt>
      <trkpt lat="47.68386" lon="-2.11835">
        <ele>51.009617</ele>
        <time>2017-04-26T08:53:01Z</time>
      </trkpt>
      <trkpt lat="47.68371" lon="-2.11845">
        <ele>51.523796</ele>
        <time>2017-04-26T08:53:07Z</time>
      </trkpt>
      <trkpt lat="47.68356" lon="-2.11858">
        <ele>52.412357</ele>
        <time>2017-04-26T08:53:13Z</time>
      </trkpt>
      <trkpt lat="47.68369" lon="-2.11891">
        <ele>56.306355</ele>
        <time>2017-04-26T08:53:19Z</time>
      </trkpt>
      <trkpt lat="47.68381" lon="-2.11928">
        <ele>56.260178</ele>
        <time>2017-04-26T08:53:24Z</time>
      </trkpt>
      <trkpt lat="47.68392" lon="-2.11967">
        <ele>56.10744</ele>
        <time>2017-04-26T08:53:30Z</time>
      </trkpt>
      <trkpt lat="47.68403" lon="-2.12">
        <ele>56.59563</ele>
        <time>2017-04-26T08:53:35Z</time>
      </trkpt>
      <trkpt lat="47.68412" lon="-2.12037">
        <ele>54.6414</ele>
        <time>2017-04-26T08:53:41Z</time>
      </trkpt>
      <trkpt lat="47.6842" lon="-2.12071">
        <ele>54.120655</ele>
        <time>2017-04-26T08:53:46Z</time>
      </trkpt>
      <trkpt lat="47.68431" lon="-2.12111">
        <ele>54.92507</ele>
        <time>2017-04-26T08:53:52Z</time>
      </trkpt>
      <trkpt lat="47.68442" lon="-2.12149">
        <ele>56.228474</ele>
        <time>2017-04-26T08:53:58Z</time>
      </trkpt>
      <trkpt lat="47.68451" lon="-2.12195">
        <ele>56.982918</ele>
        <time>2017-04-26T08:54:04Z</time>
      </trkpt>
      <trkpt lat="47.68453" lon="-2.12228">
        <ele>57.300747</ele>
        <time>2017-04-26T08:54:09Z</time>
      </trkpt>
      <trkpt lat="47.6846" lon="-2.12254">
        <ele>57.44569</ele>
        <time>2017-04-26T08:54:15Z</time>
      </trkpt>
      <trkpt lat="47.68465" lon="-2.12276">
        <ele>57.38124</ele>
        <time>2017-04-26T08:54:20Z</time>
      </trkpt>
      <trkpt lat="47.68471" lon="-2.12307">
        <ele>55.845196</ele>
        <time>2017-04-26T08:54:26Z</time>
      </trkpt>
      <trkpt lat="47.68493" lon="-2.12311">
        <ele>53.348244</ele>
        <time>2017-04-26T08:54:32Z</time>
      </trkpt>
      <trkpt lat="47.68521" lon="-2.123">
        <ele>52.544888</ele>
        <time>2017-04-26T08:54:38Z</time>
      </trkpt>
      <trkpt lat="47.68545" lon="-2.12283">
        <ele>53.11807</ele>
        <time>2017-04-26T08:54:44Z</time>
      </trkpt>
      <trkpt lat="47.68565" lon="-2.12268">
        <ele>51.271194</ele>
        <time>2017-04-26T08:54:49Z</time>
      </trkpt>
      <trkpt lat="47.68594" lon="-2.12251">
        <ele>52.27174</ele>
        <time>2017-04-26T08:54:55Z</time>
      </trkpt>
      <trkpt lat="47.68619" lon="-2.12233">
        <ele>54.76822</ele>
        <time>2017-04-26T08:55:01Z</time>
      </trkpt>
      <trkpt lat="47.68637" lon="-2.12218">
        <ele>56.23898</ele>
        <time>2017-04-26T08:55:06Z</time>
      </trkpt>
      <trkpt lat="47.68663" lon="-2.12199">
        <ele>57.305145</ele>
        <time>2017-04-26T08:55:12Z</time>
      </trkpt>
      <trkpt lat="47.68684" lon="-2.12184">
        <ele>56.551487</ele>
        <time>2017-04-26T08:55:17Z</time>
      </trkpt>
      <trkpt lat="47.6871" lon="-2.12168">
        <ele>56.993874</ele>
        <time>2017-04-26T08:55:23Z</time>
      </trkpt>
      <trkpt lat="47.68738" lon="-2.12156">
        <ele>57.619366</ele>
        <time>2017-04-26T08:55:29Z</time>
      </trkpt>
      <trkpt lat="47.68766" lon="-2.12159">
        <ele>57.529243</ele>
        <time>2017-04-26T08:55:35Z</time>
      </trkpt>
      <trkpt lat="47.68792" lon="-2.1217">
        <ele>55.471867</ele>
        <time>2017-04-26T08:55:41Z</time>
      </trkpt>
      <trkpt lat="47.6882" lon="-2.12182">
        <ele>54.598015</ele>
        <time>2017-04-26T08:55:47Z</time>
      </trkpt>
      <trkpt lat="47.68842" lon="-2.12197">
        <ele>50.712334</ele>
        <time>2017-04-26T08:55:53Z</time>
      </trkpt>
      <trkpt lat="47.68863" lon="-2.12223">
        <ele>51.52862</ele>
        <time>2017-04-26T08:55:59Z</time>
      </trkpt>
      <trkpt lat="47.6888" lon="-2.12253">
        <ele>54.199566</ele>
        <time>2017-04-26T08:56:05Z</time>
      </trkpt>
      <trkpt lat="47.68897" lon="-2.12285">
        <ele>54.707123</ele>
        <time>2017-04-26T08:56:11Z</time>
      </trkpt>
      <trkpt lat="47.68912" lon="-2.12313">
        <ele>55.835426</ele>
        <time>2017-04-26T08:56:16Z</time>
      </trkpt>
      <trkpt lat="47.68926" lon="-2.12344">
        <ele>57.007504</ele>
        <time>2017-04-26T08:56:22Z</time>
      </trkpt>
      <trkpt lat="47.68942" lon="-2.12378">
        <ele>57.315594</ele>
        <time>2017-04-26T08:56:28Z</time>
      </trkpt>
      <trkpt lat="47.68956" lon="-2.1241">
        <ele>56.851673</ele>
        <time>2017-04-26T08:56:34Z</time>
      </trkpt>
      <trkpt lat="47.68974" lon="-2.1244">
        <ele>57.760513</ele>
        <time>2017-04-26T08:56:40Z</time>
      </trkpt>
      <trkpt lat="47.68993" lon="-2.12467">
        <ele>57.221653</ele>
        <time>2017-04-26T08:56:46Z</time>
      </trkpt>
      <trkpt lat="47.69009" lon="-2.12487">
        <ele>60.003235</ele>
        <time>2017-04-26T08:56:51Z</time>
      </trkpt>
      <trkpt lat="47.69028" lon="-2.12506">
        <ele>59.666042</ele>
        <time>2017-04-26T08:56:57Z</time>
      </trkpt>
      <trkpt lat="47.69052" lon="-2.12523">
        <ele>55.24359</ele>
        <time>2017-04-26T08:57:03Z</time>
      </trkpt>
      <trkpt lat="47.69081" lon="-2.12533">
        <ele>53.16316</ele>
        <time>2017-04-26T08:57:09Z</time>
      </trkpt>
      <trkpt lat="47.69106" lon="-2.12537">
        <ele>52.157322</ele>
        <time>2017-04-26T08:57:14Z</time>
      </trkpt>
      <trkpt lat="47.69136" lon="-2.12534">
        <ele>52.613415</ele>
        <time>2017-04-26T08:57:20Z</time>
      </trkpt>
      <trkpt lat="47.69163" lon="-2.12528">
        <ele>53.0097</ele>
        <time>2017-04-26T08:57:25Z</time>
      </trkpt>
      <trkpt lat="47.69187" lon="-2.12516">
        <ele>53.94967</ele>
        <time>2017-04-26T08:57:30Z</time>
      </trkpt>
      <trkpt lat="47.69216" lon="-2.12494">
        <ele>55.527615</ele>
        <time>2017-04-26T08:57:36Z</time>
      </trkpt>
      <trkpt lat="47.69239" lon="-2.1247">
        <ele>54.993073</ele>
        <time>2017-04-26T08:57:42Z</time>
      </trkpt>
      <trkpt lat="47.69258" lon="-2.12451">
        <ele>54.85116</ele>
        <time>2017-04-26T08:57:47Z</time>
      </trkpt>
      <trkpt lat="47.69283" lon="-2.12431">
        <ele>55.02367</ele>
        <time>2017-04-26T08:57:53Z</time>
      </trkpt>
      <trkpt lat="47.69307" lon="-2.12417">
        <ele>55.680397</ele>
        <time>2017-04-26T08:57:59Z</time>
      </trkpt>
      <trkpt lat="47.69331" lon="-2.12407">
        <ele>55.922066</ele>
        <time>2017-04-26T08:58:04Z</time>
      </trkpt>
      <trkpt lat="47.69358" lon="-2.12391">
        <ele>55.57607</ele>
        <time>2017-04-26T08:58:10Z</time>
      </trkpt>
      <trkpt lat="47.69379" lon="-2.1238">
        <ele>55.23105</ele>
        <time>2017-04-26T08:58:15Z</time>
      </trkpt>
      <trkpt lat="47.69401" lon="-2.12371">
        <ele>55.755497</ele>
        <time>2017-04-26T08:58:20Z</time>
      </trkpt>
      <trkpt lat="47.69428" lon="-2.12358">
        <ele>53.268456</ele>
        <time>2017-04-26T08:58:26Z</time>
      </trkpt>
      <trkpt lat="47.69455" lon="-2.12345">
        <ele>54.39296</ele>
        <time>2017-04-26T08:58:32Z</time>
      </trkpt>
      <trkpt lat="47.69477" lon="-2.12337">
        <ele>55.220905</ele>
        <time>2017-04-26T08:58:37Z</time>
      </trkpt>
      <trkpt lat="47.69505" lon="-2.12327">
        <ele>54.156322</ele>
        <time>2017-04-26T08:58:43Z</time>
      </trkpt>
      <trkpt lat="47.69532" lon="-2.12323">
        <ele>51.277863</ele>
        <time>2017-04-26T08:58:49Z</time>
      </trkpt>
      <trkpt lat="47.69556" lon="-2.12322">
        <ele>50.081856</ele>
        <time>2017-04-26T08:58:54Z</time>
      </trkpt>
      <trkpt lat="47.69583" lon="-2.12322">
        <ele>49.33929</ele>
        <time>2017-04-26T08:59:00Z</time>
      </trkpt>
      <trkpt lat="47.69608" lon="-2.12322">
        <ele>49.776226</ele>
        <time>2017-04-26T08:59:06Z</time>
      </trkpt>
      <trkpt lat="47.69635" lon="-2.12319">
        <ele>49.029476</ele>
        <time>2017-04-26T08:59:12Z</time>
      </trkpt>
      <trkpt lat="47.69665" lon="-2.1232">
        <ele>50.36716</ele>
        <time>2017-04-26T08:59:18Z</time>
      </trkpt>
      <trkpt lat="47.69687" lon="-2.1232">
        <ele>50.062214</ele>
        <time>2017-04-26T08:59:23Z</time>
      </trkpt>
      <trkpt lat="47.69714" lon="-2.1232">
        <ele>47.52137</ele>
        <time>2017-04-26T08:59:29Z</time>
      </trkpt>
      <trkpt lat="47.69738" lon="-2.12318">
        <ele>48.63435</ele>
        <time>2017-04-26T08:59:34Z</time>
      </trkpt>
      <trkpt lat="47.69764" lon="-2.12315">
        <ele>49.719234</ele>
        <time>2017-04-26T08:59:40Z</time>
      </trkpt>
      <trkpt lat="47.69789" lon="-2.12309">
        <ele>52.332058</ele>
        <time>2017-04-26T08:59:45Z</time>
      </trkpt>
      <trkpt lat="47.69815" lon="-2.12305">
        <ele>52.762226</ele>
        <time>2017-04-26T08:59:51Z</time>
      </trkpt>
      <trkpt lat="47.69843" lon="-2.12299">
        <ele>51.886696</ele>
        <time>2017-04-26T08:59:57Z</time>
      </trkpt>
      <trkpt lat="47.69865" lon="-2.12294">
        <ele>51.409428</ele>
        <time>2017-04-26T09:00:02Z</time>
      </trkpt>
      <trkpt lat="47.69889" lon="-2.12287">
        <ele>51.24093</ele>
        <time>2017-04-26T09:00:08Z</time>
      </trkpt>
      <trkpt lat="47.69911" lon="-2.12282">
        <ele>51.09928</ele>
        <time>2017-04-26T09:00:14Z</time>
      </trkpt>
      <trkpt lat="47.69929" lon="-2.12266">
        <ele>48.498943</ele>
        <time>2017-04-26T09:00:19Z</time>
      </trkpt>
      <trkpt lat="47.69952" lon="-2.12252">
        <ele>49.190235</ele>
        <time>2017-04-26T09:00:25Z</time>
      </trkpt>
      <trkpt lat="47.69976" lon="-2.12245">
        <ele>53.035347</ele>
        <time>2017-04-26T09:00:31Z</time>
      </trkpt>
      <trkpt lat="47.69994" lon="-2.12246">
        <ele>51.837353</ele>
        <time>2017-04-26T09:00:36Z</time>
      </trkpt>
      <trkpt lat="47.70019" lon="-2.12248">
        <ele>51.878674</ele>
        <time>2017-04-26T09:00:42Z</time>
      </trkpt>
      <trkpt lat="47.70038" lon="-2.12247">
        <ele>52.31755</ele>
        <time>2017-04-26T09:00:48Z</time>
      </trkpt>
      <trkpt lat="47.70064" lon="-2.12244">
        <ele>51.14847</ele>
        <time>2017-04-26T09:00:54Z</time>
      </trkpt>
      <trkpt lat="47.7009" lon="-2.12242">
        <ele>55.880795</ele>
        <time>2017-04-26T09:00:59Z</time>
      </trkpt>
      <trkpt lat="47.70112" lon="-2.12243">
        <ele>56.001694</ele>
        <time>2017-04-26T09:01:05Z</time>
      </trkpt>
      <trkpt lat="47.70128" lon="-2.12242">
        <ele>55.966534</ele>
        <time>2017-04-26T09:01:10Z</time>
      </trkpt>
      <trkpt lat="47.70152" lon="-2.1224">
        <ele>56.579365</ele>
        <time>2017-04-26T09:01:16Z</time>
      </trkpt>
      <trkpt lat="47.70174" lon="-2.12235">
        <ele>55.543514</ele>
        <time>2017-04-26T09:01:22Z</time>
      </trkpt>
      <trkpt lat="47.7019" lon="-2.12231">
        <ele>55.09007</ele>
        <time>2017-04-26T09:01:27Z</time>
      </trkpt>
      <trkpt lat="47.70215" lon="-2.12215">
        <ele>55.635918</ele>
        <time>2017-04-26T09:01:33Z</time>
      </trkpt>
      <trkpt lat="47.70237" lon="-2.12206">
        <ele>52.823612</ele>
        <time>2017-04-26T09:01:38Z</time>
      </trkpt>
      <trkpt lat="47.7026" lon="-2.12191">
        <ele>51.43242</ele>
        <time>2017-04-26T09:01:44Z</time>
      </trkpt>
      <trkpt lat="47.70283" lon="-2.12176">
        <ele>53.9739</ele>
        <time>2017-04-26T09:01:49Z</time>
      </trkpt>
      <trkpt lat="47.70306" lon="-2.1216">
        <ele>55.448235</ele>
        <time>2017-04-26T09:01:55Z</time>
      </trkpt>
      <trkpt lat="47.70327" lon="-2.12143">
        <ele>54.879227</ele>
        <time>2017-04-26T09:02:01Z</time>
      </trkpt>
      <trkpt lat="47.70346" lon="-2.12128">
        <ele>54.027668</ele>
        <time>2017-04-26T09:02:06Z</time>
      </trkpt>
      <trkpt lat="47.70369" lon="-2.12118">
        <ele>53.546253</ele>
        <time>2017-04-26T09:02:11Z</time>
      </trkpt>
      <trkpt lat="47.7039" lon="-2.12103">
        <ele>52.648277</ele>
        <time>2017-04-26T09:02:17Z</time>
      </trkpt>
      <trkpt lat="47.70409" lon="-2.12093">
        <ele>51.81171</ele>
        <time>2017-04-26T09:02:22Z</time>
      </trkpt>
      <trkpt lat="47.7043" lon="-2.12082">
        <ele>52.358547</ele>
        <time>2017-04-26T09:02:28Z</time>
      </trkpt>
      <trkpt lat="47.70449" lon="-2.1207">
        <ele>52.96245</ele>
        <time>2017-04-26T09:02:34Z</time>
      </trkpt>
      <trkpt lat="47.70466" lon="-2.12062">
        <ele>54.105602</ele>
        <time>2017-04-26T09:02:39Z</time>
      </trkpt>
      <trkpt lat="47.7049" lon="-2.12053">
        <ele>54.5172</ele>
        <time>2017-04-26T09:02:45Z</time>
      </trkpt>
      <trkpt lat="47.70508" lon="-2.12045">
        <ele>54.220078</ele>
        <time>2017-04-26T09:02:50Z</time>
      </trkpt>
      <trkpt lat="47.70533" lon="-2.12035">
        <ele>54.521667</ele>
        <time>2017-04-26T09:02:56Z</time>
      </trkpt>
      <trkpt lat="47.70551" lon="-2.12027">
        <ele>55.261654</ele>
        <time>2017-04-26T09:03:01Z</time>
      </trkpt>
      <trkpt lat="47.7057" lon="-2.12015">
        <ele>55.254692</ele>
        <time>2017-04-26T09:03:07Z</time>
      </trkpt>
      <trkpt lat="47.70579" lon="-2.12016">
        <ele>55.379227</ele>
        <time>2017-04-26T09:03:13Z</time>
      </trkpt>
      <trkpt lat="47.70585" lon="-2.12013">
        <ele>55.01125</ele>
        <time>2017-04-26T09:03:19Z</time>
      </trkpt>
      <trkpt lat="47.70602" lon="-2.12004">
        <ele>55.773632</ele>
        <time>2017-04-26T09:03:25Z</time>
      </trkpt>
      <trkpt lat="47.70622" lon="-2.11993">
        <ele>55.76512</ele>
        <time>2017-04-26T09:03:31Z</time>
      </trkpt>
      <trkpt lat="47.70637" lon="-2.11987">
        <ele>55.481407</ele>
        <time>2017-04-26T09:03:36Z</time>
      </trkpt>
      <trkpt lat="47.70654" lon="-2.11983">
        <ele>55.88416</ele>
        <time>2017-04-26T09:03:42Z</time>
      </trkpt>
      <trkpt lat="47.70669" lon="-2.11976">
        <ele>55.944817</ele>
        <time>2017-04-26T09:05:02Z</time>
      </trkpt>
      <trkpt lat="47.70682" lon="-2.11967">
        <ele>55.552326</ele>
        <time>2017-04-26T09:05:08Z</time>
      </trkpt>
      <trkpt lat="47.70699" lon="-2.11961">
        <ele>55.308727</ele>
        <time>2017-04-26T09:05:13Z</time>
      </trkpt>
      <trkpt lat="47.70712" lon="-2.11953">
        <ele>54.78355</ele>
        <time>2017-04-26T09:05:19Z</time>
      </trkpt>
      <trkpt lat="47.70722" lon="-2.11949">
        <ele>49.693962</ele>
        <time>2017-04-26T09:08:52Z</time>
      </trkpt>
      <trkpt lat="47.70745" lon="-2.11938">
        <ele>50.49465</ele>
        <time>2017-04-26T09:08:58Z</time>
      </trkpt>
      <trkpt lat="47.7076" lon="-2.11929">
        <ele>51.408535</ele>
        <time>2017-04-26T09:09:03Z</time>
      </trkpt>
      <trkpt lat="47.7078" lon="-2.11926">
        <ele>52.294132</ele>
        <time>2017-04-26T09:09:09Z</time>
      </trkpt>
      <trkpt lat="47.70799" lon="-2.11919">
        <ele>52.91129</ele>
        <time>2017-04-26T09:09:15Z</time>
      </trkpt>
      <trkpt lat="47.70819" lon="-2.11918">
        <ele>53.02029</ele>
        <time>2017-04-26T09:09:21Z</time>
      </trkpt>
      <trkpt lat="47.70836" lon="-2.11916">
        <ele>53.05581</ele>
        <time>2017-04-26T09:09:26Z</time>
      </trkpt>
      <trkpt lat="47.70854" lon="-2.11914">
        <ele>53.08954</ele>
        <time>2017-04-26T09:09:32Z</time>
      </trkpt>
      <trkpt lat="47.70874" lon="-2.11914">
        <ele>53.594513</ele>
        <time>2017-04-26T09:09:38Z</time>
      </trkpt>
      <trkpt lat="47.7089" lon="-2.11917">
        <ele>54.04427</ele>
        <time>2017-04-26T09:09:43Z</time>
      </trkpt>
      <trkpt lat="47.70915" lon="-2.11923">
        <ele>57.855267</ele>
        <time>2017-04-26T09:09:49Z</time>
      </trkpt>
      <trkpt lat="47.70932" lon="-2.11931">
        <ele>57.533607</ele>
        <time>2017-04-26T09:09:54Z</time>
      </trkpt>
      <trkpt lat="47.70957" lon="-2.11938">
        <ele>58.02867</ele>
        <time>2017-04-26T09:10:00Z</time>
      </trkpt>
      <trkpt lat="47.70977" lon="-2.11946">
        <ele>58.299107</ele>
        <time>2017-04-26T09:10:05Z</time>
      </trkpt>
      <trkpt lat="47.70995" lon="-2.11952">
        <ele>59.33454</ele>
        <time>2017-04-26T09:10:11Z</time>
      </trkpt>
      <trkpt lat="47.71012" lon="-2.11965">
        <ele>60.17163</ele>
        <time>2017-04-26T09:10:16Z</time>
      </trkpt>
      <trkpt lat="47.71034" lon="-2.11986">
        <ele>59.76575</ele>
        <time>2017-04-26T09:10:22Z</time>
      </trkpt>
      <trkpt lat="47.71051" lon="-2.12008">
        <ele>59.436127</ele>
        <time>2017-04-26T09:10:28Z</time>
      </trkpt>
      <trkpt lat="47.71063" lon="-2.12028">
        <ele>58.491077</ele>
        <time>2017-04-26T09:10:33Z</time>
      </trkpt>
      <trkpt lat="47.7108" lon="-2.12052">
        <ele>58.206726</ele>
        <time>2017-04-26T09:10:39Z</time>
      </trkpt>
      <trkpt lat="47.71095" lon="-2.1207">
        <ele>58.29693</ele>
        <time>2017-04-26T09:10:44Z</time>
      </trkpt>
      <trkpt lat="47.71106" lon="-2.12091">
        <ele>58.243675</ele>
        <time>2017-04-26T09:10:50Z</time>
      </trkpt>
      <trkpt lat="47.71118" lon="-2.12115">
        <ele>58.04189</ele>
        <time>2017-04-26T09:10:56Z</time>
      </trkpt>
      <trkpt lat="47.71128" lon="-2.12132">
        <ele>57.89543</ele>
        <time>2017-04-26T09:11:01Z</time>
      </trkpt>
      <trkpt lat="47.71143" lon="-2.12154">
        <ele>57.250427</ele>
        <time>2017-04-26T09:11:07Z</time>
      </trkpt>
      <trkpt lat="47.71156" lon="-2.12175">
        <ele>56.51491</ele>
        <time>2017-04-26T09:11:12Z</time>
      </trkpt>
      <trkpt lat="47.71173" lon="-2.12202">
        <ele>56.104942</ele>
        <time>2017-04-26T09:11:18Z</time>
      </trkpt>
      <trkpt lat="47.71186" lon="-2.12221">
        <ele>55.845978</ele>
        <time>2017-04-26T09:11:23Z</time>
      </trkpt>
      <trkpt lat="47.71201" lon="-2.12247">
        <ele>56.024757</ele>
        <time>2017-04-26T09:11:29Z</time>
      </trkpt>
      <trkpt lat="47.71218" lon="-2.12272">
        <ele>56.122913</ele>
        <time>2017-04-26T09:11:35Z</time>
      </trkpt>
      <trkpt lat="47.71233" lon="-2.12294">
        <ele>56.038708</ele>
        <time>2017-04-26T09:11:40Z</time>
      </trkpt>
      <trkpt lat="47.71247" lon="-2.1232">
        <ele>55.724503</ele>
        <time>2017-04-26T09:11:46Z</time>
      </trkpt>
      <trkpt lat="47.71265" lon="-2.12347">
        <ele>56.630333</ele>
        <time>2017-04-26T09:11:52Z</time>
      </trkpt>
      <trkpt lat="47.71286" lon="-2.12371">
        <ele>60.28397</ele>
        <time>2017-04-26T09:11:58Z</time>
      </trkpt>
      <trkpt lat="47.71297" lon="-2.12383">
        <ele>60.290665</ele>
        <time>2017-04-26T09:12:04Z</time>
      </trkpt>
      <trkpt lat="47.71304" lon="-2.12391">
        <ele>59.86075</ele>
        <time>2017-04-26T09:12:09Z</time>
      </trkpt>
      <trkpt lat="47.71327" lon="-2.12411">
        <ele>59.34239</ele>
        <time>2017-04-26T09:12:15Z</time>
      </trkpt>
      <trkpt lat="47.71342" lon="-2.12427">
        <ele>54.24983</ele>
        <time>2017-04-26T09:12:21Z</time>
      </trkpt>
      <trkpt lat="47.7136" lon="-2.12457">
        <ele>49.416073</ele>
        <time>2017-04-26T09:12:27Z</time>
      </trkpt>
      <trkpt lat="47.71371" lon="-2.12494">
        <ele>49.85742</ele>
        <time>2017-04-26T09:12:33Z</time>
      </trkpt>
      <trkpt lat="47.71375" lon="-2.12531">
        <ele>51.14363</ele>
        <time>2017-04-26T09:12:39Z</time>
      </trkpt>
      <trkpt lat="47.71379" lon="-2.1257">
        <ele>53.751823</ele>
        <time>2017-04-26T09:12:45Z</time>
      </trkpt>
      <trkpt lat="47.71387" lon="-2.12608">
        <ele>53.984406</ele>
        <time>2017-04-26T09:12:51Z</time>
      </trkpt>
      <trkpt lat="47.71392" lon="-2.12634">
        <ele>52.148254</ele>
        <time>2017-04-26T09:12:56Z</time>
      </trkpt>
      <trkpt lat="47.71397" lon="-2.12668">
        <ele>51.154568</ele>
        <time>2017-04-26T09:13:02Z</time>
      </trkpt>
      <trkpt lat="47.71402" lon="-2.12704">
        <ele>50.91823</ele>
        <time>2017-04-26T09:13:08Z</time>
      </trkpt>
      <trkpt lat="47.71407" lon="-2.12738">
        <ele>51.177143</ele>
        <time>2017-04-26T09:13:14Z</time>
      </trkpt>
      <trkpt lat="47.71412" lon="-2.12775">
        <ele>52.786667</ele>
        <time>2017-04-26T09:13:20Z</time>
      </trkpt>
      <trkpt lat="47.71416" lon="-2.12802">
        <ele>53.95574</ele>
        <time>2017-04-26T09:13:25Z</time>
      </trkpt>
      <trkpt lat="47.71424" lon="-2.12844">
        <ele>54.77602</ele>
        <time>2017-04-26T09:13:31Z</time>
      </trkpt>
      <trkpt lat="47.7143" lon="-2.12884">
        <ele>56.24358</ele>
        <time>2017-04-26T09:13:37Z</time>
      </trkpt>
      <trkpt lat="47.71435" lon="-2.1292">
        <ele>57.247234</ele>
        <time>2017-04-26T09:13:43Z</time>
      </trkpt>
      <trkpt lat="47.71443" lon="-2.12954">
        <ele>59.337486</ele>
        <time>2017-04-26T09:13:48Z</time>
      </trkpt>
      <trkpt lat="47.71446" lon="-2.12992">
        <ele>60.619816</ele>
        <time>2017-04-26T09:13:54Z</time>
      </trkpt>
      <trkpt lat="47.7145" lon="-2.13021">
        <ele>60.683697</ele>
        <time>2017-04-26T09:13:59Z</time>
      </trkpt>
      <trkpt lat="47.71455" lon="-2.13059">
        <ele>59.826805</ele>
        <time>2017-04-26T09:14:05Z</time>
      </trkpt>
      <trkpt lat="47.71462" lon="-2.13096">
        <ele>60.03868</ele>
        <time>2017-04-26T09:14:11Z</time>
      </trkpt>
      <trkpt lat="47.71466" lon="-2.1313">
        <ele>59.369724</ele>
        <time>2017-04-26T09:14:16Z</time>
      </trkpt>
      <trkpt lat="47.71472" lon="-2.13165">
        <ele>58.3334</ele>
        <time>2017-04-26T09:14:22Z</time>
      </trkpt>
      <trkpt lat="47.71476" lon="-2.13195">
        <ele>57.05454</ele>
        <time>2017-04-26T09:14:27Z</time>
      </trkpt>
      <trkpt lat="47.71482" lon="-2.13237">
        <ele>57.82257</ele>
        <time>2017-04-26T09:14:33Z</time>
      </trkpt>
      <trkpt lat="47.71488" lon="-2.13279">
        <ele>58.013573</ele>
        <time>2017-04-26T09:14:39Z</time>
      </trkpt>
      <trkpt lat="47.71496" lon="-2.13319">
        <ele>59.611202</ele>
        <time>2017-04-26T09:14:45Z</time>
      </trkpt>
      <trkpt lat="47.71502" lon="-2.13361">
        <ele>60.76082</ele>
        <time>2017-04-26T09:14:51Z</time>
      </trkpt>
      <trkpt lat="47.71507" lon="-2.13401">
        <ele>59.953262</ele>
        <time>2017-04-26T09:14:57Z</time>
      </trkpt>
      <trkpt lat="47.71513" lon="-2.13434">
        <ele>59.245</ele>
        <time>2017-04-26T09:15:02Z</time>
      </trkpt>
      <trkpt lat="47.71518" lon="-2.13466">
        <ele>59.005043</ele>
        <time>2017-04-26T09:15:07Z</time>
      </trkpt>
      <trkpt lat="47.71523" lon="-2.13505">
        <ele>57.728672</ele>
        <time>2017-04-26T09:15:13Z</time>
      </trkpt>
      <trkpt lat="47.71527" lon="-2.13544">
        <ele>56.73562</ele>
        <time>2017-04-26T09:15:19Z</time>
      </trkpt>
      <trkpt lat="47.71535" lon="-2.13583">
        <ele>58.441856</ele>
        <time>2017-04-26T09:15:25Z</time>
      </trkpt>
      <trkpt lat="47.7154" lon="-2.13624">
        <ele>57.95018</ele>
        <time>2017-04-26T09:15:31Z</time>
      </trkpt>
      <trkpt lat="47.71545" lon="-2.13657">
        <ele>58.72984</ele>
        <time>2017-04-26T09:15:36Z</time>
      </trkpt>
      <trkpt lat="47.71551" lon="-2.13697">
        <ele>60.430687</ele>
        <time>2017-04-26T09:15:42Z</time>
      </trkpt>
      <trkpt lat="47.71556" lon="-2.13724">
        <ele>59.90944</ele>
        <time>2017-04-26T09:15:47Z</time>
      </trkpt>
      <trkpt lat="47.71563" lon="-2.13765">
        <ele>59.390224</ele>
        <time>2017-04-26T09:15:53Z</time>
      </trkpt>
      <trkpt lat="47.71568" lon="-2.13796">
        <ele>57.11166</ele>
        <time>2017-04-26T09:15:58Z</time>
      </trkpt>
      <trkpt lat="47.71573" lon="-2.13834">
        <ele>57.296192</ele>
        <time>2017-04-26T09:16:04Z</time>
      </trkpt>
      <trkpt lat="47.71577" lon="-2.13873">
        <ele>57.468613</ele>
        <time>2017-04-26T09:16:10Z</time>
      </trkpt>
      <trkpt lat="47.71584" lon="-2.13912">
        <ele>57.93233</ele>
        <time>2017-04-26T09:16:16Z</time>
      </trkpt>
      <trkpt lat="47.7159" lon="-2.13946">
        <ele>59.263786</ele>
        <time>2017-04-26T09:16:21Z</time>
      </trkpt>
      <trkpt lat="47.71595" lon="-2.13982">
        <ele>59.067936</ele>
        <time>2017-04-26T09:16:27Z</time>
      </trkpt>
      <trkpt lat="47.71602" lon="-2.14019">
        <ele>57.627575</ele>
        <time>2017-04-26T09:16:33Z</time>
      </trkpt>
      <trkpt lat="47.71608" lon="-2.14053">
        <ele>56.390503</ele>
        <time>2017-04-26T09:16:39Z</time>
      </trkpt>
      <trkpt lat="47.71612" lon="-2.14084">
        <ele>55.988583</ele>
        <time>2017-04-26T09:16:44Z</time>
      </trkpt>
      <trkpt lat="47.71619" lon="-2.14127">
        <ele>56.649208</ele>
        <time>2017-04-26T09:16:50Z</time>
      </trkpt>
      <trkpt lat="47.71624" lon="-2.14159">
        <ele>55.720654</ele>
        <time>2017-04-26T09:16:55Z</time>
      </trkpt>
      <trkpt lat="47.71631" lon="-2.14191">
        <ele>53.91728</ele>
        <time>2017-04-26T09:17:00Z</time>
      </trkpt>
      <trkpt lat="47.71636" lon="-2.14228">
        <ele>52.31617</ele>
        <time>2017-04-26T09:17:06Z</time>
      </trkpt>
      <trkpt lat="47.7164" lon="-2.14266">
        <ele>52.184044</ele>
        <time>2017-04-26T09:17:12Z</time>
      </trkpt>
      <trkpt lat="47.71645" lon="-2.14295">
        <ele>52.56338</ele>
        <time>2017-04-26T09:17:17Z</time>
      </trkpt>
      <trkpt lat="47.71651" lon="-2.14334">
        <ele>52.490067</ele>
        <time>2017-04-26T09:17:23Z</time>
      </trkpt>
      <trkpt lat="47.71655" lon="-2.14366">
        <ele>52.66185</ele>
        <time>2017-04-26T09:17:28Z</time>
      </trkpt>
      <trkpt lat="47.71662" lon="-2.14402">
        <ele>52.26551</ele>
        <time>2017-04-26T09:17:34Z</time>
      </trkpt>
      <trkpt lat="47.71669" lon="-2.14441">
        <ele>50.083786</ele>
        <time>2017-04-26T09:17:40Z</time>
      </trkpt>
      <trkpt lat="47.71673" lon="-2.14483">
        <ele>50.192898</ele>
        <time>2017-04-26T09:17:46Z</time>
      </trkpt>
      <trkpt lat="47.71679" lon="-2.14515">
        <ele>50.642082</ele>
        <time>2017-04-26T09:17:51Z</time>
      </trkpt>
      <trkpt lat="47.71682" lon="-2.14552">
        <ele>49.323833</ele>
        <time>2017-04-26T09:17:57Z</time>
      </trkpt>
      <trkpt lat="47.71688" lon="-2.14595">
        <ele>50.216904</ele>
        <time>2017-04-26T09:18:03Z</time>
      </trkpt>
      <trkpt lat="47.71694" lon="-2.14631">
        <ele>50.8383</ele>
        <time>2017-04-26T09:18:09Z</time>
      </trkpt>
      <trkpt lat="47.717" lon="-2.14661">
        <ele>51.106236</ele>
        <time>2017-04-26T09:18:14Z</time>
      </trkpt>
      <trkpt lat="47.71702" lon="-2.14698">
        <ele>52.457985</ele>
        <time>2017-04-26T09:18:20Z</time>
      </trkpt>
      <trkpt lat="47.71709" lon="-2.14729">
        <ele>52.662697</ele>
        <time>2017-04-26T09:18:25Z</time>
      </trkpt>
      <trkpt lat="47.71715" lon="-2.14759">
        <ele>53.120827</ele>
        <time>2017-04-26T09:18:30Z</time>
      </trkpt>
      <trkpt lat="47.71719" lon="-2.1479">
        <ele>53.52019</ele>
        <time>2017-04-26T09:18:36Z</time>
      </trkpt>
      <trkpt lat="47.71723" lon="-2.14804">
        <ele>53.508644</ele>
        <time>2017-04-26T09:18:41Z</time>
      </trkpt>
      <trkpt lat="47.71729" lon="-2.14827">
        <ele>53.35189</ele>
        <time>2017-04-26T09:18:47Z</time>
      </trkpt>
      <trkpt lat="47.71734" lon="-2.14865">
        <ele>52.839703</ele>
        <time>2017-04-26T09:18:53Z</time>
      </trkpt>
      <trkpt lat="47.71737" lon="-2.149">
        <ele>52.123653</ele>
        <time>2017-04-26T09:18:59Z</time>
      </trkpt>
      <trkpt lat="47.71741" lon="-2.14928">
        <ele>51.177975</ele>
        <time>2017-04-26T09:19:04Z</time>
      </trkpt>
      <trkpt lat="47.71746" lon="-2.14965">
        <ele>52.71092</ele>
        <time>2017-04-26T09:19:10Z</time>
      </trkpt>
      <trkpt lat="47.7175" lon="-2.14995">
        <ele>52.29275</ele>
        <time>2017-04-26T09:19:15Z</time>
      </trkpt>
      <trkpt lat="47.71755" lon="-2.15025">
        <ele>52.324024</ele>
        <time>2017-04-26T09:19:20Z</time>
      </trkpt>
      <trkpt lat="47.7176" lon="-2.15058">
        <ele>53.27229</ele>
        <time>2017-04-26T09:19:25Z</time>
      </trkpt>
      <trkpt lat="47.71764" lon="-2.15088">
        <ele>51.31541</ele>
        <time>2017-04-26T09:19:30Z</time>
      </trkpt>
      <trkpt lat="47.7177" lon="-2.15125">
        <ele>51.440784</ele>
        <time>2017-04-26T09:19:36Z</time>
      </trkpt>
      <trkpt lat="47.71775" lon="-2.15157">
        <ele>51.34442</ele>
        <time>2017-04-26T09:19:42Z</time>
      </trkpt>
      <trkpt lat="47.71779" lon="-2.15186">
        <ele>51.094296</ele>
        <time>2017-04-26T09:19:47Z</time>
      </trkpt>
      <trkpt lat="47.71784" lon="-2.15219">
        <ele>50.14616</ele>
        <time>2017-04-26T09:19:53Z</time>
      </trkpt>
      <trkpt lat="47.71791" lon="-2.15259">
        <ele>50.868057</ele>
        <time>2017-04-26T09:19:59Z</time>
      </trkpt>
      <trkpt lat="47.71796" lon="-2.15296">
        <ele>50.033215</ele>
        <time>2017-04-26T09:20:05Z</time>
      </trkpt>
      <trkpt lat="47.71799" lon="-2.15332">
        <ele>48.428577</ele>
        <time>2017-04-26T09:20:11Z</time>
      </trkpt>
      <trkpt lat="47.71806" lon="-2.15364">
        <ele>49.27544</ele>
        <time>2017-04-26T09:20:16Z</time>
      </trkpt>
      <trkpt lat="47.71811" lon="-2.15399">
        <ele>48.204525</ele>
        <time>2017-04-26T09:20:22Z</time>
      </trkpt>
      <trkpt lat="47.71816" lon="-2.15432">
        <ele>49.15796</ele>
        <time>2017-04-26T09:20:27Z</time>
      </trkpt>
      <trkpt lat="47.71824" lon="-2.15468">
        <ele>48.210285</ele>
        <time>2017-04-26T09:20:33Z</time>
      </trkpt>
      <trkpt lat="47.7183" lon="-2.15505">
        <ele>48.565727</ele>
        <time>2017-04-26T09:20:39Z</time>
      </trkpt>
      <trkpt lat="47.71835" lon="-2.15532">
        <ele>48.684803</ele>
        <time>2017-04-26T09:20:44Z</time>
      </trkpt>
      <trkpt lat="47.71841" lon="-2.15557">
        <ele>48.989483</ele>
        <time>2017-04-26T09:20:49Z</time>
      </trkpt>
      <trkpt lat="47.71845" lon="-2.15567">
        <ele>49.836052</ele>
        <time>2017-04-26T09:21:53Z</time>
      </trkpt>
      <trkpt lat="47.71844" lon="-2.15599">
        <ele>50.13498</ele>
        <time>2017-04-26T09:21:59Z</time>
      </trkpt>
      <trkpt lat="47.71846" lon="-2.15623">
        <ele>49.935257</ele>
        <time>2017-04-26T09:22:04Z</time>
      </trkpt>
      <trkpt lat="47.71851" lon="-2.15655">
        <ele>49.704525</ele>
        <time>2017-04-26T09:22:10Z</time>
      </trkpt>
      <trkpt lat="47.71856" lon="-2.15692">
        <ele>49.822956</ele>
        <time>2017-04-26T09:22:16Z</time>
      </trkpt>
      <trkpt lat="47.71859" lon="-2.15725">
        <ele>48.21381</ele>
        <time>2017-04-26T09:22:21Z</time>
      </trkpt>
      <trkpt lat="47.71866" lon="-2.15758">
        <ele>48.217808</ele>
        <time>2017-04-26T09:22:27Z</time>
      </trkpt>
      <trkpt lat="47.71872" lon="-2.15787">
        <ele>47.840454</ele>
        <time>2017-04-26T09:22:32Z</time>
      </trkpt>
      <trkpt lat="47.71878" lon="-2.15827">
        <ele>50.274807</ele>
        <time>2017-04-26T09:22:38Z</time>
      </trkpt>
      <trkpt lat="47.71883" lon="-2.15861">
        <ele>52.384384</ele>
        <time>2017-04-26T09:22:44Z</time>
      </trkpt>
      <trkpt lat="47.71889" lon="-2.15894">
        <ele>53.001385</ele>
        <time>2017-04-26T09:22:50Z</time>
      </trkpt>
      <trkpt lat="47.71895" lon="-2.15929">
        <ele>51.629593</ele>
        <time>2017-04-26T09:22:56Z</time>
      </trkpt>
      <trkpt lat="47.71899" lon="-2.15958">
        <ele>50.286057</ele>
        <time>2017-04-26T09:23:01Z</time>
      </trkpt>
      <trkpt lat="47.71903" lon="-2.15988">
        <ele>50.732273</ele>
        <time>2017-04-26T09:23:06Z</time>
      </trkpt>
      <trkpt lat="47.71909" lon="-2.16023">
        <ele>51.802296</ele>
        <time>2017-04-26T09:23:12Z</time>
      </trkpt>
      <trkpt lat="47.71913" lon="-2.16056">
        <ele>48.846924</ele>
        <time>2017-04-26T09:23:18Z</time>
      </trkpt>
      <trkpt lat="47.71918" lon="-2.16091">
        <ele>48.673847</ele>
        <time>2017-04-26T09:23:24Z</time>
      </trkpt>
      <trkpt lat="47.71921" lon="-2.16119">
        <ele>48.78535</ele>
        <time>2017-04-26T09:23:29Z</time>
      </trkpt>
      <trkpt lat="47.71928" lon="-2.16157">
        <ele>49.37261</ele>
        <time>2017-04-26T09:23:35Z</time>
      </trkpt>
      <trkpt lat="47.71932" lon="-2.16186">
        <ele>49.488632</ele>
        <time>2017-04-26T09:23:40Z</time>
      </trkpt>
      <trkpt lat="47.71936" lon="-2.16223">
        <ele>50.79049</ele>
        <time>2017-04-26T09:23:46Z</time>
      </trkpt>
      <trkpt lat="47.71942" lon="-2.16257">
        <ele>50.809067</ele>
        <time>2017-04-26T09:23:52Z</time>
      </trkpt>
      <trkpt lat="47.71948" lon="-2.16297">
        <ele>50.002647</ele>
        <time>2017-04-26T09:23:58Z</time>
      </trkpt>
      <trkpt lat="47.71955" lon="-2.16335">
        <ele>51.85062</ele>
        <time>2017-04-26T09:24:04Z</time>
      </trkpt>
      <trkpt lat="47.71959" lon="-2.16368">
        <ele>51.46728</ele>
        <time>2017-04-26T09:24:09Z</time>
      </trkpt>
      <trkpt lat="47.71963" lon="-2.16399">
        <ele>49.347862</ele>
        <time>2017-04-26T09:24:14Z</time>
      </trkpt>
      <trkpt lat="47.71969" lon="-2.16439">
        <ele>48.819267</ele>
        <time>2017-04-26T09:24:20Z</time>
      </trkpt>
      <trkpt lat="47.71974" lon="-2.16474">
        <ele>49.304844</ele>
        <time>2017-04-26T09:24:25Z</time>
      </trkpt>
      <trkpt lat="47.71982" lon="-2.16516">
        <ele>50.031204</ele>
        <time>2017-04-26T09:24:31Z</time>
      </trkpt>
      <trkpt lat="47.71987" lon="-2.16549">
        <ele>50.05079</ele>
        <time>2017-04-26T09:24:36Z</time>
      </trkpt>
      <trkpt lat="47.71993" lon="-2.16588">
        <ele>49.517403</ele>
        <time>2017-04-26T09:24:42Z</time>
      </trkpt>
      <trkpt lat="47.71998" lon="-2.16626">
        <ele>49.20957</ele>
        <time>2017-04-26T09:24:48Z</time>
      </trkpt>
      <trkpt lat="47.72003" lon="-2.16664">
        <ele>48.88334</ele>
        <time>2017-04-26T09:24:54Z</time>
      </trkpt>
      <trkpt lat="47.72007" lon="-2.16694">
        <ele>49.1612</ele>
        <time>2017-04-26T09:24:59Z</time>
      </trkpt>
      <trkpt lat="47.72014" lon="-2.16727">
        <ele>49.106636</ele>
        <time>2017-04-26T09:25:05Z</time>
      </trkpt>
      <trkpt lat="47.72019" lon="-2.1676">
        <ele>48.27158</ele>
        <time>2017-04-26T09:25:11Z</time>
      </trkpt>
      <trkpt lat="47.72024" lon="-2.16802">
        <ele>49.303516</ele>
        <time>2017-04-26T09:25:17Z</time>
      </trkpt>
      <trkpt lat="47.72028" lon="-2.16833">
        <ele>50.1432</ele>
        <time>2017-04-26T09:25:22Z</time>
      </trkpt>
      <trkpt lat="47.72032" lon="-2.16872">
        <ele>50.928394</ele>
        <time>2017-04-26T09:25:28Z</time>
      </trkpt>
      <trkpt lat="47.72041" lon="-2.1691">
        <ele>51.566734</ele>
        <time>2017-04-26T09:25:34Z</time>
      </trkpt>
      <trkpt lat="47.72043" lon="-2.16938">
        <ele>51.790604</ele>
        <time>2017-04-26T09:25:40Z</time>
      </trkpt>
      <trkpt lat="47.72044" lon="-2.16949">
        <ele>52.336765</ele>
        <time>2017-04-26T09:25:45Z</time>
      </trkpt>
      <trkpt lat="47.72047" lon="-2.16959">
        <ele>52.97221</ele>
        <time>2017-04-26T09:25:50Z</time>
      </trkpt>
      <trkpt lat="47.72052" lon="-2.16988">
        <ele>52.96254</ele>
        <time>2017-04-26T09:25:56Z</time>
      </trkpt>
      <trkpt lat="47.72055" lon="-2.17024">
        <ele>48.952793</ele>
        <time>2017-04-26T09:26:02Z</time>
      </trkpt>
      <trkpt lat="47.72061" lon="-2.17062">
        <ele>48.625053</ele>
        <time>2017-04-26T09:26:08Z</time>
      </trkpt>
      <trkpt lat="47.72068" lon="-2.17097">
        <ele>49.011105</ele>
        <time>2017-04-26T09:26:13Z</time>
      </trkpt>
      <trkpt lat="47.72072" lon="-2.17131">
        <ele>49.552803</ele>
        <time>2017-04-26T09:26:18Z</time>
      </trkpt>
      <trkpt lat="47.72076" lon="-2.17158">
        <ele>50.264854</ele>
        <time>2017-04-26T09:26:23Z</time>
      </trkpt>
      <trkpt lat="47.72081" lon="-2.1719">
        <ele>51.084248</ele>
        <time>2017-04-26T09:26:29Z</time>
      </trkpt>
      <trkpt lat="47.72086" lon="-2.17218">
        <ele>51.50385</ele>
        <time>2017-04-26T09:26:34Z</time>
      </trkpt>
      <trkpt lat="47.72094" lon="-2.17245">
        <ele>51.37539</ele>
        <time>2017-04-26T09:26:39Z</time>
      </trkpt>
      <trkpt lat="47.72101" lon="-2.17285">
        <ele>49.85194</ele>
        <time>2017-04-26T09:26:45Z</time>
      </trkpt>
      <trkpt lat="47.72108" lon="-2.17321">
        <ele>50.21138</ele>
        <time>2017-04-26T09:26:51Z</time>
      </trkpt>
      <trkpt lat="47.7211" lon="-2.17362">
        <ele>50.46311</ele>
        <time>2017-04-26T09:26:57Z</time>
      </trkpt>
      <trkpt lat="47.72114" lon="-2.17392">
        <ele>50.100124</ele>
        <time>2017-04-26T09:27:02Z</time>
      </trkpt>
      <trkpt lat="47.72119" lon="-2.17428">
        <ele>50.13442</ele>
        <time>2017-04-26T09:27:08Z</time>
      </trkpt>
      <trkpt lat="47.72122" lon="-2.17457">
        <ele>50.30074</ele>
        <time>2017-04-26T09:27:13Z</time>
      </trkpt>
      <trkpt lat="47.72126" lon="-2.17487">
        <ele>50.143734</ele>
        <time>2017-04-26T09:27:19Z</time>
      </trkpt>
      <trkpt lat="47.72131" lon="-2.17523">
        <ele>49.138733</ele>
        <time>2017-04-26T09:27:24Z</time>
      </trkpt>
      <trkpt lat="47.72136" lon="-2.17555">
        <ele>49.04926</ele>
        <time>2017-04-26T09:27:29Z</time>
      </trkpt>
      <trkpt lat="47.72141" lon="-2.17588">
        <ele>48.484127</ele>
        <time>2017-04-26T09:27:34Z</time>
      </trkpt>
      <trkpt lat="47.72147" lon="-2.17624">
        <ele>48.632973</ele>
        <time>2017-04-26T09:27:40Z</time>
      </trkpt>
      <trkpt lat="47.72151" lon="-2.17653">
        <ele>48.102432</ele>
        <time>2017-04-26T09:27:45Z</time>
      </trkpt>
      <trkpt lat="47.72155" lon="-2.17689">
        <ele>47.51483</ele>
        <time>2017-04-26T09:27:51Z</time>
      </trkpt>
      <trkpt lat="47.72161" lon="-2.17733">
        <ele>47.04845</ele>
        <time>2017-04-26T09:27:57Z</time>
      </trkpt>
      <trkpt lat="47.72168" lon="-2.1777">
        <ele>47.35024</ele>
        <time>2017-04-26T09:28:03Z</time>
      </trkpt>
      <trkpt lat="47.72175" lon="-2.1781">
        <ele>47.448017</ele>
        <time>2017-04-26T09:28:09Z</time>
      </trkpt>
      <trkpt lat="47.72179" lon="-2.17841">
        <ele>45.24853</ele>
        <time>2017-04-26T09:28:14Z</time>
      </trkpt>
      <trkpt lat="47.72185" lon="-2.17875">
        <ele>46.976254</ele>
        <time>2017-04-26T09:28:19Z</time>
      </trkpt>
      <trkpt lat="47.72191" lon="-2.17909">
        <ele>47.67599</ele>
        <time>2017-04-26T09:28:25Z</time>
      </trkpt>
      <trkpt lat="47.72196" lon="-2.17947">
        <ele>46.993023</ele>
        <time>2017-04-26T09:28:31Z</time>
      </trkpt>
      <trkpt lat="47.72201" lon="-2.17985">
        <ele>47.87933</ele>
        <time>2017-04-26T09:28:37Z</time>
      </trkpt>
      <trkpt lat="47.72208" lon="-2.1802">
        <ele>47.9567</ele>
        <time>2017-04-26T09:28:43Z</time>
      </trkpt>
      <trkpt lat="47.72213" lon="-2.18051">
        <ele>46.63202</ele>
        <time>2017-04-26T09:28:49Z</time>
      </trkpt>
      <trkpt lat="47.72218" lon="-2.18091">
        <ele>45.602486</ele>
        <time>2017-04-26T09:28:55Z</time>
      </trkpt>
      <trkpt lat="47.72223" lon="-2.18123">
        <ele>41.42731</ele>
        <time>2017-04-26T09:29:00Z</time>
      </trkpt>
      <trkpt lat="47.7223" lon="-2.18158">
        <ele>40.09287</ele>
        <time>2017-04-26T09:29:06Z</time>
      </trkpt>
      <trkpt lat="47.72235" lon="-2.18196">
        <ele>40.709267</ele>
        <time>2017-04-26T09:29:12Z</time>
      </trkpt>
      <trkpt lat="47.72239" lon="-2.1823">
        <ele>43.32255</ele>
        <time>2017-04-26T09:29:17Z</time>
      </trkpt>
      <trkpt lat="47.72245" lon="-2.18271">
        <ele>43.27334</ele>
        <time>2017-04-26T09:29:23Z</time>
      </trkpt>
      <trkpt lat="47.72251" lon="-2.18307">
        <ele>42.785103</ele>
        <time>2017-04-26T09:29:29Z</time>
      </trkpt>
      <trkpt lat="47.72259" lon="-2.18348">
        <ele>45.321014</ele>
        <time>2017-04-26T09:29:35Z</time>
      </trkpt>
      <trkpt lat="47.7226" lon="-2.18384">
        <ele>47.06592</ele>
        <time>2017-04-26T09:29:41Z</time>
      </trkpt>
      <trkpt lat="47.72263" lon="-2.18412">
        <ele>47.3095</ele>
        <time>2017-04-26T09:29:47Z</time>
      </trkpt>
      <trkpt lat="47.72268" lon="-2.18416">
        <ele>47.701878</ele>
        <time>2017-04-26T09:29:52Z</time>
      </trkpt>
      <trkpt lat="47.72271" lon="-2.18431">
        <ele>51.53406</ele>
        <time>2017-04-26T09:32:53Z</time>
      </trkpt>
      <trkpt lat="47.72275" lon="-2.18446">
        <ele>51.2343</ele>
        <time>2017-04-26T09:32:58Z</time>
      </trkpt>
      <trkpt lat="47.72279" lon="-2.18471">
        <ele>50.816708</ele>
        <time>2017-04-26T09:33:03Z</time>
      </trkpt>
      <trkpt lat="47.72285" lon="-2.18499">
        <ele>50.91486</ele>
        <time>2017-04-26T09:33:08Z</time>
      </trkpt>
      <trkpt lat="47.72292" lon="-2.1853">
        <ele>51.31062</ele>
        <time>2017-04-26T09:33:14Z</time>
      </trkpt>
      <trkpt lat="47.72295" lon="-2.18561">
        <ele>51.0481</ele>
        <time>2017-04-26T09:33:20Z</time>
      </trkpt>
      <trkpt lat="47.723" lon="-2.18595">
        <ele>52.381348</ele>
        <time>2017-04-26T09:33:26Z</time>
      </trkpt>
      <trkpt lat="47.72305" lon="-2.18626">
        <ele>52.582806</ele>
        <time>2017-04-26T09:33:31Z</time>
      </trkpt>
      <trkpt lat="47.72311" lon="-2.18662">
        <ele>54.377586</ele>
        <time>2017-04-26T09:33:37Z</time>
      </trkpt>
      <trkpt lat="47.72316" lon="-2.18689">
        <ele>51.66932</ele>
        <time>2017-04-26T09:33:42Z</time>
      </trkpt>
      <trkpt lat="47.7232" lon="-2.18725">
        <ele>52.303482</ele>
        <time>2017-04-26T09:33:48Z</time>
      </trkpt>
      <trkpt lat="47.72322" lon="-2.18752">
        <ele>54.26913</ele>
        <time>2017-04-26T09:33:53Z</time>
      </trkpt>
      <trkpt lat="47.72327" lon="-2.18789">
        <ele>56.15738</ele>
        <time>2017-04-26T09:33:59Z</time>
      </trkpt>
      <trkpt lat="47.7233" lon="-2.18824">
        <ele>55.806793</ele>
        <time>2017-04-26T09:34:05Z</time>
      </trkpt>
      <trkpt lat="47.72331" lon="-2.18853">
        <ele>55.156895</ele>
        <time>2017-04-26T09:34:10Z</time>
      </trkpt>
      <trkpt lat="47.72333" lon="-2.18881">
        <ele>55.03499</ele>
        <time>2017-04-26T09:34:15Z</time>
      </trkpt>
      <trkpt lat="47.72334" lon="-2.18919">
        <ele>53.92358</ele>
        <time>2017-04-26T09:34:21Z</time>
      </trkpt>
      <trkpt lat="47.72333" lon="-2.18954">
        <ele>51.45397</ele>
        <time>2017-04-26T09:34:26Z</time>
      </trkpt>
      <trkpt lat="47.72332" lon="-2.18988">
        <ele>52.65584</ele>
        <time>2017-04-26T09:34:32Z</time>
      </trkpt>
      <trkpt lat="47.72333" lon="-2.19018">
        <ele>53.254143</ele>
        <time>2017-04-26T09:34:37Z</time>
      </trkpt>
      <trkpt lat="47.72331" lon="-2.19057">
        <ele>55.00469</ele>
        <time>2017-04-26T09:34:43Z</time>
      </trkpt>
      <trkpt lat="47.72331" lon="-2.19098">
        <ele>57.01436</ele>
        <time>2017-04-26T09:34:49Z</time>
      </trkpt>
      <trkpt lat="47.7233" lon="-2.19135">
        <ele>58.879208</ele>
        <time>2017-04-26T09:34:55Z</time>
      </trkpt>
      <trkpt lat="47.72332" lon="-2.19172">
        <ele>60.904167</ele>
        <time>2017-04-26T09:35:01Z</time>
      </trkpt>
      <trkpt lat="47.72335" lon="-2.19201">
        <ele>61.894634</ele>
        <time>2017-04-26T09:35:06Z</time>
      </trkpt>
      <trkpt lat="47.72343" lon="-2.19242">
        <ele>59.85311</ele>
        <time>2017-04-26T09:35:12Z</time>
      </trkpt>
      <trkpt lat="47.72349" lon="-2.1928">
        <ele>56.98792</ele>
        <time>2017-04-26T09:35:18Z</time>
      </trkpt>
      <trkpt lat="47.72354" lon="-2.19315">
        <ele>56.069942</ele>
        <time>2017-04-26T09:35:23Z</time>
      </trkpt>
      <trkpt lat="47.72353" lon="-2.19351">
        <ele>55.880028</ele>
        <time>2017-04-26T09:35:29Z</time>
      </trkpt>
      <trkpt lat="47.72352" lon="-2.1939">
        <ele>52.942066</ele>
        <time>2017-04-26T09:35:35Z</time>
      </trkpt>
      <trkpt lat="47.72349" lon="-2.1943">
        <ele>52.93214</ele>
        <time>2017-04-26T09:35:41Z</time>
      </trkpt>
      <trkpt lat="47.72347" lon="-2.19465">
        <ele>54.817036</ele>
        <time>2017-04-26T09:35:46Z</time>
      </trkpt>
      <trkpt lat="47.72346" lon="-2.19508">
        <ele>55.5168</ele>
        <time>2017-04-26T09:35:52Z</time>
      </trkpt>
      <trkpt lat="47.7234" lon="-2.19549">
        <ele>58.31964</ele>
        <time>2017-04-26T09:35:58Z</time>
      </trkpt>
      <trkpt lat="47.72338" lon="-2.19576">
        <ele>58.466167</ele>
        <time>2017-04-26T09:36:03Z</time>
      </trkpt>
      <trkpt lat="47.72347" lon="-2.19609">
        <ele>57.513218</ele>
        <time>2017-04-26T09:36:09Z</time>
      </trkpt>
      <trkpt lat="47.72355" lon="-2.19642">
        <ele>56.20574</ele>
        <time>2017-04-26T09:36:14Z</time>
      </trkpt>
      <trkpt lat="47.72358" lon="-2.19672">
        <ele>56.778873</ele>
        <time>2017-04-26T09:36:19Z</time>
      </trkpt>
      <trkpt lat="47.72367" lon="-2.19708">
        <ele>57.70116</ele>
        <time>2017-04-26T09:36:25Z</time>
      </trkpt>
      <trkpt lat="47.72376" lon="-2.19743">
        <ele>57.648846</ele>
        <time>2017-04-26T09:36:30Z</time>
      </trkpt>
      <trkpt lat="47.72383" lon="-2.19781">
        <ele>56.86515</ele>
        <time>2017-04-26T09:36:36Z</time>
      </trkpt>
      <trkpt lat="47.7239" lon="-2.1982">
        <ele>59.02577</ele>
        <time>2017-04-26T09:36:42Z</time>
      </trkpt>
      <trkpt lat="47.72395" lon="-2.19853">
        <ele>56.90443</ele>
        <time>2017-04-26T09:36:47Z</time>
      </trkpt>
      <trkpt lat="47.72399" lon="-2.19895">
        <ele>55.71695</ele>
        <time>2017-04-26T09:36:53Z</time>
      </trkpt>
      <trkpt lat="47.72401" lon="-2.19935">
        <ele>55.470783</ele>
        <time>2017-04-26T09:36:59Z</time>
      </trkpt>
      <trkpt lat="47.72402" lon="-2.1997">
        <ele>55.80468</ele>
        <time>2017-04-26T09:37:05Z</time>
      </trkpt>
      <trkpt lat="47.72403" lon="-2.20008">
        <ele>57.6985</ele>
        <time>2017-04-26T09:37:11Z</time>
      </trkpt>
      <trkpt lat="47.72409" lon="-2.20048">
        <ele>56.416294</ele>
        <time>2017-04-26T09:37:17Z</time>
      </trkpt>
      <trkpt lat="47.7242" lon="-2.20085">
        <ele>56.266937</ele>
        <time>2017-04-26T09:37:23Z</time>
      </trkpt>
      <trkpt lat="47.7243" lon="-2.20119">
        <ele>54.446278</ele>
        <time>2017-04-26T09:37:29Z</time>
      </trkpt>
      <trkpt lat="47.72436" lon="-2.20155">
        <ele>54.557827</ele>
        <time>2017-04-26T09:37:35Z</time>
      </trkpt>
      <trkpt lat="47.72439" lon="-2.20183">
        <ele>54.42203</ele>
        <time>2017-04-26T09:37:40Z</time>
      </trkpt>
      <trkpt lat="47.72441" lon="-2.2022">
        <ele>51.661064</ele>
        <time>2017-04-26T09:37:46Z</time>
      </trkpt>
      <trkpt lat="47.72438" lon="-2.20264">
        <ele>54.658768</ele>
        <time>2017-04-26T09:37:52Z</time>
      </trkpt>
      <trkpt lat="47.72436" lon="-2.20302">
        <ele>56.579758</ele>
        <time>2017-04-26T09:37:58Z</time>
      </trkpt>
      <trkpt lat="47.72432" lon="-2.20336">
        <ele>53.83544</ele>
        <time>2017-04-26T09:38:04Z</time>
      </trkpt>
      <trkpt lat="47.7243" lon="-2.2037">
        <ele>54.08602</ele>
        <time>2017-04-26T09:38:10Z</time>
      </trkpt>
      <trkpt lat="47.72427" lon="-2.20407">
        <ele>55.297558</ele>
        <time>2017-04-26T09:38:16Z</time>
      </trkpt>
      <trkpt lat="47.72424" lon="-2.20439">
        <ele>55.279774</ele>
        <time>2017-04-26T09:38:21Z</time>
      </trkpt>
      <trkpt lat="47.72424" lon="-2.20473">
        <ele>55.778027</ele>
        <time>2017-04-26T09:38:27Z</time>
      </trkpt>
      <trkpt lat="47.72421" lon="-2.20508">
        <ele>56.310036</ele>
        <time>2017-04-26T09:38:33Z</time>
      </trkpt>
      <trkpt lat="47.72421" lon="-2.20542">
        <ele>58.944435</ele>
        <time>2017-04-26T09:38:39Z</time>
      </trkpt>
      <trkpt lat="47.72424" lon="-2.20568">
        <ele>60.726437</ele>
        <time>2017-04-26T09:38:44Z</time>
      </trkpt>
      <trkpt lat="47.72428" lon="-2.20596">
        <ele>61.06803</ele>
        <time>2017-04-26T09:38:50Z</time>
      </trkpt>
      <trkpt lat="47.72431" lon="-2.20629">
        <ele>60.77716</ele>
        <time>2017-04-26T09:38:56Z</time>
      </trkpt>
      <trkpt lat="47.72429" lon="-2.20662">
        <ele>59.02856</ele>
        <time>2017-04-26T09:39:01Z</time>
      </trkpt>
      <trkpt lat="47.7243" lon="-2.20692">
        <ele>59.31946</ele>
        <time>2017-04-26T09:39:07Z</time>
      </trkpt>
      <trkpt lat="47.72435" lon="-2.20724">
        <ele>59.0912</ele>
        <time>2017-04-26T09:39:13Z</time>
      </trkpt>
      <trkpt lat="47.72441" lon="-2.20755">
        <ele>58.871</ele>
        <time>2017-04-26T09:39:18Z</time>
      </trkpt>
      <trkpt lat="47.7245" lon="-2.20784">
        <ele>57.879787</ele>
        <time>2017-04-26T09:39:24Z</time>
      </trkpt>
      <trkpt lat="47.72454" lon="-2.20815">
        <ele>57.313843</ele>
        <time>2017-04-26T09:39:30Z</time>
      </trkpt>
      <trkpt lat="47.72456" lon="-2.20847">
        <ele>57.098843</ele>
        <time>2017-04-26T09:39:36Z</time>
      </trkpt>
      <trkpt lat="47.72453" lon="-2.2088">
        <ele>57.02631</ele>
        <time>2017-04-26T09:39:42Z</time>
      </trkpt>
      <trkpt lat="47.72449" lon="-2.20911">
        <ele>56.54107</ele>
        <time>2017-04-26T09:39:48Z</time>
      </trkpt>
      <trkpt lat="47.72445" lon="-2.20936">
        <ele>56.016407</ele>
        <time>2017-04-26T09:39:53Z</time>
      </trkpt>
      <trkpt lat="47.72445" lon="-2.20961">
        <ele>56.062027</ele>
        <time>2017-04-26T09:39:58Z</time>
      </trkpt>
      <trkpt lat="47.72446" lon="-2.2099">
        <ele>56.741016</ele>
        <time>2017-04-26T09:40:04Z</time>
      </trkpt>
      <trkpt lat="47.72448" lon="-2.21021">
        <ele>56.576763</ele>
        <time>2017-04-26T09:40:10Z</time>
      </trkpt>
      <trkpt lat="47.72451" lon="-2.21048">
        <ele>56.52082</ele>
        <time>2017-04-26T09:40:15Z</time>
      </trkpt>
      <trkpt lat="47.72456" lon="-2.21078">
        <ele>56.665665</ele>
        <time>2017-04-26T09:40:21Z</time>
      </trkpt>
      <trkpt lat="47.7246" lon="-2.21104">
        <ele>56.6421</ele>
        <time>2017-04-26T09:40:26Z</time>
      </trkpt>
      <trkpt lat="47.72459" lon="-2.21132">
        <ele>56.602974</ele>
        <time>2017-04-26T09:40:31Z</time>
      </trkpt>
      <trkpt lat="47.72461" lon="-2.21159">
        <ele>56.54678</ele>
        <time>2017-04-26T09:40:37Z</time>
      </trkpt>
      <trkpt lat="47.72464" lon="-2.21188">
        <ele>56.64129</ele>
        <time>2017-04-26T09:40:43Z</time>
      </trkpt>
      <trkpt lat="47.7247" lon="-2.2122">
        <ele>57.46683</ele>
        <time>2017-04-26T09:40:49Z</time>
      </trkpt>
      <trkpt lat="47.72486" lon="-2.21251">
        <ele>58.733288</ele>
        <time>2017-04-26T09:40:55Z</time>
      </trkpt>
      <trkpt lat="47.72501" lon="-2.21278">
        <ele>58.995388</ele>
        <time>2017-04-26T09:41:01Z</time>
      </trkpt>
      <trkpt lat="47.72513" lon="-2.21306">
        <ele>57.235962</ele>
        <time>2017-04-26T09:41:07Z</time>
      </trkpt>
      <trkpt lat="47.72515" lon="-2.21335">
        <ele>57.373276</ele>
        <time>2017-04-26T09:41:13Z</time>
      </trkpt>
      <trkpt lat="47.72508" lon="-2.21352">
        <ele>57.504314</ele>
        <time>2017-04-26T09:41:19Z</time>
      </trkpt>
      <trkpt lat="47.72504" lon="-2.21363">
        <ele>57.41779</ele>
        <time>2017-04-26T09:41:25Z</time>
      </trkpt>
      <trkpt lat="47.72498" lon="-2.2136">
        <ele>57.92007</ele>
        <time>2017-04-26T09:41:31Z</time>
      </trkpt>
      <trkpt lat="47.72491" lon="-2.21361">
        <ele>58.093445</ele>
        <time>2017-04-26T09:41:37Z</time>
      </trkpt>
      <trkpt lat="47.72487" lon="-2.21365">
        <ele>57.69736</ele>
        <time>2017-04-26T09:41:43Z</time>
      </trkpt>
      <trkpt lat="47.72467" lon="-2.21371">
        <ele>57.23904</ele>
        <time>2017-04-26T09:42:05Z</time>
      </trkpt>
      <trkpt lat="47.72472" lon="-2.21375">
        <ele>59.692772</ele>
        <time>2017-04-26T09:43:06Z</time>
      </trkpt>
      <trkpt lat="47.72469" lon="-2.21383">
        <ele>59.840588</ele>
        <time>2017-04-26T09:43:12Z</time>
      </trkpt>
      <trkpt lat="47.72459" lon="-2.21388">
        <ele>60.18274</ele>
        <time>2017-04-26T09:43:17Z</time>
      </trkpt>
      <trkpt lat="47.72445" lon="-2.21392">
        <ele>60.699577</ele>
        <time>2017-04-26T09:43:23Z</time>
      </trkpt>
      <trkpt lat="47.72435" lon="-2.21395">
        <ele>60.94533</ele>
        <time>2017-04-26T09:43:28Z</time>
      </trkpt>
      <trkpt lat="47.72424" lon="-2.21398">
        <ele>61.073074</ele>
        <time>2017-04-26T09:43:34Z</time>
      </trkpt>
      <trkpt lat="47.72413" lon="-2.21399">
        <ele>61.539215</ele>
        <time>2017-04-26T09:43:39Z</time>
      </trkpt>
      <trkpt lat="47.72402" lon="-2.21398">
        <ele>62.61896</ele>
        <time>2017-04-26T09:43:44Z</time>
      </trkpt>
      <trkpt lat="47.72386" lon="-2.21396">
        <ele>63.765514</ele>
        <time>2017-04-26T09:43:50Z</time>
      </trkpt>
      <trkpt lat="47.72372" lon="-2.21395">
        <ele>64.48692</ele>
        <time>2017-04-26T09:43:56Z</time>
      </trkpt>
      <trkpt lat="47.72357" lon="-2.21398">
        <ele>65.3045</ele>
        <time>2017-04-26T09:44:02Z</time>
      </trkpt>
      <trkpt lat="47.72343" lon="-2.21401">
        <ele>65.98736</ele>
        <time>2017-04-26T09:44:08Z</time>
      </trkpt>
      <trkpt lat="47.72332" lon="-2.21401">
        <ele>67.408035</ele>
        <time>2017-04-26T09:44:14Z</time>
      </trkpt>
      <trkpt lat="47.7232" lon="-2.21403">
        <ele>68.63731</ele>
        <time>2017-04-26T09:44:19Z</time>
      </trkpt>
      <trkpt lat="47.72305" lon="-2.21409">
        <ele>69.99226</ele>
        <time>2017-04-26T09:44:25Z</time>
      </trkpt>
      <trkpt lat="47.72289" lon="-2.21414">
        <ele>70.90615</ele>
        <time>2017-04-26T09:44:31Z</time>
      </trkpt>
      <trkpt lat="47.72277" lon="-2.21423">
        <ele>71.785385</ele>
        <time>2017-04-26T09:44:37Z</time>
      </trkpt>
      <trkpt lat="47.72266" lon="-2.21428">
        <ele>72.62866</ele>
        <time>2017-04-26T09:44:43Z</time>
      </trkpt>
      <trkpt lat="47.7226" lon="-2.21434">
        <ele>72.98563</ele>
        <time>2017-04-26T09:44:48Z</time>
      </trkpt>
      <trkpt lat="47.72248" lon="-2.21441">
        <ele>73.32513</ele>
        <time>2017-04-26T09:44:54Z</time>
      </trkpt>
      <trkpt lat="47.72236" lon="-2.21447">
        <ele>73.849815</ele>
        <time>2017-04-26T09:44:59Z</time>
      </trkpt>
      <trkpt lat="47.72226" lon="-2.21448">
        <ele>74.665184</ele>
        <time>2017-04-26T09:45:05Z</time>
      </trkpt>
      <trkpt lat="47.72216" lon="-2.21449">
        <ele>75.562195</ele>
        <time>2017-04-26T09:45:10Z</time>
      </trkpt>
      <trkpt lat="47.72206" lon="-2.2145">
        <ele>76.380486</ele>
        <time>2017-04-26T09:45:16Z</time>
      </trkpt>
      <trkpt lat="47.72195" lon="-2.2145">
        <ele>77.09758</ele>
        <time>2017-04-26T09:45:21Z</time>
      </trkpt>
      <trkpt lat="47.72183" lon="-2.21445">
        <ele>77.61498</ele>
        <time>2017-04-26T09:45:27Z</time>
      </trkpt>
      <trkpt lat="47.72169" lon="-2.2144">
        <ele>78.02208</ele>
        <time>2017-04-26T09:45:33Z</time>
      </trkpt>
      <trkpt lat="47.72158" lon="-2.21431">
        <ele>78.53889</ele>
        <time>2017-04-26T09:45:39Z</time>
      </trkpt>
      <trkpt lat="47.72148" lon="-2.21421">
        <ele>78.92503</ele>
        <time>2017-04-26T09:45:44Z</time>
      </trkpt>
      <trkpt lat="47.72138" lon="-2.21418">
        <ele>78.91759</ele>
        <time>2017-04-26T09:45:49Z</time>
      </trkpt>
      <trkpt lat="47.72126" lon="-2.21411">
        <ele>78.17484</ele>
        <time>2017-04-26T09:45:55Z</time>
      </trkpt>
      <trkpt lat="47.72111" lon="-2.21404">
        <ele>77.57785</ele>
        <time>2017-04-26T09:46:01Z</time>
      </trkpt>
      <trkpt lat="47.72099" lon="-2.214">
        <ele>76.8887</ele>
        <time>2017-04-26T09:46:07Z</time>
      </trkpt>
      <trkpt lat="47.72087" lon="-2.21398">
        <ele>76.57961</ele>
        <time>2017-04-26T09:46:12Z</time>
      </trkpt>
      <trkpt lat="47.72072" lon="-2.21394">
        <ele>76.54807</ele>
        <time>2017-04-26T09:46:18Z</time>
      </trkpt>
      <trkpt lat="47.72061" lon="-2.21393">
        <ele>76.42454</ele>
        <time>2017-04-26T09:46:23Z</time>
      </trkpt>
      <trkpt lat="47.7205" lon="-2.21391">
        <ele>76.60303</ele>
        <time>2017-04-26T09:46:28Z</time>
      </trkpt>
      <trkpt lat="47.72036" lon="-2.2139">
        <ele>77.92739</ele>
        <time>2017-04-26T09:46:34Z</time>
      </trkpt>
      <trkpt lat="47.72019" lon="-2.2139">
        <ele>78.998535</ele>
        <time>2017-04-26T09:46:40Z</time>
      </trkpt>
      <trkpt lat="47.72008" lon="-2.21389">
        <ele>80.95612</ele>
        <time>2017-04-26T09:46:46Z</time>
      </trkpt>
      <trkpt lat="47.71997" lon="-2.2139">
        <ele>82.14149</ele>
        <time>2017-04-26T09:46:51Z</time>
      </trkpt>
      <trkpt lat="47.7198" lon="-2.21394">
        <ele>83.536995</ele>
        <time>2017-04-26T09:46:57Z</time>
      </trkpt>
      <trkpt lat="47.71963" lon="-2.21401">
        <ele>84.59586</ele>
        <time>2017-04-26T09:47:03Z</time>
      </trkpt>
      <trkpt lat="47.71953" lon="-2.21407">
        <ele>85.302155</ele>
        <time>2017-04-26T09:47:08Z</time>
      </trkpt>
      <trkpt lat="47.71942" lon="-2.21418">
        <ele>86.87218</ele>
        <time>2017-04-26T09:47:14Z</time>
      </trkpt>
      <trkpt lat="47.71932" lon="-2.21426">
        <ele>87.71671</ele>
        <time>2017-04-26T09:47:19Z</time>
      </trkpt>
      <trkpt lat="47.7192" lon="-2.21435">
        <ele>88.2323</ele>
        <time>2017-04-26T09:47:25Z</time>
      </trkpt>
      <trkpt lat="47.71909" lon="-2.21443">
        <ele>88.49276</ele>
        <time>2017-04-26T09:47:31Z</time>
      </trkpt>
      <trkpt lat="47.71899" lon="-2.21451">
        <ele>88.885376</ele>
        <time>2017-04-26T09:47:37Z</time>
      </trkpt>
      <trkpt lat="47.71889" lon="-2.21458">
        <ele>89.2204</ele>
        <time>2017-04-26T09:47:43Z</time>
      </trkpt>
      <trkpt lat="47.71876" lon="-2.2146">
        <ele>90.270256</ele>
        <time>2017-04-26T09:47:49Z</time>
      </trkpt>
      <trkpt lat="47.7186" lon="-2.21461">
        <ele>91.25834</ele>
        <time>2017-04-26T09:47:55Z</time>
      </trkpt>
      <trkpt lat="47.71848" lon="-2.21464">
        <ele>91.998314</ele>
        <time>2017-04-26T09:48:00Z</time>
      </trkpt>
      <trkpt lat="47.71836" lon="-2.21464">
        <ele>93.347984</ele>
        <time>2017-04-26T09:48:05Z</time>
      </trkpt>
      <trkpt lat="47.71823" lon="-2.21463">
        <ele>95.31332</ele>
        <time>2017-04-26T09:48:11Z</time>
      </trkpt>
      <trkpt lat="47.71811" lon="-2.21466">
        <ele>96.23015</ele>
        <time>2017-04-26T09:48:16Z</time>
      </trkpt>
      <trkpt lat="47.71796" lon="-2.2147">
        <ele>96.79833</ele>
        <time>2017-04-26T09:48:22Z</time>
      </trkpt>
      <trkpt lat="47.71784" lon="-2.21472">
        <ele>97.2969</ele>
        <time>2017-04-26T09:48:28Z</time>
      </trkpt>
      <trkpt lat="47.7177" lon="-2.21477">
        <ele>97.91338</ele>
        <time>2017-04-26T09:48:34Z</time>
      </trkpt>
      <trkpt lat="47.71755" lon="-2.2148">
        <ele>98.43033</ele>
        <time>2017-04-26T09:48:40Z</time>
      </trkpt>
      <trkpt lat="47.71744" lon="-2.21481">
        <ele>99.192986</ele>
        <time>2017-04-26T09:48:46Z</time>
      </trkpt>
      <trkpt lat="47.71735" lon="-2.21484">
        <ele>99.830666</ele>
        <time>2017-04-26T09:48:52Z</time>
      </trkpt>
      <trkpt lat="47.71722" lon="-2.21489">
        <ele>100.2634</ele>
        <time>2017-04-26T09:48:57Z</time>
      </trkpt>
      <trkpt lat="47.71708" lon="-2.21491">
        <ele>100.79466</ele>
        <time>2017-04-26T09:49:03Z</time>
      </trkpt>
      <trkpt lat="47.71694" lon="-2.21496">
        <ele>101.58701</ele>
        <time>2017-04-26T09:49:09Z</time>
      </trkpt>
      <trkpt lat="47.71682" lon="-2.21499">
        <ele>102.21024</ele>
        <time>2017-04-26T09:49:14Z</time>
      </trkpt>
      <trkpt lat="47.7167" lon="-2.21503">
        <ele>103.035484</ele>
        <time>2017-04-26T09:49:19Z</time>
      </trkpt>
      <trkpt lat="47.71654" lon="-2.21508">
        <ele>103.29457</ele>
        <time>2017-04-26T09:49:25Z</time>
      </trkpt>
      <trkpt lat="47.71641" lon="-2.21514">
        <ele>103.57051</ele>
        <time>2017-04-26T09:49:30Z</time>
      </trkpt>
      <trkpt lat="47.71629" lon="-2.21522">
        <ele>103.67109</ele>
        <time>2017-04-26T09:49:35Z</time>
      </trkpt>
      <trkpt lat="47.71616" lon="-2.21534">
        <ele>103.737404</ele>
        <time>2017-04-26T09:49:41Z</time>
      </trkpt>
      <trkpt lat="47.71602" lon="-2.21546">
        <ele>104.15853</ele>
        <time>2017-04-26T09:49:47Z</time>
      </trkpt>
      <trkpt lat="47.71588" lon="-2.2156">
        <ele>104.38795</ele>
        <time>2017-04-26T09:49:53Z</time>
      </trkpt>
      <trkpt lat="47.71575" lon="-2.21572">
        <ele>104.198875</ele>
        <time>2017-04-26T09:49:59Z</time>
      </trkpt>
      <trkpt lat="47.71565" lon="-2.21581">
        <ele>104.119446</ele>
        <time>2017-04-26T09:50:04Z</time>
      </trkpt>
      <trkpt lat="47.71552" lon="-2.21588">
        <ele>104.45956</ele>
        <time>2017-04-26T09:50:10Z</time>
      </trkpt>
      <trkpt lat="47.71541" lon="-2.2159">
        <ele>104.58958</ele>
        <time>2017-04-26T09:50:15Z</time>
      </trkpt>
      <trkpt lat="47.71529" lon="-2.21591">
        <ele>104.92561</ele>
        <time>2017-04-26T09:50:21Z</time>
      </trkpt>
      <trkpt lat="47.71517" lon="-2.21592">
        <ele>105.13773</ele>
        <time>2017-04-26T09:50:27Z</time>
      </trkpt>
      <trkpt lat="47.71504" lon="-2.21592">
        <ele>105.42428</ele>
        <time>2017-04-26T09:50:32Z</time>
      </trkpt>
      <trkpt lat="47.71492" lon="-2.21594">
        <ele>105.55645</ele>
        <time>2017-04-26T09:50:38Z</time>
      </trkpt>
      <trkpt lat="47.71483" lon="-2.21594">
        <ele>105.95671</ele>
        <time>2017-04-26T09:50:43Z</time>
      </trkpt>
      <trkpt lat="47.71468" lon="-2.21596">
        <ele>106.20875</ele>
        <time>2017-04-26T09:50:49Z</time>
      </trkpt>
      <trkpt lat="47.71457" lon="-2.21597">
        <ele>106.260895</ele>
        <time>2017-04-26T09:50:54Z</time>
      </trkpt>
      <trkpt lat="47.71443" lon="-2.21596">
        <ele>106.62001</ele>
        <time>2017-04-26T09:51:00Z</time>
      </trkpt>
      <trkpt lat="47.7143" lon="-2.21598">
        <ele>107.04442</ele>
        <time>2017-04-26T09:51:05Z</time>
      </trkpt>
      <trkpt lat="47.71416" lon="-2.21598">
        <ele>107.53623</ele>
        <time>2017-04-26T09:51:10Z</time>
      </trkpt>
      <trkpt lat="47.714" lon="-2.21598">
        <ele>107.81226</ele>
        <time>2017-04-26T09:51:16Z</time>
      </trkpt>
      <trkpt lat="47.71385" lon="-2.21597">
        <ele>108.12965</ele>
        <time>2017-04-26T09:51:22Z</time>
      </trkpt>
      <trkpt lat="47.71378" lon="-2.21595">
        <ele>109.17929</ele>
        <time>2017-04-26T09:51:27Z</time>
      </trkpt>
      <trkpt lat="47.71366" lon="-2.21585">
        <ele>110.32706</ele>
        <time>2017-04-26T09:51:33Z</time>
      </trkpt>
      <trkpt lat="47.71365" lon="-2.21577">
        <ele>116.63964</ele>
        <time>2017-04-26T09:53:12Z</time>
      </trkpt>
      <trkpt lat="47.71337" lon="-2.21595">
        <ele>125.17022</ele>
        <time>2017-04-26T10:01:21Z</time>
      </trkpt>
      <trkpt lat="47.71338" lon="-2.21566">
        <ele>144.39857</ele>
        <time>2017-04-26T10:02:31Z</time>
      </trkpt>
      <trkpt lat="47.71305" lon="-2.21522">
        <ele>134.4346</ele>
        <time>2017-04-26T10:03:21Z</time>
      </trkpt>
      <trkpt lat="47.71309" lon="-2.21527">
        <ele>134.98541</ele>
        <time>2017-04-26T10:03:29Z</time>
      </trkpt>
      <trkpt lat="47.71313" lon="-2.21533">
        <ele>136.18442</ele>
        <time>2017-04-26T10:03:42Z</time>
      </trkpt>
      <trkpt lat="47.71308" lon="-2.21541">
        <ele>136.09978</ele>
        <time>2017-04-26T10:03:47Z</time>
      </trkpt>
      <trkpt lat="47.71308" lon="-2.2155">
        <ele>135.17291</ele>
        <time>2017-04-26T10:03:53Z</time>
      </trkpt>
      <trkpt lat="47.71316" lon="-2.21568">
        <ele>133.1501</ele>
        <time>2017-04-26T10:03:59Z</time>
      </trkpt>
      <trkpt lat="47.71323" lon="-2.21563">
        <ele>131.48048</ele>
        <time>2017-04-26T10:04:05Z</time>
      </trkpt>
      <trkpt lat="47.71328" lon="-2.21556">
        <ele>130.39914</ele>
        <time>2017-04-26T10:04:11Z</time>
      </trkpt>
      <trkpt lat="47.71329" lon="-2.21549">
        <ele>131.12811</ele>
        <time>2017-04-26T10:04:30Z</time>
      </trkpt>
      <trkpt lat="47.71339" lon="-2.21541">
        <ele>130.778</ele>
        <time>2017-04-26T10:04:36Z</time>
      </trkpt>
      <trkpt lat="47.71348" lon="-2.21574">
        <ele>133.23637</ele>
        <time>2017-04-26T10:05:58Z</time>
      </trkpt>
      <trkpt lat="47.71336" lon="-2.21565">
        <ele>133.76147</ele>
        <time>2017-04-26T10:06:20Z</time>
      </trkpt>
      <trkpt lat="47.71309" lon="-2.2152">
        <ele>139.90248</ele>
        <time>2017-04-26T10:09:39Z</time>
      </trkpt>
      <trkpt lat="47.71302" lon="-2.21511">
        <ele>140.17323</ele>
        <time>2017-04-26T10:09:44Z</time>
      </trkpt>
      <trkpt lat="47.71299" lon="-2.21516">
        <ele>140.07854</ele>
        <time>2017-04-26T10:09:51Z</time>
      </trkpt>
      <trkpt lat="47.71296" lon="-2.21524">
        <ele>139.99025</ele>
        <time>2017-04-26T10:09:57Z</time>
      </trkpt>
      <trkpt lat="47.71297" lon="-2.21537">
        <ele>139.61642</ele>
        <time>2017-04-26T10:10:02Z</time>
      </trkpt>
      <trkpt lat="47.71306" lon="-2.21544">
        <ele>138.55423</ele>
        <time>2017-04-26T10:10:08Z</time>
      </trkpt>
      <trkpt lat="47.71321" lon="-2.21538">
        <ele>137.71481</ele>
        <time>2017-04-26T10:11:53Z</time>
      </trkpt>
      <trkpt lat="47.71321" lon="-2.21544">
        <ele>137.6763</ele>
        <time>2017-04-26T10:12:04Z</time>
      </trkpt>
      <trkpt lat="47.71318" lon="-2.21552">
        <ele>137.58621</ele>
        <time>2017-04-26T10:12:09Z</time>
      </trkpt>
      <trkpt lat="47.71324" lon="-2.21552">
        <ele>136.89917</ele>
        <time>2017-04-26T10:12:18Z</time>
      </trkpt>
      <trkpt lat="47.71344" lon="-2.2158">
        <ele>128.32652</ele>
        <time>2017-04-26T10:16:46Z</time>
      </trkpt>
      <trkpt lat="47.71376" lon="-2.21596">
        <ele>126.88731</ele>
        <time>2017-04-26T10:16:52Z</time>
      </trkpt>
      <trkpt lat="47.71402" lon="-2.21594">
        <ele>122.66283</ele>
        <time>2017-04-26T10:16:58Z</time>
      </trkpt>
      <trkpt lat="47.71425" lon="-2.21592">
        <ele>114.83772</ele>
        <time>2017-04-26T10:17:03Z</time>
      </trkpt>
      <trkpt lat="47.71454" lon="-2.2159">
        <ele>112.92353</ele>
        <time>2017-04-26T10:17:09Z</time>
      </trkpt>
      <trkpt lat="47.71481" lon="-2.21587">
        <ele>112.65168</ele>
        <time>2017-04-26T10:17:14Z</time>
      </trkpt>
      <trkpt lat="47.71516" lon="-2.21585">
        <ele>112.66189</ele>
        <time>2017-04-26T10:17:20Z</time>
      </trkpt>
      <trkpt lat="47.71553" lon="-2.21576">
        <ele>109.758316</ele>
        <time>2017-04-26T10:17:26Z</time>
      </trkpt>
      <trkpt lat="47.71591" lon="-2.2155">
        <ele>109.076294</ele>
        <time>2017-04-26T10:17:32Z</time>
      </trkpt>
      <trkpt lat="47.71622" lon="-2.21523">
        <ele>107.43718</ele>
        <time>2017-04-26T10:17:38Z</time>
      </trkpt>
      <trkpt lat="47.7165" lon="-2.21504">
        <ele>106.115845</ele>
        <time>2017-04-26T10:17:43Z</time>
      </trkpt>
      <trkpt lat="47.71684" lon="-2.21489">
        <ele>106.42831</ele>
        <time>2017-04-26T10:17:48Z</time>
      </trkpt>
      <trkpt lat="47.71726" lon="-2.21478">
        <ele>105.44778</ele>
        <time>2017-04-26T10:17:54Z</time>
      </trkpt>
      <trkpt lat="47.71772" lon="-2.21467">
        <ele>103.27129</ele>
        <time>2017-04-26T10:18:00Z</time>
      </trkpt>
      <trkpt lat="47.71817" lon="-2.21457">
        <ele>102.51033</ele>
        <time>2017-04-26T10:18:06Z</time>
      </trkpt>
      <trkpt lat="47.71867" lon="-2.2145">
        <ele>97.62755</ele>
        <time>2017-04-26T10:18:12Z</time>
      </trkpt>
      <trkpt lat="47.71907" lon="-2.21432">
        <ele>95.02968</ele>
        <time>2017-04-26T10:18:17Z</time>
      </trkpt>
      <trkpt lat="47.71956" lon="-2.214">
        <ele>91.29166</ele>
        <time>2017-04-26T10:18:23Z</time>
      </trkpt>
      <trkpt lat="47.71994" lon="-2.21385">
        <ele>90.142456</ele>
        <time>2017-04-26T10:18:28Z</time>
      </trkpt>
      <trkpt lat="47.72043" lon="-2.21379">
        <ele>86.80763</ele>
        <time>2017-04-26T10:18:34Z</time>
      </trkpt>
      <trkpt lat="47.72082" lon="-2.21384">
        <ele>83.08896</ele>
        <time>2017-04-26T10:18:39Z</time>
      </trkpt>
      <trkpt lat="47.7213" lon="-2.21404">
        <ele>79.64703</ele>
        <time>2017-04-26T10:18:45Z</time>
      </trkpt>
      <trkpt lat="47.72178" lon="-2.21432">
        <ele>78.917145</ele>
        <time>2017-04-26T10:18:51Z</time>
      </trkpt>
      <trkpt lat="47.72234" lon="-2.2144">
        <ele>79.52583</ele>
        <time>2017-04-26T10:18:57Z</time>
      </trkpt>
      <trkpt lat="47.72288" lon="-2.21409">
        <ele>79.63478</ele>
        <time>2017-04-26T10:19:03Z</time>
      </trkpt>
      <trkpt lat="47.72328" lon="-2.21397">
        <ele>77.55489</ele>
        <time>2017-04-26T10:19:08Z</time>
      </trkpt>
      <trkpt lat="47.72389" lon="-2.21392">
        <ele>79.423706</ele>
        <time>2017-04-26T10:19:14Z</time>
      </trkpt>
      <trkpt lat="47.72429" lon="-2.2139">
        <ele>75.75702</ele>
        <time>2017-04-26T10:19:19Z</time>
      </trkpt>
      <trkpt lat="47.72473" lon="-2.21378">
        <ele>69.35201</ele>
        <time>2017-04-26T10:19:24Z</time>
      </trkpt>
      <trkpt lat="47.72516" lon="-2.21353">
        <ele>62.02829</ele>
        <time>2017-04-26T10:19:30Z</time>
      </trkpt>
      <trkpt lat="47.72549" lon="-2.21328">
        <ele>59.366814</ele>
        <time>2017-04-26T10:19:35Z</time>
      </trkpt>
      <trkpt lat="47.72567" lon="-2.21305">
        <ele>58.697067</ele>
        <time>2017-04-26T10:19:41Z</time>
      </trkpt>
      <trkpt lat="47.72577" lon="-2.21289">
        <ele>58.83883</ele>
        <time>2017-04-26T10:19:47Z</time>
      </trkpt>
      <trkpt lat="47.7259" lon="-2.21286">
        <ele>58.641506</ele>
        <time>2017-04-26T10:19:53Z</time>
      </trkpt>
      <trkpt lat="47.72607" lon="-2.21286">
        <ele>59.46027</ele>
        <time>2017-04-26T10:19:59Z</time>
      </trkpt>
      <trkpt lat="47.72621" lon="-2.21286">
        <ele>59.75598</ele>
        <time>2017-04-26T10:20:04Z</time>
      </trkpt>
      <trkpt lat="47.72635" lon="-2.21285">
        <ele>59.9117</ele>
        <time>2017-04-26T10:20:10Z</time>
      </trkpt>
      <trkpt lat="47.72651" lon="-2.21286">
        <ele>59.47856</ele>
        <time>2017-04-26T10:20:15Z</time>
      </trkpt>
      <trkpt lat="47.72671" lon="-2.21291">
        <ele>58.668636</ele>
        <time>2017-04-26T10:20:21Z</time>
      </trkpt>
      <trkpt lat="47.72692" lon="-2.21304">
        <ele>57.972813</ele>
        <time>2017-04-26T10:20:27Z</time>
      </trkpt>
      <trkpt lat="47.72713" lon="-2.21319">
        <ele>56.581406</ele>
        <time>2017-04-26T10:20:33Z</time>
      </trkpt>
      <trkpt lat="47.7273" lon="-2.21329">
        <ele>56.136177</ele>
        <time>2017-04-26T10:20:38Z</time>
      </trkpt>
      <trkpt lat="47.72751" lon="-2.21345">
        <ele>56.721268</ele>
        <time>2017-04-26T10:20:44Z</time>
      </trkpt>
      <trkpt lat="47.72772" lon="-2.21361">
        <ele>55.888226</ele>
        <time>2017-04-26T10:20:50Z</time>
      </trkpt>
      <trkpt lat="47.7279" lon="-2.21372">
        <ele>55.086494</ele>
        <time>2017-04-26T10:20:55Z</time>
      </trkpt>
      <trkpt lat="47.7281" lon="-2.21389">
        <ele>54.83696</ele>
        <time>2017-04-26T10:21:00Z</time>
      </trkpt>
      <trkpt lat="47.7283" lon="-2.21412">
        <ele>56.28664</ele>
        <time>2017-04-26T10:21:06Z</time>
      </trkpt>
      <trkpt lat="47.72847" lon="-2.21426">
        <ele>57.854702</ele>
        <time>2017-04-26T10:21:11Z</time>
      </trkpt>
      <trkpt lat="47.7287" lon="-2.21441">
        <ele>55.45424</ele>
        <time>2017-04-26T10:21:17Z</time>
      </trkpt>
      <trkpt lat="47.72891" lon="-2.21453">
        <ele>54.88564</ele>
        <time>2017-04-26T10:21:22Z</time>
      </trkpt>
      <trkpt lat="47.72901" lon="-2.21483">
        <ele>55.88998</ele>
        <time>2017-04-26T10:21:28Z</time>
      </trkpt>
      <trkpt lat="47.72916" lon="-2.21512">
        <ele>59.004673</ele>
        <time>2017-04-26T10:21:34Z</time>
      </trkpt>
      <trkpt lat="47.72926" lon="-2.21536">
        <ele>59.103203</ele>
        <time>2017-04-26T10:21:39Z</time>
      </trkpt>
      <trkpt lat="47.72939" lon="-2.21563">
        <ele>57.069492</ele>
        <time>2017-04-26T10:21:45Z</time>
      </trkpt>
      <trkpt lat="47.72951" lon="-2.21588">
        <ele>55.764378</ele>
        <time>2017-04-26T10:21:50Z</time>
      </trkpt>
      <trkpt lat="47.72964" lon="-2.21622">
        <ele>56.85697</ele>
        <time>2017-04-26T10:21:56Z</time>
      </trkpt>
      <trkpt lat="47.7297" lon="-2.21652">
        <ele>57.16092</ele>
        <time>2017-04-26T10:22:01Z</time>
      </trkpt>
      <trkpt lat="47.72978" lon="-2.21687">
        <ele>55.744442</ele>
        <time>2017-04-26T10:22:07Z</time>
      </trkpt>
      <trkpt lat="47.72985" lon="-2.21715">
        <ele>55.444153</ele>
        <time>2017-04-26T10:22:12Z</time>
      </trkpt>
      <trkpt lat="47.72993" lon="-2.21751">
        <ele>56.974155</ele>
        <time>2017-04-26T10:22:18Z</time>
      </trkpt>
      <trkpt lat="47.73001" lon="-2.21783">
        <ele>58.47584</ele>
        <time>2017-04-26T10:22:24Z</time>
      </trkpt>
      <trkpt lat="47.73006" lon="-2.21817">
        <ele>57.42242</ele>
        <time>2017-04-26T10:22:30Z</time>
      </trkpt>
      <trkpt lat="47.73012" lon="-2.21849">
        <ele>56.713966</ele>
        <time>2017-04-26T10:22:36Z</time>
      </trkpt>
      <trkpt lat="47.73018" lon="-2.21878">
        <ele>56.37976</ele>
        <time>2017-04-26T10:22:42Z</time>
      </trkpt>
      <trkpt lat="47.73021" lon="-2.21912">
        <ele>56.24329</ele>
        <time>2017-04-26T10:22:48Z</time>
      </trkpt>
      <trkpt lat="47.73024" lon="-2.21941">
        <ele>55.829376</ele>
        <time>2017-04-26T10:22:54Z</time>
      </trkpt>
      <trkpt lat="47.73029" lon="-2.21972">
        <ele>55.81008</ele>
        <time>2017-04-26T10:23:00Z</time>
      </trkpt>
      <trkpt lat="47.73036" lon="-2.22006">
        <ele>55.720215</ele>
        <time>2017-04-26T10:23:06Z</time>
      </trkpt>
      <trkpt lat="47.73043" lon="-2.22033">
        <ele>56.167854</ele>
        <time>2017-04-26T10:23:12Z</time>
      </trkpt>
      <trkpt lat="47.73052" lon="-2.22054">
        <ele>56.736572</ele>
        <time>2017-04-26T10:23:17Z</time>
      </trkpt>
      <trkpt lat="47.73065" lon="-2.22079">
        <ele>56.52968</ele>
        <time>2017-04-26T10:23:23Z</time>
      </trkpt>
      <trkpt lat="47.73077" lon="-2.221">
        <ele>56.507732</ele>
        <time>2017-04-26T10:23:28Z</time>
      </trkpt>
      <trkpt lat="47.73089" lon="-2.22123">
        <ele>57.104248</ele>
        <time>2017-04-26T10:23:33Z</time>
      </trkpt>
      <trkpt lat="47.73102" lon="-2.22147">
        <ele>55.64904</ele>
        <time>2017-04-26T10:23:39Z</time>
      </trkpt>
      <trkpt lat="47.73119" lon="-2.22172">
        <ele>55.338715</ele>
        <time>2017-04-26T10:23:45Z</time>
      </trkpt>
      <trkpt lat="47.73138" lon="-2.22196">
        <ele>55.35949</ele>
        <time>2017-04-26T10:23:51Z</time>
      </trkpt>
      <trkpt lat="47.73158" lon="-2.22217">
        <ele>57.10544</ele>
        <time>2017-04-26T10:23:57Z</time>
      </trkpt>
      <trkpt lat="47.73176" lon="-2.22232">
        <ele>57.215706</ele>
        <time>2017-04-26T10:24:02Z</time>
      </trkpt>
      <trkpt lat="47.73199" lon="-2.22244">
        <ele>55.943405</ele>
        <time>2017-04-26T10:24:08Z</time>
      </trkpt>
      <trkpt lat="47.73222" lon="-2.22257">
        <ele>55.93886</ele>
        <time>2017-04-26T10:24:14Z</time>
      </trkpt>
      <trkpt lat="47.73243" lon="-2.22267">
        <ele>54.781406</ele>
        <time>2017-04-26T10:24:20Z</time>
      </trkpt>
      <trkpt lat="47.73265" lon="-2.2228">
        <ele>54.80428</ele>
        <time>2017-04-26T10:24:25Z</time>
      </trkpt>
      <trkpt lat="47.73288" lon="-2.22303">
        <ele>54.422153</ele>
        <time>2017-04-26T10:24:31Z</time>
      </trkpt>
      <trkpt lat="47.73305" lon="-2.22327">
        <ele>54.495888</ele>
        <time>2017-04-26T10:24:37Z</time>
      </trkpt>
      <trkpt lat="47.73322" lon="-2.22358">
        <ele>56.14186</ele>
        <time>2017-04-26T10:24:43Z</time>
      </trkpt>
      <trkpt lat="47.73335" lon="-2.22378">
        <ele>58.36272</ele>
        <time>2017-04-26T10:24:48Z</time>
      </trkpt>
      <trkpt lat="47.73351" lon="-2.22398">
        <ele>58.376156</ele>
        <time>2017-04-26T10:24:53Z</time>
      </trkpt>
      <trkpt lat="47.73371" lon="-2.22421">
        <ele>58.5348</ele>
        <time>2017-04-26T10:24:59Z</time>
      </trkpt>
      <trkpt lat="47.73393" lon="-2.22442">
        <ele>62.63166</ele>
        <time>2017-04-26T10:25:05Z</time>
      </trkpt>
      <trkpt lat="47.73411" lon="-2.22461">
        <ele>61.878098</ele>
        <time>2017-04-26T10:25:10Z</time>
      </trkpt>
      <trkpt lat="47.73431" lon="-2.22483">
        <ele>61.705498</ele>
        <time>2017-04-26T10:25:16Z</time>
      </trkpt>
      <trkpt lat="47.73449" lon="-2.225">
        <ele>61.635174</ele>
        <time>2017-04-26T10:25:21Z</time>
      </trkpt>
      <trkpt lat="47.7347" lon="-2.22521">
        <ele>60.58954</ele>
        <time>2017-04-26T10:25:27Z</time>
      </trkpt>
      <trkpt lat="47.73491" lon="-2.2254">
        <ele>62.062096</ele>
        <time>2017-04-26T10:25:33Z</time>
      </trkpt>
      <trkpt lat="47.73516" lon="-2.22564">
        <ele>61.05882</ele>
        <time>2017-04-26T10:25:39Z</time>
      </trkpt>
      <trkpt lat="47.73538" lon="-2.22583">
        <ele>60.479076</ele>
        <time>2017-04-26T10:25:45Z</time>
      </trkpt>
      <trkpt lat="47.73561" lon="-2.226">
        <ele>60.8792</ele>
        <time>2017-04-26T10:25:51Z</time>
      </trkpt>
      <trkpt lat="47.73581" lon="-2.22618">
        <ele>58.990776</ele>
        <time>2017-04-26T10:25:57Z</time>
      </trkpt>
      <trkpt lat="47.73601" lon="-2.22636">
        <ele>58.808075</ele>
        <time>2017-04-26T10:26:03Z</time>
      </trkpt>
      <trkpt lat="47.73618" lon="-2.22659">
        <ele>58.719856</ele>
        <time>2017-04-26T10:26:09Z</time>
      </trkpt>
      <trkpt lat="47.73634" lon="-2.22686">
        <ele>59.049053</ele>
        <time>2017-04-26T10:26:15Z</time>
      </trkpt>
      <trkpt lat="47.73645" lon="-2.22706">
        <ele>59.250458</ele>
        <time>2017-04-26T10:26:20Z</time>
      </trkpt>
      <trkpt lat="47.73662" lon="-2.22729">
        <ele>61.013065</ele>
        <time>2017-04-26T10:26:26Z</time>
      </trkpt>
      <trkpt lat="47.7368" lon="-2.22746">
        <ele>60.38371</ele>
        <time>2017-04-26T10:26:32Z</time>
      </trkpt>
      <trkpt lat="47.73701" lon="-2.22769">
        <ele>59.188972</ele>
        <time>2017-04-26T10:26:38Z</time>
      </trkpt>
      <trkpt lat="47.73719" lon="-2.22796">
        <ele>58.743</ele>
        <time>2017-04-26T10:26:44Z</time>
      </trkpt>
      <trkpt lat="47.73734" lon="-2.22825">
        <ele>58.59994</ele>
        <time>2017-04-26T10:26:50Z</time>
      </trkpt>
      <trkpt lat="47.73744" lon="-2.22847">
        <ele>57.689373</ele>
        <time>2017-04-26T10:26:55Z</time>
      </trkpt>
      <trkpt lat="47.73759" lon="-2.22884">
        <ele>55.80569</ele>
        <time>2017-04-26T10:27:01Z</time>
      </trkpt>
      <trkpt lat="47.73767" lon="-2.22902">
        <ele>58.75065</ele>
        <time>2017-04-26T10:27:06Z</time>
      </trkpt>
      <trkpt lat="47.73784" lon="-2.22915">
        <ele>59.49937</ele>
        <time>2017-04-26T10:27:12Z</time>
      </trkpt>
      <trkpt lat="47.738" lon="-2.22927">
        <ele>60.08692</ele>
        <time>2017-04-26T10:27:18Z</time>
      </trkpt>
      <trkpt lat="47.73814" lon="-2.22953">
        <ele>60.776653</ele>
        <time>2017-04-26T10:27:24Z</time>
      </trkpt>
      <trkpt lat="47.73832" lon="-2.22974">
        <ele>63.507114</ele>
        <time>2017-04-26T10:27:29Z</time>
      </trkpt>
      <trkpt lat="47.73859" lon="-2.23004">
        <ele>65.28934</ele>
        <time>2017-04-26T10:27:35Z</time>
      </trkpt>
      <trkpt lat="47.73877" lon="-2.23021">
        <ele>65.436966</ele>
        <time>2017-04-26T10:27:40Z</time>
      </trkpt>
      <trkpt lat="47.73895" lon="-2.23044">
        <ele>63.380386</ele>
        <time>2017-04-26T10:27:46Z</time>
      </trkpt>
      <trkpt lat="47.73916" lon="-2.23071">
        <ele>62.161415</ele>
        <time>2017-04-26T10:27:52Z</time>
      </trkpt>
      <trkpt lat="47.73937" lon="-2.23089">
        <ele>61.15358</ele>
        <time>2017-04-26T10:27:58Z</time>
      </trkpt>
      <trkpt lat="47.73953" lon="-2.2311">
        <ele>59.358963</ele>
        <time>2017-04-26T10:28:03Z</time>
      </trkpt>
      <trkpt lat="47.73972" lon="-2.2314">
        <ele>58.97161</ele>
        <time>2017-04-26T10:28:09Z</time>
      </trkpt>
      <trkpt lat="47.73986" lon="-2.23163">
        <ele>58.881294</ele>
        <time>2017-04-26T10:28:14Z</time>
      </trkpt>
      <trkpt lat="47.74003" lon="-2.23196">
        <ele>58.654305</ele>
        <time>2017-04-26T10:28:20Z</time>
      </trkpt>
      <trkpt lat="47.74017" lon="-2.23229">
        <ele>59.50192</ele>
        <time>2017-04-26T10:28:26Z</time>
      </trkpt>
      <trkpt lat="47.74023" lon="-2.23269">
        <ele>58.971355</ele>
        <time>2017-04-26T10:28:32Z</time>
      </trkpt>
      <trkpt lat="47.7403" lon="-2.23308">
        <ele>58.735184</ele>
        <time>2017-04-26T10:28:38Z</time>
      </trkpt>
      <trkpt lat="47.74037" lon="-2.23337">
        <ele>59.59762</ele>
        <time>2017-04-26T10:28:43Z</time>
      </trkpt>
      <trkpt lat="47.7405" lon="-2.23366">
        <ele>61.67946</ele>
        <time>2017-04-26T10:28:49Z</time>
      </trkpt>
      <trkpt lat="47.74065" lon="-2.23392">
        <ele>61.805088</ele>
        <time>2017-04-26T10:28:54Z</time>
      </trkpt>
      <trkpt lat="47.74079" lon="-2.23425">
        <ele>61.860428</ele>
        <time>2017-04-26T10:29:00Z</time>
      </trkpt>
      <trkpt lat="47.74088" lon="-2.2345">
        <ele>60.481266</ele>
        <time>2017-04-26T10:29:05Z</time>
      </trkpt>
      <trkpt lat="47.741" lon="-2.23486">
        <ele>60.316265</ele>
        <time>2017-04-26T10:29:11Z</time>
      </trkpt>
      <trkpt lat="47.7411" lon="-2.23521">
        <ele>59.0208</ele>
        <time>2017-04-26T10:29:17Z</time>
      </trkpt>
      <trkpt lat="47.74115" lon="-2.23551">
        <ele>60.818367</ele>
        <time>2017-04-26T10:29:22Z</time>
      </trkpt>
      <trkpt lat="47.74119" lon="-2.23587">
        <ele>59.831844</ele>
        <time>2017-04-26T10:29:27Z</time>
      </trkpt>
      <trkpt lat="47.7412" lon="-2.23617">
        <ele>59.101036</ele>
        <time>2017-04-26T10:29:33Z</time>
      </trkpt>
      <trkpt lat="47.74122" lon="-2.23656">
        <ele>58.60381</ele>
        <time>2017-04-26T10:29:39Z</time>
      </trkpt>
      <trkpt lat="47.74123" lon="-2.23685">
        <ele>56.709064</ele>
        <time>2017-04-26T10:29:44Z</time>
      </trkpt>
      <trkpt lat="47.74123" lon="-2.2372">
        <ele>53.938713</ele>
        <time>2017-04-26T10:29:50Z</time>
      </trkpt>
      <trkpt lat="47.74124" lon="-2.23762">
        <ele>53.532074</ele>
        <time>2017-04-26T10:29:56Z</time>
      </trkpt>
      <trkpt lat="47.74124" lon="-2.23799">
        <ele>53.17077</ele>
        <time>2017-04-26T10:30:02Z</time>
      </trkpt>
      <trkpt lat="47.74124" lon="-2.23827">
        <ele>55.488583</ele>
        <time>2017-04-26T10:30:07Z</time>
      </trkpt>
      <trkpt lat="47.74119" lon="-2.23863">
        <ele>55.145454</ele>
        <time>2017-04-26T10:30:13Z</time>
      </trkpt>
      <trkpt lat="47.74111" lon="-2.23898">
        <ele>53.140575</ele>
        <time>2017-04-26T10:30:19Z</time>
      </trkpt>
      <trkpt lat="47.74106" lon="-2.23924">
        <ele>52.63686</ele>
        <time>2017-04-26T10:30:24Z</time>
      </trkpt>
      <trkpt lat="47.74095" lon="-2.23962">
        <ele>53.433235</ele>
        <time>2017-04-26T10:30:30Z</time>
      </trkpt>
      <trkpt lat="47.7409" lon="-2.23989">
        <ele>57.76645</ele>
        <time>2017-04-26T10:30:35Z</time>
      </trkpt>
      <trkpt lat="47.74077" lon="-2.24016">
        <ele>58.999535</ele>
        <time>2017-04-26T10:30:41Z</time>
      </trkpt>
      <trkpt lat="47.74057" lon="-2.24048">
        <ele>58.20903</ele>
        <time>2017-04-26T10:30:47Z</time>
      </trkpt>
      <trkpt lat="47.74037" lon="-2.24074">
        <ele>58.738026</ele>
        <time>2017-04-26T10:30:53Z</time>
      </trkpt>
      <trkpt lat="47.74018" lon="-2.241">
        <ele>59.40667</ele>
        <time>2017-04-26T10:30:59Z</time>
      </trkpt>
      <trkpt lat="47.74001" lon="-2.24121">
        <ele>59.560863</ele>
        <time>2017-04-26T10:31:04Z</time>
      </trkpt>
      <trkpt lat="47.73979" lon="-2.24144">
        <ele>60.670227</ele>
        <time>2017-04-26T10:31:10Z</time>
      </trkpt>
      <trkpt lat="47.73959" lon="-2.24169">
        <ele>59.581818</ele>
        <time>2017-04-26T10:31:16Z</time>
      </trkpt>
      <trkpt lat="47.73946" lon="-2.24188">
        <ele>59.215057</ele>
        <time>2017-04-26T10:31:21Z</time>
      </trkpt>
      <trkpt lat="47.73931" lon="-2.24207">
        <ele>59.72952</ele>
        <time>2017-04-26T10:31:26Z</time>
      </trkpt>
      <trkpt lat="47.73914" lon="-2.24226">
        <ele>58.97553</ele>
        <time>2017-04-26T10:31:31Z</time>
      </trkpt>
      <trkpt lat="47.73895" lon="-2.24251">
        <ele>59.277992</ele>
        <time>2017-04-26T10:31:37Z</time>
      </trkpt>
      <trkpt lat="47.73881" lon="-2.24281">
        <ele>58.791496</ele>
        <time>2017-04-26T10:31:43Z</time>
      </trkpt>
      <trkpt lat="47.73868" lon="-2.24316">
        <ele>59.07344</ele>
        <time>2017-04-26T10:31:49Z</time>
      </trkpt>
      <trkpt lat="47.73855" lon="-2.24344">
        <ele>58.42035</ele>
        <time>2017-04-26T10:31:54Z</time>
      </trkpt>
      <trkpt lat="47.73841" lon="-2.24374">
        <ele>58.593662</ele>
        <time>2017-04-26T10:32:00Z</time>
      </trkpt>
      <trkpt lat="47.73824" lon="-2.24403">
        <ele>57.769405</ele>
        <time>2017-04-26T10:32:06Z</time>
      </trkpt>
      <trkpt lat="47.7381" lon="-2.24425">
        <ele>58.674732</ele>
        <time>2017-04-26T10:32:11Z</time>
      </trkpt>
      <trkpt lat="47.73795" lon="-2.24448">
        <ele>58.9505</ele>
        <time>2017-04-26T10:32:16Z</time>
      </trkpt>
      <trkpt lat="47.73778" lon="-2.24476">
        <ele>58.882687</ele>
        <time>2017-04-26T10:32:22Z</time>
      </trkpt>
      <trkpt lat="47.73765" lon="-2.24502">
        <ele>58.61914</ele>
        <time>2017-04-26T10:32:27Z</time>
      </trkpt>
      <trkpt lat="47.73751" lon="-2.24532">
        <ele>58.958725</ele>
        <time>2017-04-26T10:32:33Z</time>
      </trkpt>
      <trkpt lat="47.7374" lon="-2.24562">
        <ele>58.295536</ele>
        <time>2017-04-26T10:32:38Z</time>
      </trkpt>
      <trkpt lat="47.73728" lon="-2.24594">
        <ele>58.846867</ele>
        <time>2017-04-26T10:32:44Z</time>
      </trkpt>
      <trkpt lat="47.73719" lon="-2.2462">
        <ele>58.063797</ele>
        <time>2017-04-26T10:32:49Z</time>
      </trkpt>
      <trkpt lat="47.7371" lon="-2.24646">
        <ele>58.012516</ele>
        <time>2017-04-26T10:32:54Z</time>
      </trkpt>
      <trkpt lat="47.737" lon="-2.24673">
        <ele>57.06097</ele>
        <time>2017-04-26T10:33:00Z</time>
      </trkpt>
      <trkpt lat="47.73692" lon="-2.24699">
        <ele>56.94921</ele>
        <time>2017-04-26T10:33:05Z</time>
      </trkpt>
      <trkpt lat="47.73685" lon="-2.24728">
        <ele>57.429775</ele>
        <time>2017-04-26T10:33:10Z</time>
      </trkpt>
      <trkpt lat="47.73678" lon="-2.24761">
        <ele>58.163082</ele>
        <time>2017-04-26T10:33:16Z</time>
      </trkpt>
      <trkpt lat="47.73669" lon="-2.24792">
        <ele>58.819603</ele>
        <time>2017-04-26T10:33:22Z</time>
      </trkpt>
      <trkpt lat="47.73661" lon="-2.24827">
        <ele>57.366333</ele>
        <time>2017-04-26T10:33:28Z</time>
      </trkpt>
      <trkpt lat="47.73653" lon="-2.24864">
        <ele>56.583004</ele>
        <time>2017-04-26T10:33:34Z</time>
      </trkpt>
      <trkpt lat="47.73648" lon="-2.24898">
        <ele>55.759468</ele>
        <time>2017-04-26T10:33:40Z</time>
      </trkpt>
      <trkpt lat="47.73643" lon="-2.24935">
        <ele>56.263344</ele>
        <time>2017-04-26T10:33:46Z</time>
      </trkpt>
      <trkpt lat="47.7364" lon="-2.2496">
        <ele>56.46096</ele>
        <time>2017-04-26T10:33:51Z</time>
      </trkpt>
      <trkpt lat="47.73636" lon="-2.24997">
        <ele>56.55466</ele>
        <time>2017-04-26T10:33:57Z</time>
      </trkpt>
      <trkpt lat="47.73635" lon="-2.25036">
        <ele>57.574963</ele>
        <time>2017-04-26T10:34:03Z</time>
      </trkpt>
      <trkpt lat="47.73641" lon="-2.25069">
        <ele>57.662502</ele>
        <time>2017-04-26T10:34:09Z</time>
      </trkpt>
      <trkpt lat="47.73645" lon="-2.25105">
        <ele>57.25023</ele>
        <time>2017-04-26T10:34:15Z</time>
      </trkpt>
      <trkpt lat="47.73653" lon="-2.25145">
        <ele>59.57225</ele>
        <time>2017-04-26T10:34:21Z</time>
      </trkpt>
      <trkpt lat="47.7366" lon="-2.25177">
        <ele>60.231354</ele>
        <time>2017-04-26T10:34:26Z</time>
      </trkpt>
      <trkpt lat="47.73673" lon="-2.25209">
        <ele>58.029377</ele>
        <time>2017-04-26T10:34:32Z</time>
      </trkpt>
      <trkpt lat="47.7369" lon="-2.25247">
        <ele>59.52823</ele>
        <time>2017-04-26T10:34:38Z</time>
      </trkpt>
      <trkpt lat="47.73704" lon="-2.25282">
        <ele>61.026836</ele>
        <time>2017-04-26T10:34:44Z</time>
      </trkpt>
      <trkpt lat="47.73719" lon="-2.25316">
        <ele>61.547626</ele>
        <time>2017-04-26T10:34:50Z</time>
      </trkpt>
      <trkpt lat="47.73729" lon="-2.25341">
        <ele>61.489937</ele>
        <time>2017-04-26T10:34:55Z</time>
      </trkpt>
      <trkpt lat="47.7374" lon="-2.25368">
        <ele>61.404724</ele>
        <time>2017-04-26T10:35:01Z</time>
      </trkpt>
      <trkpt lat="47.73747" lon="-2.25391">
        <ele>60.739445</ele>
        <time>2017-04-26T10:35:06Z</time>
      </trkpt>
      <trkpt lat="47.73757" lon="-2.25423">
        <ele>60.299335</ele>
        <time>2017-04-26T10:35:12Z</time>
      </trkpt>
      <trkpt lat="47.73766" lon="-2.25447">
        <ele>60.156487</ele>
        <time>2017-04-26T10:35:18Z</time>
      </trkpt>
      <trkpt lat="47.73775" lon="-2.25478">
        <ele>59.994663</ele>
        <time>2017-04-26T10:35:24Z</time>
      </trkpt>
      <trkpt lat="47.73783" lon="-2.25504">
        <ele>58.64589</ele>
        <time>2017-04-26T10:35:29Z</time>
      </trkpt>
      <trkpt lat="47.73792" lon="-2.25534">
        <ele>58.215748</ele>
        <time>2017-04-26T10:35:35Z</time>
      </trkpt>
      <trkpt lat="47.73799" lon="-2.25566">
        <ele>58.038643</ele>
        <time>2017-04-26T10:35:41Z</time>
      </trkpt>
      <trkpt lat="47.73808" lon="-2.25596">
        <ele>57.163986</ele>
        <time>2017-04-26T10:35:46Z</time>
      </trkpt>
      <trkpt lat="47.73822" lon="-2.25622">
        <ele>60.24042</ele>
        <time>2017-04-26T10:35:51Z</time>
      </trkpt>
      <trkpt lat="47.73836" lon="-2.25646">
        <ele>61.627247</ele>
        <time>2017-04-26T10:35:57Z</time>
      </trkpt>
      <trkpt lat="47.73856" lon="-2.25667">
        <ele>62.43973</ele>
        <time>2017-04-26T10:36:03Z</time>
      </trkpt>
      <trkpt lat="47.73879" lon="-2.25686">
        <ele>66.95997</ele>
        <time>2017-04-26T10:36:09Z</time>
      </trkpt>
      <trkpt lat="47.73898" lon="-2.25701">
        <ele>66.74685</ele>
        <time>2017-04-26T10:36:15Z</time>
      </trkpt>
      <trkpt lat="47.73916" lon="-2.25718">
        <ele>66.19838</ele>
        <time>2017-04-26T10:36:21Z</time>
      </trkpt>
      <trkpt lat="47.73928" lon="-2.25732">
        <ele>65.702675</ele>
        <time>2017-04-26T10:36:26Z</time>
      </trkpt>
      <trkpt lat="47.73948" lon="-2.2575">
        <ele>64.48193</ele>
        <time>2017-04-26T10:36:32Z</time>
      </trkpt>
      <trkpt lat="47.73965" lon="-2.25765">
        <ele>64.02967</ele>
        <time>2017-04-26T10:36:37Z</time>
      </trkpt>
      <trkpt lat="47.73982" lon="-2.25778">
        <ele>64.0339</ele>
        <time>2017-04-26T10:36:43Z</time>
      </trkpt>
      <trkpt lat="47.73998" lon="-2.25794">
        <ele>66.05441</ele>
        <time>2017-04-26T10:36:48Z</time>
      </trkpt>
      <trkpt lat="47.74015" lon="-2.25808">
        <ele>67.18916</ele>
        <time>2017-04-26T10:36:54Z</time>
      </trkpt>
      <trkpt lat="47.74027" lon="-2.25824">
        <ele>66.77073</ele>
        <time>2017-04-26T10:36:59Z</time>
      </trkpt>
      <trkpt lat="47.74044" lon="-2.25844">
        <ele>66.146645</ele>
        <time>2017-04-26T10:37:05Z</time>
      </trkpt>
      <trkpt lat="47.74062" lon="-2.25869">
        <ele>66.00671</ele>
        <time>2017-04-26T10:37:11Z</time>
      </trkpt>
      <trkpt lat="47.74079" lon="-2.25887">
        <ele>65.539215</ele>
        <time>2017-04-26T10:37:17Z</time>
      </trkpt>
      <trkpt lat="47.741" lon="-2.25905">
        <ele>65.404724</ele>
        <time>2017-04-26T10:37:23Z</time>
      </trkpt>
      <trkpt lat="47.74124" lon="-2.25925">
        <ele>66.61819</ele>
        <time>2017-04-26T10:37:29Z</time>
      </trkpt>
      <trkpt lat="47.74144" lon="-2.2594">
        <ele>67.49525</ele>
        <time>2017-04-26T10:37:35Z</time>
      </trkpt>
      <trkpt lat="47.74168" lon="-2.25954">
        <ele>67.19597</ele>
        <time>2017-04-26T10:37:41Z</time>
      </trkpt>
      <trkpt lat="47.7419" lon="-2.25968">
        <ele>66.059235</ele>
        <time>2017-04-26T10:37:47Z</time>
      </trkpt>
      <trkpt lat="47.74212" lon="-2.25977">
        <ele>65.51148</ele>
        <time>2017-04-26T10:37:53Z</time>
      </trkpt>
      <trkpt lat="47.74234" lon="-2.25982">
        <ele>66.34244</ele>
        <time>2017-04-26T10:37:58Z</time>
      </trkpt>
      <trkpt lat="47.74261" lon="-2.25983">
        <ele>65.288506</ele>
        <time>2017-04-26T10:38:04Z</time>
      </trkpt>
      <trkpt lat="47.74287" lon="-2.25984">
        <ele>64.44859</ele>
        <time>2017-04-26T10:38:10Z</time>
      </trkpt>
      <trkpt lat="47.74313" lon="-2.25996">
        <ele>62.288727</ele>
        <time>2017-04-26T10:38:16Z</time>
      </trkpt>
      <trkpt lat="47.74333" lon="-2.26008">
        <ele>68.76264</ele>
        <time>2017-04-26T10:38:22Z</time>
      </trkpt>
      <trkpt lat="47.74353" lon="-2.26021">
        <ele>72.91831</ele>
        <time>2017-04-26T10:38:28Z</time>
      </trkpt>
      <trkpt lat="47.74371" lon="-2.26044">
        <ele>71.0839</ele>
        <time>2017-04-26T10:38:34Z</time>
      </trkpt>
      <trkpt lat="47.74388" lon="-2.26064">
        <ele>70.21727</ele>
        <time>2017-04-26T10:38:39Z</time>
      </trkpt>
      <trkpt lat="47.74405" lon="-2.26089">
        <ele>69.41726</ele>
        <time>2017-04-26T10:38:45Z</time>
      </trkpt>
      <trkpt lat="47.7442" lon="-2.26112">
        <ele>68.64547</ele>
        <time>2017-04-26T10:38:50Z</time>
      </trkpt>
      <trkpt lat="47.74437" lon="-2.26138">
        <ele>64.31201</ele>
        <time>2017-04-26T10:38:56Z</time>
      </trkpt>
      <trkpt lat="47.74452" lon="-2.26159">
        <ele>63.555206</ele>
        <time>2017-04-26T10:39:01Z</time>
      </trkpt>
      <trkpt lat="47.74471" lon="-2.26181">
        <ele>63.075153</ele>
        <time>2017-04-26T10:39:07Z</time>
      </trkpt>
      <trkpt lat="47.74489" lon="-2.2621">
        <ele>63.118557</ele>
        <time>2017-04-26T10:39:13Z</time>
      </trkpt>
      <trkpt lat="47.74502" lon="-2.26243">
        <ele>62.961735</ele>
        <time>2017-04-26T10:39:19Z</time>
      </trkpt>
      <trkpt lat="47.74512" lon="-2.26267">
        <ele>63.21304</ele>
        <time>2017-04-26T10:39:24Z</time>
      </trkpt>
      <trkpt lat="47.74521" lon="-2.26299">
        <ele>63.48423</ele>
        <time>2017-04-26T10:39:30Z</time>
      </trkpt>
      <trkpt lat="47.74522" lon="-2.2633">
        <ele>63.551296</ele>
        <time>2017-04-26T10:39:35Z</time>
      </trkpt>
      <trkpt lat="47.74522" lon="-2.26361">
        <ele>63.856007</ele>
        <time>2017-04-26T10:39:41Z</time>
      </trkpt>
      <trkpt lat="47.74524" lon="-2.26384">
        <ele>63.553574</ele>
        <time>2017-04-26T10:39:47Z</time>
      </trkpt>
      <trkpt lat="47.74524" lon="-2.26402">
        <ele>63.234306</ele>
        <time>2017-04-26T10:39:52Z</time>
      </trkpt>
      <trkpt lat="47.74527" lon="-2.26417">
        <ele>63.122185</ele>
        <time>2017-04-26T10:39:58Z</time>
      </trkpt>
      <trkpt lat="47.74529" lon="-2.2644">
        <ele>62.45877</ele>
        <time>2017-04-26T10:40:04Z</time>
      </trkpt>
      <trkpt lat="47.74529" lon="-2.26473">
        <ele>59.080826</ele>
        <time>2017-04-26T10:40:09Z</time>
      </trkpt>
      <trkpt lat="47.74534" lon="-2.2652">
        <ele>58.246593</ele>
        <time>2017-04-26T10:40:15Z</time>
      </trkpt>
      <trkpt lat="47.74538" lon="-2.26554">
        <ele>56.79741</ele>
        <time>2017-04-26T10:40:20Z</time>
      </trkpt>
      <trkpt lat="47.74542" lon="-2.26591">
        <ele>55.98155</ele>
        <time>2017-04-26T10:40:26Z</time>
      </trkpt>
      <trkpt lat="47.74547" lon="-2.26618">
        <ele>55.978127</ele>
        <time>2017-04-26T10:40:31Z</time>
      </trkpt>
      <trkpt lat="47.74558" lon="-2.26651">
        <ele>57.771957</ele>
        <time>2017-04-26T10:40:37Z</time>
      </trkpt>
      <trkpt lat="47.74566" lon="-2.26676">
        <ele>57.846752</ele>
        <time>2017-04-26T10:40:42Z</time>
      </trkpt>
      <trkpt lat="47.74579" lon="-2.26704">
        <ele>58.492188</ele>
        <time>2017-04-26T10:40:48Z</time>
      </trkpt>
      <trkpt lat="47.74592" lon="-2.26729">
        <ele>61.209274</ele>
        <time>2017-04-26T10:40:54Z</time>
      </trkpt>
      <trkpt lat="47.7461" lon="-2.26751">
        <ele>61.096916</ele>
        <time>2017-04-26T10:41:00Z</time>
      </trkpt>
      <trkpt lat="47.74628" lon="-2.26778">
        <ele>60.792595</ele>
        <time>2017-04-26T10:41:06Z</time>
      </trkpt>
      <trkpt lat="47.74639" lon="-2.26804">
        <ele>60.87005</ele>
        <time>2017-04-26T10:41:11Z</time>
      </trkpt>
      <trkpt lat="47.74642" lon="-2.2684">
        <ele>60.07768</ele>
        <time>2017-04-26T10:41:17Z</time>
      </trkpt>
      <trkpt lat="47.74639" lon="-2.26872">
        <ele>58.871468</ele>
        <time>2017-04-26T10:41:23Z</time>
      </trkpt>
      <trkpt lat="47.7463" lon="-2.26907">
        <ele>57.282654</ele>
        <time>2017-04-26T10:41:29Z</time>
      </trkpt>
      <trkpt lat="47.74622" lon="-2.26929">
        <ele>57.546753</ele>
        <time>2017-04-26T10:41:34Z</time>
      </trkpt>
      <trkpt lat="47.74607" lon="-2.26949">
        <ele>57.762165</ele>
        <time>2017-04-26T10:41:39Z</time>
      </trkpt>
      <trkpt lat="47.74581" lon="-2.26965">
        <ele>57.723778</ele>
        <time>2017-04-26T10:41:45Z</time>
      </trkpt>
      <trkpt lat="47.74562" lon="-2.26973">
        <ele>58.639458</ele>
        <time>2017-04-26T10:41:50Z</time>
      </trkpt>
      <trkpt lat="47.74535" lon="-2.26983">
        <ele>60.448143</ele>
        <time>2017-04-26T10:41:56Z</time>
      </trkpt>
      <trkpt lat="47.74518" lon="-2.26992">
        <ele>60.488144</ele>
        <time>2017-04-26T10:42:01Z</time>
      </trkpt>
      <trkpt lat="47.74496" lon="-2.27009">
        <ele>59.825203</ele>
        <time>2017-04-26T10:42:07Z</time>
      </trkpt>
      <trkpt lat="47.74473" lon="-2.27038">
        <ele>60.47718</ele>
        <time>2017-04-26T10:42:13Z</time>
      </trkpt>
      <trkpt lat="47.74454" lon="-2.27067">
        <ele>62.4617</ele>
        <time>2017-04-26T10:42:19Z</time>
      </trkpt>
      <trkpt lat="47.74438" lon="-2.27097">
        <ele>64.88777</ele>
        <time>2017-04-26T10:42:25Z</time>
      </trkpt>
      <trkpt lat="47.74425" lon="-2.27125">
        <ele>64.1013</ele>
        <time>2017-04-26T10:42:31Z</time>
      </trkpt>
      <trkpt lat="47.74414" lon="-2.27153">
        <ele>63.91351</ele>
        <time>2017-04-26T10:42:36Z</time>
      </trkpt>
      <trkpt lat="47.74407" lon="-2.27184">
        <ele>60.903885</ele>
        <time>2017-04-26T10:42:42Z</time>
      </trkpt>
      <trkpt lat="47.74403" lon="-2.27216">
        <ele>61.729546</ele>
        <time>2017-04-26T10:42:47Z</time>
      </trkpt>
      <trkpt lat="47.744" lon="-2.27258">
        <ele>61.89144</ele>
        <time>2017-04-26T10:42:53Z</time>
      </trkpt>
      <trkpt lat="47.74397" lon="-2.27292">
        <ele>60.531662</ele>
        <time>2017-04-26T10:42:58Z</time>
      </trkpt>
      <trkpt lat="47.74391" lon="-2.27331">
        <ele>60.73036</ele>
        <time>2017-04-26T10:43:04Z</time>
      </trkpt>
      <trkpt lat="47.74383" lon="-2.27368">
        <ele>59.186672</ele>
        <time>2017-04-26T10:43:10Z</time>
      </trkpt>
      <trkpt lat="47.74375" lon="-2.27395">
        <ele>56.90959</ele>
        <time>2017-04-26T10:43:16Z</time>
      </trkpt>
      <trkpt lat="47.7436" lon="-2.27425">
        <ele>56.97316</ele>
        <time>2017-04-26T10:43:22Z</time>
      </trkpt>
      <trkpt lat="47.74343" lon="-2.27455">
        <ele>58.84124</ele>
        <time>2017-04-26T10:43:28Z</time>
      </trkpt>
      <trkpt lat="47.74326" lon="-2.27484">
        <ele>58.77042</ele>
        <time>2017-04-26T10:43:34Z</time>
      </trkpt>
      <trkpt lat="47.74312" lon="-2.2751">
        <ele>58.951893</ele>
        <time>2017-04-26T10:43:39Z</time>
      </trkpt>
      <trkpt lat="47.74297" lon="-2.27547">
        <ele>59.55224</ele>
        <time>2017-04-26T10:43:45Z</time>
      </trkpt>
      <trkpt lat="47.7429" lon="-2.27573">
        <ele>59.50442</ele>
        <time>2017-04-26T10:43:50Z</time>
      </trkpt>
      <trkpt lat="47.74283" lon="-2.2761">
        <ele>57.360348</ele>
        <time>2017-04-26T10:43:56Z</time>
      </trkpt>
      <trkpt lat="47.74276" lon="-2.27648">
        <ele>57.464466</ele>
        <time>2017-04-26T10:44:01Z</time>
      </trkpt>
      <trkpt lat="47.74272" lon="-2.27685">
        <ele>57.771935</ele>
        <time>2017-04-26T10:44:07Z</time>
      </trkpt>
      <trkpt lat="47.74271" lon="-2.27721">
        <ele>56.0538</ele>
        <time>2017-04-26T10:44:13Z</time>
      </trkpt>
      <trkpt lat="47.74271" lon="-2.2776">
        <ele>55.477615</ele>
        <time>2017-04-26T10:44:19Z</time>
      </trkpt>
      <trkpt lat="47.74273" lon="-2.27792">
        <ele>55.943054</ele>
        <time>2017-04-26T10:44:24Z</time>
      </trkpt>
      <trkpt lat="47.74276" lon="-2.27829">
        <ele>55.902943</ele>
        <time>2017-04-26T10:44:30Z</time>
      </trkpt>
      <trkpt lat="47.74278" lon="-2.2787">
        <ele>56.519024</ele>
        <time>2017-04-26T10:44:36Z</time>
      </trkpt>
      <trkpt lat="47.74283" lon="-2.27912">
        <ele>57.87785</ele>
        <time>2017-04-26T10:44:42Z</time>
      </trkpt>
      <trkpt lat="47.74289" lon="-2.27944">
        <ele>60.01482</ele>
        <time>2017-04-26T10:44:47Z</time>
      </trkpt>
      <trkpt lat="47.74295" lon="-2.27982">
        <ele>61.035236</ele>
        <time>2017-04-26T10:44:53Z</time>
      </trkpt>
      <trkpt lat="47.74303" lon="-2.28019">
        <ele>63.22324</ele>
        <time>2017-04-26T10:44:59Z</time>
      </trkpt>
      <trkpt lat="47.7431" lon="-2.28056">
        <ele>64.58046</ele>
        <time>2017-04-26T10:45:05Z</time>
      </trkpt>
      <trkpt lat="47.74322" lon="-2.28085">
        <ele>65.06927</ele>
        <time>2017-04-26T10:45:11Z</time>
      </trkpt>
      <trkpt lat="47.74337" lon="-2.28113">
        <ele>64.10388</ele>
        <time>2017-04-26T10:45:17Z</time>
      </trkpt>
      <trkpt lat="47.74355" lon="-2.28144">
        <ele>64.16718</ele>
        <time>2017-04-26T10:45:23Z</time>
      </trkpt>
      <trkpt lat="47.74366" lon="-2.28175">
        <ele>63.45817</ele>
        <time>2017-04-26T10:45:29Z</time>
      </trkpt>
      <trkpt lat="47.74374" lon="-2.28201">
        <ele>62.409763</ele>
        <time>2017-04-26T10:45:34Z</time>
      </trkpt>
      <trkpt lat="47.74384" lon="-2.28232">
        <ele>62.06654</ele>
        <time>2017-04-26T10:45:39Z</time>
      </trkpt>
      <trkpt lat="47.74393" lon="-2.28266">
        <ele>61.89222</ele>
        <time>2017-04-26T10:45:45Z</time>
      </trkpt>
      <trkpt lat="47.74391" lon="-2.28307">
        <ele>60.400784</ele>
        <time>2017-04-26T10:45:51Z</time>
      </trkpt>
      <trkpt lat="47.74389" lon="-2.28343">
        <ele>59.101017</ele>
        <time>2017-04-26T10:45:57Z</time>
      </trkpt>
      <trkpt lat="47.74391" lon="-2.28387">
        <ele>60.809288</ele>
        <time>2017-04-26T10:46:03Z</time>
      </trkpt>
      <trkpt lat="47.74399" lon="-2.28419">
        <ele>63.148975</ele>
        <time>2017-04-26T10:46:09Z</time>
      </trkpt>
      <trkpt lat="47.74406" lon="-2.28447">
        <ele>64.07896</ele>
        <time>2017-04-26T10:46:15Z</time>
      </trkpt>
      <trkpt lat="47.74412" lon="-2.28475">
        <ele>64.41341</ele>
        <time>2017-04-26T10:46:21Z</time>
      </trkpt>
      <trkpt lat="47.74417" lon="-2.28502">
        <ele>64.41944</ele>
        <time>2017-04-26T10:46:27Z</time>
      </trkpt>
      <trkpt lat="47.7442" lon="-2.28525">
        <ele>64.67994</ele>
        <time>2017-04-26T10:46:33Z</time>
      </trkpt>
      <trkpt lat="47.74424" lon="-2.28552">
        <ele>64.77243</ele>
        <time>2017-04-26T10:46:39Z</time>
      </trkpt>
      <trkpt lat="47.74427" lon="-2.28581">
        <ele>64.401695</ele>
        <time>2017-04-26T10:46:44Z</time>
      </trkpt>
      <trkpt lat="47.74431" lon="-2.28614">
        <ele>64.19227</ele>
        <time>2017-04-26T10:46:50Z</time>
      </trkpt>
      <trkpt lat="47.74438" lon="-2.28647">
        <ele>65.179375</ele>
        <time>2017-04-26T10:46:56Z</time>
      </trkpt>
      <trkpt lat="47.74442" lon="-2.28669">
        <ele>65.616264</ele>
        <time>2017-04-26T10:47:01Z</time>
      </trkpt>
      <trkpt lat="47.7445" lon="-2.28701">
        <ele>65.71986</ele>
        <time>2017-04-26T10:47:07Z</time>
      </trkpt>
      <trkpt lat="47.74458" lon="-2.28732">
        <ele>65.535904</ele>
        <time>2017-04-26T10:47:13Z</time>
      </trkpt>
      <trkpt lat="47.74465" lon="-2.28769">
        <ele>65.61713</ele>
        <time>2017-04-26T10:47:19Z</time>
      </trkpt>
      <trkpt lat="47.74473" lon="-2.28801">
        <ele>65.48203</ele>
        <time>2017-04-26T10:47:25Z</time>
      </trkpt>
      <trkpt lat="47.74482" lon="-2.28831">
        <ele>64.95297</ele>
        <time>2017-04-26T10:47:30Z</time>
      </trkpt>
      <trkpt lat="47.74497" lon="-2.28864">
        <ele>65.84166</ele>
        <time>2017-04-26T10:47:36Z</time>
      </trkpt>
      <trkpt lat="47.74515" lon="-2.28893">
        <ele>64.01959</ele>
        <time>2017-04-26T10:47:42Z</time>
      </trkpt>
      <trkpt lat="47.74531" lon="-2.28916">
        <ele>62.59976</ele>
        <time>2017-04-26T10:47:47Z</time>
      </trkpt>
      <trkpt lat="47.74551" lon="-2.28932">
        <ele>68.16137</ele>
        <time>2017-04-26T10:47:52Z</time>
      </trkpt>
      <trkpt lat="47.74574" lon="-2.28941">
        <ele>67.83581</ele>
        <time>2017-04-26T10:47:58Z</time>
      </trkpt>
      <trkpt lat="47.74595" lon="-2.28957">
        <ele>66.95931</ele>
        <time>2017-04-26T10:48:04Z</time>
      </trkpt>
      <trkpt lat="47.74616" lon="-2.28971">
        <ele>67.53253</ele>
        <time>2017-04-26T10:48:10Z</time>
      </trkpt>
      <trkpt lat="47.74637" lon="-2.2899">
        <ele>67.64688</ele>
        <time>2017-04-26T10:48:16Z</time>
      </trkpt>
      <trkpt lat="47.7466" lon="-2.29006">
        <ele>71.29156</ele>
        <time>2017-04-26T10:48:22Z</time>
      </trkpt>
      <trkpt lat="47.74686" lon="-2.29024">
        <ele>71.21477</ele>
        <time>2017-04-26T10:48:28Z</time>
      </trkpt>
      <trkpt lat="47.74703" lon="-2.29038">
        <ele>70.730644</ele>
        <time>2017-04-26T10:48:33Z</time>
      </trkpt>
      <trkpt lat="47.74723" lon="-2.29055">
        <ele>69.48263</ele>
        <time>2017-04-26T10:48:39Z</time>
      </trkpt>
      <trkpt lat="47.74741" lon="-2.2907">
        <ele>67.95067</ele>
        <time>2017-04-26T10:48:44Z</time>
      </trkpt>
      <trkpt lat="47.74758" lon="-2.29085">
        <ele>67.99897</ele>
        <time>2017-04-26T10:48:49Z</time>
      </trkpt>
      <trkpt lat="47.74782" lon="-2.29109">
        <ele>64.22673</ele>
        <time>2017-04-26T10:48:55Z</time>
      </trkpt>
      <trkpt lat="47.74805" lon="-2.29127">
        <ele>63.196213</ele>
        <time>2017-04-26T10:49:01Z</time>
      </trkpt>
      <trkpt lat="47.74823" lon="-2.29144">
        <ele>63.07011</ele>
        <time>2017-04-26T10:49:07Z</time>
      </trkpt>
      <trkpt lat="47.74843" lon="-2.29172">
        <ele>65.9398</ele>
        <time>2017-04-26T10:49:13Z</time>
      </trkpt>
      <trkpt lat="47.74857" lon="-2.29194">
        <ele>68.55716</ele>
        <time>2017-04-26T10:49:18Z</time>
      </trkpt>
      <trkpt lat="47.74872" lon="-2.29211">
        <ele>69.484406</ele>
        <time>2017-04-26T10:49:23Z</time>
      </trkpt>
      <trkpt lat="47.74893" lon="-2.29236">
        <ele>66.48646</ele>
        <time>2017-04-26T10:49:29Z</time>
      </trkpt>
      <trkpt lat="47.74907" lon="-2.29254">
        <ele>65.60189</ele>
        <time>2017-04-26T10:49:34Z</time>
      </trkpt>
      <trkpt lat="47.74928" lon="-2.29287">
        <ele>65.76146</ele>
        <time>2017-04-26T10:49:40Z</time>
      </trkpt>
      <trkpt lat="47.74945" lon="-2.29311">
        <ele>66.09685</ele>
        <time>2017-04-26T10:49:46Z</time>
      </trkpt>
      <trkpt lat="47.74961" lon="-2.29339">
        <ele>69.97738</ele>
        <time>2017-04-26T10:49:52Z</time>
      </trkpt>
      <trkpt lat="47.74977" lon="-2.29369">
        <ele>68.99739</ele>
        <time>2017-04-26T10:49:58Z</time>
      </trkpt>
      <trkpt lat="47.74988" lon="-2.29395">
        <ele>63.851818</ele>
        <time>2017-04-26T10:50:04Z</time>
      </trkpt>
      <trkpt lat="47.74998" lon="-2.29418">
        <ele>59.90029</ele>
        <time>2017-04-26T10:50:09Z</time>
      </trkpt>
      <trkpt lat="47.75012" lon="-2.29449">
        <ele>59.80769</ele>
        <time>2017-04-26T10:50:15Z</time>
      </trkpt>
      <trkpt lat="47.75023" lon="-2.29478">
        <ele>58.29679</ele>
        <time>2017-04-26T10:50:21Z</time>
      </trkpt>
      <trkpt lat="47.75033" lon="-2.29509">
        <ele>59.13802</ele>
        <time>2017-04-26T10:50:26Z</time>
      </trkpt>
      <trkpt lat="47.75044" lon="-2.29542">
        <ele>58.925625</ele>
        <time>2017-04-26T10:50:32Z</time>
      </trkpt>
      <trkpt lat="47.75055" lon="-2.29576">
        <ele>59.79851</ele>
        <time>2017-04-26T10:50:38Z</time>
      </trkpt>
      <trkpt lat="47.75062" lon="-2.29596">
        <ele>59.880222</ele>
        <time>2017-04-26T10:50:43Z</time>
      </trkpt>
      <trkpt lat="47.75068" lon="-2.29621">
        <ele>59.90842</ele>
        <time>2017-04-26T10:50:48Z</time>
      </trkpt>
      <trkpt lat="47.7508" lon="-2.29653">
        <ele>58.73475</ele>
        <time>2017-04-26T10:50:54Z</time>
      </trkpt>
      <trkpt lat="47.75089" lon="-2.29685">
        <ele>59.232773</ele>
        <time>2017-04-26T10:51:00Z</time>
      </trkpt>
      <trkpt lat="47.75098" lon="-2.2972">
        <ele>59.2311</ele>
        <time>2017-04-26T10:51:06Z</time>
      </trkpt>
      <trkpt lat="47.75108" lon="-2.29753">
        <ele>61.08912</ele>
        <time>2017-04-26T10:51:12Z</time>
      </trkpt>
      <trkpt lat="47.75113" lon="-2.29789">
        <ele>59.004704</ele>
        <time>2017-04-26T10:51:18Z</time>
      </trkpt>
      <trkpt lat="47.75114" lon="-2.29822">
        <ele>58.117012</ele>
        <time>2017-04-26T10:51:23Z</time>
      </trkpt>
      <trkpt lat="47.75117" lon="-2.29858">
        <ele>57.178623</ele>
        <time>2017-04-26T10:51:29Z</time>
      </trkpt>
      <trkpt lat="47.75125" lon="-2.29892">
        <ele>56.39594</ele>
        <time>2017-04-26T10:51:35Z</time>
      </trkpt>
      <trkpt lat="47.75134" lon="-2.29927">
        <ele>55.452293</ele>
        <time>2017-04-26T10:51:41Z</time>
      </trkpt>
      <trkpt lat="47.75142" lon="-2.29963">
        <ele>56.945454</ele>
        <time>2017-04-26T10:51:47Z</time>
      </trkpt>
      <trkpt lat="47.7515" lon="-2.30002">
        <ele>58.25435</ele>
        <time>2017-04-26T10:51:53Z</time>
      </trkpt>
      <trkpt lat="47.75162" lon="-2.30038">
        <ele>59.818386</ele>
        <time>2017-04-26T10:51:59Z</time>
      </trkpt>
      <trkpt lat="47.75175" lon="-2.30069">
        <ele>59.995335</ele>
        <time>2017-04-26T10:52:05Z</time>
      </trkpt>
      <trkpt lat="47.75191" lon="-2.30096">
        <ele>59.25784</ele>
        <time>2017-04-26T10:52:11Z</time>
      </trkpt>
      <trkpt lat="47.75205" lon="-2.30124">
        <ele>57.74512</ele>
        <time>2017-04-26T10:52:17Z</time>
      </trkpt>
      <trkpt lat="47.75221" lon="-2.30154">
        <ele>56.07921</ele>
        <time>2017-04-26T10:52:23Z</time>
      </trkpt>
      <trkpt lat="47.75239" lon="-2.30179">
        <ele>58.20564</ele>
        <time>2017-04-26T10:52:29Z</time>
      </trkpt>
      <trkpt lat="47.75246" lon="-2.30187">
        <ele>58.379215</ele>
        <time>2017-04-26T10:52:35Z</time>
      </trkpt>
      <trkpt lat="47.75251" lon="-2.30193">
        <ele>57.453503</ele>
        <time>2017-04-26T10:52:45Z</time>
      </trkpt>
      <trkpt lat="47.75262" lon="-2.30203">
        <ele>57.414734</ele>
        <time>2017-04-26T10:52:50Z</time>
      </trkpt>
      <trkpt lat="47.75277" lon="-2.30218">
        <ele>57.356834</ele>
        <time>2017-04-26T10:52:56Z</time>
      </trkpt>
      <trkpt lat="47.75296" lon="-2.30236">
        <ele>57.10763</ele>
        <time>2017-04-26T10:53:02Z</time>
      </trkpt>
      <trkpt lat="47.75311" lon="-2.30251">
        <ele>56.972134</ele>
        <time>2017-04-26T10:53:07Z</time>
      </trkpt>
      <trkpt lat="47.7533" lon="-2.30272">
        <ele>56.493687</ele>
        <time>2017-04-26T10:53:13Z</time>
      </trkpt>
      <trkpt lat="47.75348" lon="-2.30294">
        <ele>56.561993</ele>
        <time>2017-04-26T10:53:19Z</time>
      </trkpt>
      <trkpt lat="47.75362" lon="-2.30312">
        <ele>55.288807</ele>
        <time>2017-04-26T10:53:24Z</time>
      </trkpt>
      <trkpt lat="47.75377" lon="-2.30339">
        <ele>55.00823</ele>
        <time>2017-04-26T10:53:30Z</time>
      </trkpt>
      <trkpt lat="47.7539" lon="-2.30368">
        <ele>55.21204</ele>
        <time>2017-04-26T10:53:36Z</time>
      </trkpt>
      <trkpt lat="47.75402" lon="-2.30399">
        <ele>54.698803</ele>
        <time>2017-04-26T10:53:42Z</time>
      </trkpt>
      <trkpt lat="47.75411" lon="-2.30428">
        <ele>54.993603</ele>
        <time>2017-04-26T10:53:47Z</time>
      </trkpt>
      <trkpt lat="47.7542" lon="-2.30461">
        <ele>55.36746</ele>
        <time>2017-04-26T10:53:53Z</time>
      </trkpt>
      <trkpt lat="47.75429" lon="-2.30489">
        <ele>54.946373</ele>
        <time>2017-04-26T10:53:58Z</time>
      </trkpt>
      <trkpt lat="47.7544" lon="-2.30525">
        <ele>53.74095</ele>
        <time>2017-04-26T10:54:04Z</time>
      </trkpt>
      <trkpt lat="47.75449" lon="-2.30562">
        <ele>54.839817</ele>
        <time>2017-04-26T10:54:10Z</time>
      </trkpt>
      <trkpt lat="47.75458" lon="-2.30596">
        <ele>55.0604</ele>
        <time>2017-04-26T10:54:16Z</time>
      </trkpt>
      <trkpt lat="47.75466" lon="-2.30632">
        <ele>54.641636</ele>
        <time>2017-04-26T10:54:22Z</time>
      </trkpt>
      <trkpt lat="47.75472" lon="-2.30659">
        <ele>54.167442</ele>
        <time>2017-04-26T10:54:27Z</time>
      </trkpt>
      <trkpt lat="47.75478" lon="-2.30692">
        <ele>54.41785</ele>
        <time>2017-04-26T10:54:33Z</time>
      </trkpt>
      <trkpt lat="47.75485" lon="-2.30726">
        <ele>54.92014</ele>
        <time>2017-04-26T10:54:39Z</time>
      </trkpt>
      <trkpt lat="47.75493" lon="-2.30758">
        <ele>54.29534</ele>
        <time>2017-04-26T10:54:45Z</time>
      </trkpt>
      <trkpt lat="47.75502" lon="-2.30788">
        <ele>54.967583</ele>
        <time>2017-04-26T10:54:50Z</time>
      </trkpt>
      <trkpt lat="47.75509" lon="-2.30813">
        <ele>54.479733</ele>
        <time>2017-04-26T10:54:55Z</time>
      </trkpt>
      <trkpt lat="47.75521" lon="-2.30843">
        <ele>53.781746</ele>
        <time>2017-04-26T10:55:01Z</time>
      </trkpt>
      <trkpt lat="47.75533" lon="-2.30878">
        <ele>56.38142</ele>
        <time>2017-04-26T10:55:07Z</time>
      </trkpt>
      <trkpt lat="47.75547" lon="-2.30908">
        <ele>56.257915</ele>
        <time>2017-04-26T10:55:13Z</time>
      </trkpt>
      <trkpt lat="47.75563" lon="-2.30935">
        <ele>55.395878</ele>
        <time>2017-04-26T10:55:19Z</time>
      </trkpt>
      <trkpt lat="47.75584" lon="-2.30957">
        <ele>53.657875</ele>
        <time>2017-04-26T10:55:25Z</time>
      </trkpt>
      <trkpt lat="47.75601" lon="-2.3097">
        <ele>51.92371</ele>
        <time>2017-04-26T10:55:30Z</time>
      </trkpt>
      <trkpt lat="47.75621" lon="-2.30985">
        <ele>49.417477</ele>
        <time>2017-04-26T10:55:36Z</time>
      </trkpt>
      <trkpt lat="47.7564" lon="-2.31002">
        <ele>48.874855</ele>
        <time>2017-04-26T10:55:42Z</time>
      </trkpt>
      <trkpt lat="47.75658" lon="-2.31026">
        <ele>50.04589</ele>
        <time>2017-04-26T10:55:48Z</time>
      </trkpt>
      <trkpt lat="47.75673" lon="-2.31056">
        <ele>51.895252</ele>
        <time>2017-04-26T10:55:54Z</time>
      </trkpt>
      <trkpt lat="47.75683" lon="-2.31084">
        <ele>53.589245</ele>
        <time>2017-04-26T10:55:59Z</time>
      </trkpt>
      <trkpt lat="47.75694" lon="-2.31115">
        <ele>56.552345</ele>
        <time>2017-04-26T10:56:05Z</time>
      </trkpt>
      <trkpt lat="47.75703" lon="-2.31145">
        <ele>56.734234</ele>
        <time>2017-04-26T10:56:11Z</time>
      </trkpt>
      <trkpt lat="47.7571" lon="-2.31177">
        <ele>57.7453</ele>
        <time>2017-04-26T10:56:17Z</time>
      </trkpt>
      <trkpt lat="47.75714" lon="-2.31203">
        <ele>56.005424</ele>
        <time>2017-04-26T10:56:22Z</time>
      </trkpt>
      <trkpt lat="47.75715" lon="-2.31238">
        <ele>55.48437</ele>
        <time>2017-04-26T10:56:28Z</time>
      </trkpt>
      <trkpt lat="47.75717" lon="-2.31269">
        <ele>55.424435</ele>
        <time>2017-04-26T10:56:34Z</time>
      </trkpt>
      <trkpt lat="47.75717" lon="-2.31299">
        <ele>55.394215</ele>
        <time>2017-04-26T10:56:40Z</time>
      </trkpt>
      <trkpt lat="47.75715" lon="-2.31331">
        <ele>55.11344</ele>
        <time>2017-04-26T10:56:46Z</time>
      </trkpt>
      <trkpt lat="47.7571" lon="-2.31361">
        <ele>54.49325</ele>
        <time>2017-04-26T10:56:52Z</time>
      </trkpt>
      <trkpt lat="47.75701" lon="-2.31395">
        <ele>54.680122</ele>
        <time>2017-04-26T10:56:58Z</time>
      </trkpt>
      <trkpt lat="47.75692" lon="-2.31432">
        <ele>54.059074</ele>
        <time>2017-04-26T10:57:04Z</time>
      </trkpt>
      <trkpt lat="47.75694" lon="-2.31462">
        <ele>54.442226</ele>
        <time>2017-04-26T10:57:09Z</time>
      </trkpt>
      <trkpt lat="47.757" lon="-2.31496">
        <ele>55.439</ele>
        <time>2017-04-26T10:57:15Z</time>
      </trkpt>
      <trkpt lat="47.75709" lon="-2.31526">
        <ele>55.726036</ele>
        <time>2017-04-26T10:57:21Z</time>
      </trkpt>
      <trkpt lat="47.75721" lon="-2.31543">
        <ele>56.252525</ele>
        <time>2017-04-26T10:57:26Z</time>
      </trkpt>
      <trkpt lat="47.75739" lon="-2.31565">
        <ele>57.2333</ele>
        <time>2017-04-26T10:57:32Z</time>
      </trkpt>
      <trkpt lat="47.75756" lon="-2.31579">
        <ele>59.969845</ele>
        <time>2017-04-26T10:57:37Z</time>
      </trkpt>
      <trkpt lat="47.75776" lon="-2.31597">
        <ele>60.813004</ele>
        <time>2017-04-26T10:57:43Z</time>
      </trkpt>
      <trkpt lat="47.75795" lon="-2.31616">
        <ele>60.961384</ele>
        <time>2017-04-26T10:57:49Z</time>
      </trkpt>
      <trkpt lat="47.75812" lon="-2.3163">
        <ele>61.372646</ele>
        <time>2017-04-26T10:57:54Z</time>
      </trkpt>
      <trkpt lat="47.75836" lon="-2.31646">
        <ele>63.727062</ele>
        <time>2017-04-26T10:58:00Z</time>
      </trkpt>
      <trkpt lat="47.75855" lon="-2.31653">
        <ele>63.599052</ele>
        <time>2017-04-26T10:58:05Z</time>
      </trkpt>
      <trkpt lat="47.7588" lon="-2.31658">
        <ele>61.225513</ele>
        <time>2017-04-26T10:58:11Z</time>
      </trkpt>
      <trkpt lat="47.75906" lon="-2.31658">
        <ele>61.415806</ele>
        <time>2017-04-26T10:58:17Z</time>
      </trkpt>
      <trkpt lat="47.75928" lon="-2.31656">
        <ele>59.332428</ele>
        <time>2017-04-26T10:58:22Z</time>
      </trkpt>
      <trkpt lat="47.75955" lon="-2.31654">
        <ele>57.991383</ele>
        <time>2017-04-26T10:58:28Z</time>
      </trkpt>
      <trkpt lat="47.75976" lon="-2.31651">
        <ele>56.88651</ele>
        <time>2017-04-26T10:58:33Z</time>
      </trkpt>
      <trkpt lat="47.76002" lon="-2.31649">
        <ele>57.336487</ele>
        <time>2017-04-26T10:58:39Z</time>
      </trkpt>
      <trkpt lat="47.7602" lon="-2.3165">
        <ele>57.295033</ele>
        <time>2017-04-26T10:58:44Z</time>
      </trkpt>
      <trkpt lat="47.76045" lon="-2.31658">
        <ele>58.9875</ele>
        <time>2017-04-26T10:58:50Z</time>
      </trkpt>
      <trkpt lat="47.76065" lon="-2.31671">
        <ele>59.25974</ele>
        <time>2017-04-26T10:58:56Z</time>
      </trkpt>
      <trkpt lat="47.76083" lon="-2.31681">
        <ele>59.53922</ele>
        <time>2017-04-26T10:59:01Z</time>
      </trkpt>
      <trkpt lat="47.76103" lon="-2.31691">
        <ele>59.751526</ele>
        <time>2017-04-26T10:59:07Z</time>
      </trkpt>
      <trkpt lat="47.76122" lon="-2.31701">
        <ele>59.96408</ele>
        <time>2017-04-26T10:59:13Z</time>
      </trkpt>
      <trkpt lat="47.76145" lon="-2.3171">
        <ele>60.09941</ele>
        <time>2017-04-26T10:59:19Z</time>
      </trkpt>
      <trkpt lat="47.76163" lon="-2.31718">
        <ele>60.42146</ele>
        <time>2017-04-26T10:59:24Z</time>
      </trkpt>
      <trkpt lat="47.76184" lon="-2.31724">
        <ele>60.252747</ele>
        <time>2017-04-26T10:59:30Z</time>
      </trkpt>
      <trkpt lat="47.76202" lon="-2.31729">
        <ele>60.238884</ele>
        <time>2017-04-26T10:59:35Z</time>
      </trkpt>
      <trkpt lat="47.76224" lon="-2.31736">
        <ele>59.616764</ele>
        <time>2017-04-26T10:59:41Z</time>
      </trkpt>
      <trkpt lat="47.76243" lon="-2.31742">
        <ele>59.17413</ele>
        <time>2017-04-26T10:59:46Z</time>
      </trkpt>
      <trkpt lat="47.76266" lon="-2.31749">
        <ele>59.793446</ele>
        <time>2017-04-26T10:59:52Z</time>
      </trkpt>
      <trkpt lat="47.76286" lon="-2.31754">
        <ele>60.698517</ele>
        <time>2017-04-26T10:59:57Z</time>
      </trkpt>
      <trkpt lat="47.76309" lon="-2.3176">
        <ele>60.48915</ele>
        <time>2017-04-26T11:00:03Z</time>
      </trkpt>
      <trkpt lat="47.76331" lon="-2.31763">
        <ele>58.362625</ele>
        <time>2017-04-26T11:00:09Z</time>
      </trkpt>
      <trkpt lat="47.76354" lon="-2.31766">
        <ele>57.949192</ele>
        <time>2017-04-26T11:00:15Z</time>
      </trkpt>
      <trkpt lat="47.76376" lon="-2.31769">
        <ele>57.667896</ele>
        <time>2017-04-26T11:00:21Z</time>
      </trkpt>
      <trkpt lat="47.76399" lon="-2.31771">
        <ele>57.07166</ele>
        <time>2017-04-26T11:00:27Z</time>
      </trkpt>
      <trkpt lat="47.76417" lon="-2.31773">
        <ele>56.907887</ele>
        <time>2017-04-26T11:00:32Z</time>
      </trkpt>
      <trkpt lat="47.76439" lon="-2.31775">
        <ele>56.879463</ele>
        <time>2017-04-26T11:00:38Z</time>
      </trkpt>
      <trkpt lat="47.76461" lon="-2.31775">
        <ele>56.94372</ele>
        <time>2017-04-26T11:00:44Z</time>
      </trkpt>
      <trkpt lat="47.76483" lon="-2.31776">
        <ele>56.89916</ele>
        <time>2017-04-26T11:00:50Z</time>
      </trkpt>
      <trkpt lat="47.76504" lon="-2.31775">
        <ele>56.866978</ele>
        <time>2017-04-26T11:00:56Z</time>
      </trkpt>
      <trkpt lat="47.76526" lon="-2.31774">
        <ele>56.96526</ele>
        <time>2017-04-26T11:01:02Z</time>
      </trkpt>
      <trkpt lat="47.76548" lon="-2.31767">
        <ele>57.03938</ele>
        <time>2017-04-26T11:01:08Z</time>
      </trkpt>
      <trkpt lat="47.76564" lon="-2.31755">
        <ele>56.899395</ele>
        <time>2017-04-26T11:01:13Z</time>
      </trkpt>
      <trkpt lat="47.76584" lon="-2.31733">
        <ele>55.461678</ele>
        <time>2017-04-26T11:01:19Z</time>
      </trkpt>
      <trkpt lat="47.76602" lon="-2.31708">
        <ele>58.249397</ele>
        <time>2017-04-26T11:01:25Z</time>
      </trkpt>
      <trkpt lat="47.76621" lon="-2.31682">
        <ele>57.995697</ele>
        <time>2017-04-26T11:01:31Z</time>
      </trkpt>
      <trkpt lat="47.76641" lon="-2.3166">
        <ele>59.112072</ele>
        <time>2017-04-26T11:01:37Z</time>
      </trkpt>
      <trkpt lat="47.76661" lon="-2.31641">
        <ele>58.29207</ele>
        <time>2017-04-26T11:01:43Z</time>
      </trkpt>
      <trkpt lat="47.76678" lon="-2.31629">
        <ele>56.115402</ele>
        <time>2017-04-26T11:01:48Z</time>
      </trkpt>
      <trkpt lat="47.767" lon="-2.31615">
        <ele>55.39967</ele>
        <time>2017-04-26T11:01:54Z</time>
      </trkpt>
      <trkpt lat="47.76719" lon="-2.31606">
        <ele>55.147686</ele>
        <time>2017-04-26T11:02:00Z</time>
      </trkpt>
      <trkpt lat="47.76746" lon="-2.31595">
        <ele>55.167923</ele>
        <time>2017-04-26T11:02:06Z</time>
      </trkpt>
      <trkpt lat="47.76768" lon="-2.3159">
        <ele>54.131927</ele>
        <time>2017-04-26T11:02:12Z</time>
      </trkpt>
      <trkpt lat="47.7679" lon="-2.31589">
        <ele>53.493835</ele>
        <time>2017-04-26T11:02:18Z</time>
      </trkpt>
      <trkpt lat="47.76803" lon="-2.31587">
        <ele>53.336304</ele>
        <time>2017-04-26T11:02:23Z</time>
      </trkpt>
      <trkpt lat="47.76826" lon="-2.31585">
        <ele>52.25882</ele>
        <time>2017-04-26T11:02:29Z</time>
      </trkpt>
      <trkpt lat="47.76849" lon="-2.31584">
        <ele>54.79415</ele>
        <time>2017-04-26T11:02:35Z</time>
      </trkpt>
      <trkpt lat="47.76868" lon="-2.3158">
        <ele>56.157944</ele>
        <time>2017-04-26T11:02:40Z</time>
      </trkpt>
      <trkpt lat="47.7689" lon="-2.31578">
        <ele>55.889282</ele>
        <time>2017-04-26T11:02:46Z</time>
      </trkpt>
      <trkpt lat="47.76913" lon="-2.31575">
        <ele>55.74493</ele>
        <time>2017-04-26T11:02:52Z</time>
      </trkpt>
      <trkpt lat="47.76936" lon="-2.31574">
        <ele>56.624786</ele>
        <time>2017-04-26T11:02:58Z</time>
      </trkpt>
      <trkpt lat="47.76953" lon="-2.31572">
        <ele>56.756863</ele>
        <time>2017-04-26T11:03:03Z</time>
      </trkpt>
      <trkpt lat="47.76974" lon="-2.3157">
        <ele>57.173283</ele>
        <time>2017-04-26T11:03:09Z</time>
      </trkpt>
      <trkpt lat="47.76995" lon="-2.31565">
        <ele>57.361343</ele>
        <time>2017-04-26T11:03:14Z</time>
      </trkpt>
      <trkpt lat="47.77022" lon="-2.31572">
        <ele>57.769733</ele>
        <time>2017-04-26T11:03:20Z</time>
      </trkpt>
      <trkpt lat="47.77038" lon="-2.31584">
        <ele>60.569836</ele>
        <time>2017-04-26T11:03:25Z</time>
      </trkpt>
      <trkpt lat="47.77058" lon="-2.31572">
        <ele>60.312664</ele>
        <time>2017-04-26T11:03:31Z</time>
      </trkpt>
      <trkpt lat="47.77076" lon="-2.3156">
        <ele>59.26083</ele>
        <time>2017-04-26T11:03:36Z</time>
      </trkpt>
      <trkpt lat="47.77096" lon="-2.31557">
        <ele>59.370304</ele>
        <time>2017-04-26T11:03:42Z</time>
      </trkpt>
      <trkpt lat="47.77108" lon="-2.31552">
        <ele>58.20702</ele>
        <time>2017-04-26T11:10:42Z</time>
      </trkpt>
      <trkpt lat="47.77124" lon="-2.31552">
        <ele>57.421432</ele>
        <time>2017-04-26T11:10:48Z</time>
      </trkpt>
      <trkpt lat="47.77145" lon="-2.31549">
        <ele>57.361794</ele>
        <time>2017-04-26T11:10:54Z</time>
      </trkpt>
      <trkpt lat="47.77166" lon="-2.31546">
        <ele>57.387142</ele>
        <time>2017-04-26T11:11:00Z</time>
      </trkpt>
      <trkpt lat="47.77184" lon="-2.31542">
        <ele>57.29938</ele>
        <time>2017-04-26T11:11:05Z</time>
      </trkpt>
      <trkpt lat="47.772" lon="-2.31537">
        <ele>57.184334</ele>
        <time>2017-04-26T11:11:10Z</time>
      </trkpt>
      <trkpt lat="47.77222" lon="-2.31532">
        <ele>56.927887</ele>
        <time>2017-04-26T11:11:16Z</time>
      </trkpt>
      <trkpt lat="47.77245" lon="-2.31525">
        <ele>56.4662</ele>
        <time>2017-04-26T11:11:22Z</time>
      </trkpt>
      <trkpt lat="47.77268" lon="-2.31521">
        <ele>56.368435</ele>
        <time>2017-04-26T11:11:27Z</time>
      </trkpt>
      <trkpt lat="47.77292" lon="-2.31519">
        <ele>56.303036</ele>
        <time>2017-04-26T11:11:33Z</time>
      </trkpt>
      <trkpt lat="47.77313" lon="-2.31519">
        <ele>56.219975</ele>
        <time>2017-04-26T11:11:38Z</time>
      </trkpt>
      <trkpt lat="47.77336" lon="-2.31515">
        <ele>55.401794</ele>
        <time>2017-04-26T11:11:44Z</time>
      </trkpt>
      <trkpt lat="47.77352" lon="-2.31511">
        <ele>55.15913</ele>
        <time>2017-04-26T11:11:49Z</time>
      </trkpt>
      <trkpt lat="47.77373" lon="-2.31506">
        <ele>56.19767</ele>
        <time>2017-04-26T11:11:54Z</time>
      </trkpt>
      <trkpt lat="47.77399" lon="-2.31503">
        <ele>55.720657</ele>
        <time>2017-04-26T11:12:00Z</time>
      </trkpt>
      <trkpt lat="47.77423" lon="-2.31495">
        <ele>55.46778</ele>
        <time>2017-04-26T11:12:06Z</time>
      </trkpt>
      <trkpt lat="47.77447" lon="-2.31491">
        <ele>55.018364</ele>
        <time>2017-04-26T11:12:12Z</time>
      </trkpt>
      <trkpt lat="47.7747" lon="-2.3149">
        <ele>49.76258</ele>
        <time>2017-04-26T11:12:17Z</time>
      </trkpt>
      <trkpt lat="47.77491" lon="-2.31486">
        <ele>49.92648</ele>
        <time>2017-04-26T11:12:22Z</time>
      </trkpt>
      <trkpt lat="47.77515" lon="-2.31479">
        <ele>50.388237</ele>
        <time>2017-04-26T11:12:28Z</time>
      </trkpt>
      <trkpt lat="47.77542" lon="-2.31476">
        <ele>50.23854</ele>
        <time>2017-04-26T11:12:34Z</time>
      </trkpt>
      <trkpt lat="47.77565" lon="-2.3147">
        <ele>51.286354</ele>
        <time>2017-04-26T11:12:40Z</time>
      </trkpt>
      <trkpt lat="47.77594" lon="-2.31465">
        <ele>51.031986</ele>
        <time>2017-04-26T11:12:46Z</time>
      </trkpt>
      <trkpt lat="47.77617" lon="-2.31457">
        <ele>49.328358</ele>
        <time>2017-04-26T11:12:52Z</time>
      </trkpt>
      <trkpt lat="47.77643" lon="-2.31452">
        <ele>51.89445</ele>
        <time>2017-04-26T11:12:58Z</time>
      </trkpt>
      <trkpt lat="47.77664" lon="-2.31446">
        <ele>52.45184</ele>
        <time>2017-04-26T11:13:04Z</time>
      </trkpt>
      <trkpt lat="47.77688" lon="-2.31441">
        <ele>52.733055</ele>
        <time>2017-04-26T11:13:10Z</time>
      </trkpt>
      <trkpt lat="47.77709" lon="-2.31436">
        <ele>52.89863</ele>
        <time>2017-04-26T11:13:16Z</time>
      </trkpt>
      <trkpt lat="47.77734" lon="-2.31427">
        <ele>53.970535</ele>
        <time>2017-04-26T11:13:22Z</time>
      </trkpt>
      <trkpt lat="47.77758" lon="-2.31419">
        <ele>56.206017</ele>
        <time>2017-04-26T11:13:28Z</time>
      </trkpt>
      <trkpt lat="47.77778" lon="-2.3141">
        <ele>55.49121</ele>
        <time>2017-04-26T11:13:33Z</time>
      </trkpt>
      <trkpt lat="47.77802" lon="-2.314">
        <ele>55.23521</ele>
        <time>2017-04-26T11:13:39Z</time>
      </trkpt>
      <trkpt lat="47.77822" lon="-2.31394">
        <ele>54.85978</ele>
        <time>2017-04-26T11:13:45Z</time>
      </trkpt>
      <trkpt lat="47.77845" lon="-2.31395">
        <ele>54.909912</ele>
        <time>2017-04-26T11:13:50Z</time>
      </trkpt>
      <trkpt lat="47.77873" lon="-2.31404">
        <ele>56.73842</ele>
        <time>2017-04-26T11:13:56Z</time>
      </trkpt>
      <trkpt lat="47.77894" lon="-2.31423">
        <ele>56.72548</ele>
        <time>2017-04-26T11:14:02Z</time>
      </trkpt>
      <trkpt lat="47.77914" lon="-2.3144">
        <ele>59.938213</ele>
        <time>2017-04-26T11:14:08Z</time>
      </trkpt>
      <trkpt lat="47.77936" lon="-2.31459">
        <ele>60.145092</ele>
        <time>2017-04-26T11:14:14Z</time>
      </trkpt>
      <trkpt lat="47.77952" lon="-2.31474">
        <ele>58.092815</ele>
        <time>2017-04-26T11:14:19Z</time>
      </trkpt>
      <trkpt lat="47.77972" lon="-2.31493">
        <ele>57.806286</ele>
        <time>2017-04-26T11:14:25Z</time>
      </trkpt>
      <trkpt lat="47.7799" lon="-2.3151">
        <ele>58.170086</ele>
        <time>2017-04-26T11:14:31Z</time>
      </trkpt>
      <trkpt lat="47.78009" lon="-2.31531">
        <ele>58.420124</ele>
        <time>2017-04-26T11:14:37Z</time>
      </trkpt>
      <trkpt lat="47.78025" lon="-2.31544">
        <ele>59.23072</ele>
        <time>2017-04-26T11:14:42Z</time>
      </trkpt>
      <trkpt lat="47.78041" lon="-2.31556">
        <ele>59.346855</ele>
        <time>2017-04-26T11:14:48Z</time>
      </trkpt>
      <trkpt lat="47.78059" lon="-2.3157">
        <ele>59.4224</ele>
        <time>2017-04-26T11:14:54Z</time>
      </trkpt>
      <trkpt lat="47.78074" lon="-2.3158">
        <ele>59.42584</ele>
        <time>2017-04-26T11:14:59Z</time>
      </trkpt>
      <trkpt lat="47.78094" lon="-2.31593">
        <ele>59.299145</ele>
        <time>2017-04-26T11:15:05Z</time>
      </trkpt>
      <trkpt lat="47.78114" lon="-2.31604">
        <ele>58.390705</ele>
        <time>2017-04-26T11:15:11Z</time>
      </trkpt>
      <trkpt lat="47.78136" lon="-2.31614">
        <ele>58.21726</ele>
        <time>2017-04-26T11:15:17Z</time>
      </trkpt>
      <trkpt lat="47.78157" lon="-2.31626">
        <ele>58.137203</ele>
        <time>2017-04-26T11:15:23Z</time>
      </trkpt>
      <trkpt lat="47.78179" lon="-2.31636">
        <ele>58.195126</ele>
        <time>2017-04-26T11:15:29Z</time>
      </trkpt>
      <trkpt lat="47.78197" lon="-2.31642">
        <ele>58.2292</ele>
        <time>2017-04-26T11:15:34Z</time>
      </trkpt>
      <trkpt lat="47.78218" lon="-2.31648">
        <ele>57.91018</ele>
        <time>2017-04-26T11:15:40Z</time>
      </trkpt>
      <trkpt lat="47.78239" lon="-2.31654">
        <ele>57.73082</ele>
        <time>2017-04-26T11:15:46Z</time>
      </trkpt>
      <trkpt lat="47.78257" lon="-2.31662">
        <ele>57.64687</ele>
        <time>2017-04-26T11:15:51Z</time>
      </trkpt>
      <trkpt lat="47.78276" lon="-2.31671">
        <ele>57.499958</ele>
        <time>2017-04-26T11:15:57Z</time>
      </trkpt>
      <trkpt lat="47.78295" lon="-2.31681">
        <ele>56.780155</ele>
        <time>2017-04-26T11:16:02Z</time>
      </trkpt>
      <trkpt lat="47.78317" lon="-2.31693">
        <ele>56.602573</ele>
        <time>2017-04-26T11:16:08Z</time>
      </trkpt>
      <trkpt lat="47.78336" lon="-2.31703">
        <ele>56.83356</ele>
        <time>2017-04-26T11:16:13Z</time>
      </trkpt>
      <trkpt lat="47.7836" lon="-2.31716">
        <ele>56.881798</ele>
        <time>2017-04-26T11:16:19Z</time>
      </trkpt>
      <trkpt lat="47.78381" lon="-2.31727">
        <ele>55.47012</ele>
        <time>2017-04-26T11:16:24Z</time>
      </trkpt>
      <trkpt lat="47.78404" lon="-2.31739">
        <ele>55.876617</ele>
        <time>2017-04-26T11:16:30Z</time>
      </trkpt>
      <trkpt lat="47.78432" lon="-2.31756">
        <ele>57.152313</ele>
        <time>2017-04-26T11:16:36Z</time>
      </trkpt>
      <trkpt lat="47.78451" lon="-2.31766">
        <ele>59.01254</ele>
        <time>2017-04-26T11:16:41Z</time>
      </trkpt>
      <trkpt lat="47.78471" lon="-2.31776">
        <ele>59.101753</ele>
        <time>2017-04-26T11:16:47Z</time>
      </trkpt>
      <trkpt lat="47.78497" lon="-2.31791">
        <ele>59.748695</ele>
        <time>2017-04-26T11:16:53Z</time>
      </trkpt>
      <trkpt lat="47.7852" lon="-2.31805">
        <ele>59.822624</ele>
        <time>2017-04-26T11:16:59Z</time>
      </trkpt>
      <trkpt lat="47.78536" lon="-2.31815">
        <ele>58.45253</ele>
        <time>2017-04-26T11:17:04Z</time>
      </trkpt>
      <trkpt lat="47.78556" lon="-2.31827">
        <ele>58.552185</ele>
        <time>2017-04-26T11:17:10Z</time>
      </trkpt>
      <trkpt lat="47.78575" lon="-2.31838">
        <ele>58.714428</ele>
        <time>2017-04-26T11:17:16Z</time>
      </trkpt>
      <trkpt lat="47.78594" lon="-2.31853">
        <ele>58.302025</ele>
        <time>2017-04-26T11:17:21Z</time>
      </trkpt>
      <trkpt lat="47.7861" lon="-2.31864">
        <ele>58.444218</ele>
        <time>2017-04-26T11:17:27Z</time>
      </trkpt>
      <trkpt lat="47.78629" lon="-2.31873">
        <ele>58.817467</ele>
        <time>2017-04-26T11:17:33Z</time>
      </trkpt>
      <trkpt lat="47.78648" lon="-2.31884">
        <ele>58.562664</ele>
        <time>2017-04-26T11:17:38Z</time>
      </trkpt>
      <trkpt lat="47.78669" lon="-2.31897">
        <ele>59.721485</ele>
        <time>2017-04-26T11:17:44Z</time>
      </trkpt>
      <trkpt lat="47.78687" lon="-2.31909">
        <ele>57.65362</ele>
        <time>2017-04-26T11:17:49Z</time>
      </trkpt>
      <trkpt lat="47.78709" lon="-2.31923">
        <ele>57.8408</ele>
        <time>2017-04-26T11:17:55Z</time>
      </trkpt>
      <trkpt lat="47.78729" lon="-2.31934">
        <ele>56.8504</ele>
        <time>2017-04-26T11:18:00Z</time>
      </trkpt>
      <trkpt lat="47.7875" lon="-2.31948">
        <ele>58.051723</ele>
        <time>2017-04-26T11:18:06Z</time>
      </trkpt>
      <trkpt lat="47.78774" lon="-2.3196">
        <ele>58.434513</ele>
        <time>2017-04-26T11:18:12Z</time>
      </trkpt>
      <trkpt lat="47.78798" lon="-2.31973">
        <ele>58.718803</ele>
        <time>2017-04-26T11:18:18Z</time>
      </trkpt>
      <trkpt lat="47.7882" lon="-2.31984">
        <ele>59.057617</ele>
        <time>2017-04-26T11:18:23Z</time>
      </trkpt>
      <trkpt lat="47.78843" lon="-2.32001">
        <ele>60.03675</ele>
        <time>2017-04-26T11:18:29Z</time>
      </trkpt>
      <trkpt lat="47.78869" lon="-2.32017">
        <ele>60.861385</ele>
        <time>2017-04-26T11:18:35Z</time>
      </trkpt>
      <trkpt lat="47.78892" lon="-2.32033">
        <ele>61.18022</ele>
        <time>2017-04-26T11:18:41Z</time>
      </trkpt>
      <trkpt lat="47.78916" lon="-2.32047">
        <ele>61.5046</ele>
        <time>2017-04-26T11:18:47Z</time>
      </trkpt>
      <trkpt lat="47.7894" lon="-2.32064">
        <ele>63.501163</ele>
        <time>2017-04-26T11:18:53Z</time>
      </trkpt>
      <trkpt lat="47.78959" lon="-2.32079">
        <ele>61.81007</ele>
        <time>2017-04-26T11:18:59Z</time>
      </trkpt>
      <trkpt lat="47.78978" lon="-2.32109">
        <ele>62.659122</ele>
        <time>2017-04-26T11:19:05Z</time>
      </trkpt>
      <trkpt lat="47.78987" lon="-2.32133">
        <ele>64.670746</ele>
        <time>2017-04-26T11:19:10Z</time>
      </trkpt>
      <trkpt lat="47.79001" lon="-2.32168">
        <ele>64.28504</ele>
        <time>2017-04-26T11:19:16Z</time>
      </trkpt>
      <trkpt lat="47.79009" lon="-2.3219">
        <ele>63.3736</ele>
        <time>2017-04-26T11:19:21Z</time>
      </trkpt>
      <trkpt lat="47.79016" lon="-2.32211">
        <ele>62.67381</ele>
        <time>2017-04-26T11:19:26Z</time>
      </trkpt>
      <trkpt lat="47.79026" lon="-2.32242">
        <ele>62.467873</ele>
        <time>2017-04-26T11:19:31Z</time>
      </trkpt>
      <trkpt lat="47.79034" lon="-2.32272">
        <ele>61.786083</ele>
        <time>2017-04-26T11:19:37Z</time>
      </trkpt>
      <trkpt lat="47.79045" lon="-2.3231">
        <ele>60.883366</ele>
        <time>2017-04-26T11:19:43Z</time>
      </trkpt>
      <trkpt lat="47.79052" lon="-2.32345">
        <ele>63.808743</ele>
        <time>2017-04-26T11:19:49Z</time>
      </trkpt>
      <trkpt lat="47.79058" lon="-2.32378">
        <ele>64.67713</ele>
        <time>2017-04-26T11:19:55Z</time>
      </trkpt>
      <trkpt lat="47.7906" lon="-2.32395">
        <ele>65.24441</ele>
        <time>2017-04-26T11:20:01Z</time>
      </trkpt>
      <trkpt lat="47.79063" lon="-2.32422">
        <ele>65.40325</ele>
        <time>2017-04-26T11:20:07Z</time>
      </trkpt>
      <trkpt lat="47.79069" lon="-2.32456">
        <ele>65.55969</ele>
        <time>2017-04-26T11:20:13Z</time>
      </trkpt>
      <trkpt lat="47.79082" lon="-2.32491">
        <ele>65.21269</ele>
        <time>2017-04-26T11:20:19Z</time>
      </trkpt>
      <trkpt lat="47.79095" lon="-2.32523">
        <ele>65.43335</ele>
        <time>2017-04-26T11:20:25Z</time>
      </trkpt>
      <trkpt lat="47.79108" lon="-2.32549">
        <ele>65.4685</ele>
        <time>2017-04-26T11:20:30Z</time>
      </trkpt>
      <trkpt lat="47.79123" lon="-2.32578">
        <ele>65.375435</ele>
        <time>2017-04-26T11:20:36Z</time>
      </trkpt>
      <trkpt lat="47.79135" lon="-2.32598">
        <ele>65.54215</ele>
        <time>2017-04-26T11:20:41Z</time>
      </trkpt>
      <trkpt lat="47.79153" lon="-2.32625">
        <ele>65.75146</ele>
        <time>2017-04-26T11:20:47Z</time>
      </trkpt>
      <trkpt lat="47.79174" lon="-2.32652">
        <ele>65.502655</ele>
        <time>2017-04-26T11:20:53Z</time>
      </trkpt>
      <trkpt lat="47.79193" lon="-2.32674">
        <ele>64.41688</ele>
        <time>2017-04-26T11:20:59Z</time>
      </trkpt>
      <trkpt lat="47.79212" lon="-2.32691">
        <ele>64.07106</ele>
        <time>2017-04-26T11:21:05Z</time>
      </trkpt>
      <trkpt lat="47.79236" lon="-2.32711">
        <ele>63.74175</ele>
        <time>2017-04-26T11:21:11Z</time>
      </trkpt>
      <trkpt lat="47.79259" lon="-2.32727">
        <ele>63.50493</ele>
        <time>2017-04-26T11:21:17Z</time>
      </trkpt>
      <trkpt lat="47.79286" lon="-2.32742">
        <ele>63.460613</ele>
        <time>2017-04-26T11:21:23Z</time>
      </trkpt>
      <trkpt lat="47.79309" lon="-2.32747">
        <ele>62.626015</ele>
        <time>2017-04-26T11:21:29Z</time>
      </trkpt>
      <trkpt lat="47.79339" lon="-2.32746">
        <ele>60.548832</ele>
        <time>2017-04-26T11:21:35Z</time>
      </trkpt>
      <trkpt lat="47.79367" lon="-2.32738">
        <ele>61.225983</ele>
        <time>2017-04-26T11:21:41Z</time>
      </trkpt>
      <trkpt lat="47.79391" lon="-2.32726">
        <ele>62.92455</ele>
        <time>2017-04-26T11:21:47Z</time>
      </trkpt>
      <trkpt lat="47.79412" lon="-2.32712">
        <ele>63.166195</ele>
        <time>2017-04-26T11:21:53Z</time>
      </trkpt>
      <trkpt lat="47.79428" lon="-2.32697">
        <ele>63.04285</ele>
        <time>2017-04-26T11:21:58Z</time>
      </trkpt>
      <trkpt lat="47.79452" lon="-2.32679">
        <ele>60.409924</ele>
        <time>2017-04-26T11:22:04Z</time>
      </trkpt>
      <trkpt lat="47.79473" lon="-2.32659">
        <ele>60.06411</ele>
        <time>2017-04-26T11:22:10Z</time>
      </trkpt>
      <trkpt lat="47.79491" lon="-2.32637">
        <ele>60.08353</ele>
        <time>2017-04-26T11:22:16Z</time>
      </trkpt>
      <trkpt lat="47.7951" lon="-2.3262">
        <ele>57.244217</ele>
        <time>2017-04-26T11:22:21Z</time>
      </trkpt>
      <trkpt lat="47.79532" lon="-2.32606">
        <ele>57.035793</ele>
        <time>2017-04-26T11:22:27Z</time>
      </trkpt>
      <trkpt lat="47.79554" lon="-2.32595">
        <ele>57.007576</ele>
        <time>2017-04-26T11:22:33Z</time>
      </trkpt>
      <trkpt lat="47.79582" lon="-2.32587">
        <ele>56.94709</ele>
        <time>2017-04-26T11:22:39Z</time>
      </trkpt>
      <trkpt lat="47.79608" lon="-2.32589">
        <ele>58.160988</ele>
        <time>2017-04-26T11:22:45Z</time>
      </trkpt>
      <trkpt lat="47.79632" lon="-2.32596">
        <ele>58.42386</ele>
        <time>2017-04-26T11:22:51Z</time>
      </trkpt>
      <trkpt lat="47.79658" lon="-2.32606">
        <ele>58.62116</ele>
        <time>2017-04-26T11:22:57Z</time>
      </trkpt>
      <trkpt lat="47.79682" lon="-2.32617">
        <ele>58.793026</ele>
        <time>2017-04-26T11:23:03Z</time>
      </trkpt>
      <trkpt lat="47.79702" lon="-2.32633">
        <ele>58.914005</ele>
        <time>2017-04-26T11:23:08Z</time>
      </trkpt>
      <trkpt lat="47.79718" lon="-2.32657">
        <ele>59.325283</ele>
        <time>2017-04-26T11:23:14Z</time>
      </trkpt>
      <trkpt lat="47.79732" lon="-2.32681">
        <ele>59.954372</ele>
        <time>2017-04-26T11:23:19Z</time>
      </trkpt>
      <trkpt lat="47.79745" lon="-2.32703">
        <ele>61.309475</ele>
        <time>2017-04-26T11:23:25Z</time>
      </trkpt>
      <trkpt lat="47.79762" lon="-2.32723">
        <ele>61.50218</ele>
        <time>2017-04-26T11:23:31Z</time>
      </trkpt>
      <trkpt lat="47.79779" lon="-2.32745">
        <ele>62.01485</ele>
        <time>2017-04-26T11:23:37Z</time>
      </trkpt>
      <trkpt lat="47.798" lon="-2.3276">
        <ele>62.38846</ele>
        <time>2017-04-26T11:23:43Z</time>
      </trkpt>
      <trkpt lat="47.79825" lon="-2.32763">
        <ele>60.55114</ele>
        <time>2017-04-26T11:23:49Z</time>
      </trkpt>
      <trkpt lat="47.79851" lon="-2.32763">
        <ele>60.2336</ele>
        <time>2017-04-26T11:23:55Z</time>
      </trkpt>
      <trkpt lat="47.79878" lon="-2.32764">
        <ele>60.707275</ele>
        <time>2017-04-26T11:24:01Z</time>
      </trkpt>
      <trkpt lat="47.79897" lon="-2.32765">
        <ele>60.510788</ele>
        <time>2017-04-26T11:24:06Z</time>
      </trkpt>
      <trkpt lat="47.79923" lon="-2.32774">
        <ele>60.63823</ele>
        <time>2017-04-26T11:24:12Z</time>
      </trkpt>
      <trkpt lat="47.79948" lon="-2.3279">
        <ele>61.31555</ele>
        <time>2017-04-26T11:24:18Z</time>
      </trkpt>
      <trkpt lat="47.79969" lon="-2.32805">
        <ele>61.191135</ele>
        <time>2017-04-26T11:24:23Z</time>
      </trkpt>
      <trkpt lat="47.79985" lon="-2.32821">
        <ele>62.693794</ele>
        <time>2017-04-26T11:24:28Z</time>
      </trkpt>
      <trkpt lat="47.80004" lon="-2.32837">
        <ele>62.5122</ele>
        <time>2017-04-26T11:24:34Z</time>
      </trkpt>
      <trkpt lat="47.80027" lon="-2.32856">
        <ele>62.485798</ele>
        <time>2017-04-26T11:24:40Z</time>
      </trkpt>
      <trkpt lat="47.80047" lon="-2.32868">
        <ele>61.514854</ele>
        <time>2017-04-26T11:24:46Z</time>
      </trkpt>
      <trkpt lat="47.80072" lon="-2.3288">
        <ele>59.963947</ele>
        <time>2017-04-26T11:24:52Z</time>
      </trkpt>
      <trkpt lat="47.80088" lon="-2.32886">
        <ele>60.13388</ele>
        <time>2017-04-26T11:24:57Z</time>
      </trkpt>
      <trkpt lat="47.80113" lon="-2.32903">
        <ele>60.084774</ele>
        <time>2017-04-26T11:25:03Z</time>
      </trkpt>
      <trkpt lat="47.80136" lon="-2.32926">
        <ele>60.767525</ele>
        <time>2017-04-26T11:25:09Z</time>
      </trkpt>
      <trkpt lat="47.80151" lon="-2.32952">
        <ele>61.668903</ele>
        <time>2017-04-26T11:25:15Z</time>
      </trkpt>
      <trkpt lat="47.80163" lon="-2.32977">
        <ele>62.456333</ele>
        <time>2017-04-26T11:25:21Z</time>
      </trkpt>
      <trkpt lat="47.80177" lon="-2.33002">
        <ele>63.534897</ele>
        <time>2017-04-26T11:25:27Z</time>
      </trkpt>
      <trkpt lat="47.80188" lon="-2.33021">
        <ele>64.112404</ele>
        <time>2017-04-26T11:25:32Z</time>
      </trkpt>
      <trkpt lat="47.80201" lon="-2.33043">
        <ele>64.96948</ele>
        <time>2017-04-26T11:25:38Z</time>
      </trkpt>
      <trkpt lat="47.80219" lon="-2.33062">
        <ele>65.7713</ele>
        <time>2017-04-26T11:25:43Z</time>
      </trkpt>
      <trkpt lat="47.80242" lon="-2.33083">
        <ele>67.97825</ele>
        <time>2017-04-26T11:25:49Z</time>
      </trkpt>
      <trkpt lat="47.80259" lon="-2.33098">
        <ele>68.10437</ele>
        <time>2017-04-26T11:25:55Z</time>
      </trkpt>
      <trkpt lat="47.8028" lon="-2.33122">
        <ele>67.62769</ele>
        <time>2017-04-26T11:26:01Z</time>
      </trkpt>
      <trkpt lat="47.803" lon="-2.33153">
        <ele>66.60419</ele>
        <time>2017-04-26T11:26:07Z</time>
      </trkpt>
      <trkpt lat="47.80311" lon="-2.3319">
        <ele>67.90165</ele>
        <time>2017-04-26T11:26:13Z</time>
      </trkpt>
      <trkpt lat="47.80316" lon="-2.33227">
        <ele>65.68928</ele>
        <time>2017-04-26T11:26:19Z</time>
      </trkpt>
      <trkpt lat="47.80319" lon="-2.33265">
        <ele>63.250824</ele>
        <time>2017-04-26T11:26:25Z</time>
      </trkpt>
      <trkpt lat="47.80318" lon="-2.33298">
        <ele>61.238804</ele>
        <time>2017-04-26T11:26:30Z</time>
      </trkpt>
      <trkpt lat="47.80314" lon="-2.33338">
        <ele>59.871193</ele>
        <time>2017-04-26T11:26:36Z</time>
      </trkpt>
      <trkpt lat="47.80304" lon="-2.3338">
        <ele>62.53175</ele>
        <time>2017-04-26T11:26:42Z</time>
      </trkpt>
      <trkpt lat="47.80296" lon="-2.33411">
        <ele>62.790752</ele>
        <time>2017-04-26T11:26:47Z</time>
      </trkpt>
      <trkpt lat="47.80288" lon="-2.33447">
        <ele>63.459503</ele>
        <time>2017-04-26T11:26:53Z</time>
      </trkpt>
      <trkpt lat="47.80286" lon="-2.33477">
        <ele>63.34763</ele>
        <time>2017-04-26T11:26:58Z</time>
      </trkpt>
      <trkpt lat="47.80286" lon="-2.33504">
        <ele>60.57608</ele>
        <time>2017-04-26T11:27:03Z</time>
      </trkpt>
      <trkpt lat="47.80289" lon="-2.33536">
        <ele>58.70158</ele>
        <time>2017-04-26T11:27:08Z</time>
      </trkpt>
      <trkpt lat="47.80294" lon="-2.33575">
        <ele>58.281826</ele>
        <time>2017-04-26T11:27:14Z</time>
      </trkpt>
      <trkpt lat="47.80301" lon="-2.33615">
        <ele>58.98916</ele>
        <time>2017-04-26T11:27:20Z</time>
      </trkpt>
      <trkpt lat="47.80307" lon="-2.33641">
        <ele>59.09946</ele>
        <time>2017-04-26T11:27:25Z</time>
      </trkpt>
      <trkpt lat="47.80315" lon="-2.33677">
        <ele>60.198505</ele>
        <time>2017-04-26T11:27:31Z</time>
      </trkpt>
      <trkpt lat="47.80324" lon="-2.33708">
        <ele>62.075306</ele>
        <time>2017-04-26T11:27:37Z</time>
      </trkpt>
      <trkpt lat="47.80333" lon="-2.33731">
        <ele>60.73845</ele>
        <time>2017-04-26T11:27:42Z</time>
      </trkpt>
      <trkpt lat="47.80342" lon="-2.33759">
        <ele>59.56152</ele>
        <time>2017-04-26T11:27:47Z</time>
      </trkpt>
      <trkpt lat="47.80353" lon="-2.33788">
        <ele>59.14961</ele>
        <time>2017-04-26T11:27:52Z</time>
      </trkpt>
      <trkpt lat="47.80366" lon="-2.33822">
        <ele>58.098038</ele>
        <time>2017-04-26T11:27:58Z</time>
      </trkpt>
      <trkpt lat="47.8038" lon="-2.33857">
        <ele>57.8919</ele>
        <time>2017-04-26T11:28:04Z</time>
      </trkpt>
      <trkpt lat="47.80392" lon="-2.33886">
        <ele>58.144314</ele>
        <time>2017-04-26T11:28:09Z</time>
      </trkpt>
      <trkpt lat="47.80408" lon="-2.33923">
        <ele>60.224434</ele>
        <time>2017-04-26T11:28:15Z</time>
      </trkpt>
      <trkpt lat="47.80425" lon="-2.33956">
        <ele>60.329304</ele>
        <time>2017-04-26T11:28:21Z</time>
      </trkpt>
      <trkpt lat="47.80436" lon="-2.33981">
        <ele>60.73225</ele>
        <time>2017-04-26T11:28:27Z</time>
      </trkpt>
      <trkpt lat="47.80449" lon="-2.3401">
        <ele>60.947292</ele>
        <time>2017-04-26T11:28:33Z</time>
      </trkpt>
      <trkpt lat="47.80462" lon="-2.34032">
        <ele>61.3909</ele>
        <time>2017-04-26T11:28:38Z</time>
      </trkpt>
      <trkpt lat="47.80473" lon="-2.34054">
        <ele>61.904686</ele>
        <time>2017-04-26T11:28:44Z</time>
      </trkpt>
      <trkpt lat="47.80484" lon="-2.34078">
        <ele>62.22698</ele>
        <time>2017-04-26T11:28:49Z</time>
      </trkpt>
      <trkpt lat="47.80492" lon="-2.341">
        <ele>62.805283</ele>
        <time>2017-04-26T11:28:55Z</time>
      </trkpt>
      <trkpt lat="47.80501" lon="-2.34129">
        <ele>62.97862</ele>
        <time>2017-04-26T11:29:01Z</time>
      </trkpt>
      <trkpt lat="47.80511" lon="-2.34161">
        <ele>62.68588</ele>
        <time>2017-04-26T11:29:07Z</time>
      </trkpt>
      <trkpt lat="47.80517" lon="-2.34181">
        <ele>62.922543</ele>
        <time>2017-04-26T11:29:13Z</time>
      </trkpt>
      <trkpt lat="47.80526" lon="-2.34212">
        <ele>62.913635</ele>
        <time>2017-04-26T11:29:19Z</time>
      </trkpt>
      <trkpt lat="47.80535" lon="-2.34239">
        <ele>63.16249</ele>
        <time>2017-04-26T11:29:24Z</time>
      </trkpt>
      <trkpt lat="47.80544" lon="-2.34267">
        <ele>63.70862</ele>
        <time>2017-04-26T11:29:30Z</time>
      </trkpt>
      <trkpt lat="47.80553" lon="-2.34291">
        <ele>63.774147</ele>
        <time>2017-04-26T11:29:36Z</time>
      </trkpt>
      <trkpt lat="47.80564" lon="-2.34321">
        <ele>63.36179</ele>
        <time>2017-04-26T11:29:42Z</time>
      </trkpt>
      <trkpt lat="47.80575" lon="-2.34347">
        <ele>63.525642</ele>
        <time>2017-04-26T11:29:48Z</time>
      </trkpt>
      <trkpt lat="47.80587" lon="-2.34371">
        <ele>63.05394</ele>
        <time>2017-04-26T11:29:54Z</time>
      </trkpt>
      <trkpt lat="47.80601" lon="-2.34404">
        <ele>62.82354</ele>
        <time>2017-04-26T11:30:00Z</time>
      </trkpt>
      <trkpt lat="47.80605" lon="-2.34433">
        <ele>64.34504</ele>
        <time>2017-04-26T11:30:06Z</time>
      </trkpt>
      <trkpt lat="47.80609" lon="-2.3446">
        <ele>64.674995</ele>
        <time>2017-04-26T11:30:11Z</time>
      </trkpt>
      <trkpt lat="47.80612" lon="-2.3449">
        <ele>64.66623</ele>
        <time>2017-04-26T11:30:17Z</time>
      </trkpt>
      <trkpt lat="47.80618" lon="-2.34519">
        <ele>64.10798</ele>
        <time>2017-04-26T11:30:23Z</time>
      </trkpt>
      <trkpt lat="47.80625" lon="-2.34546">
        <ele>63.649914</ele>
        <time>2017-04-26T11:30:29Z</time>
      </trkpt>
      <trkpt lat="47.80633" lon="-2.3458">
        <ele>61.732338</ele>
        <time>2017-04-26T11:30:35Z</time>
      </trkpt>
      <trkpt lat="47.80638" lon="-2.34609">
        <ele>61.619495</ele>
        <time>2017-04-26T11:30:41Z</time>
      </trkpt>
      <trkpt lat="47.80642" lon="-2.34634">
        <ele>61.469048</ele>
        <time>2017-04-26T11:30:46Z</time>
      </trkpt>
      <trkpt lat="47.80647" lon="-2.34663">
        <ele>61.21383</ele>
        <time>2017-04-26T11:30:52Z</time>
      </trkpt>
      <trkpt lat="47.80652" lon="-2.34692">
        <ele>61.24683</ele>
        <time>2017-04-26T11:30:58Z</time>
      </trkpt>
      <trkpt lat="47.80657" lon="-2.34724">
        <ele>61.177834</ele>
        <time>2017-04-26T11:31:04Z</time>
      </trkpt>
      <trkpt lat="47.80661" lon="-2.34752">
        <ele>61.059837</ele>
        <time>2017-04-26T11:31:09Z</time>
      </trkpt>
      <trkpt lat="47.80666" lon="-2.34782">
        <ele>61.009346</ele>
        <time>2017-04-26T11:31:15Z</time>
      </trkpt>
      <trkpt lat="47.80671" lon="-2.34815">
        <ele>61.242188</ele>
        <time>2017-04-26T11:31:21Z</time>
      </trkpt>
      <trkpt lat="47.80676" lon="-2.34847">
        <ele>61.236763</ele>
        <time>2017-04-26T11:31:27Z</time>
      </trkpt>
      <trkpt lat="47.80682" lon="-2.34867">
        <ele>61.13553</ele>
        <time>2017-04-26T11:31:32Z</time>
      </trkpt>
      <trkpt lat="47.80688" lon="-2.3489">
        <ele>60.95519</ele>
        <time>2017-04-26T11:31:37Z</time>
      </trkpt>
      <trkpt lat="47.80696" lon="-2.34924">
        <ele>61.00945</ele>
        <time>2017-04-26T11:31:43Z</time>
      </trkpt>
      <trkpt lat="47.80706" lon="-2.34957">
        <ele>62.213448</ele>
        <time>2017-04-26T11:31:49Z</time>
      </trkpt>
      <trkpt lat="47.80713" lon="-2.34989">
        <ele>61.678497</ele>
        <time>2017-04-26T11:31:55Z</time>
      </trkpt>
      <trkpt lat="47.8072" lon="-2.3502">
        <ele>58.68228</ele>
        <time>2017-04-26T11:32:01Z</time>
      </trkpt>
      <trkpt lat="47.8073" lon="-2.35056">
        <ele>57.487564</ele>
        <time>2017-04-26T11:32:07Z</time>
      </trkpt>
      <trkpt lat="47.80737" lon="-2.35098">
        <ele>58.395897</ele>
        <time>2017-04-26T11:32:13Z</time>
      </trkpt>
      <trkpt lat="47.80743" lon="-2.35128">
        <ele>58.776325</ele>
        <time>2017-04-26T11:32:18Z</time>
      </trkpt>
      <trkpt lat="47.8075" lon="-2.35161">
        <ele>58.852238</ele>
        <time>2017-04-26T11:32:24Z</time>
      </trkpt>
      <trkpt lat="47.80757" lon="-2.35192">
        <ele>59.03198</ele>
        <time>2017-04-26T11:32:30Z</time>
      </trkpt>
      <trkpt lat="47.80762" lon="-2.35216">
        <ele>59.521584</ele>
        <time>2017-04-26T11:32:35Z</time>
      </trkpt>
      <trkpt lat="47.80768" lon="-2.35244">
        <ele>59.993793</ele>
        <time>2017-04-26T11:32:41Z</time>
      </trkpt>
      <trkpt lat="47.80775" lon="-2.35278">
        <ele>61.38977</ele>
        <time>2017-04-26T11:32:47Z</time>
      </trkpt>
      <trkpt lat="47.8078" lon="-2.35306">
        <ele>62.038204</ele>
        <time>2017-04-26T11:32:52Z</time>
      </trkpt>
      <trkpt lat="47.80786" lon="-2.35331">
        <ele>61.534286</ele>
        <time>2017-04-26T11:32:58Z</time>
      </trkpt>
      <trkpt lat="47.80793" lon="-2.35358">
        <ele>61.10771</ele>
        <time>2017-04-26T11:33:04Z</time>
      </trkpt>
      <trkpt lat="47.80799" lon="-2.35391">
        <ele>61.008545</ele>
        <time>2017-04-26T11:33:10Z</time>
      </trkpt>
      <trkpt lat="47.80803" lon="-2.35416">
        <ele>60.994625</ele>
        <time>2017-04-26T11:33:15Z</time>
      </trkpt>
      <trkpt lat="47.80807" lon="-2.35442">
        <ele>60.787136</ele>
        <time>2017-04-26T11:33:21Z</time>
      </trkpt>
      <trkpt lat="47.80812" lon="-2.35465">
        <ele>60.74806</ele>
        <time>2017-04-26T11:33:26Z</time>
      </trkpt>
      <trkpt lat="47.80817" lon="-2.35492">
        <ele>60.864674</ele>
        <time>2017-04-26T11:33:32Z</time>
      </trkpt>
      <trkpt lat="47.8082" lon="-2.35517">
        <ele>60.786877</ele>
        <time>2017-04-26T11:33:37Z</time>
      </trkpt>
      <trkpt lat="47.80819" lon="-2.35542">
        <ele>60.595215</ele>
        <time>2017-04-26T11:33:42Z</time>
      </trkpt>
      <trkpt lat="47.80816" lon="-2.35577">
        <ele>62.188095</ele>
        <time>2017-04-26T11:33:48Z</time>
      </trkpt>
      <trkpt lat="47.80811" lon="-2.3561">
        <ele>62.982838</ele>
        <time>2017-04-26T11:33:54Z</time>
      </trkpt>
      <trkpt lat="47.80807" lon="-2.35644">
        <ele>62.75046</ele>
        <time>2017-04-26T11:34:00Z</time>
      </trkpt>
      <trkpt lat="47.80804" lon="-2.35675">
        <ele>61.985806</ele>
        <time>2017-04-26T11:34:06Z</time>
      </trkpt>
      <trkpt lat="47.80799" lon="-2.3571">
        <ele>60.74893</ele>
        <time>2017-04-26T11:34:12Z</time>
      </trkpt>
      <trkpt lat="47.80796" lon="-2.35742">
        <ele>60.68762</ele>
        <time>2017-04-26T11:34:17Z</time>
      </trkpt>
      <trkpt lat="47.80793" lon="-2.35777">
        <ele>60.49921</ele>
        <time>2017-04-26T11:34:23Z</time>
      </trkpt>
      <trkpt lat="47.80789" lon="-2.35809">
        <ele>60.600918</ele>
        <time>2017-04-26T11:34:28Z</time>
      </trkpt>
      <trkpt lat="47.80786" lon="-2.35844">
        <ele>60.634773</ele>
        <time>2017-04-26T11:34:34Z</time>
      </trkpt>
      <trkpt lat="47.80781" lon="-2.35882">
        <ele>62.08945</ele>
        <time>2017-04-26T11:34:40Z</time>
      </trkpt>
      <trkpt lat="47.80779" lon="-2.3591">
        <ele>62.815628</ele>
        <time>2017-04-26T11:34:45Z</time>
      </trkpt>
      <trkpt lat="47.80775" lon="-2.35939">
        <ele>62.472134</ele>
        <time>2017-04-26T11:34:50Z</time>
      </trkpt>
      <trkpt lat="47.80772" lon="-2.35973">
        <ele>63.350815</ele>
        <time>2017-04-26T11:34:56Z</time>
      </trkpt>
      <trkpt lat="47.8077" lon="-2.36005">
        <ele>60.58812</ele>
        <time>2017-04-26T11:35:02Z</time>
      </trkpt>
      <trkpt lat="47.80767" lon="-2.36043">
        <ele>61.28616</ele>
        <time>2017-04-26T11:35:08Z</time>
      </trkpt>
      <trkpt lat="47.80766" lon="-2.36078">
        <ele>61.842323</ele>
        <time>2017-04-26T11:35:14Z</time>
      </trkpt>
      <trkpt lat="47.80766" lon="-2.36107">
        <ele>61.050453</ele>
        <time>2017-04-26T11:35:19Z</time>
      </trkpt>
      <trkpt lat="47.80765" lon="-2.36142">
        <ele>60.416065</ele>
        <time>2017-04-26T11:35:25Z</time>
      </trkpt>
      <trkpt lat="47.80763" lon="-2.36174">
        <ele>60.087494</ele>
        <time>2017-04-26T11:35:31Z</time>
      </trkpt>
      <trkpt lat="47.80762" lon="-2.36209">
        <ele>60.12578</ele>
        <time>2017-04-26T11:35:37Z</time>
      </trkpt>
      <trkpt lat="47.80761" lon="-2.36244">
        <ele>58.888367</ele>
        <time>2017-04-26T11:35:43Z</time>
      </trkpt>
      <trkpt lat="47.8076" lon="-2.36281">
        <ele>59.305187</ele>
        <time>2017-04-26T11:35:49Z</time>
      </trkpt>
      <trkpt lat="47.80761" lon="-2.3631">
        <ele>59.853397</ele>
        <time>2017-04-26T11:35:55Z</time>
      </trkpt>
      <trkpt lat="47.8076" lon="-2.36348">
        <ele>59.690044</ele>
        <time>2017-04-26T11:36:01Z</time>
      </trkpt>
      <trkpt lat="47.80761" lon="-2.36375">
        <ele>60.722435</ele>
        <time>2017-04-26T11:36:06Z</time>
      </trkpt>
      <trkpt lat="47.80759" lon="-2.36409">
        <ele>60.657806</ele>
        <time>2017-04-26T11:36:12Z</time>
      </trkpt>
      <trkpt lat="47.80759" lon="-2.36443">
        <ele>60.872417</ele>
        <time>2017-04-26T11:36:18Z</time>
      </trkpt>
      <trkpt lat="47.8076" lon="-2.36475">
        <ele>60.843822</ele>
        <time>2017-04-26T11:36:24Z</time>
      </trkpt>
      <trkpt lat="47.80758" lon="-2.3651">
        <ele>61.35648</ele>
        <time>2017-04-26T11:36:30Z</time>
      </trkpt>
      <trkpt lat="47.80757" lon="-2.3654">
        <ele>61.73047</ele>
        <time>2017-04-26T11:36:35Z</time>
      </trkpt>
      <trkpt lat="47.80755" lon="-2.36577">
        <ele>61.839794</ele>
        <time>2017-04-26T11:36:41Z</time>
      </trkpt>
      <trkpt lat="47.80754" lon="-2.3661">
        <ele>60.58566</ele>
        <time>2017-04-26T11:36:47Z</time>
      </trkpt>
      <trkpt lat="47.80752" lon="-2.36645">
        <ele>61.395184</ele>
        <time>2017-04-26T11:36:53Z</time>
      </trkpt>
      <trkpt lat="47.80751" lon="-2.36673">
        <ele>61.151176</ele>
        <time>2017-04-26T11:36:58Z</time>
      </trkpt>
      <trkpt lat="47.80749" lon="-2.36703">
        <ele>61.317688</ele>
        <time>2017-04-26T11:37:04Z</time>
      </trkpt>
      <trkpt lat="47.80747" lon="-2.36732">
        <ele>61.132374</ele>
        <time>2017-04-26T11:37:10Z</time>
      </trkpt>
      <trkpt lat="47.80745" lon="-2.3676">
        <ele>61.025043</ele>
        <time>2017-04-26T11:37:15Z</time>
      </trkpt>
      <trkpt lat="47.80743" lon="-2.36795">
        <ele>60.550346</ele>
        <time>2017-04-26T11:37:21Z</time>
      </trkpt>
      <trkpt lat="47.8074" lon="-2.36831">
        <ele>60.78582</ele>
        <time>2017-04-26T11:37:27Z</time>
      </trkpt>
      <trkpt lat="47.80737" lon="-2.36864">
        <ele>60.73817</ele>
        <time>2017-04-26T11:37:32Z</time>
      </trkpt>
      <trkpt lat="47.80729" lon="-2.36898">
        <ele>60.931915</ele>
        <time>2017-04-26T11:37:38Z</time>
      </trkpt>
      <trkpt lat="47.80717" lon="-2.36927">
        <ele>61.74349</ele>
        <time>2017-04-26T11:37:44Z</time>
      </trkpt>
      <trkpt lat="47.80699" lon="-2.36955">
        <ele>63.330345</ele>
        <time>2017-04-26T11:37:50Z</time>
      </trkpt>
      <trkpt lat="47.80676" lon="-2.36979">
        <ele>64.104866</ele>
        <time>2017-04-26T11:37:56Z</time>
      </trkpt>
      <trkpt lat="47.80653" lon="-2.36993">
        <ele>63.134304</ele>
        <time>2017-04-26T11:38:02Z</time>
      </trkpt>
      <trkpt lat="47.80633" lon="-2.37005">
        <ele>61.522537</ele>
        <time>2017-04-26T11:38:08Z</time>
      </trkpt>
      <trkpt lat="47.80613" lon="-2.37019">
        <ele>62.476376</ele>
        <time>2017-04-26T11:38:14Z</time>
      </trkpt>
      <trkpt lat="47.80592" lon="-2.37031">
        <ele>62.483856</ele>
        <time>2017-04-26T11:38:20Z</time>
      </trkpt>
      <trkpt lat="47.80568" lon="-2.37043">
        <ele>63.7514</ele>
        <time>2017-04-26T11:38:26Z</time>
      </trkpt>
      <trkpt lat="47.80545" lon="-2.37059">
        <ele>65.085144</ele>
        <time>2017-04-26T11:38:32Z</time>
      </trkpt>
      <trkpt lat="47.80523" lon="-2.37071">
        <ele>66.01113</ele>
        <time>2017-04-26T11:38:37Z</time>
      </trkpt>
      <trkpt lat="47.80498" lon="-2.3709">
        <ele>65.927605</ele>
        <time>2017-04-26T11:38:43Z</time>
      </trkpt>
      <trkpt lat="47.8048" lon="-2.37119">
        <ele>66.98754</ele>
        <time>2017-04-26T11:38:49Z</time>
      </trkpt>
      <trkpt lat="47.80466" lon="-2.37153">
        <ele>64.42455</ele>
        <time>2017-04-26T11:38:55Z</time>
      </trkpt>
      <trkpt lat="47.80456" lon="-2.37184">
        <ele>64.03203</ele>
        <time>2017-04-26T11:39:00Z</time>
      </trkpt>
      <trkpt lat="47.80448" lon="-2.37224">
        <ele>65.623375</ele>
        <time>2017-04-26T11:39:06Z</time>
      </trkpt>
      <trkpt lat="47.80443" lon="-2.37266">
        <ele>67.26571</ele>
        <time>2017-04-26T11:39:12Z</time>
      </trkpt>
      <trkpt lat="47.80438" lon="-2.37309">
        <ele>67.91811</ele>
        <time>2017-04-26T11:39:18Z</time>
      </trkpt>
      <trkpt lat="47.80437" lon="-2.37342">
        <ele>65.31107</ele>
        <time>2017-04-26T11:39:23Z</time>
      </trkpt>
      <trkpt lat="47.8044" lon="-2.37383">
        <ele>65.84082</ele>
        <time>2017-04-26T11:39:29Z</time>
      </trkpt>
      <trkpt lat="47.80445" lon="-2.37423">
        <ele>70.38316</ele>
        <time>2017-04-26T11:39:35Z</time>
      </trkpt>
      <trkpt lat="47.80454" lon="-2.37457">
        <ele>67.78776</ele>
        <time>2017-04-26T11:39:41Z</time>
      </trkpt>
      <trkpt lat="47.80464" lon="-2.37495">
        <ele>63.00541</ele>
        <time>2017-04-26T11:39:47Z</time>
      </trkpt>
      <trkpt lat="47.80474" lon="-2.37536">
        <ele>60.10421</ele>
        <time>2017-04-26T11:39:53Z</time>
      </trkpt>
      <trkpt lat="47.80481" lon="-2.37566">
        <ele>59.666046</ele>
        <time>2017-04-26T11:39:58Z</time>
      </trkpt>
      <trkpt lat="47.8049" lon="-2.37602">
        <ele>59.736053</ele>
        <time>2017-04-26T11:40:04Z</time>
      </trkpt>
      <trkpt lat="47.80498" lon="-2.37633">
        <ele>61.734783</ele>
        <time>2017-04-26T11:40:09Z</time>
      </trkpt>
      <trkpt lat="47.80506" lon="-2.37663">
        <ele>64.07808</ele>
        <time>2017-04-26T11:40:15Z</time>
      </trkpt>
      <trkpt lat="47.80514" lon="-2.37691">
        <ele>63.96441</ele>
        <time>2017-04-26T11:40:20Z</time>
      </trkpt>
      <trkpt lat="47.80526" lon="-2.37725">
        <ele>66.988464</ele>
        <time>2017-04-26T11:40:26Z</time>
      </trkpt>
      <trkpt lat="47.80536" lon="-2.37762">
        <ele>67.69767</ele>
        <time>2017-04-26T11:40:32Z</time>
      </trkpt>
      <trkpt lat="47.80541" lon="-2.37784">
        <ele>65.62244</ele>
        <time>2017-04-26T11:40:37Z</time>
      </trkpt>
      <trkpt lat="47.8055" lon="-2.37812">
        <ele>62.255142</ele>
        <time>2017-04-26T11:40:43Z</time>
      </trkpt>
      <trkpt lat="47.80558" lon="-2.37841">
        <ele>60.940098</ele>
        <time>2017-04-26T11:40:48Z</time>
      </trkpt>
      <trkpt lat="47.80568" lon="-2.37872">
        <ele>60.51758</ele>
        <time>2017-04-26T11:40:54Z</time>
      </trkpt>
      <trkpt lat="47.80578" lon="-2.37903">
        <ele>60.995613</ele>
        <time>2017-04-26T11:41:00Z</time>
      </trkpt>
      <trkpt lat="47.80587" lon="-2.37929">
        <ele>61.34512</ele>
        <time>2017-04-26T11:41:05Z</time>
      </trkpt>
      <trkpt lat="47.80601" lon="-2.37956">
        <ele>62.966293</ele>
        <time>2017-04-26T11:41:11Z</time>
      </trkpt>
      <trkpt lat="47.80613" lon="-2.37981">
        <ele>62.521698</ele>
        <time>2017-04-26T11:41:16Z</time>
      </trkpt>
      <trkpt lat="47.80631" lon="-2.38004">
        <ele>62.02529</ele>
        <time>2017-04-26T11:41:22Z</time>
      </trkpt>
      <trkpt lat="47.80646" lon="-2.38021">
        <ele>62.64524</ele>
        <time>2017-04-26T11:41:27Z</time>
      </trkpt>
      <trkpt lat="47.80669" lon="-2.38037">
        <ele>63.44176</ele>
        <time>2017-04-26T11:41:33Z</time>
      </trkpt>
      <trkpt lat="47.80686" lon="-2.38042">
        <ele>63.173866</ele>
        <time>2017-04-26T11:41:38Z</time>
      </trkpt>
      <trkpt lat="47.80709" lon="-2.38045">
        <ele>62.11979</ele>
        <time>2017-04-26T11:41:44Z</time>
      </trkpt>
      <trkpt lat="47.80735" lon="-2.38043">
        <ele>63.81514</ele>
        <time>2017-04-26T11:41:50Z</time>
      </trkpt>
      <trkpt lat="47.80757" lon="-2.38039">
        <ele>64.9453</ele>
        <time>2017-04-26T11:41:55Z</time>
      </trkpt>
      <trkpt lat="47.8078" lon="-2.38036">
        <ele>65.26885</ele>
        <time>2017-04-26T11:42:01Z</time>
      </trkpt>
      <trkpt lat="47.80803" lon="-2.38038">
        <ele>63.356026</ele>
        <time>2017-04-26T11:42:07Z</time>
      </trkpt>
      <trkpt lat="47.80824" lon="-2.38041">
        <ele>63.196976</ele>
        <time>2017-04-26T11:42:13Z</time>
      </trkpt>
      <trkpt lat="47.80844" lon="-2.3805">
        <ele>63.215443</ele>
        <time>2017-04-26T11:42:19Z</time>
      </trkpt>
      <trkpt lat="47.80839" lon="-2.38071">
        <ele>62.91698</ele>
        <time>2017-04-26T11:42:25Z</time>
      </trkpt>
      <trkpt lat="47.80837" lon="-2.38096">
        <ele>62.72888</ele>
        <time>2017-04-26T11:42:31Z</time>
      </trkpt>
      <trkpt lat="47.80834" lon="-2.38113">
        <ele>62.85657</ele>
        <time>2017-04-26T11:42:37Z</time>
      </trkpt>
      <trkpt lat="47.80833" lon="-2.38123">
        <ele>63.218998</ele>
        <time>2017-04-26T11:42:42Z</time>
      </trkpt>
      <trkpt lat="47.80841" lon="-2.38122">
        <ele>63.67821</ele>
        <time>2017-04-26T11:42:48Z</time>
      </trkpt>
      <trkpt lat="47.80833" lon="-2.38124">
        <ele>63.82274</ele>
        <time>2017-04-26T11:42:54Z</time>
      </trkpt>
      <trkpt lat="47.80847" lon="-2.38129">
        <ele>65.676346</ele>
        <time>2017-04-26T11:43:38Z</time>
      </trkpt>
      <trkpt lat="47.80851" lon="-2.38134">
        <ele>65.322586</ele>
        <time>2017-04-26T11:46:52Z</time>
      </trkpt>
      <trkpt lat="47.80856" lon="-2.38134">
        <ele>65.68019</ele>
        <time>2017-04-26T11:46:57Z</time>
      </trkpt>
      <trkpt lat="47.80864" lon="-2.38136">
        <ele>67.188324</ele>
        <time>2017-04-26T11:47:09Z</time>
      </trkpt>
      <trkpt lat="47.80878" lon="-2.38152">
        <ele>68.28542</ele>
        <time>2017-04-26T11:47:15Z</time>
      </trkpt>
      <trkpt lat="47.80886" lon="-2.38159">
        <ele>68.79358</ele>
        <time>2017-04-26T11:47:20Z</time>
      </trkpt>
      <trkpt lat="47.80899" lon="-2.38166">
        <ele>69.502625</ele>
        <time>2017-04-26T11:47:26Z</time>
      </trkpt>
      <trkpt lat="47.80912" lon="-2.38183">
        <ele>69.92657</ele>
        <time>2017-04-26T11:47:32Z</time>
      </trkpt>
      <trkpt lat="47.80923" lon="-2.38197">
        <ele>69.71914</ele>
        <time>2017-04-26T11:47:38Z</time>
      </trkpt>
      <trkpt lat="47.80934" lon="-2.38209">
        <ele>69.1432</ele>
        <time>2017-04-26T11:47:44Z</time>
      </trkpt>
      <trkpt lat="47.80945" lon="-2.38221">
        <ele>68.73192</ele>
        <time>2017-04-26T11:47:49Z</time>
      </trkpt>
      <trkpt lat="47.80955" lon="-2.38234">
        <ele>68.465866</ele>
        <time>2017-04-26T11:47:55Z</time>
      </trkpt>
      <trkpt lat="47.80965" lon="-2.38248">
        <ele>67.973854</ele>
        <time>2017-04-26T11:48:01Z</time>
      </trkpt>
      <trkpt lat="47.80974" lon="-2.38267">
        <ele>67.01083</ele>
        <time>2017-04-26T11:48:07Z</time>
      </trkpt>
      <trkpt lat="47.8098" lon="-2.38281">
        <ele>67.089066</ele>
        <time>2017-04-26T11:48:13Z</time>
      </trkpt>
      <trkpt lat="47.8098" lon="-2.38288">
        <ele>68.21837</ele>
        <time>2017-04-26T11:48:19Z</time>
      </trkpt>
      <trkpt lat="47.80992" lon="-2.38275">
        <ele>88.6776</ele>
        <time>2017-04-26T12:07:43Z</time>
      </trkpt>
      <trkpt lat="47.80986" lon="-2.38259">
        <ele>89.11341</ele>
        <time>2017-04-26T12:07:49Z</time>
      </trkpt>
      <trkpt lat="47.80987" lon="-2.38243">
        <ele>89.02249</ele>
        <time>2017-04-26T12:07:55Z</time>
      </trkpt>
      <trkpt lat="47.80986" lon="-2.38231">
        <ele>88.44439</ele>
        <time>2017-04-26T12:08:00Z</time>
      </trkpt>
      <trkpt lat="47.80987" lon="-2.38215">
        <ele>86.88844</ele>
        <time>2017-04-26T12:08:06Z</time>
      </trkpt>
      <trkpt lat="47.80986" lon="-2.382">
        <ele>85.53318</ele>
        <time>2017-04-26T12:08:12Z</time>
      </trkpt>
      <trkpt lat="47.80983" lon="-2.38184">
        <ele>84.36035</ele>
        <time>2017-04-26T12:08:17Z</time>
      </trkpt>
      <trkpt lat="47.80985" lon="-2.38166">
        <ele>82.52045</ele>
        <time>2017-04-26T12:08:23Z</time>
      </trkpt>
      <trkpt lat="47.80991" lon="-2.38151">
        <ele>81.32628</ele>
        <time>2017-04-26T12:08:28Z</time>
      </trkpt>
      <trkpt lat="47.80999" lon="-2.38131">
        <ele>80.087776</ele>
        <time>2017-04-26T12:08:34Z</time>
      </trkpt>
      <trkpt lat="47.81002" lon="-2.38118">
        <ele>78.89301</ele>
        <time>2017-04-26T12:08:39Z</time>
      </trkpt>
      <trkpt lat="47.81005" lon="-2.38106">
        <ele>77.45968</ele>
        <time>2017-04-26T12:08:45Z</time>
      </trkpt>
      <trkpt lat="47.81007" lon="-2.38114">
        <ele>68.63522</ele>
        <time>2017-04-26T12:11:41Z</time>
      </trkpt>
      <trkpt lat="47.8101" lon="-2.38125">
        <ele>68.42872</ele>
        <time>2017-04-26T12:12:15Z</time>
      </trkpt>
      <trkpt lat="47.81028" lon="-2.38136">
        <ele>66.88065</ele>
        <time>2017-04-26T12:12:21Z</time>
      </trkpt>
      <trkpt lat="47.81051" lon="-2.38147">
        <ele>67.2398</ele>
        <time>2017-04-26T12:12:26Z</time>
      </trkpt>
      <trkpt lat="47.8107" lon="-2.38158">
        <ele>67.51976</ele>
        <time>2017-04-26T12:12:32Z</time>
      </trkpt>
      <trkpt lat="47.81083" lon="-2.38166">
        <ele>67.40471</ele>
        <time>2017-04-26T12:12:38Z</time>
      </trkpt>
      <trkpt lat="47.81101" lon="-2.38181">
        <ele>66.90596</ele>
        <time>2017-04-26T12:12:43Z</time>
      </trkpt>
      <trkpt lat="47.81123" lon="-2.38201">
        <ele>64.56004</ele>
        <time>2017-04-26T12:12:48Z</time>
      </trkpt>
      <trkpt lat="47.81142" lon="-2.3822">
        <ele>64.16236</ele>
        <time>2017-04-26T12:12:54Z</time>
      </trkpt>
      <trkpt lat="47.81158" lon="-2.38238">
        <ele>64.06642</ele>
        <time>2017-04-26T12:13:00Z</time>
      </trkpt>
      <trkpt lat="47.81174" lon="-2.38262">
        <ele>63.679253</ele>
        <time>2017-04-26T12:13:06Z</time>
      </trkpt>
      <trkpt lat="47.81185" lon="-2.38278">
        <ele>63.667534</ele>
        <time>2017-04-26T12:13:12Z</time>
      </trkpt>
      <trkpt lat="47.81194" lon="-2.38291">
        <ele>63.315186</ele>
        <time>2017-04-26T12:13:18Z</time>
      </trkpt>
      <trkpt lat="47.81203" lon="-2.383">
        <ele>63.23687</ele>
        <time>2017-04-26T12:13:23Z</time>
      </trkpt>
      <trkpt lat="47.81216" lon="-2.38317">
        <ele>63.118713</ele>
        <time>2017-04-26T12:13:29Z</time>
      </trkpt>
      <trkpt lat="47.8123" lon="-2.38334">
        <ele>63.5163</ele>
        <time>2017-04-26T12:13:34Z</time>
      </trkpt>
      <trkpt lat="47.81242" lon="-2.3835">
        <ele>64.00142</ele>
        <time>2017-04-26T12:13:40Z</time>
      </trkpt>
      <trkpt lat="47.8126" lon="-2.38373">
        <ele>64.52322</ele>
        <time>2017-04-26T12:13:46Z</time>
      </trkpt>
      <trkpt lat="47.81273" lon="-2.38391">
        <ele>66.33093</ele>
        <time>2017-04-26T12:16:32Z</time>
      </trkpt>
      <trkpt lat="47.81283" lon="-2.38401">
        <ele>65.54956</ele>
        <time>2017-04-26T12:16:37Z</time>
      </trkpt>
      <trkpt lat="47.81296" lon="-2.38419">
        <ele>65.2681</ele>
        <time>2017-04-26T12:16:43Z</time>
      </trkpt>
      <trkpt lat="47.81311" lon="-2.38439">
        <ele>65.004944</ele>
        <time>2017-04-26T12:16:48Z</time>
      </trkpt>
      <trkpt lat="47.81327" lon="-2.3846">
        <ele>64.62713</ele>
        <time>2017-04-26T12:16:54Z</time>
      </trkpt>
      <trkpt lat="47.81338" lon="-2.38476">
        <ele>64.51348</ele>
        <time>2017-04-26T12:16:59Z</time>
      </trkpt>
      <trkpt lat="47.81353" lon="-2.38493">
        <ele>64.593925</ele>
        <time>2017-04-26T12:17:05Z</time>
      </trkpt>
      <trkpt lat="47.81374" lon="-2.3852">
        <ele>64.86508</ele>
        <time>2017-04-26T12:17:11Z</time>
      </trkpt>
      <trkpt lat="47.81392" lon="-2.38538">
        <ele>65.062874</ele>
        <time>2017-04-26T12:17:17Z</time>
      </trkpt>
      <trkpt lat="47.81411" lon="-2.38563">
        <ele>65.8398</ele>
        <time>2017-04-26T12:17:23Z</time>
      </trkpt>
      <trkpt lat="47.81425" lon="-2.38581">
        <ele>66.37027</ele>
        <time>2017-04-26T12:17:29Z</time>
      </trkpt>
      <trkpt lat="47.81441" lon="-2.38604">
        <ele>66.6946</ele>
        <time>2017-04-26T12:17:35Z</time>
      </trkpt>
      <trkpt lat="47.81456" lon="-2.38624">
        <ele>66.79761</ele>
        <time>2017-04-26T12:17:40Z</time>
      </trkpt>
      <trkpt lat="47.81473" lon="-2.38644">
        <ele>66.49848</ele>
        <time>2017-04-26T12:17:46Z</time>
      </trkpt>
      <trkpt lat="47.81493" lon="-2.3867">
        <ele>66.74482</ele>
        <time>2017-04-26T12:17:52Z</time>
      </trkpt>
      <trkpt lat="47.8151" lon="-2.38693">
        <ele>67.10271</ele>
        <time>2017-04-26T12:17:58Z</time>
      </trkpt>
      <trkpt lat="47.81524" lon="-2.38712">
        <ele>67.76387</ele>
        <time>2017-04-26T12:18:04Z</time>
      </trkpt>
      <trkpt lat="47.81545" lon="-2.38739">
        <ele>68.000206</ele>
        <time>2017-04-26T12:18:10Z</time>
      </trkpt>
      <trkpt lat="47.81562" lon="-2.38763">
        <ele>68.33139</ele>
        <time>2017-04-26T12:18:16Z</time>
      </trkpt>
      <trkpt lat="47.81578" lon="-2.38781">
        <ele>68.58845</ele>
        <time>2017-04-26T12:18:21Z</time>
      </trkpt>
      <trkpt lat="47.81591" lon="-2.38799">
        <ele>68.91604</ele>
        <time>2017-04-26T12:18:26Z</time>
      </trkpt>
      <trkpt lat="47.81614" lon="-2.38826">
        <ele>69.51388</ele>
        <time>2017-04-26T12:18:32Z</time>
      </trkpt>
      <trkpt lat="47.81632" lon="-2.3885">
        <ele>75.54851</ele>
        <time>2017-04-26T12:18:37Z</time>
      </trkpt>
      <trkpt lat="47.81651" lon="-2.38874">
        <ele>73.84302</ele>
        <time>2017-04-26T12:18:43Z</time>
      </trkpt>
      <trkpt lat="47.8167" lon="-2.38897">
        <ele>72.10351</ele>
        <time>2017-04-26T12:18:49Z</time>
      </trkpt>
      <trkpt lat="47.81688" lon="-2.38921">
        <ele>70.16147</ele>
        <time>2017-04-26T12:18:55Z</time>
      </trkpt>
      <trkpt lat="47.81703" lon="-2.38941">
        <ele>69.6605</ele>
        <time>2017-04-26T12:19:00Z</time>
      </trkpt>
      <trkpt lat="47.81722" lon="-2.38968">
        <ele>69.57923</ele>
        <time>2017-04-26T12:19:06Z</time>
      </trkpt>
      <trkpt lat="47.81746" lon="-2.38996">
        <ele>70.27902</ele>
        <time>2017-04-26T12:19:12Z</time>
      </trkpt>
      <trkpt lat="47.81766" lon="-2.3902">
        <ele>73.12726</ele>
        <time>2017-04-26T12:19:18Z</time>
      </trkpt>
      <trkpt lat="47.8178" lon="-2.39042">
        <ele>74.079056</ele>
        <time>2017-04-26T12:19:23Z</time>
      </trkpt>
      <trkpt lat="47.81796" lon="-2.39064">
        <ele>72.14654</ele>
        <time>2017-04-26T12:19:29Z</time>
      </trkpt>
      <trkpt lat="47.81811" lon="-2.39086">
        <ele>71.74699</ele>
        <time>2017-04-26T12:19:34Z</time>
      </trkpt>
      <trkpt lat="47.8183" lon="-2.39108">
        <ele>70.672935</ele>
        <time>2017-04-26T12:19:40Z</time>
      </trkpt>
      <trkpt lat="47.81847" lon="-2.3913">
        <ele>67.68571</ele>
        <time>2017-04-26T12:19:45Z</time>
      </trkpt>
      <trkpt lat="47.81866" lon="-2.39154">
        <ele>68.007416</ele>
        <time>2017-04-26T12:19:51Z</time>
      </trkpt>
      <trkpt lat="47.81881" lon="-2.39174">
        <ele>68.84925</ele>
        <time>2017-04-26T12:19:56Z</time>
      </trkpt>
      <trkpt lat="47.81903" lon="-2.39204">
        <ele>69.99935</ele>
        <time>2017-04-26T12:20:02Z</time>
      </trkpt>
      <trkpt lat="47.81924" lon="-2.39232">
        <ele>70.66075</ele>
        <time>2017-04-26T12:20:08Z</time>
      </trkpt>
      <trkpt lat="47.81941" lon="-2.39252">
        <ele>70.11125</ele>
        <time>2017-04-26T12:20:13Z</time>
      </trkpt>
      <trkpt lat="47.81963" lon="-2.39277">
        <ele>68.14858</ele>
        <time>2017-04-26T12:20:19Z</time>
      </trkpt>
      <trkpt lat="47.81978" lon="-2.39301">
        <ele>67.62649</ele>
        <time>2017-04-26T12:20:24Z</time>
      </trkpt>
      <trkpt lat="47.81999" lon="-2.39326">
        <ele>68.19371</ele>
        <time>2017-04-26T12:20:30Z</time>
      </trkpt>
      <trkpt lat="47.82021" lon="-2.39355">
        <ele>70.668304</ele>
        <time>2017-04-26T12:20:36Z</time>
      </trkpt>
      <trkpt lat="47.82042" lon="-2.39381">
        <ele>73.98661</ele>
        <time>2017-04-26T12:20:42Z</time>
      </trkpt>
      <trkpt lat="47.82065" lon="-2.39411">
        <ele>78.00341</ele>
        <time>2017-04-26T12:20:48Z</time>
      </trkpt>
      <trkpt lat="47.82086" lon="-2.39438">
        <ele>81.454056</ele>
        <time>2017-04-26T12:20:54Z</time>
      </trkpt>
      <trkpt lat="47.82107" lon="-2.39463">
        <ele>80.27853</ele>
        <time>2017-04-26T12:21:00Z</time>
      </trkpt>
      <trkpt lat="47.82124" lon="-2.39484">
        <ele>80.31211</ele>
        <time>2017-04-26T12:21:05Z</time>
      </trkpt>
      <trkpt lat="47.82139" lon="-2.39505">
        <ele>79.51792</ele>
        <time>2017-04-26T12:21:10Z</time>
      </trkpt>
      <trkpt lat="47.82159" lon="-2.39532">
        <ele>80.71171</ele>
        <time>2017-04-26T12:21:16Z</time>
      </trkpt>
      <trkpt lat="47.82179" lon="-2.39557">
        <ele>78.45275</ele>
        <time>2017-04-26T12:21:22Z</time>
      </trkpt>
      <trkpt lat="47.82199" lon="-2.39582">
        <ele>77.060646</ele>
        <time>2017-04-26T12:21:28Z</time>
      </trkpt>
      <trkpt lat="47.82212" lon="-2.396">
        <ele>74.499306</ele>
        <time>2017-04-26T12:21:33Z</time>
      </trkpt>
      <trkpt lat="47.82231" lon="-2.39625">
        <ele>73.2612</ele>
        <time>2017-04-26T12:21:39Z</time>
      </trkpt>
      <trkpt lat="47.82251" lon="-2.3965">
        <ele>75.31807</ele>
        <time>2017-04-26T12:21:45Z</time>
      </trkpt>
      <trkpt lat="47.82268" lon="-2.39671">
        <ele>75.66291</ele>
        <time>2017-04-26T12:21:50Z</time>
      </trkpt>
      <trkpt lat="47.82285" lon="-2.39693">
        <ele>77.27703</ele>
        <time>2017-04-26T12:21:56Z</time>
      </trkpt>
      <trkpt lat="47.82301" lon="-2.39716">
        <ele>77.932594</ele>
        <time>2017-04-26T12:22:02Z</time>
      </trkpt>
      <trkpt lat="47.82312" lon="-2.39732">
        <ele>77.62896</ele>
        <time>2017-04-26T12:22:07Z</time>
      </trkpt>
      <trkpt lat="47.8233" lon="-2.39755">
        <ele>72.41538</ele>
        <time>2017-04-26T12:22:13Z</time>
      </trkpt>
      <trkpt lat="47.82346" lon="-2.39775">
        <ele>73.45057</ele>
        <time>2017-04-26T12:22:18Z</time>
      </trkpt>
      <trkpt lat="47.82364" lon="-2.39798">
        <ele>73.47576</ele>
        <time>2017-04-26T12:22:24Z</time>
      </trkpt>
      <trkpt lat="47.82383" lon="-2.39824">
        <ele>73.82648</ele>
        <time>2017-04-26T12:22:30Z</time>
      </trkpt>
      <trkpt lat="47.82402" lon="-2.39849">
        <ele>76.93054</ele>
        <time>2017-04-26T12:22:36Z</time>
      </trkpt>
      <trkpt lat="47.82416" lon="-2.39867">
        <ele>76.93915</ele>
        <time>2017-04-26T12:22:41Z</time>
      </trkpt>
      <trkpt lat="47.8243" lon="-2.39884">
        <ele>76.63365</ele>
        <time>2017-04-26T12:22:47Z</time>
      </trkpt>
      <trkpt lat="47.82437" lon="-2.39895">
        <ele>76.41829</ele>
        <time>2017-04-26T12:22:52Z</time>
      </trkpt>
      <trkpt lat="47.82452" lon="-2.39914">
        <ele>75.54264</ele>
        <time>2017-04-26T12:22:58Z</time>
      </trkpt>
      <trkpt lat="47.82473" lon="-2.39938">
        <ele>76.03276</ele>
        <time>2017-04-26T12:23:04Z</time>
      </trkpt>
      <trkpt lat="47.82493" lon="-2.39966">
        <ele>77.34135</ele>
        <time>2017-04-26T12:23:10Z</time>
      </trkpt>
      <trkpt lat="47.82507" lon="-2.39999">
        <ele>79.57526</ele>
        <time>2017-04-26T12:23:16Z</time>
      </trkpt>
      <trkpt lat="47.82512" lon="-2.40033">
        <ele>78.565674</ele>
        <time>2017-04-26T12:23:22Z</time>
      </trkpt>
      <trkpt lat="47.82517" lon="-2.40064">
        <ele>79.331474</ele>
        <time>2017-04-26T12:23:27Z</time>
      </trkpt>
      <trkpt lat="47.82521" lon="-2.40103">
        <ele>82.42885</ele>
        <time>2017-04-26T12:23:33Z</time>
      </trkpt>
      <trkpt lat="47.82525" lon="-2.40141">
        <ele>81.73399</ele>
        <time>2017-04-26T12:23:39Z</time>
      </trkpt>
      <trkpt lat="47.82526" lon="-2.40174">
        <ele>79.83365</ele>
        <time>2017-04-26T12:23:44Z</time>
      </trkpt>
      <trkpt lat="47.8253" lon="-2.40206">
        <ele>80.87606</ele>
        <time>2017-04-26T12:23:49Z</time>
      </trkpt>
      <trkpt lat="47.82534" lon="-2.40241">
        <ele>80.52742</ele>
        <time>2017-04-26T12:23:54Z</time>
      </trkpt>
      <trkpt lat="47.82539" lon="-2.40278">
        <ele>79.397026</ele>
        <time>2017-04-26T12:24:00Z</time>
      </trkpt>
      <trkpt lat="47.82544" lon="-2.4032">
        <ele>78.89025</ele>
        <time>2017-04-26T12:24:06Z</time>
      </trkpt>
      <trkpt lat="47.82554" lon="-2.40359">
        <ele>79.27302</ele>
        <time>2017-04-26T12:24:12Z</time>
      </trkpt>
      <trkpt lat="47.82565" lon="-2.40394">
        <ele>80.32953</ele>
        <time>2017-04-26T12:24:18Z</time>
      </trkpt>
      <trkpt lat="47.82579" lon="-2.4042">
        <ele>81.73678</ele>
        <time>2017-04-26T12:24:23Z</time>
      </trkpt>
      <trkpt lat="47.82597" lon="-2.40443">
        <ele>81.684784</ele>
        <time>2017-04-26T12:24:29Z</time>
      </trkpt>
      <trkpt lat="47.82613" lon="-2.40472">
        <ele>80.96384</ele>
        <time>2017-04-26T12:24:35Z</time>
      </trkpt>
      <trkpt lat="47.82629" lon="-2.40496">
        <ele>81.69006</ele>
        <time>2017-04-26T12:24:41Z</time>
      </trkpt>
      <trkpt lat="47.82641" lon="-2.40518">
        <ele>81.29288</ele>
        <time>2017-04-26T12:24:47Z</time>
      </trkpt>
      <trkpt lat="47.82656" lon="-2.40543">
        <ele>77.735634</ele>
        <time>2017-04-26T12:24:53Z</time>
      </trkpt>
      <trkpt lat="47.82669" lon="-2.40564">
        <ele>72.58483</ele>
        <time>2017-04-26T12:24:59Z</time>
      </trkpt>
      <trkpt lat="47.82682" lon="-2.40586">
        <ele>72.06986</ele>
        <time>2017-04-26T12:25:04Z</time>
      </trkpt>
      <trkpt lat="47.82699" lon="-2.40609">
        <ele>71.02949</ele>
        <time>2017-04-26T12:25:09Z</time>
      </trkpt>
      <trkpt lat="47.82715" lon="-2.40634">
        <ele>70.19879</ele>
        <time>2017-04-26T12:25:15Z</time>
      </trkpt>
      <trkpt lat="47.82726" lon="-2.4065">
        <ele>70.280136</ele>
        <time>2017-04-26T12:25:21Z</time>
      </trkpt>
      <trkpt lat="47.8274" lon="-2.40673">
        <ele>70.3435</ele>
        <time>2017-04-26T12:25:27Z</time>
      </trkpt>
      <trkpt lat="47.82752" lon="-2.40694">
        <ele>70.07612</ele>
        <time>2017-04-26T12:25:32Z</time>
      </trkpt>
      <trkpt lat="47.82767" lon="-2.40718">
        <ele>69.59374</ele>
        <time>2017-04-26T12:25:38Z</time>
      </trkpt>
      <trkpt lat="47.82783" lon="-2.40743">
        <ele>69.2088</ele>
        <time>2017-04-26T12:25:44Z</time>
      </trkpt>
      <trkpt lat="47.82797" lon="-2.40763">
        <ele>69.2215</ele>
        <time>2017-04-26T12:25:50Z</time>
      </trkpt>
      <trkpt lat="47.8281" lon="-2.4078">
        <ele>69.00408</ele>
        <time>2017-04-26T12:25:55Z</time>
      </trkpt>
      <trkpt lat="47.82829" lon="-2.40806">
        <ele>68.92549</ele>
        <time>2017-04-26T12:26:01Z</time>
      </trkpt>
      <trkpt lat="47.82845" lon="-2.40824">
        <ele>68.857056</ele>
        <time>2017-04-26T12:26:06Z</time>
      </trkpt>
      <trkpt lat="47.82864" lon="-2.40846">
        <ele>68.89737</ele>
        <time>2017-04-26T12:26:12Z</time>
      </trkpt>
      <trkpt lat="47.82877" lon="-2.40865">
        <ele>68.53451</ele>
        <time>2017-04-26T12:26:18Z</time>
      </trkpt>
      <trkpt lat="47.82889" lon="-2.4088">
        <ele>67.73726</ele>
        <time>2017-04-26T12:26:23Z</time>
      </trkpt>
      <trkpt lat="47.82903" lon="-2.40891">
        <ele>66.9162</ele>
        <time>2017-04-26T12:26:29Z</time>
      </trkpt>
      <trkpt lat="47.82919" lon="-2.40909">
        <ele>66.51417</ele>
        <time>2017-04-26T12:26:35Z</time>
      </trkpt>
      <trkpt lat="47.82928" lon="-2.40916">
        <ele>66.82763</ele>
        <time>2017-04-26T12:26:40Z</time>
      </trkpt>
      <trkpt lat="47.82946" lon="-2.40935">
        <ele>67.43308</ele>
        <time>2017-04-26T12:26:46Z</time>
      </trkpt>
      <trkpt lat="47.82962" lon="-2.40949">
        <ele>67.798676</ele>
        <time>2017-04-26T12:26:51Z</time>
      </trkpt>
      <trkpt lat="47.82984" lon="-2.40969">
        <ele>68.989456</ele>
        <time>2017-04-26T12:26:57Z</time>
      </trkpt>
      <trkpt lat="47.83" lon="-2.40984">
        <ele>70.62904</ele>
        <time>2017-04-26T12:27:02Z</time>
      </trkpt>
      <trkpt lat="47.83024" lon="-2.41006">
        <ele>71.66221</ele>
        <time>2017-04-26T12:27:08Z</time>
      </trkpt>
      <trkpt lat="47.83045" lon="-2.41028">
        <ele>75.230545</ele>
        <time>2017-04-26T12:27:14Z</time>
      </trkpt>
      <trkpt lat="47.83066" lon="-2.41048">
        <ele>74.98999</ele>
        <time>2017-04-26T12:27:20Z</time>
      </trkpt>
      <trkpt lat="47.83085" lon="-2.41069">
        <ele>76.90201</ele>
        <time>2017-04-26T12:27:26Z</time>
      </trkpt>
      <trkpt lat="47.83103" lon="-2.41091">
        <ele>77.759926</ele>
        <time>2017-04-26T12:27:32Z</time>
      </trkpt>
      <trkpt lat="47.83115" lon="-2.41111">
        <ele>77.30352</ele>
        <time>2017-04-26T12:27:37Z</time>
      </trkpt>
      <trkpt lat="47.83134" lon="-2.41136">
        <ele>77.285965</ele>
        <time>2017-04-26T12:27:43Z</time>
      </trkpt>
      <trkpt lat="47.83149" lon="-2.41154">
        <ele>77.19017</ele>
        <time>2017-04-26T12:27:48Z</time>
      </trkpt>
      <trkpt lat="47.83173" lon="-2.41177">
        <ele>74.339714</ele>
        <time>2017-04-26T12:27:54Z</time>
      </trkpt>
      <trkpt lat="47.83194" lon="-2.41197">
        <ele>72.33725</ele>
        <time>2017-04-26T12:28:00Z</time>
      </trkpt>
      <trkpt lat="47.83215" lon="-2.41212">
        <ele>69.832726</ele>
        <time>2017-04-26T12:28:06Z</time>
      </trkpt>
      <trkpt lat="47.83239" lon="-2.41231">
        <ele>70.11368</ele>
        <time>2017-04-26T12:28:12Z</time>
      </trkpt>
      <trkpt lat="47.8326" lon="-2.41248">
        <ele>69.6713</ele>
        <time>2017-04-26T12:28:17Z</time>
      </trkpt>
      <trkpt lat="47.83276" lon="-2.41261">
        <ele>69.44956</ele>
        <time>2017-04-26T12:28:22Z</time>
      </trkpt>
      <trkpt lat="47.83294" lon="-2.41284">
        <ele>70.94483</ele>
        <time>2017-04-26T12:28:28Z</time>
      </trkpt>
      <trkpt lat="47.83316" lon="-2.41313">
        <ele>71.11599</ele>
        <time>2017-04-26T12:28:34Z</time>
      </trkpt>
      <trkpt lat="47.83333" lon="-2.4134">
        <ele>69.26921</ele>
        <time>2017-04-26T12:28:40Z</time>
      </trkpt>
      <trkpt lat="47.83348" lon="-2.41369">
        <ele>66.36362</ele>
        <time>2017-04-26T12:28:46Z</time>
      </trkpt>
      <trkpt lat="47.83364" lon="-2.41398">
        <ele>66.443474</ele>
        <time>2017-04-26T12:28:52Z</time>
      </trkpt>
      <trkpt lat="47.83379" lon="-2.4142">
        <ele>66.45582</ele>
        <time>2017-04-26T12:28:58Z</time>
      </trkpt>
      <trkpt lat="47.83396" lon="-2.41441">
        <ele>66.0501</ele>
        <time>2017-04-26T12:29:04Z</time>
      </trkpt>
      <trkpt lat="47.8341" lon="-2.4146">
        <ele>65.65624</ele>
        <time>2017-04-26T12:29:09Z</time>
      </trkpt>
      <trkpt lat="47.83428" lon="-2.41489">
        <ele>67.30516</ele>
        <time>2017-04-26T12:29:15Z</time>
      </trkpt>
      <trkpt lat="47.83444" lon="-2.4151">
        <ele>68.21802</ele>
        <time>2017-04-26T12:29:20Z</time>
      </trkpt>
      <trkpt lat="47.83458" lon="-2.41528">
        <ele>69.55661</ele>
        <time>2017-04-26T12:29:25Z</time>
      </trkpt>
      <trkpt lat="47.83474" lon="-2.41561">
        <ele>71.54673</ele>
        <time>2017-04-26T12:29:31Z</time>
      </trkpt>
      <trkpt lat="47.83486" lon="-2.41589">
        <ele>75.23148</ele>
        <time>2017-04-26T12:29:37Z</time>
      </trkpt>
      <trkpt lat="47.83505" lon="-2.41616">
        <ele>80.82121</ele>
        <time>2017-04-26T12:29:43Z</time>
      </trkpt>
      <trkpt lat="47.83523" lon="-2.41636">
        <ele>82.614296</ele>
        <time>2017-04-26T12:29:49Z</time>
      </trkpt>
      <trkpt lat="47.83544" lon="-2.41647">
        <ele>77.940216</ele>
        <time>2017-04-26T12:29:55Z</time>
      </trkpt>
      <trkpt lat="47.83566" lon="-2.41652">
        <ele>73.15376</ele>
        <time>2017-04-26T12:30:01Z</time>
      </trkpt>
      <trkpt lat="47.83585" lon="-2.41661">
        <ele>72.00261</ele>
        <time>2017-04-26T12:30:06Z</time>
      </trkpt>
      <trkpt lat="47.83607" lon="-2.41679">
        <ele>70.69143</ele>
        <time>2017-04-26T12:30:12Z</time>
      </trkpt>
      <trkpt lat="47.83627" lon="-2.417">
        <ele>71.191605</ele>
        <time>2017-04-26T12:30:18Z</time>
      </trkpt>
      <trkpt lat="47.83646" lon="-2.41723">
        <ele>71.658424</ele>
        <time>2017-04-26T12:30:23Z</time>
      </trkpt>
      <trkpt lat="47.83662" lon="-2.41752">
        <ele>71.39462</ele>
        <time>2017-04-26T12:30:29Z</time>
      </trkpt>
      <trkpt lat="47.83681" lon="-2.41783">
        <ele>73.72442</ele>
        <time>2017-04-26T12:30:35Z</time>
      </trkpt>
      <trkpt lat="47.83694" lon="-2.41814">
        <ele>77.695694</ele>
        <time>2017-04-26T12:30:41Z</time>
      </trkpt>
      <trkpt lat="47.83704" lon="-2.41843">
        <ele>76.9445</ele>
        <time>2017-04-26T12:30:47Z</time>
      </trkpt>
      <trkpt lat="47.83711" lon="-2.4188">
        <ele>77.18003</ele>
        <time>2017-04-26T12:30:53Z</time>
      </trkpt>
      <trkpt lat="47.83707" lon="-2.41917">
        <ele>76.13504</ele>
        <time>2017-04-26T12:30:59Z</time>
      </trkpt>
      <trkpt lat="47.837" lon="-2.41959">
        <ele>74.78272</ele>
        <time>2017-04-26T12:31:05Z</time>
      </trkpt>
      <trkpt lat="47.83696" lon="-2.41984">
        <ele>75.43373</ele>
        <time>2017-04-26T12:31:10Z</time>
      </trkpt>
      <trkpt lat="47.83693" lon="-2.42022">
        <ele>74.15998</ele>
        <time>2017-04-26T12:31:16Z</time>
      </trkpt>
      <trkpt lat="47.83692" lon="-2.42053">
        <ele>73.67397</ele>
        <time>2017-04-26T12:31:21Z</time>
      </trkpt>
      <trkpt lat="47.83692" lon="-2.42094">
        <ele>71.267365</ele>
        <time>2017-04-26T12:31:27Z</time>
      </trkpt>
      <trkpt lat="47.83694" lon="-2.42132">
        <ele>71.47347</ele>
        <time>2017-04-26T12:31:33Z</time>
      </trkpt>
      <trkpt lat="47.83696" lon="-2.42163">
        <ele>71.53494</ele>
        <time>2017-04-26T12:31:38Z</time>
      </trkpt>
      <trkpt lat="47.837" lon="-2.42193">
        <ele>73.8732</ele>
        <time>2017-04-26T12:31:43Z</time>
      </trkpt>
      <trkpt lat="47.83704" lon="-2.42228">
        <ele>74.884995</ele>
        <time>2017-04-26T12:31:49Z</time>
      </trkpt>
      <trkpt lat="47.83709" lon="-2.42255">
        <ele>74.612946</ele>
        <time>2017-04-26T12:31:54Z</time>
      </trkpt>
      <trkpt lat="47.83713" lon="-2.42291">
        <ele>72.335754</ele>
        <time>2017-04-26T12:32:00Z</time>
      </trkpt>
      <trkpt lat="47.8372" lon="-2.4233">
        <ele>74.511955</ele>
        <time>2017-04-26T12:32:06Z</time>
      </trkpt>
      <trkpt lat="47.83733" lon="-2.42364">
        <ele>77.030075</ele>
        <time>2017-04-26T12:32:12Z</time>
      </trkpt>
      <trkpt lat="47.83742" lon="-2.42394">
        <ele>78.29256</ele>
        <time>2017-04-26T12:32:18Z</time>
      </trkpt>
      <trkpt lat="47.83748" lon="-2.42419">
        <ele>78.79046</ele>
        <time>2017-04-26T12:32:23Z</time>
      </trkpt>
      <trkpt lat="47.83754" lon="-2.42445">
        <ele>79.09363</ele>
        <time>2017-04-26T12:32:29Z</time>
      </trkpt>
      <trkpt lat="47.83761" lon="-2.42473">
        <ele>79.177895</ele>
        <time>2017-04-26T12:32:34Z</time>
      </trkpt>
      <trkpt lat="47.83768" lon="-2.425">
        <ele>79.21816</ele>
        <time>2017-04-26T12:32:40Z</time>
      </trkpt>
      <trkpt lat="47.83775" lon="-2.42533">
        <ele>78.00219</ele>
        <time>2017-04-26T12:32:46Z</time>
      </trkpt>
      <trkpt lat="47.83782" lon="-2.4256">
        <ele>74.95909</ele>
        <time>2017-04-26T12:32:51Z</time>
      </trkpt>
      <trkpt lat="47.83791" lon="-2.42593">
        <ele>73.8409</ele>
        <time>2017-04-26T12:32:57Z</time>
      </trkpt>
      <trkpt lat="47.83801" lon="-2.42626">
        <ele>75.356346</ele>
        <time>2017-04-26T12:33:03Z</time>
      </trkpt>
      <trkpt lat="47.83813" lon="-2.42656">
        <ele>75.342064</ele>
        <time>2017-04-26T12:33:09Z</time>
      </trkpt>
      <trkpt lat="47.8383" lon="-2.42688">
        <ele>78.53314</ele>
        <time>2017-04-26T12:33:15Z</time>
      </trkpt>
      <trkpt lat="47.83843" lon="-2.42698">
        <ele>80.80816</ele>
        <time>2017-04-26T12:33:20Z</time>
      </trkpt>
      <trkpt lat="47.83851" lon="-2.42719">
        <ele>80.25334</ele>
        <time>2017-04-26T12:33:25Z</time>
      </trkpt>
      <trkpt lat="47.83872" lon="-2.42754">
        <ele>79.27834</ele>
        <time>2017-04-26T12:33:31Z</time>
      </trkpt>
      <trkpt lat="47.83889" lon="-2.42783">
        <ele>81.14798</ele>
        <time>2017-04-26T12:33:37Z</time>
      </trkpt>
      <trkpt lat="47.839" lon="-2.42807">
        <ele>81.18029</ele>
        <time>2017-04-26T12:33:42Z</time>
      </trkpt>
      <trkpt lat="47.83914" lon="-2.42841">
        <ele>79.693436</ele>
        <time>2017-04-26T12:33:48Z</time>
      </trkpt>
      <trkpt lat="47.83929" lon="-2.42871">
        <ele>81.780716</ele>
        <time>2017-04-26T12:33:54Z</time>
      </trkpt>
      <trkpt lat="47.83942" lon="-2.42902">
        <ele>81.585266</ele>
        <time>2017-04-26T12:34:00Z</time>
      </trkpt>
      <trkpt lat="47.83952" lon="-2.42933">
        <ele>79.47801</ele>
        <time>2017-04-26T12:34:06Z</time>
      </trkpt>
      <trkpt lat="47.83962" lon="-2.42969">
        <ele>76.47876</ele>
        <time>2017-04-26T12:34:12Z</time>
      </trkpt>
      <trkpt lat="47.83975" lon="-2.43005">
        <ele>77.27069</ele>
        <time>2017-04-26T12:34:18Z</time>
      </trkpt>
      <trkpt lat="47.83986" lon="-2.43032">
        <ele>78.7668</ele>
        <time>2017-04-26T12:34:23Z</time>
      </trkpt>
      <trkpt lat="47.84" lon="-2.43064">
        <ele>78.81084</ele>
        <time>2017-04-26T12:34:29Z</time>
      </trkpt>
      <trkpt lat="47.84007" lon="-2.43093">
        <ele>78.038414</ele>
        <time>2017-04-26T12:34:34Z</time>
      </trkpt>
      <trkpt lat="47.83999" lon="-2.4313">
        <ele>76.95932</ele>
        <time>2017-04-26T12:34:40Z</time>
      </trkpt>
      <trkpt lat="47.83979" lon="-2.43158">
        <ele>75.31572</ele>
        <time>2017-04-26T12:34:46Z</time>
      </trkpt>
      <trkpt lat="47.83964" lon="-2.43185">
        <ele>74.46734</ele>
        <time>2017-04-26T12:34:51Z</time>
      </trkpt>
      <trkpt lat="47.83957" lon="-2.43219">
        <ele>74.15696</ele>
        <time>2017-04-26T12:34:57Z</time>
      </trkpt>
      <trkpt lat="47.83956" lon="-2.43248">
        <ele>74.59707</ele>
        <time>2017-04-26T12:35:02Z</time>
      </trkpt>
      <trkpt lat="47.83957" lon="-2.43286">
        <ele>72.78885</ele>
        <time>2017-04-26T12:35:08Z</time>
      </trkpt>
      <trkpt lat="47.83959" lon="-2.43322">
        <ele>71.4301</ele>
        <time>2017-04-26T12:35:14Z</time>
      </trkpt>
      <trkpt lat="47.83964" lon="-2.43361">
        <ele>71.835175</ele>
        <time>2017-04-26T12:35:20Z</time>
      </trkpt>
      <trkpt lat="47.8397" lon="-2.43391">
        <ele>74.042984</ele>
        <time>2017-04-26T12:35:25Z</time>
      </trkpt>
      <trkpt lat="47.83982" lon="-2.43427">
        <ele>74.557945</ele>
        <time>2017-04-26T12:35:31Z</time>
      </trkpt>
      <trkpt lat="47.83993" lon="-2.43457">
        <ele>72.341225</ele>
        <time>2017-04-26T12:35:37Z</time>
      </trkpt>
      <trkpt lat="47.84007" lon="-2.4349">
        <ele>70.71048</ele>
        <time>2017-04-26T12:35:43Z</time>
      </trkpt>
      <trkpt lat="47.84018" lon="-2.43519">
        <ele>71.219025</ele>
        <time>2017-04-26T12:35:48Z</time>
      </trkpt>
      <trkpt lat="47.84034" lon="-2.43553">
        <ele>73.753494</ele>
        <time>2017-04-26T12:35:54Z</time>
      </trkpt>
      <trkpt lat="47.84051" lon="-2.43585">
        <ele>78.812225</ele>
        <time>2017-04-26T12:36:00Z</time>
      </trkpt>
      <trkpt lat="47.84066" lon="-2.4361">
        <ele>82.756325</ele>
        <time>2017-04-26T12:36:06Z</time>
      </trkpt>
      <trkpt lat="47.84083" lon="-2.4363">
        <ele>79.655235</ele>
        <time>2017-04-26T12:36:12Z</time>
      </trkpt>
      <trkpt lat="47.84107" lon="-2.43653">
        <ele>80.745766</ele>
        <time>2017-04-26T12:36:18Z</time>
      </trkpt>
      <trkpt lat="47.84125" lon="-2.4367">
        <ele>78.84291</ele>
        <time>2017-04-26T12:36:23Z</time>
      </trkpt>
      <trkpt lat="47.84146" lon="-2.43695">
        <ele>78.72397</ele>
        <time>2017-04-26T12:36:29Z</time>
      </trkpt>
      <trkpt lat="47.84163" lon="-2.43714">
        <ele>80.14454</ele>
        <time>2017-04-26T12:36:34Z</time>
      </trkpt>
      <trkpt lat="47.84182" lon="-2.43737">
        <ele>79.215576</ele>
        <time>2017-04-26T12:36:40Z</time>
      </trkpt>
      <trkpt lat="47.84196" lon="-2.43757">
        <ele>76.91727</ele>
        <time>2017-04-26T12:36:45Z</time>
      </trkpt>
      <trkpt lat="47.84212" lon="-2.43779">
        <ele>72.71902</ele>
        <time>2017-04-26T12:36:51Z</time>
      </trkpt>
      <trkpt lat="47.84229" lon="-2.43805">
        <ele>71.58534</ele>
        <time>2017-04-26T12:36:57Z</time>
      </trkpt>
      <trkpt lat="47.84246" lon="-2.4383">
        <ele>73.80566</ele>
        <time>2017-04-26T12:37:03Z</time>
      </trkpt>
      <trkpt lat="47.84261" lon="-2.43852">
        <ele>75.38311</ele>
        <time>2017-04-26T12:37:08Z</time>
      </trkpt>
      <trkpt lat="47.84278" lon="-2.43877">
        <ele>76.76692</ele>
        <time>2017-04-26T12:37:14Z</time>
      </trkpt>
      <trkpt lat="47.84295" lon="-2.43903">
        <ele>78.995674</ele>
        <time>2017-04-26T12:37:20Z</time>
      </trkpt>
      <trkpt lat="47.84307" lon="-2.43921">
        <ele>78.46987</ele>
        <time>2017-04-26T12:37:25Z</time>
      </trkpt>
      <trkpt lat="47.84323" lon="-2.43946">
        <ele>76.21776</ele>
        <time>2017-04-26T12:37:31Z</time>
      </trkpt>
      <trkpt lat="47.8434" lon="-2.43975">
        <ele>75.1343</ele>
        <time>2017-04-26T12:37:37Z</time>
      </trkpt>
      <trkpt lat="47.84351" lon="-2.43997">
        <ele>73.14633</ele>
        <time>2017-04-26T12:37:42Z</time>
      </trkpt>
      <trkpt lat="47.84366" lon="-2.44026">
        <ele>71.2617</ele>
        <time>2017-04-26T12:37:48Z</time>
      </trkpt>
      <trkpt lat="47.8438" lon="-2.44058">
        <ele>70.16432</ele>
        <time>2017-04-26T12:37:54Z</time>
      </trkpt>
      <trkpt lat="47.84391" lon="-2.44083">
        <ele>71.01714</ele>
        <time>2017-04-26T12:37:59Z</time>
      </trkpt>
      <trkpt lat="47.84404" lon="-2.44114">
        <ele>71.566765</ele>
        <time>2017-04-26T12:38:05Z</time>
      </trkpt>
      <trkpt lat="47.84417" lon="-2.44134">
        <ele>71.808174</ele>
        <time>2017-04-26T12:38:10Z</time>
      </trkpt>
      <trkpt lat="47.84434" lon="-2.44155">
        <ele>72.33387</ele>
        <time>2017-04-26T12:38:15Z</time>
      </trkpt>
      <trkpt lat="47.84455" lon="-2.44173">
        <ele>78.8477</ele>
        <time>2017-04-26T12:38:21Z</time>
      </trkpt>
      <trkpt lat="47.84475" lon="-2.44184">
        <ele>76.81793</ele>
        <time>2017-04-26T12:38:27Z</time>
      </trkpt>
      <trkpt lat="47.84494" lon="-2.4419">
        <ele>72.75829</ele>
        <time>2017-04-26T12:38:32Z</time>
      </trkpt>
      <trkpt lat="47.84519" lon="-2.44196">
        <ele>71.04271</ele>
        <time>2017-04-26T12:38:38Z</time>
      </trkpt>
      <trkpt lat="47.84539" lon="-2.44201">
        <ele>70.79518</ele>
        <time>2017-04-26T12:38:43Z</time>
      </trkpt>
      <trkpt lat="47.84563" lon="-2.44206">
        <ele>70.62124</ele>
        <time>2017-04-26T12:38:49Z</time>
      </trkpt>
      <trkpt lat="47.84583" lon="-2.44212">
        <ele>70.41485</ele>
        <time>2017-04-26T12:38:55Z</time>
      </trkpt>
      <trkpt lat="47.84602" lon="-2.44216">
        <ele>70.34997</ele>
        <time>2017-04-26T12:39:01Z</time>
      </trkpt>
      <trkpt lat="47.84619" lon="-2.44221">
        <ele>70.34481</ele>
        <time>2017-04-26T12:39:06Z</time>
      </trkpt>
      <trkpt lat="47.84638" lon="-2.44228">
        <ele>70.25946</ele>
        <time>2017-04-26T12:39:12Z</time>
      </trkpt>
      <trkpt lat="47.84658" lon="-2.44236">
        <ele>70.562904</ele>
        <time>2017-04-26T12:39:18Z</time>
      </trkpt>
      <trkpt lat="47.84677" lon="-2.44243">
        <ele>70.82729</ele>
        <time>2017-04-26T12:39:24Z</time>
      </trkpt>
      <trkpt lat="47.8469" lon="-2.44247">
        <ele>70.89475</ele>
        <time>2017-04-26T12:39:29Z</time>
      </trkpt>
      <trkpt lat="47.8471" lon="-2.44259">
        <ele>70.957085</ele>
        <time>2017-04-26T12:39:35Z</time>
      </trkpt>
      <trkpt lat="47.84724" lon="-2.44277">
        <ele>71.38543</ele>
        <time>2017-04-26T12:39:41Z</time>
      </trkpt>
      <trkpt lat="47.84738" lon="-2.44295">
        <ele>71.85795</ele>
        <time>2017-04-26T12:39:47Z</time>
      </trkpt>
      <trkpt lat="47.84752" lon="-2.44313">
        <ele>72.159004</ele>
        <time>2017-04-26T12:39:53Z</time>
      </trkpt>
      <trkpt lat="47.84768" lon="-2.44332">
        <ele>72.68316</ele>
        <time>2017-04-26T12:39:59Z</time>
      </trkpt>
      <trkpt lat="47.84783" lon="-2.44352">
        <ele>73.37921</ele>
        <time>2017-04-26T12:40:05Z</time>
      </trkpt>
      <trkpt lat="47.84796" lon="-2.44368">
        <ele>73.52366</ele>
        <time>2017-04-26T12:40:11Z</time>
      </trkpt>
      <trkpt lat="47.84809" lon="-2.4439">
        <ele>73.4471</ele>
        <time>2017-04-26T12:40:17Z</time>
      </trkpt>
      <trkpt lat="47.84819" lon="-2.44402">
        <ele>73.122185</ele>
        <time>2017-04-26T12:40:22Z</time>
      </trkpt>
      <trkpt lat="47.84831" lon="-2.44416">
        <ele>72.77334</ele>
        <time>2017-04-26T12:40:27Z</time>
      </trkpt>
      <trkpt lat="47.84846" lon="-2.44431">
        <ele>72.281654</ele>
        <time>2017-04-26T12:40:33Z</time>
      </trkpt>
      <trkpt lat="47.84866" lon="-2.44447">
        <ele>72.163246</ele>
        <time>2017-04-26T12:40:39Z</time>
      </trkpt>
      <trkpt lat="47.84879" lon="-2.44458">
        <ele>72.05525</ele>
        <time>2017-04-26T12:40:44Z</time>
      </trkpt>
      <trkpt lat="47.84894" lon="-2.4447">
        <ele>71.77896</ele>
        <time>2017-04-26T12:40:49Z</time>
      </trkpt>
      <trkpt lat="47.84912" lon="-2.44482">
        <ele>71.7772</ele>
        <time>2017-04-26T12:40:54Z</time>
      </trkpt>
      <trkpt lat="47.84936" lon="-2.44496">
        <ele>72.000534</ele>
        <time>2017-04-26T12:41:00Z</time>
      </trkpt>
      <trkpt lat="47.84951" lon="-2.44505">
        <ele>72.16069</ele>
        <time>2017-04-26T12:41:05Z</time>
      </trkpt>
      <trkpt lat="47.84971" lon="-2.44514">
        <ele>71.58263</ele>
        <time>2017-04-26T12:41:11Z</time>
      </trkpt>
      <trkpt lat="47.8499" lon="-2.44522">
        <ele>71.404236</ele>
        <time>2017-04-26T12:41:17Z</time>
      </trkpt>
      <trkpt lat="47.8501" lon="-2.4453">
        <ele>70.88655</ele>
        <time>2017-04-26T12:41:23Z</time>
      </trkpt>
      <trkpt lat="47.85033" lon="-2.44539">
        <ele>68.18486</ele>
        <time>2017-04-26T12:41:29Z</time>
      </trkpt>
      <trkpt lat="47.8505" lon="-2.44547">
        <ele>68.04422</ele>
        <time>2017-04-26T12:41:34Z</time>
      </trkpt>
      <trkpt lat="47.85071" lon="-2.44554">
        <ele>67.86695</ele>
        <time>2017-04-26T12:41:40Z</time>
      </trkpt>
      <trkpt lat="47.85089" lon="-2.44561">
        <ele>67.96366</ele>
        <time>2017-04-26T12:41:45Z</time>
      </trkpt>
      <trkpt lat="47.8511" lon="-2.44569">
        <ele>68.70795</ele>
        <time>2017-04-26T12:41:51Z</time>
      </trkpt>
      <trkpt lat="47.8513" lon="-2.44579">
        <ele>68.816826</ele>
        <time>2017-04-26T12:41:57Z</time>
      </trkpt>
      <trkpt lat="47.85146" lon="-2.44582">
        <ele>68.85122</ele>
        <time>2017-04-26T12:42:03Z</time>
      </trkpt>
      <trkpt lat="47.85165" lon="-2.44586">
        <ele>68.919685</ele>
        <time>2017-04-26T12:42:09Z</time>
      </trkpt>
      <trkpt lat="47.85185" lon="-2.44594">
        <ele>69.20169</ele>
        <time>2017-04-26T12:42:15Z</time>
      </trkpt>
      <trkpt lat="47.85201" lon="-2.44601">
        <ele>69.26232</ele>
        <time>2017-04-26T12:42:21Z</time>
      </trkpt>
      <trkpt lat="47.85223" lon="-2.44609">
        <ele>69.73781</ele>
        <time>2017-04-26T12:42:27Z</time>
      </trkpt>
      <trkpt lat="47.85239" lon="-2.44614">
        <ele>69.764946</ele>
        <time>2017-04-26T12:42:32Z</time>
      </trkpt>
      <trkpt lat="47.85258" lon="-2.44619">
        <ele>69.76993</ele>
        <time>2017-04-26T12:42:38Z</time>
      </trkpt>
      <trkpt lat="47.85279" lon="-2.44627">
        <ele>69.07757</ele>
        <time>2017-04-26T12:42:43Z</time>
      </trkpt>
      <trkpt lat="47.85305" lon="-2.44638">
        <ele>70.202324</ele>
        <time>2017-04-26T12:42:49Z</time>
      </trkpt>
      <trkpt lat="47.85324" lon="-2.4464">
        <ele>70.25284</ele>
        <time>2017-04-26T12:42:55Z</time>
      </trkpt>
      <trkpt lat="47.85341" lon="-2.44639">
        <ele>70.402176</ele>
        <time>2017-04-26T12:43:00Z</time>
      </trkpt>
      <trkpt lat="47.85359" lon="-2.44639">
        <ele>70.654335</ele>
        <time>2017-04-26T12:43:06Z</time>
      </trkpt>
      <trkpt lat="47.85378" lon="-2.44639">
        <ele>70.562225</ele>
        <time>2017-04-26T12:43:12Z</time>
      </trkpt>
      <trkpt lat="47.85401" lon="-2.44639">
        <ele>70.2445</ele>
        <time>2017-04-26T12:43:18Z</time>
      </trkpt>
      <trkpt lat="47.85423" lon="-2.44639">
        <ele>68.29734</ele>
        <time>2017-04-26T12:43:24Z</time>
      </trkpt>
      <trkpt lat="47.85447" lon="-2.44638">
        <ele>67.27475</ele>
        <time>2017-04-26T12:43:30Z</time>
      </trkpt>
      <trkpt lat="47.85471" lon="-2.44632">
        <ele>67.71035</ele>
        <time>2017-04-26T12:43:36Z</time>
      </trkpt>
      <trkpt lat="47.85497" lon="-2.44623">
        <ele>69.56112</ele>
        <time>2017-04-26T12:43:42Z</time>
      </trkpt>
      <trkpt lat="47.85518" lon="-2.44619">
        <ele>68.94433</ele>
        <time>2017-04-26T12:43:48Z</time>
      </trkpt>
      <trkpt lat="47.85542" lon="-2.44616">
        <ele>68.94875</ele>
        <time>2017-04-26T12:43:54Z</time>
      </trkpt>
      <trkpt lat="47.85567" lon="-2.44616">
        <ele>69.48312</ele>
        <time>2017-04-26T12:44:00Z</time>
      </trkpt>
      <trkpt lat="47.85589" lon="-2.44616">
        <ele>69.49442</ele>
        <time>2017-04-26T12:44:05Z</time>
      </trkpt>
      <trkpt lat="47.85615" lon="-2.44621">
        <ele>69.598434</ele>
        <time>2017-04-26T12:44:11Z</time>
      </trkpt>
      <trkpt lat="47.85634" lon="-2.4462">
        <ele>71.05144</ele>
        <time>2017-04-26T12:44:16Z</time>
      </trkpt>
      <trkpt lat="47.85654" lon="-2.44625">
        <ele>71.035805</ele>
        <time>2017-04-26T12:44:22Z</time>
      </trkpt>
      <trkpt lat="47.85671" lon="-2.4463">
        <ele>70.75196</ele>
        <time>2017-04-26T12:44:27Z</time>
      </trkpt>
      <trkpt lat="47.85697" lon="-2.44642">
        <ele>70.617836</ele>
        <time>2017-04-26T12:44:33Z</time>
      </trkpt>
      <trkpt lat="47.85721" lon="-2.44656">
        <ele>71.88472</ele>
        <time>2017-04-26T12:53:28Z</time>
      </trkpt>
      <trkpt lat="47.85735" lon="-2.44666">
        <ele>73.24193</ele>
        <time>2017-04-26T12:53:34Z</time>
      </trkpt>
      <trkpt lat="47.85753" lon="-2.44676">
        <ele>74.056175</ele>
        <time>2017-04-26T12:53:40Z</time>
      </trkpt>
      <trkpt lat="47.85776" lon="-2.44684">
        <ele>77.35174</ele>
        <time>2017-04-26T12:53:46Z</time>
      </trkpt>
      <trkpt lat="47.85795" lon="-2.44691">
        <ele>76.78976</ele>
        <time>2017-04-26T12:53:51Z</time>
      </trkpt>
      <trkpt lat="47.8582" lon="-2.44692">
        <ele>74.512955</ele>
        <time>2017-04-26T12:53:57Z</time>
      </trkpt>
      <trkpt lat="47.85843" lon="-2.44688">
        <ele>73.68398</ele>
        <time>2017-04-26T12:54:03Z</time>
      </trkpt>
      <trkpt lat="47.85865" lon="-2.44688">
        <ele>73.49169</ele>
        <time>2017-04-26T12:54:09Z</time>
      </trkpt>
      <trkpt lat="47.85884" lon="-2.44684">
        <ele>73.55238</ele>
        <time>2017-04-26T12:54:14Z</time>
      </trkpt>
      <trkpt lat="47.85909" lon="-2.44678">
        <ele>73.35741</ele>
        <time>2017-04-26T12:54:20Z</time>
      </trkpt>
      <trkpt lat="47.85926" lon="-2.44673">
        <ele>73.0601</ele>
        <time>2017-04-26T12:54:25Z</time>
      </trkpt>
      <trkpt lat="47.85949" lon="-2.44665">
        <ele>71.55264</ele>
        <time>2017-04-26T12:54:31Z</time>
      </trkpt>
      <trkpt lat="47.8597" lon="-2.44654">
        <ele>68.878494</ele>
        <time>2017-04-26T12:54:36Z</time>
      </trkpt>
      <trkpt lat="47.85997" lon="-2.44632">
        <ele>68.90957</ele>
        <time>2017-04-26T12:54:42Z</time>
      </trkpt>
      <trkpt lat="47.86019" lon="-2.44612">
        <ele>69.90156</ele>
        <time>2017-04-26T12:54:47Z</time>
      </trkpt>
      <trkpt lat="47.86041" lon="-2.44593">
        <ele>68.46103</ele>
        <time>2017-04-26T12:54:53Z</time>
      </trkpt>
      <trkpt lat="47.86068" lon="-2.44577">
        <ele>69.225365</ele>
        <time>2017-04-26T12:54:59Z</time>
      </trkpt>
      <trkpt lat="47.86096" lon="-2.44566">
        <ele>71.205315</ele>
        <time>2017-04-26T12:55:05Z</time>
      </trkpt>
      <trkpt lat="47.86124" lon="-2.44557">
        <ele>72.098335</ele>
        <time>2017-04-26T12:55:11Z</time>
      </trkpt>
      <trkpt lat="47.86146" lon="-2.44553">
        <ele>72.79551</ele>
        <time>2017-04-26T12:55:16Z</time>
      </trkpt>
      <trkpt lat="47.86167" lon="-2.44551">
        <ele>73.26488</ele>
        <time>2017-04-26T12:55:22Z</time>
      </trkpt>
      <trkpt lat="47.86187" lon="-2.44553">
        <ele>72.71742</ele>
        <time>2017-04-26T12:55:27Z</time>
      </trkpt>
      <trkpt lat="47.86205" lon="-2.44553">
        <ele>71.99189</ele>
        <time>2017-04-26T12:55:32Z</time>
      </trkpt>
      <trkpt lat="47.86222" lon="-2.44552">
        <ele>71.61665</ele>
        <time>2017-04-26T12:55:37Z</time>
      </trkpt>
      <trkpt lat="47.86247" lon="-2.44557">
        <ele>71.13343</ele>
        <time>2017-04-26T12:55:43Z</time>
      </trkpt>
      <trkpt lat="47.8627" lon="-2.44562">
        <ele>71.38635</ele>
        <time>2017-04-26T12:55:49Z</time>
      </trkpt>
      <trkpt lat="47.86288" lon="-2.44565">
        <ele>71.52691</ele>
        <time>2017-04-26T12:55:54Z</time>
      </trkpt>
      <trkpt lat="47.8631" lon="-2.44568">
        <ele>72.63213</ele>
        <time>2017-04-26T12:56:00Z</time>
      </trkpt>
      <trkpt lat="47.86332" lon="-2.44572">
        <ele>72.44599</ele>
        <time>2017-04-26T12:56:06Z</time>
      </trkpt>
      <trkpt lat="47.86357" lon="-2.44578">
        <ele>71.87687</ele>
        <time>2017-04-26T12:56:12Z</time>
      </trkpt>
      <trkpt lat="47.8638" lon="-2.44583">
        <ele>74.22636</ele>
        <time>2017-04-26T12:56:18Z</time>
      </trkpt>
      <trkpt lat="47.86395" lon="-2.44586">
        <ele>74.566826</ele>
        <time>2017-04-26T12:56:23Z</time>
      </trkpt>
      <trkpt lat="47.86409" lon="-2.44591">
        <ele>74.76353</ele>
        <time>2017-04-26T12:56:28Z</time>
      </trkpt>
      <trkpt lat="47.86424" lon="-2.44596">
        <ele>74.82835</ele>
        <time>2017-04-26T12:56:34Z</time>
      </trkpt>
      <trkpt lat="47.86435" lon="-2.44601">
        <ele>74.94265</ele>
        <time>2017-04-26T12:56:40Z</time>
      </trkpt>
      <trkpt lat="47.86444" lon="-2.44604">
        <ele>75.1597</ele>
        <time>2017-04-26T12:56:45Z</time>
      </trkpt>
      <trkpt lat="47.86454" lon="-2.44607">
        <ele>75.33985</ele>
        <time>2017-04-26T12:56:51Z</time>
      </trkpt>
      <trkpt lat="47.86466" lon="-2.4461">
        <ele>75.42202</ele>
        <time>2017-04-26T12:56:57Z</time>
      </trkpt>
      <trkpt lat="47.86477" lon="-2.44614">
        <ele>75.52317</ele>
        <time>2017-04-26T12:57:03Z</time>
      </trkpt>
      <trkpt lat="47.86488" lon="-2.44616">
        <ele>75.845184</ele>
        <time>2017-04-26T12:57:09Z</time>
      </trkpt>
      <trkpt lat="47.86497" lon="-2.4462">
        <ele>76.336655</ele>
        <time>2017-04-26T12:57:15Z</time>
      </trkpt>
      <trkpt lat="47.86501" lon="-2.44605">
        <ele>76.62215</ele>
        <time>2017-04-26T12:57:21Z</time>
      </trkpt>
      <trkpt lat="47.86502" lon="-2.4457">
        <ele>76.48164</ele>
        <time>2017-04-26T12:57:27Z</time>
      </trkpt>
      <trkpt lat="47.86506" lon="-2.44527">
        <ele>75.65622</ele>
        <time>2017-04-26T12:57:33Z</time>
      </trkpt>
      <trkpt lat="47.86511" lon="-2.44476">
        <ele>74.14226</ele>
        <time>2017-04-26T12:57:39Z</time>
      </trkpt>
      <trkpt lat="47.86518" lon="-2.44435">
        <ele>72.96126</ele>
        <time>2017-04-26T12:57:45Z</time>
      </trkpt>
      <trkpt lat="47.86529" lon="-2.44435">
        <ele>72.78472</ele>
        <time>2017-04-26T12:57:50Z</time>
      </trkpt>
      <trkpt lat="47.86558" lon="-2.44441">
        <ele>72.64756</ele>
        <time>2017-04-26T12:57:56Z</time>
      </trkpt>
      <trkpt lat="47.86591" lon="-2.44447">
        <ele>72.90731</ele>
        <time>2017-04-26T12:58:02Z</time>
      </trkpt>
      <trkpt lat="47.86621" lon="-2.4445">
        <ele>74.30895</ele>
        <time>2017-04-26T12:58:08Z</time>
      </trkpt>
      <trkpt lat="47.86639" lon="-2.44415">
        <ele>71.07483</ele>
        <time>2017-04-26T12:58:14Z</time>
      </trkpt>
      <trkpt lat="47.86642" lon="-2.44372">
        <ele>71.08651</ele>
        <time>2017-04-26T12:58:20Z</time>
      </trkpt>
      <trkpt lat="47.86645" lon="-2.44333">
        <ele>70.11858</ele>
        <time>2017-04-26T12:58:26Z</time>
      </trkpt>
      <trkpt lat="47.86645" lon="-2.44292">
        <ele>71.1534</ele>
        <time>2017-04-26T12:58:32Z</time>
      </trkpt>
      <trkpt lat="47.86647" lon="-2.44252">
        <ele>72.64114</ele>
        <time>2017-04-26T12:58:38Z</time>
      </trkpt>
      <trkpt lat="47.86648" lon="-2.44218">
        <ele>72.67106</ele>
        <time>2017-04-26T12:58:43Z</time>
      </trkpt>
      <trkpt lat="47.86647" lon="-2.44179">
        <ele>73.783844</ele>
        <time>2017-04-26T12:58:49Z</time>
      </trkpt>
      <trkpt lat="47.86649" lon="-2.44138">
        <ele>73.1953</ele>
        <time>2017-04-26T12:58:55Z</time>
      </trkpt>
      <trkpt lat="47.86652" lon="-2.44097">
        <ele>72.87084</ele>
        <time>2017-04-26T12:59:01Z</time>
      </trkpt>
      <trkpt lat="47.86657" lon="-2.44064">
        <ele>72.763275</ele>
        <time>2017-04-26T12:59:06Z</time>
      </trkpt>
      <trkpt lat="47.86661" lon="-2.44024">
        <ele>74.368614</ele>
        <time>2017-04-26T12:59:12Z</time>
      </trkpt>
      <trkpt lat="47.86665" lon="-2.43991">
        <ele>74.19424</ele>
        <time>2017-04-26T12:59:17Z</time>
      </trkpt>
      <trkpt lat="47.8667" lon="-2.43958">
        <ele>73.7091</ele>
        <time>2017-04-26T12:59:22Z</time>
      </trkpt>
      <trkpt lat="47.86676" lon="-2.43918">
        <ele>73.14237</ele>
        <time>2017-04-26T12:59:28Z</time>
      </trkpt>
      <trkpt lat="47.8668" lon="-2.43886">
        <ele>71.39121</ele>
        <time>2017-04-26T12:59:33Z</time>
      </trkpt>
      <trkpt lat="47.86688" lon="-2.43847">
        <ele>70.25614</ele>
        <time>2017-04-26T12:59:39Z</time>
      </trkpt>
      <trkpt lat="47.86695" lon="-2.43816">
        <ele>70.67034</ele>
        <time>2017-04-26T12:59:45Z</time>
      </trkpt>
      <trkpt lat="47.86704" lon="-2.43784">
        <ele>70.12207</ele>
        <time>2017-04-26T12:59:51Z</time>
      </trkpt>
      <trkpt lat="47.86711" lon="-2.43758">
        <ele>68.76783</ele>
        <time>2017-04-26T12:59:56Z</time>
      </trkpt>
      <trkpt lat="47.86719" lon="-2.43724">
        <ele>67.42495</ele>
        <time>2017-04-26T13:00:02Z</time>
      </trkpt>
      <trkpt lat="47.86728" lon="-2.43693">
        <ele>67.397095</ele>
        <time>2017-04-26T13:00:08Z</time>
      </trkpt>
      <trkpt lat="47.86739" lon="-2.43661">
        <ele>66.69355</ele>
        <time>2017-04-26T13:00:14Z</time>
      </trkpt>
      <trkpt lat="47.86752" lon="-2.43631">
        <ele>69.61167</ele>
        <time>2017-04-26T13:00:20Z</time>
      </trkpt>
      <trkpt lat="47.86763" lon="-2.43607">
        <ele>70.36082</ele>
        <time>2017-04-26T13:00:25Z</time>
      </trkpt>
      <trkpt lat="47.86775" lon="-2.43576">
        <ele>71.96348</ele>
        <time>2017-04-26T13:00:31Z</time>
      </trkpt>
      <trkpt lat="47.86782" lon="-2.43554">
        <ele>68.62429</ele>
        <time>2017-04-26T13:00:36Z</time>
      </trkpt>
      <trkpt lat="47.86792" lon="-2.43526">
        <ele>66.733536</ele>
        <time>2017-04-26T13:00:42Z</time>
      </trkpt>
      <trkpt lat="47.868" lon="-2.43505">
        <ele>65.08348</ele>
        <time>2017-04-26T13:00:47Z</time>
      </trkpt>
      <trkpt lat="47.86819" lon="-2.43481">
        <ele>64.31519</ele>
        <time>2017-04-26T13:00:53Z</time>
      </trkpt>
      <trkpt lat="47.86843" lon="-2.43455">
        <ele>62.509926</ele>
        <time>2017-04-26T13:00:59Z</time>
      </trkpt>
      <trkpt lat="47.86866" lon="-2.43433">
        <ele>65.125145</ele>
        <time>2017-04-26T13:01:05Z</time>
      </trkpt>
      <trkpt lat="47.86881" lon="-2.43418">
        <ele>63.036922</ele>
        <time>2017-04-26T13:01:10Z</time>
      </trkpt>
      <trkpt lat="47.869" lon="-2.434">
        <ele>59.39084</ele>
        <time>2017-04-26T13:01:16Z</time>
      </trkpt>
      <trkpt lat="47.86918" lon="-2.43381">
        <ele>58.160324</ele>
        <time>2017-04-26T13:01:22Z</time>
      </trkpt>
      <trkpt lat="47.86932" lon="-2.43361">
        <ele>56.333736</ele>
        <time>2017-04-26T13:01:27Z</time>
      </trkpt>
      <trkpt lat="47.86947" lon="-2.43336">
        <ele>57.398285</ele>
        <time>2017-04-26T13:01:32Z</time>
      </trkpt>
      <trkpt lat="47.86958" lon="-2.43306">
        <ele>55.23759</ele>
        <time>2017-04-26T13:01:38Z</time>
      </trkpt>
      <trkpt lat="47.86971" lon="-2.43271">
        <ele>55.53918</ele>
        <time>2017-04-26T13:01:44Z</time>
      </trkpt>
      <trkpt lat="47.86982" lon="-2.43234">
        <ele>62.92437</ele>
        <time>2017-04-26T13:01:50Z</time>
      </trkpt>
      <trkpt lat="47.86989" lon="-2.43206">
        <ele>67.25516</ele>
        <time>2017-04-26T13:01:55Z</time>
      </trkpt>
      <trkpt lat="47.86994" lon="-2.43182">
        <ele>67.05493</ele>
        <time>2017-04-26T13:02:00Z</time>
      </trkpt>
      <trkpt lat="47.87005" lon="-2.43154">
        <ele>67.81476</ele>
        <time>2017-04-26T13:02:06Z</time>
      </trkpt>
      <trkpt lat="47.87013" lon="-2.4313">
        <ele>67.88607</ele>
        <time>2017-04-26T13:02:11Z</time>
      </trkpt>
      <trkpt lat="47.87027" lon="-2.43104">
        <ele>68.44249</ele>
        <time>2017-04-26T13:02:17Z</time>
      </trkpt>
      <trkpt lat="47.87037" lon="-2.43082">
        <ele>69.41746</ele>
        <time>2017-04-26T13:02:23Z</time>
      </trkpt>
      <trkpt lat="47.8705" lon="-2.43056">
        <ele>69.56556</ele>
        <time>2017-04-26T13:02:29Z</time>
      </trkpt>
      <trkpt lat="47.87063" lon="-2.43029">
        <ele>68.015594</ele>
        <time>2017-04-26T13:02:35Z</time>
      </trkpt>
      <trkpt lat="47.87075" lon="-2.42999">
        <ele>66.05122</ele>
        <time>2017-04-26T13:02:41Z</time>
      </trkpt>
      <trkpt lat="47.87083" lon="-2.42962">
        <ele>65.70183</ele>
        <time>2017-04-26T13:02:47Z</time>
      </trkpt>
      <trkpt lat="47.8709" lon="-2.4293">
        <ele>65.12618</ele>
        <time>2017-04-26T13:02:52Z</time>
      </trkpt>
      <trkpt lat="47.87097" lon="-2.42889">
        <ele>63.854668</ele>
        <time>2017-04-26T13:02:58Z</time>
      </trkpt>
      <trkpt lat="47.87108" lon="-2.42855">
        <ele>61.5814</ele>
        <time>2017-04-26T13:03:03Z</time>
      </trkpt>
      <trkpt lat="47.87122" lon="-2.42821">
        <ele>61.684483</ele>
        <time>2017-04-26T13:03:09Z</time>
      </trkpt>
      <trkpt lat="47.87137" lon="-2.4279">
        <ele>58.541218</ele>
        <time>2017-04-26T13:03:15Z</time>
      </trkpt>
      <trkpt lat="47.87154" lon="-2.42758">
        <ele>56.197212</ele>
        <time>2017-04-26T13:03:21Z</time>
      </trkpt>
      <trkpt lat="47.87172" lon="-2.42734">
        <ele>56.86855</ele>
        <time>2017-04-26T13:03:26Z</time>
      </trkpt>
      <trkpt lat="47.87194" lon="-2.42712">
        <ele>57.791557</ele>
        <time>2017-04-26T13:03:32Z</time>
      </trkpt>
      <trkpt lat="47.87216" lon="-2.42707">
        <ele>55.210804</ele>
        <time>2017-04-26T13:03:38Z</time>
      </trkpt>
      <trkpt lat="47.87237" lon="-2.4272">
        <ele>53.694073</ele>
        <time>2017-04-26T13:03:44Z</time>
      </trkpt>
      <trkpt lat="47.87257" lon="-2.42736">
        <ele>54.7325</ele>
        <time>2017-04-26T13:03:49Z</time>
      </trkpt>
      <trkpt lat="47.87282" lon="-2.42753">
        <ele>60.52972</ele>
        <time>2017-04-26T13:03:55Z</time>
      </trkpt>
      <trkpt lat="47.87309" lon="-2.42767">
        <ele>67.82879</ele>
        <time>2017-04-26T13:04:00Z</time>
      </trkpt>
      <trkpt lat="47.87334" lon="-2.42777">
        <ele>68.4462</ele>
        <time>2017-04-26T13:04:06Z</time>
      </trkpt>
      <trkpt lat="47.87357" lon="-2.42786">
        <ele>69.36527</ele>
        <time>2017-04-26T13:04:12Z</time>
      </trkpt>
      <trkpt lat="47.87379" lon="-2.42793">
        <ele>70.466515</ele>
        <time>2017-04-26T13:04:18Z</time>
      </trkpt>
      <trkpt lat="47.87399" lon="-2.42798">
        <ele>70.14924</ele>
        <time>2017-04-26T13:04:23Z</time>
      </trkpt>
      <trkpt lat="47.87421" lon="-2.42801">
        <ele>69.84155</ele>
        <time>2017-04-26T13:04:29Z</time>
      </trkpt>
      <trkpt lat="47.8744" lon="-2.42801">
        <ele>70.15984</ele>
        <time>2017-04-26T13:04:34Z</time>
      </trkpt>
      <trkpt lat="47.87459" lon="-2.42802">
        <ele>70.6255</ele>
        <time>2017-04-26T13:04:39Z</time>
      </trkpt>
      <trkpt lat="47.87484" lon="-2.42802">
        <ele>72.39738</ele>
        <time>2017-04-26T13:04:45Z</time>
      </trkpt>
      <trkpt lat="47.87508" lon="-2.42801">
        <ele>72.876</ele>
        <time>2017-04-26T13:04:51Z</time>
      </trkpt>
      <trkpt lat="47.87526" lon="-2.42793">
        <ele>69.944824</ele>
        <time>2017-04-26T13:04:57Z</time>
      </trkpt>
      <trkpt lat="47.87546" lon="-2.42782">
        <ele>69.03358</ele>
        <time>2017-04-26T13:05:03Z</time>
      </trkpt>
      <trkpt lat="47.87563" lon="-2.42768">
        <ele>60.02522</ele>
        <time>2017-04-26T13:05:09Z</time>
      </trkpt>
      <trkpt lat="47.87585" lon="-2.42746">
        <ele>55.16159</ele>
        <time>2017-04-26T13:05:15Z</time>
      </trkpt>
      <trkpt lat="47.87608" lon="-2.42714">
        <ele>59.52699</ele>
        <time>2017-04-26T13:05:21Z</time>
      </trkpt>
      <trkpt lat="47.87629" lon="-2.42681">
        <ele>71.04129</ele>
        <time>2017-04-26T13:05:27Z</time>
      </trkpt>
      <trkpt lat="47.87646" lon="-2.4265">
        <ele>74.49616</ele>
        <time>2017-04-26T13:05:33Z</time>
      </trkpt>
      <trkpt lat="47.8766" lon="-2.42619">
        <ele>74.68982</ele>
        <time>2017-04-26T13:05:39Z</time>
      </trkpt>
      <trkpt lat="47.87677" lon="-2.42589">
        <ele>73.12515</ele>
        <time>2017-04-26T13:05:45Z</time>
      </trkpt>
      <trkpt lat="47.87688" lon="-2.42568">
        <ele>73.512955</ele>
        <time>2017-04-26T13:05:50Z</time>
      </trkpt>
      <trkpt lat="47.87706" lon="-2.42544">
        <ele>74.325066</ele>
        <time>2017-04-26T13:05:56Z</time>
      </trkpt>
      <trkpt lat="47.87722" lon="-2.42521">
        <ele>73.660515</ele>
        <time>2017-04-26T13:06:02Z</time>
      </trkpt>
      <trkpt lat="47.87737" lon="-2.42501">
        <ele>73.659454</ele>
        <time>2017-04-26T13:06:07Z</time>
      </trkpt>
      <trkpt lat="47.87755" lon="-2.42479">
        <ele>72.55001</ele>
        <time>2017-04-26T13:06:12Z</time>
      </trkpt>
      <trkpt lat="47.87773" lon="-2.42457">
        <ele>72.23918</ele>
        <time>2017-04-26T13:06:18Z</time>
      </trkpt>
      <trkpt lat="47.87789" lon="-2.42439">
        <ele>70.77718</ele>
        <time>2017-04-26T13:06:24Z</time>
      </trkpt>
      <trkpt lat="47.87804" lon="-2.42423">
        <ele>70.235306</ele>
        <time>2017-04-26T13:06:29Z</time>
      </trkpt>
      <trkpt lat="47.87826" lon="-2.42404">
        <ele>70.101425</ele>
        <time>2017-04-26T13:06:35Z</time>
      </trkpt>
      <trkpt lat="47.87845" lon="-2.42394">
        <ele>70.679855</ele>
        <time>2017-04-26T13:06:40Z</time>
      </trkpt>
      <trkpt lat="47.87862" lon="-2.42384">
        <ele>70.82738</ele>
        <time>2017-04-26T13:06:46Z</time>
      </trkpt>
      <trkpt lat="47.87874" lon="-2.42375">
        <ele>70.72005</ele>
        <time>2017-04-26T13:06:51Z</time>
      </trkpt>
      <trkpt lat="47.87892" lon="-2.42364">
        <ele>70.24686</ele>
        <time>2017-04-26T13:06:57Z</time>
      </trkpt>
      <trkpt lat="47.87915" lon="-2.42352">
        <ele>69.54656</ele>
        <time>2017-04-26T13:07:03Z</time>
      </trkpt>
      <trkpt lat="47.87937" lon="-2.42346">
        <ele>69.323524</ele>
        <time>2017-04-26T13:07:09Z</time>
      </trkpt>
      <trkpt lat="47.87955" lon="-2.42342">
        <ele>67.96459</ele>
        <time>2017-04-26T13:07:15Z</time>
      </trkpt>
      <trkpt lat="47.87976" lon="-2.42338">
        <ele>64.90539</ele>
        <time>2017-04-26T13:07:21Z</time>
      </trkpt>
      <trkpt lat="47.88004" lon="-2.42341">
        <ele>65.510956</ele>
        <time>2017-04-26T13:07:27Z</time>
      </trkpt>
      <trkpt lat="47.88027" lon="-2.42337">
        <ele>67.5507</ele>
        <time>2017-04-26T13:07:33Z</time>
      </trkpt>
      <trkpt lat="47.88049" lon="-2.42335">
        <ele>68.29611</ele>
        <time>2017-04-26T13:07:39Z</time>
      </trkpt>
      <trkpt lat="47.88067" lon="-2.42333">
        <ele>69.39099</ele>
        <time>2017-04-26T13:07:45Z</time>
      </trkpt>
      <trkpt lat="47.88086" lon="-2.42337">
        <ele>72.13289</ele>
        <time>2017-04-26T13:07:51Z</time>
      </trkpt>
      <trkpt lat="47.88103" lon="-2.42353">
        <ele>75.13105</ele>
        <time>2017-04-26T13:07:56Z</time>
      </trkpt>
      <trkpt lat="47.88124" lon="-2.42372">
        <ele>74.893936</ele>
        <time>2017-04-26T13:08:02Z</time>
      </trkpt>
      <trkpt lat="47.8814" lon="-2.42391">
        <ele>74.30815</ele>
        <time>2017-04-26T13:08:07Z</time>
      </trkpt>
      <trkpt lat="47.88162" lon="-2.42418">
        <ele>73.17006</ele>
        <time>2017-04-26T13:08:13Z</time>
      </trkpt>
      <trkpt lat="47.88178" lon="-2.42436">
        <ele>72.71651</ele>
        <time>2017-04-26T13:08:18Z</time>
      </trkpt>
      <trkpt lat="47.88199" lon="-2.4246">
        <ele>72.12547</ele>
        <time>2017-04-26T13:08:24Z</time>
      </trkpt>
      <trkpt lat="47.8822" lon="-2.4248">
        <ele>70.66062</ele>
        <time>2017-04-26T13:08:30Z</time>
      </trkpt>
      <trkpt lat="47.88239" lon="-2.42497">
        <ele>72.136154</ele>
        <time>2017-04-26T13:08:36Z</time>
      </trkpt>
      <trkpt lat="47.88258" lon="-2.42514">
        <ele>72.34992</ele>
        <time>2017-04-26T13:08:42Z</time>
      </trkpt>
      <trkpt lat="47.88275" lon="-2.42526">
        <ele>73.670746</ele>
        <time>2017-04-26T13:08:47Z</time>
      </trkpt>
      <trkpt lat="47.88297" lon="-2.42541">
        <ele>75.10653</ele>
        <time>2017-04-26T13:08:53Z</time>
      </trkpt>
      <trkpt lat="47.88319" lon="-2.42555">
        <ele>75.694595</ele>
        <time>2017-04-26T13:08:59Z</time>
      </trkpt>
      <trkpt lat="47.8834" lon="-2.42573">
        <ele>75.80376</ele>
        <time>2017-04-26T13:09:05Z</time>
      </trkpt>
      <trkpt lat="47.8836" lon="-2.42595">
        <ele>75.42489</ele>
        <time>2017-04-26T13:09:11Z</time>
      </trkpt>
      <trkpt lat="47.88378" lon="-2.42617">
        <ele>73.93491</ele>
        <time>2017-04-26T13:09:17Z</time>
      </trkpt>
      <trkpt lat="47.88395" lon="-2.42644">
        <ele>72.017845</ele>
        <time>2017-04-26T13:09:23Z</time>
      </trkpt>
      <trkpt lat="47.88412" lon="-2.42669">
        <ele>69.45584</ele>
        <time>2017-04-26T13:09:29Z</time>
      </trkpt>
      <trkpt lat="47.88427" lon="-2.42696">
        <ele>66.36708</ele>
        <time>2017-04-26T13:09:35Z</time>
      </trkpt>
      <trkpt lat="47.88442" lon="-2.42727">
        <ele>64.33003</ele>
        <time>2017-04-26T13:09:41Z</time>
      </trkpt>
      <trkpt lat="47.88457" lon="-2.42755">
        <ele>67.41029</ele>
        <time>2017-04-26T13:09:47Z</time>
      </trkpt>
      <trkpt lat="47.88472" lon="-2.42781">
        <ele>68.11083</ele>
        <time>2017-04-26T13:09:53Z</time>
      </trkpt>
      <trkpt lat="47.88486" lon="-2.42805">
        <ele>68.98807</ele>
        <time>2017-04-26T13:09:58Z</time>
      </trkpt>
      <trkpt lat="47.88505" lon="-2.42832">
        <ele>70.47549</ele>
        <time>2017-04-26T13:10:04Z</time>
      </trkpt>
      <trkpt lat="47.88519" lon="-2.42854">
        <ele>71.31575</ele>
        <time>2017-04-26T13:10:09Z</time>
      </trkpt>
      <trkpt lat="47.88538" lon="-2.42882">
        <ele>70.638374</ele>
        <time>2017-04-26T13:10:15Z</time>
      </trkpt>
      <trkpt lat="47.88556" lon="-2.42909">
        <ele>69.846924</ele>
        <time>2017-04-26T13:10:21Z</time>
      </trkpt>
      <trkpt lat="47.88568" lon="-2.42934">
        <ele>69.45782</ele>
        <time>2017-04-26T13:10:26Z</time>
      </trkpt>
      <trkpt lat="47.88582" lon="-2.42964">
        <ele>71.78556</ele>
        <time>2017-04-26T13:10:32Z</time>
      </trkpt>
      <trkpt lat="47.88596" lon="-2.42998">
        <ele>71.971886</ele>
        <time>2017-04-26T13:10:38Z</time>
      </trkpt>
      <trkpt lat="47.88608" lon="-2.43038">
        <ele>69.222755</ele>
        <time>2017-04-26T13:10:44Z</time>
      </trkpt>
      <trkpt lat="47.88619" lon="-2.43066">
        <ele>70.3107</ele>
        <time>2017-04-26T13:10:49Z</time>
      </trkpt>
      <trkpt lat="47.88635" lon="-2.431">
        <ele>68.752625</ele>
        <time>2017-04-26T13:10:55Z</time>
      </trkpt>
      <trkpt lat="47.88652" lon="-2.43131">
        <ele>67.60712</ele>
        <time>2017-04-26T13:11:01Z</time>
      </trkpt>
      <trkpt lat="47.88668" lon="-2.43163">
        <ele>65.64751</ele>
        <time>2017-04-26T13:11:07Z</time>
      </trkpt>
      <trkpt lat="47.88681" lon="-2.43188">
        <ele>63.978733</ele>
        <time>2017-04-26T13:11:12Z</time>
      </trkpt>
      <trkpt lat="47.88694" lon="-2.43213">
        <ele>64.340004</ele>
        <time>2017-04-26T13:11:17Z</time>
      </trkpt>
      <trkpt lat="47.88709" lon="-2.43244">
        <ele>65.328026</ele>
        <time>2017-04-26T13:11:23Z</time>
      </trkpt>
      <trkpt lat="47.88721" lon="-2.43277">
        <ele>66.43641</ele>
        <time>2017-04-26T13:11:29Z</time>
      </trkpt>
      <trkpt lat="47.88729" lon="-2.43305">
        <ele>67.34621</ele>
        <time>2017-04-26T13:11:34Z</time>
      </trkpt>
      <trkpt lat="47.88735" lon="-2.43346">
        <ele>67.15584</ele>
        <time>2017-04-26T13:11:40Z</time>
      </trkpt>
      <trkpt lat="47.88741" lon="-2.43385">
        <ele>70.2455</ele>
        <time>2017-04-26T13:11:46Z</time>
      </trkpt>
      <trkpt lat="47.88747" lon="-2.43417">
        <ele>71.29978</ele>
        <time>2017-04-26T13:11:51Z</time>
      </trkpt>
      <trkpt lat="47.88754" lon="-2.43462">
        <ele>67.55919</ele>
        <time>2017-04-26T13:11:57Z</time>
      </trkpt>
      <trkpt lat="47.8876" lon="-2.43495">
        <ele>67.14334</ele>
        <time>2017-04-26T13:12:03Z</time>
      </trkpt>
      <trkpt lat="47.88767" lon="-2.43532">
        <ele>69.689064</ele>
        <time>2017-04-26T13:12:09Z</time>
      </trkpt>
      <trkpt lat="47.88777" lon="-2.43565">
        <ele>70.14021</ele>
        <time>2017-04-26T13:12:15Z</time>
      </trkpt>
      <trkpt lat="47.88788" lon="-2.43593">
        <ele>70.34805</ele>
        <time>2017-04-26T13:12:21Z</time>
      </trkpt>
      <trkpt lat="47.888" lon="-2.43614">
        <ele>70.82422</ele>
        <time>2017-04-26T13:12:27Z</time>
      </trkpt>
      <trkpt lat="47.88805" lon="-2.43643">
        <ele>70.898735</ele>
        <time>2017-04-26T13:12:33Z</time>
      </trkpt>
      <trkpt lat="47.888" lon="-2.43664">
        <ele>71.70187</ele>
        <time>2017-04-26T13:12:38Z</time>
      </trkpt>
      <trkpt lat="47.88796" lon="-2.43699">
        <ele>75.348206</ele>
        <time>2017-04-26T13:12:44Z</time>
      </trkpt>
      <trkpt lat="47.88791" lon="-2.43735">
        <ele>76.239174</ele>
        <time>2017-04-26T13:12:49Z</time>
      </trkpt>
      <trkpt lat="47.88784" lon="-2.43782">
        <ele>76.34072</ele>
        <time>2017-04-26T13:12:55Z</time>
      </trkpt>
      <trkpt lat="47.88776" lon="-2.43813">
        <ele>76.67258</ele>
        <time>2017-04-26T13:13:00Z</time>
      </trkpt>
      <trkpt lat="47.88762" lon="-2.43855">
        <ele>78.86531</ele>
        <time>2017-04-26T13:13:06Z</time>
      </trkpt>
      <trkpt lat="47.88749" lon="-2.43896">
        <ele>76.81648</ele>
        <time>2017-04-26T13:13:12Z</time>
      </trkpt>
      <trkpt lat="47.88737" lon="-2.43939">
        <ele>73.50746</ele>
        <time>2017-04-26T13:13:18Z</time>
      </trkpt>
      <trkpt lat="47.88731" lon="-2.43971">
        <ele>70.1608</ele>
        <time>2017-04-26T13:13:23Z</time>
      </trkpt>
      <trkpt lat="47.8873" lon="-2.44006">
        <ele>69.36283</ele>
        <time>2017-04-26T13:13:29Z</time>
      </trkpt>
      <trkpt lat="47.8873" lon="-2.44041">
        <ele>68.00915</ele>
        <time>2017-04-26T13:13:34Z</time>
      </trkpt>
      <trkpt lat="47.88732" lon="-2.44071">
        <ele>66.349396</ele>
        <time>2017-04-26T13:13:39Z</time>
      </trkpt>
      <trkpt lat="47.88732" lon="-2.44097">
        <ele>71.86588</ele>
        <time>2017-04-26T13:13:45Z</time>
      </trkpt>
      <trkpt lat="47.88732" lon="-2.4413">
        <ele>76.883675</ele>
        <time>2017-04-26T13:13:50Z</time>
      </trkpt>
      <trkpt lat="47.88728" lon="-2.44158">
        <ele>80.560425</ele>
        <time>2017-04-26T13:13:55Z</time>
      </trkpt>
      <trkpt lat="47.88724" lon="-2.4419">
        <ele>82.856125</ele>
        <time>2017-04-26T13:14:00Z</time>
      </trkpt>
      <trkpt lat="47.88719" lon="-2.44232">
        <ele>85.9433</ele>
        <time>2017-04-26T13:14:06Z</time>
      </trkpt>
      <trkpt lat="47.88717" lon="-2.4427">
        <ele>85.142876</ele>
        <time>2017-04-26T13:14:12Z</time>
      </trkpt>
      <trkpt lat="47.88714" lon="-2.44316">
        <ele>78.71823</ele>
        <time>2017-04-26T13:14:18Z</time>
      </trkpt>
      <trkpt lat="47.88712" lon="-2.44351">
        <ele>72.54353</ele>
        <time>2017-04-26T13:14:23Z</time>
      </trkpt>
      <trkpt lat="47.8871" lon="-2.44388">
        <ele>71.48073</ele>
        <time>2017-04-26T13:14:29Z</time>
      </trkpt>
      <trkpt lat="47.88708" lon="-2.4442">
        <ele>71.853386</ele>
        <time>2017-04-26T13:14:34Z</time>
      </trkpt>
      <trkpt lat="47.88706" lon="-2.44451">
        <ele>74.969376</ele>
        <time>2017-04-26T13:14:40Z</time>
      </trkpt>
      <trkpt lat="47.88703" lon="-2.44486">
        <ele>77.840904</ele>
        <time>2017-04-26T13:14:46Z</time>
      </trkpt>
      <trkpt lat="47.88695" lon="-2.44524">
        <ele>76.951515</ele>
        <time>2017-04-26T13:14:52Z</time>
      </trkpt>
      <trkpt lat="47.88687" lon="-2.44566">
        <ele>67.88409</ele>
        <time>2017-04-26T13:14:58Z</time>
      </trkpt>
      <trkpt lat="47.88677" lon="-2.44598">
        <ele>64.70412</ele>
        <time>2017-04-26T13:15:03Z</time>
      </trkpt>
      <trkpt lat="47.88665" lon="-2.44638">
        <ele>61.321014</ele>
        <time>2017-04-26T13:15:09Z</time>
      </trkpt>
      <trkpt lat="47.88655" lon="-2.4468">
        <ele>61.4696</ele>
        <time>2017-04-26T13:15:15Z</time>
      </trkpt>
      <trkpt lat="47.88643" lon="-2.44721">
        <ele>60.846035</ele>
        <time>2017-04-26T13:15:21Z</time>
      </trkpt>
      <trkpt lat="47.88637" lon="-2.44754">
        <ele>60.42559</ele>
        <time>2017-04-26T13:15:26Z</time>
      </trkpt>
      <trkpt lat="47.88631" lon="-2.44791">
        <ele>57.501198</ele>
        <time>2017-04-26T13:15:31Z</time>
      </trkpt>
      <trkpt lat="47.88632" lon="-2.44835">
        <ele>59.323128</ele>
        <time>2017-04-26T13:15:37Z</time>
      </trkpt>
      <trkpt lat="47.88638" lon="-2.44878">
        <ele>61.38441</ele>
        <time>2017-04-26T13:15:43Z</time>
      </trkpt>
      <trkpt lat="47.88644" lon="-2.44918">
        <ele>59.555077</ele>
        <time>2017-04-26T13:15:49Z</time>
      </trkpt>
      <trkpt lat="47.88652" lon="-2.44956">
        <ele>60.547165</ele>
        <time>2017-04-26T13:15:55Z</time>
      </trkpt>
      <trkpt lat="47.88661" lon="-2.44997">
        <ele>61.519566</ele>
        <time>2017-04-26T13:16:01Z</time>
      </trkpt>
      <trkpt lat="47.88677" lon="-2.45022">
        <ele>64.19105</ele>
        <time>2017-04-26T13:16:06Z</time>
      </trkpt>
      <trkpt lat="47.88701" lon="-2.45051">
        <ele>67.54572</ele>
        <time>2017-04-26T13:16:12Z</time>
      </trkpt>
      <trkpt lat="47.88718" lon="-2.45075">
        <ele>71.10813</ele>
        <time>2017-04-26T13:16:18Z</time>
      </trkpt>
      <trkpt lat="47.88734" lon="-2.45095">
        <ele>71.86887</ele>
        <time>2017-04-26T13:16:24Z</time>
      </trkpt>
      <trkpt lat="47.88747" lon="-2.45116">
        <ele>71.92653</ele>
        <time>2017-04-26T13:16:30Z</time>
      </trkpt>
      <trkpt lat="47.88762" lon="-2.4514">
        <ele>72.41813</ele>
        <time>2017-04-26T13:16:36Z</time>
      </trkpt>
      <trkpt lat="47.88775" lon="-2.45166">
        <ele>72.85747</ele>
        <time>2017-04-26T13:16:42Z</time>
      </trkpt>
      <trkpt lat="47.88787" lon="-2.45185">
        <ele>72.84396</ele>
        <time>2017-04-26T13:16:47Z</time>
      </trkpt>
      <trkpt lat="47.88804" lon="-2.45211">
        <ele>73.09098</ele>
        <time>2017-04-26T13:16:53Z</time>
      </trkpt>
      <trkpt lat="47.88821" lon="-2.45237">
        <ele>71.457016</ele>
        <time>2017-04-26T13:16:59Z</time>
      </trkpt>
      <trkpt lat="47.88837" lon="-2.45261">
        <ele>70.37206</ele>
        <time>2017-04-26T13:17:04Z</time>
      </trkpt>
      <trkpt lat="47.88856" lon="-2.45282">
        <ele>71.974884</ele>
        <time>2017-04-26T13:17:10Z</time>
      </trkpt>
      <trkpt lat="47.88877" lon="-2.45288">
        <ele>73.50133</ele>
        <time>2017-04-26T13:17:15Z</time>
      </trkpt>
      <trkpt lat="47.889" lon="-2.45281">
        <ele>72.69864</ele>
        <time>2017-04-26T13:17:21Z</time>
      </trkpt>
      <trkpt lat="47.88913" lon="-2.45272">
        <ele>71.48502</ele>
        <time>2017-04-26T13:17:26Z</time>
      </trkpt>
      <trkpt lat="47.88937" lon="-2.45256">
        <ele>71.29268</ele>
        <time>2017-04-26T13:17:32Z</time>
      </trkpt>
      <trkpt lat="47.88957" lon="-2.45243">
        <ele>70.120766</ele>
        <time>2017-04-26T13:17:38Z</time>
      </trkpt>
      <trkpt lat="47.88978" lon="-2.45235">
        <ele>68.591064</ele>
        <time>2017-04-26T13:17:44Z</time>
      </trkpt>
      <trkpt lat="47.89" lon="-2.45234">
        <ele>67.20379</ele>
        <time>2017-04-26T13:17:50Z</time>
      </trkpt>
      <trkpt lat="47.89028" lon="-2.45235">
        <ele>69.951546</ele>
        <time>2017-04-26T13:17:56Z</time>
      </trkpt>
      <trkpt lat="47.89052" lon="-2.4524">
        <ele>74.49646</ele>
        <time>2017-04-26T13:18:02Z</time>
      </trkpt>
      <trkpt lat="47.89071" lon="-2.45249">
        <ele>76.545876</ele>
        <time>2017-04-26T13:18:07Z</time>
      </trkpt>
      <trkpt lat="47.89087" lon="-2.45254">
        <ele>77.1659</ele>
        <time>2017-04-26T13:18:12Z</time>
      </trkpt>
      <trkpt lat="47.89112" lon="-2.45262">
        <ele>77.95602</ele>
        <time>2017-04-26T13:18:18Z</time>
      </trkpt>
      <trkpt lat="47.89136" lon="-2.45274">
        <ele>79.33806</ele>
        <time>2017-04-26T13:18:24Z</time>
      </trkpt>
      <trkpt lat="47.89155" lon="-2.4528">
        <ele>79.46407</ele>
        <time>2017-04-26T13:18:30Z</time>
      </trkpt>
      <trkpt lat="47.89179" lon="-2.45287">
        <ele>79.36506</ele>
        <time>2017-04-26T13:18:36Z</time>
      </trkpt>
      <trkpt lat="47.89202" lon="-2.45296">
        <ele>78.96747</ele>
        <time>2017-04-26T13:18:42Z</time>
      </trkpt>
      <trkpt lat="47.89219" lon="-2.45302">
        <ele>78.98587</ele>
        <time>2017-04-26T13:18:47Z</time>
      </trkpt>
      <trkpt lat="47.89241" lon="-2.45309">
        <ele>78.70187</ele>
        <time>2017-04-26T13:18:53Z</time>
      </trkpt>
      <trkpt lat="47.8926" lon="-2.45318">
        <ele>78.59299</ele>
        <time>2017-04-26T13:18:59Z</time>
      </trkpt>
      <trkpt lat="47.89276" lon="-2.45327">
        <ele>78.701744</ele>
        <time>2017-04-26T13:19:04Z</time>
      </trkpt>
      <trkpt lat="47.893" lon="-2.45337">
        <ele>80.31195</ele>
        <time>2017-04-26T13:19:10Z</time>
      </trkpt>
      <trkpt lat="47.89322" lon="-2.45341">
        <ele>80.67955</ele>
        <time>2017-04-26T13:19:16Z</time>
      </trkpt>
      <trkpt lat="47.89345" lon="-2.45351">
        <ele>83.27357</ele>
        <time>2017-04-26T13:19:22Z</time>
      </trkpt>
      <trkpt lat="47.8936" lon="-2.45356">
        <ele>83.15213</ele>
        <time>2017-04-26T13:19:27Z</time>
      </trkpt>
      <trkpt lat="47.89383" lon="-2.45361">
        <ele>83.05555</ele>
        <time>2017-04-26T13:19:33Z</time>
      </trkpt>
      <trkpt lat="47.8941" lon="-2.45368">
        <ele>82.670166</ele>
        <time>2017-04-26T13:19:39Z</time>
      </trkpt>
      <trkpt lat="47.89434" lon="-2.45379">
        <ele>83.72165</ele>
        <time>2017-04-26T13:19:45Z</time>
      </trkpt>
      <trkpt lat="47.89455" lon="-2.45393">
        <ele>81.321625</ele>
        <time>2017-04-26T13:19:51Z</time>
      </trkpt>
      <trkpt lat="47.89472" lon="-2.45411">
        <ele>77.95718</ele>
        <time>2017-04-26T13:19:56Z</time>
      </trkpt>
      <trkpt lat="47.89492" lon="-2.45438">
        <ele>75.96072</ele>
        <time>2017-04-26T13:20:02Z</time>
      </trkpt>
      <trkpt lat="47.89514" lon="-2.45456">
        <ele>76.787445</ele>
        <time>2017-04-26T13:20:08Z</time>
      </trkpt>
      <trkpt lat="47.89537" lon="-2.45468">
        <ele>78.15757</ele>
        <time>2017-04-26T13:20:14Z</time>
      </trkpt>
      <trkpt lat="47.89563" lon="-2.45479">
        <ele>80.42778</ele>
        <time>2017-04-26T13:20:20Z</time>
      </trkpt>
      <trkpt lat="47.89577" lon="-2.45484">
        <ele>81.40919</ele>
        <time>2017-04-26T13:20:25Z</time>
      </trkpt>
      <trkpt lat="47.896" lon="-2.45495">
        <ele>81.65271</ele>
        <time>2017-04-26T13:20:31Z</time>
      </trkpt>
      <trkpt lat="47.89617" lon="-2.45504">
        <ele>80.45016</ele>
        <time>2017-04-26T13:20:37Z</time>
      </trkpt>
      <trkpt lat="47.89636" lon="-2.45522">
        <ele>78.960144</ele>
        <time>2017-04-26T13:20:42Z</time>
      </trkpt>
      <trkpt lat="47.89655" lon="-2.45544">
        <ele>79.18258</ele>
        <time>2017-04-26T13:20:48Z</time>
      </trkpt>
      <trkpt lat="47.89674" lon="-2.45564">
        <ele>78.95374</ele>
        <time>2017-04-26T13:20:54Z</time>
      </trkpt>
      <trkpt lat="47.89693" lon="-2.45586">
        <ele>78.85322</ele>
        <time>2017-04-26T13:21:00Z</time>
      </trkpt>
      <trkpt lat="47.89713" lon="-2.45605">
        <ele>78.32511</ele>
        <time>2017-04-26T13:21:06Z</time>
      </trkpt>
      <trkpt lat="47.89729" lon="-2.45623">
        <ele>77.83789</ele>
        <time>2017-04-26T13:21:11Z</time>
      </trkpt>
      <trkpt lat="47.89751" lon="-2.45639">
        <ele>78.24819</ele>
        <time>2017-04-26T13:21:17Z</time>
      </trkpt>
      <trkpt lat="47.89774" lon="-2.45654">
        <ele>78.62123</ele>
        <time>2017-04-26T13:21:23Z</time>
      </trkpt>
      <trkpt lat="47.89791" lon="-2.45665">
        <ele>78.83534</ele>
        <time>2017-04-26T13:21:28Z</time>
      </trkpt>
      <trkpt lat="47.89814" lon="-2.45676">
        <ele>79.8998</ele>
        <time>2017-04-26T13:21:34Z</time>
      </trkpt>
      <trkpt lat="47.89834" lon="-2.45686">
        <ele>80.30975</ele>
        <time>2017-04-26T13:21:39Z</time>
      </trkpt>
      <trkpt lat="47.89854" lon="-2.45702">
        <ele>80.391235</ele>
        <time>2017-04-26T13:21:45Z</time>
      </trkpt>
      <trkpt lat="47.89871" lon="-2.45713">
        <ele>80.93408</ele>
        <time>2017-04-26T13:21:50Z</time>
      </trkpt>
      <trkpt lat="47.89889" lon="-2.45728">
        <ele>81.17884</ele>
        <time>2017-04-26T13:21:55Z</time>
      </trkpt>
      <trkpt lat="47.8991" lon="-2.45745">
        <ele>79.65003</ele>
        <time>2017-04-26T13:22:01Z</time>
      </trkpt>
      <trkpt lat="47.89932" lon="-2.45761">
        <ele>78.601585</ele>
        <time>2017-04-26T13:22:07Z</time>
      </trkpt>
      <trkpt lat="47.89954" lon="-2.45781">
        <ele>79.90208</ele>
        <time>2017-04-26T13:22:13Z</time>
      </trkpt>
      <trkpt lat="47.89973" lon="-2.45797">
        <ele>77.83665</ele>
        <time>2017-04-26T13:22:18Z</time>
      </trkpt>
      <trkpt lat="47.89994" lon="-2.45818">
        <ele>75.94038</ele>
        <time>2017-04-26T13:22:24Z</time>
      </trkpt>
      <trkpt lat="47.9001" lon="-2.45846">
        <ele>74.501915</ele>
        <time>2017-04-26T13:22:30Z</time>
      </trkpt>
      <trkpt lat="47.90023" lon="-2.45875">
        <ele>75.492294</ele>
        <time>2017-04-26T13:22:36Z</time>
      </trkpt>
      <trkpt lat="47.90029" lon="-2.45915">
        <ele>74.95949</ele>
        <time>2017-04-26T13:22:41Z</time>
      </trkpt>
      <trkpt lat="47.90032" lon="-2.45948">
        <ele>74.49323</ele>
        <time>2017-04-26T13:22:47Z</time>
      </trkpt>
      <trkpt lat="47.90033" lon="-2.45979">
        <ele>74.16972</ele>
        <time>2017-04-26T13:22:53Z</time>
      </trkpt>
      <trkpt lat="47.90031" lon="-2.46019">
        <ele>75.07649</ele>
        <time>2017-04-26T13:22:59Z</time>
      </trkpt>
      <trkpt lat="47.9003" lon="-2.46048">
        <ele>77.550446</ele>
        <time>2017-04-26T13:23:05Z</time>
      </trkpt>
      <trkpt lat="47.90029" lon="-2.46088">
        <ele>76.68515</ele>
        <time>2017-04-26T13:23:11Z</time>
      </trkpt>
      <trkpt lat="47.90023" lon="-2.46126">
        <ele>76.38262</ele>
        <time>2017-04-26T13:23:17Z</time>
      </trkpt>
      <trkpt lat="47.90016" lon="-2.46159">
        <ele>72.99374</ele>
        <time>2017-04-26T13:23:23Z</time>
      </trkpt>
      <trkpt lat="47.90009" lon="-2.46187">
        <ele>72.49253</ele>
        <time>2017-04-26T13:23:29Z</time>
      </trkpt>
      <trkpt lat="47.90004" lon="-2.46206">
        <ele>71.97589</ele>
        <time>2017-04-26T13:23:35Z</time>
      </trkpt>
      <trkpt lat="47.9" lon="-2.46217">
        <ele>72.365486</ele>
        <time>2017-04-26T13:23:41Z</time>
      </trkpt>
      <trkpt lat="47.89993" lon="-2.4624">
        <ele>73.268105</ele>
        <time>2017-04-26T13:23:47Z</time>
      </trkpt>
      <trkpt lat="47.89985" lon="-2.46273">
        <ele>75.25867</ele>
        <time>2017-04-26T13:23:52Z</time>
      </trkpt>
      <trkpt lat="47.8998" lon="-2.46315">
        <ele>78.161476</ele>
        <time>2017-04-26T13:23:58Z</time>
      </trkpt>
      <trkpt lat="47.89978" lon="-2.46356">
        <ele>77.548065</ele>
        <time>2017-04-26T13:24:04Z</time>
      </trkpt>
      <trkpt lat="47.89981" lon="-2.46396">
        <ele>73.13042</ele>
        <time>2017-04-26T13:24:10Z</time>
      </trkpt>
      <trkpt lat="47.89983" lon="-2.46431">
        <ele>73.56601</ele>
        <time>2017-04-26T13:24:16Z</time>
      </trkpt>
      <trkpt lat="47.89989" lon="-2.46462">
        <ele>73.044914</ele>
        <time>2017-04-26T13:24:21Z</time>
      </trkpt>
      <trkpt lat="47.89993" lon="-2.46489">
        <ele>73.91291</ele>
        <time>2017-04-26T13:24:26Z</time>
      </trkpt>
      <trkpt lat="47.90006" lon="-2.46519">
        <ele>73.80215</ele>
        <time>2017-04-26T13:24:32Z</time>
      </trkpt>
      <trkpt lat="47.90022" lon="-2.46546">
        <ele>73.130424</ele>
        <time>2017-04-26T13:24:38Z</time>
      </trkpt>
      <trkpt lat="47.90037" lon="-2.46574">
        <ele>72.6046</ele>
        <time>2017-04-26T13:24:44Z</time>
      </trkpt>
      <trkpt lat="47.90054" lon="-2.46598">
        <ele>72.61441</ele>
        <time>2017-04-26T13:24:50Z</time>
      </trkpt>
      <trkpt lat="47.90074" lon="-2.46618">
        <ele>72.74912</ele>
        <time>2017-04-26T13:24:56Z</time>
      </trkpt>
      <trkpt lat="47.90095" lon="-2.46639">
        <ele>73.67821</ele>
        <time>2017-04-26T13:25:02Z</time>
      </trkpt>
      <trkpt lat="47.90113" lon="-2.46653">
        <ele>73.41191</ele>
        <time>2017-04-26T13:25:07Z</time>
      </trkpt>
      <trkpt lat="47.90132" lon="-2.46673">
        <ele>73.99119</ele>
        <time>2017-04-26T13:25:13Z</time>
      </trkpt>
      <trkpt lat="47.9015" lon="-2.46694">
        <ele>75.24316</ele>
        <time>2017-04-26T13:25:19Z</time>
      </trkpt>
      <trkpt lat="47.9017" lon="-2.46721">
        <ele>74.01069</ele>
        <time>2017-04-26T13:25:25Z</time>
      </trkpt>
      <trkpt lat="47.90183" lon="-2.46757">
        <ele>72.80298</ele>
        <time>2017-04-26T13:25:31Z</time>
      </trkpt>
      <trkpt lat="47.9019" lon="-2.4679">
        <ele>73.188736</ele>
        <time>2017-04-26T13:25:36Z</time>
      </trkpt>
      <trkpt lat="47.90196" lon="-2.46815">
        <ele>75.01663</ele>
        <time>2017-04-26T13:25:42Z</time>
      </trkpt>
      <trkpt lat="47.90201" lon="-2.46838">
        <ele>74.86789</ele>
        <time>2017-04-26T13:25:47Z</time>
      </trkpt>
      <trkpt lat="47.90209" lon="-2.46868">
        <ele>74.61433</ele>
        <time>2017-04-26T13:25:53Z</time>
      </trkpt>
      <trkpt lat="47.90219" lon="-2.46902">
        <ele>73.99423</ele>
        <time>2017-04-26T13:25:58Z</time>
      </trkpt>
      <trkpt lat="47.90225" lon="-2.46933">
        <ele>73.04977</ele>
        <time>2017-04-26T13:26:04Z</time>
      </trkpt>
      <trkpt lat="47.90239" lon="-2.46961">
        <ele>71.44193</ele>
        <time>2017-04-26T13:26:10Z</time>
      </trkpt>
      <trkpt lat="47.90262" lon="-2.4698">
        <ele>70.16305</ele>
        <time>2017-04-26T13:26:16Z</time>
      </trkpt>
      <trkpt lat="47.90285" lon="-2.46988">
        <ele>70.85669</ele>
        <time>2017-04-26T13:26:22Z</time>
      </trkpt>
      <trkpt lat="47.90306" lon="-2.46993">
        <ele>72.01772</ele>
        <time>2017-04-26T13:26:28Z</time>
      </trkpt>
      <trkpt lat="47.90321" lon="-2.46997">
        <ele>72.298744</ele>
        <time>2017-04-26T13:26:33Z</time>
      </trkpt>
      <trkpt lat="47.90346" lon="-2.47007">
        <ele>69.72708</ele>
        <time>2017-04-26T13:26:39Z</time>
      </trkpt>
      <trkpt lat="47.90367" lon="-2.47025">
        <ele>69.73128</ele>
        <time>2017-04-26T13:26:45Z</time>
      </trkpt>
      <trkpt lat="47.9039" lon="-2.47045">
        <ele>74.21387</ele>
        <time>2017-04-26T13:26:50Z</time>
      </trkpt>
      <trkpt lat="47.9041" lon="-2.47064">
        <ele>78.7653</ele>
        <time>2017-04-26T13:26:56Z</time>
      </trkpt>
      <trkpt lat="47.90427" lon="-2.47079">
        <ele>79.36147</ele>
        <time>2017-04-26T13:27:01Z</time>
      </trkpt>
      <trkpt lat="47.90446" lon="-2.47097">
        <ele>79.57492</ele>
        <time>2017-04-26T13:27:07Z</time>
      </trkpt>
      <trkpt lat="47.90464" lon="-2.47112">
        <ele>79.87967</ele>
        <time>2017-04-26T13:27:13Z</time>
      </trkpt>
      <trkpt lat="47.90482" lon="-2.47129">
        <ele>80.06407</ele>
        <time>2017-04-26T13:27:19Z</time>
      </trkpt>
      <trkpt lat="47.90499" lon="-2.47153">
        <ele>79.99536</ele>
        <time>2017-04-26T13:27:25Z</time>
      </trkpt>
      <trkpt lat="47.90509" lon="-2.47177">
        <ele>76.72285</ele>
        <time>2017-04-26T13:27:30Z</time>
      </trkpt>
      <trkpt lat="47.90519" lon="-2.47216">
        <ele>73.2608</ele>
        <time>2017-04-26T13:27:36Z</time>
      </trkpt>
      <trkpt lat="47.90526" lon="-2.47247">
        <ele>73.78317</ele>
        <time>2017-04-26T13:27:42Z</time>
      </trkpt>
      <trkpt lat="47.90534" lon="-2.47281">
        <ele>70.30713</ele>
        <time>2017-04-26T13:27:48Z</time>
      </trkpt>
      <trkpt lat="47.90546" lon="-2.47305">
        <ele>68.687836</ele>
        <time>2017-04-26T13:27:53Z</time>
      </trkpt>
      <trkpt lat="47.90559" lon="-2.47327">
        <ele>72.90119</ele>
        <time>2017-04-26T13:27:58Z</time>
      </trkpt>
      <trkpt lat="47.90577" lon="-2.47348">
        <ele>76.03499</ele>
        <time>2017-04-26T13:28:04Z</time>
      </trkpt>
      <trkpt lat="47.90599" lon="-2.47368">
        <ele>78.9433</ele>
        <time>2017-04-26T13:28:10Z</time>
      </trkpt>
      <trkpt lat="47.90617" lon="-2.47386">
        <ele>79.28049</ele>
        <time>2017-04-26T13:28:15Z</time>
      </trkpt>
      <trkpt lat="47.90637" lon="-2.47406">
        <ele>79.02821</ele>
        <time>2017-04-26T13:28:21Z</time>
      </trkpt>
      <trkpt lat="47.90657" lon="-2.47426">
        <ele>77.90266</ele>
        <time>2017-04-26T13:28:27Z</time>
      </trkpt>
      <trkpt lat="47.90678" lon="-2.47447">
        <ele>79.37553</ele>
        <time>2017-04-26T13:28:33Z</time>
      </trkpt>
      <trkpt lat="47.90701" lon="-2.47469">
        <ele>81.08182</ele>
        <time>2017-04-26T13:28:39Z</time>
      </trkpt>
      <trkpt lat="47.9072" lon="-2.47488">
        <ele>81.6526</ele>
        <time>2017-04-26T13:28:44Z</time>
      </trkpt>
      <trkpt lat="47.90741" lon="-2.4751">
        <ele>78.73382</ele>
        <time>2017-04-26T13:28:50Z</time>
      </trkpt>
      <trkpt lat="47.90764" lon="-2.47533">
        <ele>78.66573</ele>
        <time>2017-04-26T13:28:56Z</time>
      </trkpt>
      <trkpt lat="47.90782" lon="-2.47561">
        <ele>77.72551</ele>
        <time>2017-04-26T13:29:02Z</time>
      </trkpt>
      <trkpt lat="47.90788" lon="-2.47598">
        <ele>73.98959</ele>
        <time>2017-04-26T13:29:07Z</time>
      </trkpt>
      <trkpt lat="47.9078" lon="-2.4764">
        <ele>75.326004</ele>
        <time>2017-04-26T13:29:13Z</time>
      </trkpt>
      <trkpt lat="47.90775" lon="-2.47671">
        <ele>77.41052</ele>
        <time>2017-04-26T13:29:18Z</time>
      </trkpt>
      <trkpt lat="47.90773" lon="-2.4771">
        <ele>73.81833</ele>
        <time>2017-04-26T13:29:23Z</time>
      </trkpt>
      <trkpt lat="47.9078" lon="-2.47749">
        <ele>69.4909</ele>
        <time>2017-04-26T13:29:29Z</time>
      </trkpt>
      <trkpt lat="47.90799" lon="-2.47781">
        <ele>72.914894</ele>
        <time>2017-04-26T13:29:35Z</time>
      </trkpt>
      <trkpt lat="47.90819" lon="-2.47812">
        <ele>76.23514</ele>
        <time>2017-04-26T13:29:41Z</time>
      </trkpt>
      <trkpt lat="47.90837" lon="-2.47839">
        <ele>77.18223</ele>
        <time>2017-04-26T13:29:47Z</time>
      </trkpt>
      <trkpt lat="47.90856" lon="-2.47865">
        <ele>77.47127</ele>
        <time>2017-04-26T13:29:53Z</time>
      </trkpt>
      <trkpt lat="47.90875" lon="-2.47896">
        <ele>75.06826</ele>
        <time>2017-04-26T13:29:59Z</time>
      </trkpt>
      <trkpt lat="47.90893" lon="-2.47931">
        <ele>74.33015</ele>
        <time>2017-04-26T13:30:05Z</time>
      </trkpt>
      <trkpt lat="47.90907" lon="-2.47966">
        <ele>72.82994</ele>
        <time>2017-04-26T13:30:11Z</time>
      </trkpt>
      <trkpt lat="47.90918" lon="-2.47997">
        <ele>72.03914</ele>
        <time>2017-04-26T13:30:16Z</time>
      </trkpt>
      <trkpt lat="47.90933" lon="-2.48032">
        <ele>69.78836</ele>
        <time>2017-04-26T13:30:22Z</time>
      </trkpt>
      <trkpt lat="47.90945" lon="-2.4807">
        <ele>70.53144</ele>
        <time>2017-04-26T13:30:28Z</time>
      </trkpt>
      <trkpt lat="47.90959" lon="-2.48107">
        <ele>72.67174</ele>
        <time>2017-04-26T13:30:34Z</time>
      </trkpt>
      <trkpt lat="47.90973" lon="-2.48138">
        <ele>75.95192</ele>
        <time>2017-04-26T13:30:40Z</time>
      </trkpt>
      <trkpt lat="47.90993" lon="-2.48149">
        <ele>79.90242</ele>
        <time>2017-04-26T13:30:45Z</time>
      </trkpt>
      <trkpt lat="47.91016" lon="-2.48152">
        <ele>83.19558</ele>
        <time>2017-04-26T13:30:51Z</time>
      </trkpt>
      <trkpt lat="47.91041" lon="-2.48152">
        <ele>85.405365</ele>
        <time>2017-04-26T13:30:57Z</time>
      </trkpt>
      <trkpt lat="47.91057" lon="-2.48151">
        <ele>85.00248</ele>
        <time>2017-04-26T13:31:02Z</time>
      </trkpt>
      <trkpt lat="47.9108" lon="-2.48149">
        <ele>79.874695</ele>
        <time>2017-04-26T13:31:08Z</time>
      </trkpt>
      <trkpt lat="47.91096" lon="-2.48148">
        <ele>79.3265</ele>
        <time>2017-04-26T13:31:13Z</time>
      </trkpt>
      <trkpt lat="47.91116" lon="-2.48148">
        <ele>78.53515</ele>
        <time>2017-04-26T13:31:19Z</time>
      </trkpt>
      <trkpt lat="47.91134" lon="-2.48144">
        <ele>76.0622</ele>
        <time>2017-04-26T13:31:25Z</time>
      </trkpt>
      <trkpt lat="47.91153" lon="-2.48142">
        <ele>71.776955</ele>
        <time>2017-04-26T13:31:30Z</time>
      </trkpt>
      <trkpt lat="47.91173" lon="-2.48143">
        <ele>70.220665</ele>
        <time>2017-04-26T13:31:36Z</time>
      </trkpt>
      <trkpt lat="47.91196" lon="-2.48139">
        <ele>68.56315</ele>
        <time>2017-04-26T13:31:42Z</time>
      </trkpt>
      <trkpt lat="47.91207" lon="-2.48137">
        <ele>67.95981</ele>
        <time>2017-04-26T13:31:47Z</time>
      </trkpt>
      <trkpt lat="47.91234" lon="-2.48152">
        <ele>71.958206</ele>
        <time>2017-04-26T13:39:28Z</time>
      </trkpt>
      <trkpt lat="47.91256" lon="-2.48155">
        <ele>73.50992</ele>
        <time>2017-04-26T13:39:34Z</time>
      </trkpt>
      <trkpt lat="47.91271" lon="-2.48163">
        <ele>74.62687</ele>
        <time>2017-04-26T13:39:39Z</time>
      </trkpt>
      <trkpt lat="47.9129" lon="-2.48168">
        <ele>75.94021</ele>
        <time>2017-04-26T13:39:45Z</time>
      </trkpt>
      <trkpt lat="47.91313" lon="-2.48173">
        <ele>77.39162</ele>
        <time>2017-04-26T13:39:51Z</time>
      </trkpt>
      <trkpt lat="47.91333" lon="-2.4818">
        <ele>78.0828</ele>
        <time>2017-04-26T13:39:57Z</time>
      </trkpt>
      <trkpt lat="47.9135" lon="-2.48185">
        <ele>78.558365</ele>
        <time>2017-04-26T13:40:02Z</time>
      </trkpt>
      <trkpt lat="47.9137" lon="-2.48194">
        <ele>79.20438</ele>
        <time>2017-04-26T13:40:08Z</time>
      </trkpt>
      <trkpt lat="47.91389" lon="-2.48202">
        <ele>79.61918</ele>
        <time>2017-04-26T13:40:14Z</time>
      </trkpt>
      <trkpt lat="47.9141" lon="-2.4821">
        <ele>80.12817</ele>
        <time>2017-04-26T13:40:20Z</time>
      </trkpt>
      <trkpt lat="47.91424" lon="-2.48218">
        <ele>80.49976</ele>
        <time>2017-04-26T13:40:25Z</time>
      </trkpt>
      <trkpt lat="47.91447" lon="-2.48229">
        <ele>78.43183</ele>
        <time>2017-04-26T13:40:31Z</time>
      </trkpt>
      <trkpt lat="47.91466" lon="-2.48241">
        <ele>80.180885</ele>
        <time>2017-04-26T13:40:36Z</time>
      </trkpt>
      <trkpt lat="47.91487" lon="-2.48255">
        <ele>80.757996</ele>
        <time>2017-04-26T13:40:42Z</time>
      </trkpt>
      <trkpt lat="47.91507" lon="-2.48266">
        <ele>80.94712</ele>
        <time>2017-04-26T13:40:48Z</time>
      </trkpt>
      <trkpt lat="47.91529" lon="-2.4828">
        <ele>81.518326</ele>
        <time>2017-04-26T13:40:54Z</time>
      </trkpt>
      <trkpt lat="47.9155" lon="-2.4829">
        <ele>82.585175</ele>
        <time>2017-04-26T13:41:00Z</time>
      </trkpt>
      <trkpt lat="47.91573" lon="-2.48303">
        <ele>83.523865</ele>
        <time>2017-04-26T13:41:06Z</time>
      </trkpt>
      <trkpt lat="47.91595" lon="-2.4832">
        <ele>84.69831</ele>
        <time>2017-04-26T13:41:12Z</time>
      </trkpt>
      <trkpt lat="47.91617" lon="-2.48334">
        <ele>82.828</ele>
        <time>2017-04-26T13:41:18Z</time>
      </trkpt>
      <trkpt lat="47.91636" lon="-2.48341">
        <ele>82.42313</ele>
        <time>2017-04-26T13:41:23Z</time>
      </trkpt>
      <trkpt lat="47.91658" lon="-2.48356">
        <ele>81.72782</ele>
        <time>2017-04-26T13:41:29Z</time>
      </trkpt>
      <trkpt lat="47.91679" lon="-2.48377">
        <ele>78.50757</ele>
        <time>2017-04-26T13:41:35Z</time>
      </trkpt>
      <trkpt lat="47.91694" lon="-2.48403">
        <ele>79.36055</ele>
        <time>2017-04-26T13:41:40Z</time>
      </trkpt>
      <trkpt lat="47.91711" lon="-2.48429">
        <ele>81.3606</ele>
        <time>2017-04-26T13:41:46Z</time>
      </trkpt>
      <trkpt lat="47.91724" lon="-2.48452">
        <ele>81.25198</ele>
        <time>2017-04-26T13:41:51Z</time>
      </trkpt>
      <trkpt lat="47.91737" lon="-2.48476">
        <ele>81.04421</ele>
        <time>2017-04-26T13:41:56Z</time>
      </trkpt>
      <trkpt lat="47.91752" lon="-2.48504">
        <ele>82.03391</ele>
        <time>2017-04-26T13:42:02Z</time>
      </trkpt>
      <trkpt lat="47.91766" lon="-2.48526">
        <ele>80.921555</ele>
        <time>2017-04-26T13:42:07Z</time>
      </trkpt>
      <trkpt lat="47.91784" lon="-2.4855">
        <ele>81.225235</ele>
        <time>2017-04-26T13:42:13Z</time>
      </trkpt>
      <trkpt lat="47.91803" lon="-2.48575">
        <ele>78.65437</ele>
        <time>2017-04-26T13:42:19Z</time>
      </trkpt>
      <trkpt lat="47.91818" lon="-2.48594">
        <ele>78.14938</ele>
        <time>2017-04-26T13:42:24Z</time>
      </trkpt>
      <trkpt lat="47.91838" lon="-2.48616">
        <ele>78.60658</ele>
        <time>2017-04-26T13:42:30Z</time>
      </trkpt>
      <trkpt lat="47.91854" lon="-2.48637">
        <ele>81.02577</ele>
        <time>2017-04-26T13:42:35Z</time>
      </trkpt>
      <trkpt lat="47.91874" lon="-2.48659">
        <ele>83.27236</ele>
        <time>2017-04-26T13:42:41Z</time>
      </trkpt>
      <trkpt lat="47.9189" lon="-2.48678">
        <ele>84.22299</ele>
        <time>2017-04-26T13:42:46Z</time>
      </trkpt>
      <trkpt lat="47.9191" lon="-2.48699">
        <ele>84.85108</ele>
        <time>2017-04-26T13:42:52Z</time>
      </trkpt>
      <trkpt lat="47.91929" lon="-2.48719">
        <ele>82.79166</ele>
        <time>2017-04-26T13:42:58Z</time>
      </trkpt>
      <trkpt lat="47.91947" lon="-2.48741">
        <ele>81.73428</ele>
        <time>2017-04-26T13:43:04Z</time>
      </trkpt>
      <trkpt lat="47.91966" lon="-2.48764">
        <ele>82.06694</ele>
        <time>2017-04-26T13:43:10Z</time>
      </trkpt>
      <trkpt lat="47.91982" lon="-2.48787">
        <ele>82.1315</ele>
        <time>2017-04-26T13:43:16Z</time>
      </trkpt>
      <trkpt lat="47.91997" lon="-2.48807">
        <ele>82.348015</ele>
        <time>2017-04-26T13:43:22Z</time>
      </trkpt>
      <trkpt lat="47.92012" lon="-2.48829">
        <ele>82.42898</ele>
        <time>2017-04-26T13:43:28Z</time>
      </trkpt>
      <trkpt lat="47.92024" lon="-2.48857">
        <ele>81.08857</ele>
        <time>2017-04-26T13:43:34Z</time>
      </trkpt>
      <trkpt lat="47.92034" lon="-2.4889">
        <ele>81.1277</ele>
        <time>2017-04-26T13:43:40Z</time>
      </trkpt>
      <trkpt lat="47.92045" lon="-2.4892">
        <ele>80.89141</ele>
        <time>2017-04-26T13:43:46Z</time>
      </trkpt>
      <trkpt lat="47.92056" lon="-2.48952">
        <ele>79.14621</ele>
        <time>2017-04-26T13:43:52Z</time>
      </trkpt>
      <trkpt lat="47.92066" lon="-2.48984">
        <ele>79.805504</ele>
        <time>2017-04-26T13:43:58Z</time>
      </trkpt>
      <trkpt lat="47.92076" lon="-2.49011">
        <ele>79.77153</ele>
        <time>2017-04-26T13:44:04Z</time>
      </trkpt>
      <trkpt lat="47.92084" lon="-2.49035">
        <ele>79.69994</ele>
        <time>2017-04-26T13:44:09Z</time>
      </trkpt>
      <trkpt lat="47.92096" lon="-2.49061">
        <ele>79.912315</ele>
        <time>2017-04-26T13:44:15Z</time>
      </trkpt>
      <trkpt lat="47.92112" lon="-2.49084">
        <ele>81.36592</ele>
        <time>2017-04-26T13:44:21Z</time>
      </trkpt>
      <trkpt lat="47.92128" lon="-2.49099">
        <ele>81.133255</ele>
        <time>2017-04-26T13:44:26Z</time>
      </trkpt>
      <trkpt lat="47.92147" lon="-2.49118">
        <ele>81.193954</ele>
        <time>2017-04-26T13:44:32Z</time>
      </trkpt>
      <trkpt lat="47.92165" lon="-2.49135">
        <ele>81.65327</ele>
        <time>2017-04-26T13:44:38Z</time>
      </trkpt>
      <trkpt lat="47.92184" lon="-2.49151">
        <ele>83.85087</ele>
        <time>2017-04-26T13:44:44Z</time>
      </trkpt>
      <trkpt lat="47.92203" lon="-2.49171">
        <ele>84.7471</ele>
        <time>2017-04-26T13:44:50Z</time>
      </trkpt>
      <trkpt lat="47.9222" lon="-2.49194">
        <ele>84.80229</ele>
        <time>2017-04-26T13:44:56Z</time>
      </trkpt>
      <trkpt lat="47.92238" lon="-2.49219">
        <ele>85.32553</ele>
        <time>2017-04-26T13:45:02Z</time>
      </trkpt>
      <trkpt lat="47.92257" lon="-2.49244">
        <ele>85.183945</ele>
        <time>2017-04-26T13:45:08Z</time>
      </trkpt>
      <trkpt lat="47.92274" lon="-2.4927">
        <ele>85.45744</ele>
        <time>2017-04-26T13:45:14Z</time>
      </trkpt>
      <trkpt lat="47.92287" lon="-2.49293">
        <ele>83.856445</ele>
        <time>2017-04-26T13:45:19Z</time>
      </trkpt>
      <trkpt lat="47.92301" lon="-2.49319">
        <ele>81.47216</ele>
        <time>2017-04-26T13:45:25Z</time>
      </trkpt>
      <trkpt lat="47.92312" lon="-2.49347">
        <ele>81.23936</ele>
        <time>2017-04-26T13:45:30Z</time>
      </trkpt>
      <trkpt lat="47.92325" lon="-2.4937">
        <ele>79.13308</ele>
        <time>2017-04-26T13:45:36Z</time>
      </trkpt>
      <trkpt lat="47.9234" lon="-2.49403">
        <ele>76.333115</ele>
        <time>2017-04-26T13:45:42Z</time>
      </trkpt>
      <trkpt lat="47.92354" lon="-2.49433">
        <ele>75.92967</ele>
        <time>2017-04-26T13:45:48Z</time>
      </trkpt>
      <trkpt lat="47.92366" lon="-2.49459">
        <ele>73.55503</ele>
        <time>2017-04-26T13:45:53Z</time>
      </trkpt>
      <trkpt lat="47.9238" lon="-2.49487">
        <ele>73.15205</ele>
        <time>2017-04-26T13:45:59Z</time>
      </trkpt>
      <trkpt lat="47.92389" lon="-2.49513">
        <ele>73.72394</ele>
        <time>2017-04-26T13:46:04Z</time>
      </trkpt>
      <trkpt lat="47.92396" lon="-2.49546">
        <ele>72.58636</ele>
        <time>2017-04-26T13:46:10Z</time>
      </trkpt>
      <trkpt lat="47.924" lon="-2.4958">
        <ele>69.71093</ele>
        <time>2017-04-26T13:46:16Z</time>
      </trkpt>
      <trkpt lat="47.92397" lon="-2.49619">
        <ele>68.22158</ele>
        <time>2017-04-26T13:46:22Z</time>
      </trkpt>
      <trkpt lat="47.92391" lon="-2.4965">
        <ele>69.83314</ele>
        <time>2017-04-26T13:46:27Z</time>
      </trkpt>
      <trkpt lat="47.9238" lon="-2.49687">
        <ele>70.72085</ele>
        <time>2017-04-26T13:46:33Z</time>
      </trkpt>
      <trkpt lat="47.92372" lon="-2.49717">
        <ele>68.732895</ele>
        <time>2017-04-26T13:46:38Z</time>
      </trkpt>
      <trkpt lat="47.92362" lon="-2.49753">
        <ele>68.91392</ele>
        <time>2017-04-26T13:46:44Z</time>
      </trkpt>
      <trkpt lat="47.9235" lon="-2.49791">
        <ele>67.619194</ele>
        <time>2017-04-26T13:46:50Z</time>
      </trkpt>
      <trkpt lat="47.92332" lon="-2.49819">
        <ele>65.91491</ele>
        <time>2017-04-26T13:46:56Z</time>
      </trkpt>
      <trkpt lat="47.9231" lon="-2.49845">
        <ele>65.02168</ele>
        <time>2017-04-26T13:47:02Z</time>
      </trkpt>
      <trkpt lat="47.92296" lon="-2.49875">
        <ele>65.19321</ele>
        <time>2017-04-26T13:47:07Z</time>
      </trkpt>
      <trkpt lat="47.92282" lon="-2.4991">
        <ele>65.93257</ele>
        <time>2017-04-26T13:47:13Z</time>
      </trkpt>
      <trkpt lat="47.92272" lon="-2.49942">
        <ele>67.06849</ele>
        <time>2017-04-26T13:47:18Z</time>
      </trkpt>
      <trkpt lat="47.92264" lon="-2.49981">
        <ele>70.90684</ele>
        <time>2017-04-26T13:47:24Z</time>
      </trkpt>
      <trkpt lat="47.92263" lon="-2.50021">
        <ele>72.165695</ele>
        <time>2017-04-26T13:47:30Z</time>
      </trkpt>
      <trkpt lat="47.92272" lon="-2.50058">
        <ele>70.926216</ele>
        <time>2017-04-26T13:47:36Z</time>
      </trkpt>
      <trkpt lat="47.92288" lon="-2.50092">
        <ele>72.99956</ele>
        <time>2017-04-26T13:47:42Z</time>
      </trkpt>
      <trkpt lat="47.9231" lon="-2.50117">
        <ele>80.18766</ele>
        <time>2017-04-26T13:47:48Z</time>
      </trkpt>
      <trkpt lat="47.92338" lon="-2.50135">
        <ele>84.504944</ele>
        <time>2017-04-26T13:47:54Z</time>
      </trkpt>
      <trkpt lat="47.92364" lon="-2.50149">
        <ele>85.202774</ele>
        <time>2017-04-26T13:48:00Z</time>
      </trkpt>
      <trkpt lat="47.92382" lon="-2.50165">
        <ele>86.05335</ele>
        <time>2017-04-26T13:48:05Z</time>
      </trkpt>
      <trkpt lat="47.92403" lon="-2.50181">
        <ele>85.03798</ele>
        <time>2017-04-26T13:48:11Z</time>
      </trkpt>
      <trkpt lat="47.92423" lon="-2.50202">
        <ele>84.22055</ele>
        <time>2017-04-26T13:48:17Z</time>
      </trkpt>
      <trkpt lat="47.92441" lon="-2.5022">
        <ele>86.37035</ele>
        <time>2017-04-26T13:48:22Z</time>
      </trkpt>
      <trkpt lat="47.92459" lon="-2.50241">
        <ele>86.47449</ele>
        <time>2017-04-26T13:48:28Z</time>
      </trkpt>
      <trkpt lat="47.92478" lon="-2.50266">
        <ele>87.92736</ele>
        <time>2017-04-26T13:48:34Z</time>
      </trkpt>
      <trkpt lat="47.92498" lon="-2.50292">
        <ele>86.17548</ele>
        <time>2017-04-26T13:48:40Z</time>
      </trkpt>
      <trkpt lat="47.92517" lon="-2.50314">
        <ele>84.29784</ele>
        <time>2017-04-26T13:48:46Z</time>
      </trkpt>
      <trkpt lat="47.92537" lon="-2.50343">
        <ele>85.25905</ele>
        <time>2017-04-26T13:48:52Z</time>
      </trkpt>
      <trkpt lat="47.92557" lon="-2.50368">
        <ele>85.05987</ele>
        <time>2017-04-26T13:48:58Z</time>
      </trkpt>
      <trkpt lat="47.92576" lon="-2.504">
        <ele>84.84106</ele>
        <time>2017-04-26T13:49:04Z</time>
      </trkpt>
      <trkpt lat="47.92595" lon="-2.50433">
        <ele>85.01005</ele>
        <time>2017-04-26T13:49:10Z</time>
      </trkpt>
      <trkpt lat="47.92614" lon="-2.50464">
        <ele>87.209915</ele>
        <time>2017-04-26T13:49:16Z</time>
      </trkpt>
      <trkpt lat="47.92633" lon="-2.50494">
        <ele>90.30578</ele>
        <time>2017-04-26T13:49:22Z</time>
      </trkpt>
      <trkpt lat="47.92648" lon="-2.50513">
        <ele>89.896736</ele>
        <time>2017-04-26T13:49:27Z</time>
      </trkpt>
      <trkpt lat="47.92669" lon="-2.50538">
        <ele>88.33581</ele>
        <time>2017-04-26T13:49:33Z</time>
      </trkpt>
      <trkpt lat="47.92688" lon="-2.50567">
        <ele>84.72306</ele>
        <time>2017-04-26T13:49:39Z</time>
      </trkpt>
      <trkpt lat="47.92704" lon="-2.50601">
        <ele>83.32912</ele>
        <time>2017-04-26T13:49:45Z</time>
      </trkpt>
      <trkpt lat="47.92718" lon="-2.50637">
        <ele>82.87367</ele>
        <time>2017-04-26T13:49:51Z</time>
      </trkpt>
      <trkpt lat="47.92729" lon="-2.5067">
        <ele>80.53746</ele>
        <time>2017-04-26T13:49:57Z</time>
      </trkpt>
      <trkpt lat="47.92738" lon="-2.50699">
        <ele>80.12983</ele>
        <time>2017-04-26T13:50:02Z</time>
      </trkpt>
      <trkpt lat="47.92741" lon="-2.5074">
        <ele>81.83898</ele>
        <time>2017-04-26T13:50:08Z</time>
      </trkpt>
      <trkpt lat="47.92741" lon="-2.50781">
        <ele>83.9374</ele>
        <time>2017-04-26T13:50:13Z</time>
      </trkpt>
      <trkpt lat="47.92745" lon="-2.50806">
        <ele>74.16211</ele>
        <time>2017-04-26T13:50:19Z</time>
      </trkpt>
      <trkpt lat="47.92754" lon="-2.5084">
        <ele>66.836494</ele>
        <time>2017-04-26T13:50:25Z</time>
      </trkpt>
      <trkpt lat="47.92767" lon="-2.50877">
        <ele>67.58615</ele>
        <time>2017-04-26T13:50:31Z</time>
      </trkpt>
      <trkpt lat="47.92769" lon="-2.50903">
        <ele>69.247154</ele>
        <time>2017-04-26T13:50:36Z</time>
      </trkpt>
      <trkpt lat="47.92778" lon="-2.50949">
        <ele>74.29907</ele>
        <time>2017-04-26T13:50:42Z</time>
      </trkpt>
      <trkpt lat="47.92787" lon="-2.50986">
        <ele>75.92331</ele>
        <time>2017-04-26T13:50:48Z</time>
      </trkpt>
      <trkpt lat="47.92798" lon="-2.51024">
        <ele>78.10685</ele>
        <time>2017-04-26T13:50:54Z</time>
      </trkpt>
      <trkpt lat="47.92807" lon="-2.51054">
        <ele>79.099594</ele>
        <time>2017-04-26T13:50:59Z</time>
      </trkpt>
      <trkpt lat="47.92818" lon="-2.51094">
        <ele>81.1082</ele>
        <time>2017-04-26T13:51:05Z</time>
      </trkpt>
      <trkpt lat="47.92832" lon="-2.51129">
        <ele>82.697784</ele>
        <time>2017-04-26T13:51:11Z</time>
      </trkpt>
      <trkpt lat="47.92847" lon="-2.51167">
        <ele>84.208374</ele>
        <time>2017-04-26T13:51:17Z</time>
      </trkpt>
      <trkpt lat="47.92861" lon="-2.51199">
        <ele>86.18515</ele>
        <time>2017-04-26T13:51:23Z</time>
      </trkpt>
      <trkpt lat="47.92875" lon="-2.51226">
        <ele>86.08341</ele>
        <time>2017-04-26T13:51:29Z</time>
      </trkpt>
      <trkpt lat="47.92885" lon="-2.51244">
        <ele>85.98048</ele>
        <time>2017-04-26T13:51:35Z</time>
      </trkpt>
      <trkpt lat="47.92887" lon="-2.51257">
        <ele>86.290474</ele>
        <time>2017-04-26T13:51:44Z</time>
      </trkpt>
      <trkpt lat="47.92896" lon="-2.51272">
        <ele>85.194916</ele>
        <time>2017-04-26T13:51:50Z</time>
      </trkpt>
      <trkpt lat="47.92909" lon="-2.51287">
        <ele>84.63198</ele>
        <time>2017-04-26T13:51:56Z</time>
      </trkpt>
      <trkpt lat="47.9292" lon="-2.51299">
        <ele>84.54515</ele>
        <time>2017-04-26T13:52:01Z</time>
      </trkpt>
      <trkpt lat="47.92931" lon="-2.5132">
        <ele>84.33598</ele>
        <time>2017-04-26T13:52:06Z</time>
      </trkpt>
      <trkpt lat="47.92945" lon="-2.51349">
        <ele>82.211784</ele>
        <time>2017-04-26T13:52:12Z</time>
      </trkpt>
      <trkpt lat="47.9296" lon="-2.51373">
        <ele>81.88841</ele>
        <time>2017-04-26T13:52:18Z</time>
      </trkpt>
      <trkpt lat="47.92974" lon="-2.51399">
        <ele>82.82024</ele>
        <time>2017-04-26T13:52:23Z</time>
      </trkpt>
      <trkpt lat="47.9299" lon="-2.5143">
        <ele>83.80092</ele>
        <time>2017-04-26T13:52:29Z</time>
      </trkpt>
      <trkpt lat="47.93006" lon="-2.51465">
        <ele>85.59815</ele>
        <time>2017-04-26T13:52:35Z</time>
      </trkpt>
      <trkpt lat="47.9302" lon="-2.51486">
        <ele>84.43618</ele>
        <time>2017-04-26T13:52:40Z</time>
      </trkpt>
      <trkpt lat="47.93036" lon="-2.51516">
        <ele>83.987206</ele>
        <time>2017-04-26T13:52:46Z</time>
      </trkpt>
      <trkpt lat="47.93054" lon="-2.51544">
        <ele>81.182655</ele>
        <time>2017-04-26T13:52:52Z</time>
      </trkpt>
      <trkpt lat="47.93071" lon="-2.51582">
        <ele>83.08307</ele>
        <time>2017-04-26T13:52:58Z</time>
      </trkpt>
      <trkpt lat="47.93078" lon="-2.5162">
        <ele>79.34189</ele>
        <time>2017-04-26T13:53:04Z</time>
      </trkpt>
      <trkpt lat="47.93087" lon="-2.51656">
        <ele>77.90566</ele>
        <time>2017-04-26T13:53:10Z</time>
      </trkpt>
      <trkpt lat="47.93089" lon="-2.51693">
        <ele>75.06315</ele>
        <time>2017-04-26T13:53:16Z</time>
      </trkpt>
      <trkpt lat="47.93093" lon="-2.51733">
        <ele>67.8082</ele>
        <time>2017-04-26T13:53:22Z</time>
      </trkpt>
      <trkpt lat="47.93101" lon="-2.51762">
        <ele>68.35218</ele>
        <time>2017-04-26T13:53:28Z</time>
      </trkpt>
      <trkpt lat="47.93105" lon="-2.51785">
        <ele>68.6171</ele>
        <time>2017-04-26T13:53:33Z</time>
      </trkpt>
      <trkpt lat="47.93112" lon="-2.51813">
        <ele>69.94141</ele>
        <time>2017-04-26T13:53:39Z</time>
      </trkpt>
      <trkpt lat="47.93116" lon="-2.5184">
        <ele>74.05778</ele>
        <time>2017-04-26T13:53:44Z</time>
      </trkpt>
      <trkpt lat="47.93121" lon="-2.51875">
        <ele>84.161476</ele>
        <time>2017-04-26T13:53:50Z</time>
      </trkpt>
      <trkpt lat="47.93125" lon="-2.51906">
        <ele>87.194885</ele>
        <time>2017-04-26T13:53:55Z</time>
      </trkpt>
      <trkpt lat="47.93122" lon="-2.51952">
        <ele>90.3232</ele>
        <time>2017-04-26T13:54:01Z</time>
      </trkpt>
      <trkpt lat="47.93119" lon="-2.51984">
        <ele>84.82623</ele>
        <time>2017-04-26T13:54:07Z</time>
      </trkpt>
      <trkpt lat="47.93114" lon="-2.52032">
        <ele>87.04524</ele>
        <time>2017-04-26T13:54:13Z</time>
      </trkpt>
      <trkpt lat="47.9311" lon="-2.52066">
        <ele>89.91836</ele>
        <time>2017-04-26T13:54:18Z</time>
      </trkpt>
      <trkpt lat="47.93108" lon="-2.52095">
        <ele>76.34165</ele>
        <time>2017-04-26T13:54:24Z</time>
      </trkpt>
      <trkpt lat="47.93107" lon="-2.52126">
        <ele>68.69188</ele>
        <time>2017-04-26T13:54:29Z</time>
      </trkpt>
      <trkpt lat="47.93105" lon="-2.52162">
        <ele>63.719524</ele>
        <time>2017-04-26T13:54:35Z</time>
      </trkpt>
      <trkpt lat="47.93102" lon="-2.52192">
        <ele>66.521355</ele>
        <time>2017-04-26T13:54:40Z</time>
      </trkpt>
      <trkpt lat="47.93103" lon="-2.52232">
        <ele>65.83373</ele>
        <time>2017-04-26T13:54:46Z</time>
      </trkpt>
      <trkpt lat="47.93105" lon="-2.52268">
        <ele>66.38071</ele>
        <time>2017-04-26T13:54:51Z</time>
      </trkpt>
      <trkpt lat="47.93106" lon="-2.5231">
        <ele>70.16508</ele>
        <time>2017-04-26T13:54:57Z</time>
      </trkpt>
      <trkpt lat="47.93109" lon="-2.5235">
        <ele>70.41982</ele>
        <time>2017-04-26T13:55:02Z</time>
      </trkpt>
      <trkpt lat="47.93112" lon="-2.52397">
        <ele>73.60036</ele>
        <time>2017-04-26T13:55:08Z</time>
      </trkpt>
      <trkpt lat="47.93113" lon="-2.52445">
        <ele>72.52499</ele>
        <time>2017-04-26T13:55:14Z</time>
      </trkpt>
      <trkpt lat="47.93113" lon="-2.52488">
        <ele>68.97242</ele>
        <time>2017-04-26T13:55:20Z</time>
      </trkpt>
      <trkpt lat="47.93111" lon="-2.52525">
        <ele>61.823383</ele>
        <time>2017-04-26T13:55:25Z</time>
      </trkpt>
      <trkpt lat="47.93107" lon="-2.5257">
        <ele>59.43419</ele>
        <time>2017-04-26T13:55:31Z</time>
      </trkpt>
      <trkpt lat="47.93103" lon="-2.52617">
        <ele>56.090355</ele>
        <time>2017-04-26T13:55:37Z</time>
      </trkpt>
      <trkpt lat="47.93102" lon="-2.52654">
        <ele>53.093994</ele>
        <time>2017-04-26T13:55:42Z</time>
      </trkpt>
      <trkpt lat="47.93102" lon="-2.52698">
        <ele>59.278267</ele>
        <time>2017-04-26T13:55:48Z</time>
      </trkpt>
      <trkpt lat="47.93107" lon="-2.52745">
        <ele>59.235485</ele>
        <time>2017-04-26T13:55:54Z</time>
      </trkpt>
      <trkpt lat="47.93114" lon="-2.52775">
        <ele>61.434723</ele>
        <time>2017-04-26T13:55:59Z</time>
      </trkpt>
      <trkpt lat="47.93135" lon="-2.52809">
        <ele>73.56644</ele>
        <time>2017-04-26T13:56:05Z</time>
      </trkpt>
      <trkpt lat="47.93158" lon="-2.52831">
        <ele>79.85253</ele>
        <time>2017-04-26T13:56:11Z</time>
      </trkpt>
      <trkpt lat="47.93181" lon="-2.52851">
        <ele>83.4383</ele>
        <time>2017-04-26T13:56:16Z</time>
      </trkpt>
      <trkpt lat="47.93205" lon="-2.52872">
        <ele>87.03613</ele>
        <time>2017-04-26T13:56:22Z</time>
      </trkpt>
      <trkpt lat="47.93226" lon="-2.52897">
        <ele>89.477356</ele>
        <time>2017-04-26T13:56:28Z</time>
      </trkpt>
      <trkpt lat="47.93245" lon="-2.52921">
        <ele>88.44601</ele>
        <time>2017-04-26T13:56:34Z</time>
      </trkpt>
      <trkpt lat="47.93261" lon="-2.5295">
        <ele>87.269714</ele>
        <time>2017-04-26T13:56:40Z</time>
      </trkpt>
      <trkpt lat="47.93277" lon="-2.52983">
        <ele>88.83678</ele>
        <time>2017-04-26T13:56:46Z</time>
      </trkpt>
      <trkpt lat="47.93291" lon="-2.53019">
        <ele>90.52064</ele>
        <time>2017-04-26T13:56:52Z</time>
      </trkpt>
      <trkpt lat="47.93305" lon="-2.53055">
        <ele>92.98579</ele>
        <time>2017-04-26T13:56:58Z</time>
      </trkpt>
      <trkpt lat="47.93316" lon="-2.53084">
        <ele>93.81574</ele>
        <time>2017-04-26T13:57:03Z</time>
      </trkpt>
      <trkpt lat="47.93329" lon="-2.53118">
        <ele>93.268684</ele>
        <time>2017-04-26T13:57:09Z</time>
      </trkpt>
      <trkpt lat="47.93344" lon="-2.5315">
        <ele>90.21338</ele>
        <time>2017-04-26T13:57:15Z</time>
      </trkpt>
      <trkpt lat="47.93362" lon="-2.53178">
        <ele>89.17474</ele>
        <time>2017-04-26T13:57:21Z</time>
      </trkpt>
      <trkpt lat="47.93382" lon="-2.53198">
        <ele>88.93762</ele>
        <time>2017-04-26T13:57:26Z</time>
      </trkpt>
      <trkpt lat="47.93401" lon="-2.53217">
        <ele>91.74899</ele>
        <time>2017-04-26T13:57:31Z</time>
      </trkpt>
      <trkpt lat="47.93424" lon="-2.53239">
        <ele>92.64201</ele>
        <time>2017-04-26T13:57:37Z</time>
      </trkpt>
      <trkpt lat="47.93447" lon="-2.53261">
        <ele>91.613014</ele>
        <time>2017-04-26T13:57:43Z</time>
      </trkpt>
      <trkpt lat="47.93468" lon="-2.53288">
        <ele>92.81373</ele>
        <time>2017-04-26T13:57:49Z</time>
      </trkpt>
      <trkpt lat="47.93482" lon="-2.53321">
        <ele>94.00308</ele>
        <time>2017-04-26T13:57:55Z</time>
      </trkpt>
      <trkpt lat="47.93491" lon="-2.53347">
        <ele>92.63799</ele>
        <time>2017-04-26T13:58:00Z</time>
      </trkpt>
      <trkpt lat="47.93504" lon="-2.5338">
        <ele>75.825356</ele>
        <time>2017-04-26T13:58:06Z</time>
      </trkpt>
      <trkpt lat="47.93512" lon="-2.53411">
        <ele>66.05048</ele>
        <time>2017-04-26T13:58:11Z</time>
      </trkpt>
      <trkpt lat="47.93519" lon="-2.53453">
        <ele>63.246044</ele>
        <time>2017-04-26T13:58:17Z</time>
      </trkpt>
      <trkpt lat="47.93529" lon="-2.53485">
        <ele>63.125935</ele>
        <time>2017-04-26T13:58:22Z</time>
      </trkpt>
      <trkpt lat="47.93545" lon="-2.53509">
        <ele>65.81134</ele>
        <time>2017-04-26T13:58:28Z</time>
      </trkpt>
      <trkpt lat="47.93559" lon="-2.53528">
        <ele>67.405754</ele>
        <time>2017-04-26T13:58:34Z</time>
      </trkpt>
      <trkpt lat="47.9357" lon="-2.53537">
        <ele>69.17369</ele>
        <time>2017-04-26T13:58:40Z</time>
      </trkpt>
      <trkpt lat="47.93585" lon="-2.53558">
        <ele>71.46302</ele>
        <time>2017-04-26T13:58:46Z</time>
      </trkpt>
      <trkpt lat="47.93604" lon="-2.53582">
        <ele>84.59248</ele>
        <time>2017-04-26T13:58:52Z</time>
      </trkpt>
      <trkpt lat="47.93626" lon="-2.53608">
        <ele>91.458015</ele>
        <time>2017-04-26T13:58:58Z</time>
      </trkpt>
      <trkpt lat="47.93642" lon="-2.53627">
        <ele>93.09387</ele>
        <time>2017-04-26T13:59:03Z</time>
      </trkpt>
      <trkpt lat="47.93664" lon="-2.53649">
        <ele>89.59409</ele>
        <time>2017-04-26T13:59:09Z</time>
      </trkpt>
      <trkpt lat="47.93682" lon="-2.53667">
        <ele>89.9172</ele>
        <time>2017-04-26T13:59:14Z</time>
      </trkpt>
      <trkpt lat="47.93704" lon="-2.5369">
        <ele>90.25959</ele>
        <time>2017-04-26T13:59:20Z</time>
      </trkpt>
      <trkpt lat="47.93723" lon="-2.53709">
        <ele>90.2707</ele>
        <time>2017-04-26T13:59:25Z</time>
      </trkpt>
      <trkpt lat="47.93745" lon="-2.53732">
        <ele>91.25579</ele>
        <time>2017-04-26T13:59:31Z</time>
      </trkpt>
      <trkpt lat="47.93763" lon="-2.5375">
        <ele>90.19243</ele>
        <time>2017-04-26T13:59:36Z</time>
      </trkpt>
      <trkpt lat="47.93786" lon="-2.53774">
        <ele>92.28147</ele>
        <time>2017-04-26T13:59:42Z</time>
      </trkpt>
      <trkpt lat="47.93809" lon="-2.53795">
        <ele>91.86712</ele>
        <time>2017-04-26T13:59:48Z</time>
      </trkpt>
      <trkpt lat="47.93832" lon="-2.5382">
        <ele>94.39932</ele>
        <time>2017-04-26T13:59:54Z</time>
      </trkpt>
      <trkpt lat="47.93857" lon="-2.53835">
        <ele>96.356926</ele>
        <time>2017-04-26T14:00:00Z</time>
      </trkpt>
      <trkpt lat="47.93881" lon="-2.53841">
        <ele>96.65438</ele>
        <time>2017-04-26T14:00:05Z</time>
      </trkpt>
      <trkpt lat="47.93908" lon="-2.53845">
        <ele>96.78092</ele>
        <time>2017-04-26T14:00:11Z</time>
      </trkpt>
      <trkpt lat="47.93936" lon="-2.53847">
        <ele>96.79049</ele>
        <time>2017-04-26T14:00:17Z</time>
      </trkpt>
      <trkpt lat="47.93963" lon="-2.53847">
        <ele>94.00582</ele>
        <time>2017-04-26T14:00:23Z</time>
      </trkpt>
      <trkpt lat="47.93989" lon="-2.53852">
        <ele>94.49657</ele>
        <time>2017-04-26T14:00:29Z</time>
      </trkpt>
      <trkpt lat="47.94017" lon="-2.53865">
        <ele>95.99557</ele>
        <time>2017-04-26T14:00:35Z</time>
      </trkpt>
      <trkpt lat="47.94043" lon="-2.53878">
        <ele>94.00644</ele>
        <time>2017-04-26T14:00:41Z</time>
      </trkpt>
      <trkpt lat="47.9407" lon="-2.53892">
        <ele>93.18595</ele>
        <time>2017-04-26T14:00:47Z</time>
      </trkpt>
      <trkpt lat="47.94097" lon="-2.53906">
        <ele>92.89445</ele>
        <time>2017-04-26T14:00:53Z</time>
      </trkpt>
      <trkpt lat="47.94123" lon="-2.53921">
        <ele>93.35978</ele>
        <time>2017-04-26T14:00:59Z</time>
      </trkpt>
      <trkpt lat="47.94148" lon="-2.53936">
        <ele>94.37818</ele>
        <time>2017-04-26T14:01:05Z</time>
      </trkpt>
      <trkpt lat="47.94176" lon="-2.53948">
        <ele>96.864815</ele>
        <time>2017-04-26T14:01:11Z</time>
      </trkpt>
      <trkpt lat="47.94202" lon="-2.53958">
        <ele>95.17297</ele>
        <time>2017-04-26T14:01:17Z</time>
      </trkpt>
      <trkpt lat="47.94225" lon="-2.53968">
        <ele>95.67078</ele>
        <time>2017-04-26T14:01:22Z</time>
      </trkpt>
      <trkpt lat="47.94255" lon="-2.53975">
        <ele>93.53797</ele>
        <time>2017-04-26T14:01:28Z</time>
      </trkpt>
      <trkpt lat="47.94281" lon="-2.53986">
        <ele>92.688034</ele>
        <time>2017-04-26T14:01:34Z</time>
      </trkpt>
      <trkpt lat="47.94302" lon="-2.53992">
        <ele>95.23492</ele>
        <time>2017-04-26T14:01:39Z</time>
      </trkpt>
      <trkpt lat="47.9433" lon="-2.54001">
        <ele>95.39024</ele>
        <time>2017-04-26T14:01:45Z</time>
      </trkpt>
      <trkpt lat="47.94357" lon="-2.54008">
        <ele>96.50622</ele>
        <time>2017-04-26T14:01:51Z</time>
      </trkpt>
      <trkpt lat="47.94385" lon="-2.54015">
        <ele>94.49533</ele>
        <time>2017-04-26T14:01:57Z</time>
      </trkpt>
      <trkpt lat="47.94411" lon="-2.54026">
        <ele>94.04691</ele>
        <time>2017-04-26T14:02:03Z</time>
      </trkpt>
      <trkpt lat="47.94437" lon="-2.54046">
        <ele>95.75551</ele>
        <time>2017-04-26T14:02:09Z</time>
      </trkpt>
      <trkpt lat="47.94464" lon="-2.5406">
        <ele>97.59907</ele>
        <time>2017-04-26T14:02:15Z</time>
      </trkpt>
      <trkpt lat="47.94491" lon="-2.54079">
        <ele>98.36568</ele>
        <time>2017-04-26T14:02:21Z</time>
      </trkpt>
      <trkpt lat="47.94518" lon="-2.541">
        <ele>95.69649</ele>
        <time>2017-04-26T14:02:27Z</time>
      </trkpt>
      <trkpt lat="47.94543" lon="-2.54117">
        <ele>92.08637</ele>
        <time>2017-04-26T14:02:33Z</time>
      </trkpt>
      <trkpt lat="47.94568" lon="-2.54137">
        <ele>91.327065</ele>
        <time>2017-04-26T14:02:39Z</time>
      </trkpt>
      <trkpt lat="47.94593" lon="-2.54158">
        <ele>89.63671</ele>
        <time>2017-04-26T14:02:45Z</time>
      </trkpt>
      <trkpt lat="47.94616" lon="-2.54182">
        <ele>93.029236</ele>
        <time>2017-04-26T14:02:51Z</time>
      </trkpt>
      <trkpt lat="47.94641" lon="-2.54201">
        <ele>97.91878</ele>
        <time>2017-04-26T14:02:57Z</time>
      </trkpt>
      <trkpt lat="47.9466" lon="-2.54217">
        <ele>98.71006</ele>
        <time>2017-04-26T14:03:02Z</time>
      </trkpt>
      <trkpt lat="47.9468" lon="-2.54234">
        <ele>97.62934</ele>
        <time>2017-04-26T14:03:07Z</time>
      </trkpt>
      <trkpt lat="47.94703" lon="-2.54251">
        <ele>96.486626</ele>
        <time>2017-04-26T14:03:13Z</time>
      </trkpt>
      <trkpt lat="47.94727" lon="-2.54267">
        <ele>97.75727</ele>
        <time>2017-04-26T14:03:19Z</time>
      </trkpt>
      <trkpt lat="47.9475" lon="-2.54281">
        <ele>96.92267</ele>
        <time>2017-04-26T14:03:25Z</time>
      </trkpt>
      <trkpt lat="47.94772" lon="-2.54294">
        <ele>98.50289</ele>
        <time>2017-04-26T14:03:31Z</time>
      </trkpt>
      <trkpt lat="47.94784" lon="-2.54303">
        <ele>98.17739</ele>
        <time>2017-04-26T14:03:37Z</time>
      </trkpt>
      <trkpt lat="47.94798" lon="-2.54312">
        <ele>98.339424</ele>
        <time>2017-04-26T14:03:43Z</time>
      </trkpt>
      <trkpt lat="47.94812" lon="-2.54314">
        <ele>91.121605</ele>
        <time>2017-04-26T14:05:31Z</time>
      </trkpt>
      <trkpt lat="47.94821" lon="-2.54323">
        <ele>90.665115</ele>
        <time>2017-04-26T14:05:36Z</time>
      </trkpt>
      <trkpt lat="47.94835" lon="-2.54338">
        <ele>91.05259</ele>
        <time>2017-04-26T14:05:42Z</time>
      </trkpt>
      <trkpt lat="47.9485" lon="-2.54351">
        <ele>91.41689</ele>
        <time>2017-04-26T14:05:48Z</time>
      </trkpt>
      <trkpt lat="47.94862" lon="-2.54355">
        <ele>91.424324</ele>
        <time>2017-04-26T14:05:54Z</time>
      </trkpt>
      <trkpt lat="47.94868" lon="-2.54359">
        <ele>92.72449</ele>
        <time>2017-04-26T14:07:00Z</time>
      </trkpt>
      <trkpt lat="47.94889" lon="-2.5437">
        <ele>91.02231</ele>
        <time>2017-04-26T14:07:06Z</time>
      </trkpt>
      <trkpt lat="47.94907" lon="-2.54389">
        <ele>90.78519</ele>
        <time>2017-04-26T14:07:12Z</time>
      </trkpt>
      <trkpt lat="47.94925" lon="-2.54408">
        <ele>91.131935</ele>
        <time>2017-04-26T14:07:18Z</time>
      </trkpt>
      <trkpt lat="47.94945" lon="-2.54427">
        <ele>95.95653</ele>
        <time>2017-04-26T14:07:24Z</time>
      </trkpt>
      <trkpt lat="47.94964" lon="-2.5445">
        <ele>100.35416</ele>
        <time>2017-04-26T14:07:30Z</time>
      </trkpt>
      <trkpt lat="47.94976" lon="-2.54464">
        <ele>99.89382</ele>
        <time>2017-04-26T14:07:35Z</time>
      </trkpt>
      <trkpt lat="47.94994" lon="-2.54483">
        <ele>99.231514</ele>
        <time>2017-04-26T14:07:41Z</time>
      </trkpt>
      <trkpt lat="47.9501" lon="-2.54497">
        <ele>98.653946</ele>
        <time>2017-04-26T14:07:47Z</time>
      </trkpt>
      <trkpt lat="47.95016" lon="-2.54498">
        <ele>98.05489</ele>
        <time>2017-04-26T14:08:14Z</time>
      </trkpt>
      <trkpt lat="47.9502" lon="-2.54504">
        <ele>97.34002</ele>
        <time>2017-04-26T14:08:19Z</time>
      </trkpt>
      <trkpt lat="47.95028" lon="-2.54513">
        <ele>96.18229</ele>
        <time>2017-04-26T14:08:24Z</time>
      </trkpt>
      <trkpt lat="47.95041" lon="-2.54525">
        <ele>94.620705</ele>
        <time>2017-04-26T14:08:30Z</time>
      </trkpt>
      <trkpt lat="47.95056" lon="-2.54545">
        <ele>93.28885</ele>
        <time>2017-04-26T14:08:36Z</time>
      </trkpt>
      <trkpt lat="47.9507" lon="-2.54559">
        <ele>91.84515</ele>
        <time>2017-04-26T14:08:41Z</time>
      </trkpt>
      <trkpt lat="47.95089" lon="-2.54582">
        <ele>91.15404</ele>
        <time>2017-04-26T14:08:47Z</time>
      </trkpt>
      <trkpt lat="47.951" lon="-2.54593">
        <ele>90.25036</ele>
        <time>2017-04-26T14:08:52Z</time>
      </trkpt>
      <trkpt lat="47.95109" lon="-2.54609">
        <ele>90.00562</ele>
        <time>2017-04-26T14:08:57Z</time>
      </trkpt>
      <trkpt lat="47.95116" lon="-2.54617">
        <ele>90.15322</ele>
        <time>2017-04-26T14:09:03Z</time>
      </trkpt>
      <trkpt lat="47.95119" lon="-2.54623">
        <ele>85.86756</ele>
        <time>2017-04-26T14:11:17Z</time>
      </trkpt>
      <trkpt lat="47.95119" lon="-2.54602">
        <ele>84.789276</ele>
        <time>2017-04-26T14:11:23Z</time>
      </trkpt>
      <trkpt lat="47.95119" lon="-2.5458">
        <ele>84.087</ele>
        <time>2017-04-26T14:11:28Z</time>
      </trkpt>
      <trkpt lat="47.95126" lon="-2.54565">
        <ele>83.875404</ele>
        <time>2017-04-26T14:11:34Z</time>
      </trkpt>
      <trkpt lat="47.95136" lon="-2.54555">
        <ele>83.6192</ele>
        <time>2017-04-26T14:11:39Z</time>
      </trkpt>
      <trkpt lat="47.95145" lon="-2.54549">
        <ele>83.55756</ele>
        <time>2017-04-26T14:11:45Z</time>
      </trkpt>
      <trkpt lat="47.95156" lon="-2.54544">
        <ele>84.096436</ele>
        <time>2017-04-26T14:11:51Z</time>
      </trkpt>
      <trkpt lat="47.95165" lon="-2.54539">
        <ele>84.68653</ele>
        <time>2017-04-26T14:11:56Z</time>
      </trkpt>
      <trkpt lat="47.9518" lon="-2.54537">
        <ele>85.70982</ele>
        <time>2017-04-26T14:12:02Z</time>
      </trkpt>
      <trkpt lat="47.95189" lon="-2.54533">
        <ele>86.4455</ele>
        <time>2017-04-26T14:12:07Z</time>
      </trkpt>
      <trkpt lat="47.95202" lon="-2.54528">
        <ele>87.301056</ele>
        <time>2017-04-26T14:12:12Z</time>
      </trkpt>
      <trkpt lat="47.9521" lon="-2.5452">
        <ele>87.815834</ele>
        <time>2017-04-26T14:12:18Z</time>
      </trkpt>
      <trkpt lat="47.95217" lon="-2.54515">
        <ele>88.14595</ele>
        <time>2017-04-26T14:12:23Z</time>
      </trkpt>
      <trkpt lat="47.95229" lon="-2.54511">
        <ele>88.73686</ele>
        <time>2017-04-26T14:12:29Z</time>
      </trkpt>
      <trkpt lat="47.95239" lon="-2.54505">
        <ele>88.73993</ele>
        <time>2017-04-26T14:12:35Z</time>
      </trkpt>
      <trkpt lat="47.95248" lon="-2.54504">
        <ele>89.57925</ele>
        <time>2017-04-26T14:12:40Z</time>
      </trkpt>
      <trkpt lat="47.95264" lon="-2.54494">
        <ele>90.12631</ele>
        <time>2017-04-26T14:12:46Z</time>
      </trkpt>
      <trkpt lat="47.95272" lon="-2.5449">
        <ele>90.054276</ele>
        <time>2017-04-26T14:12:52Z</time>
      </trkpt>
      <trkpt lat="47.9528" lon="-2.54496">
        <ele>90.47315</ele>
        <time>2017-04-26T14:12:57Z</time>
      </trkpt>
      <trkpt lat="47.95287" lon="-2.54511">
        <ele>90.69802</ele>
        <time>2017-04-26T14:13:03Z</time>
      </trkpt>
      <trkpt lat="47.95292" lon="-2.54529">
        <ele>90.67613</ele>
        <time>2017-04-26T14:13:09Z</time>
      </trkpt>
      <trkpt lat="47.95299" lon="-2.54546">
        <ele>90.6105</ele>
        <time>2017-04-26T14:13:15Z</time>
      </trkpt>
      <trkpt lat="47.95303" lon="-2.54565">
        <ele>90.573654</ele>
        <time>2017-04-26T14:13:21Z</time>
      </trkpt>
      <trkpt lat="47.95306" lon="-2.54582">
        <ele>91.343094</ele>
        <time>2017-04-26T14:13:26Z</time>
      </trkpt>
      <trkpt lat="47.95309" lon="-2.54599">
        <ele>92.723175</ele>
        <time>2017-04-26T14:13:32Z</time>
      </trkpt>
      <trkpt lat="47.95311" lon="-2.54616">
        <ele>95.03022</ele>
        <time>2017-04-26T14:13:38Z</time>
      </trkpt>
      <trkpt lat="47.95313" lon="-2.54629">
        <ele>97.121956</ele>
        <time>2017-04-26T14:13:44Z</time>
      </trkpt>
      <trkpt lat="47.95316" lon="-2.54636">
        <ele>98.02501</ele>
        <time>2017-04-26T14:13:49Z</time>
      </trkpt>
      <trkpt lat="47.95318" lon="-2.54646">
        <ele>98.16925</ele>
        <time>2017-04-26T14:13:55Z</time>
      </trkpt>
      <trkpt lat="47.95321" lon="-2.54663">
        <ele>98.722</ele>
        <time>2017-04-26T14:14:01Z</time>
      </trkpt>
      <trkpt lat="47.95322" lon="-2.54675">
        <ele>99.39338</ele>
        <time>2017-04-26T14:14:07Z</time>
      </trkpt>
      <trkpt lat="47.95322" lon="-2.54688">
        <ele>99.87192</ele>
        <time>2017-04-26T14:14:12Z</time>
      </trkpt>
      <trkpt lat="47.95324" lon="-2.54698">
        <ele>100.12704</ele>
        <time>2017-04-26T14:14:17Z</time>
      </trkpt>
      <trkpt lat="47.95325" lon="-2.54713">
        <ele>100.31782</ele>
        <time>2017-04-26T14:14:23Z</time>
      </trkpt>
      <trkpt lat="47.95327" lon="-2.54727">
        <ele>100.955826</ele>
        <time>2017-04-26T14:14:29Z</time>
      </trkpt>
      <trkpt lat="47.95329" lon="-2.54744">
        <ele>101.6099</ele>
        <time>2017-04-26T14:14:35Z</time>
      </trkpt>
      <trkpt lat="47.95329" lon="-2.54762">
        <ele>102.64541</ele>
        <time>2017-04-26T14:14:41Z</time>
      </trkpt>
      <trkpt lat="47.95331" lon="-2.5478">
        <ele>103.431015</ele>
        <time>2017-04-26T14:14:47Z</time>
      </trkpt>
      <trkpt lat="47.95333" lon="-2.54794">
        <ele>104.16251</ele>
        <time>2017-04-26T14:14:52Z</time>
      </trkpt>
      <trkpt lat="47.95342" lon="-2.54798">
        <ele>104.842964</ele>
        <time>2017-04-26T14:14:58Z</time>
      </trkpt>
      <trkpt lat="47.95359" lon="-2.5479">
        <ele>105.71522</ele>
        <time>2017-04-26T14:15:04Z</time>
      </trkpt>
      <trkpt lat="47.95359" lon="-2.54775">
        <ele>106.035934</ele>
        <time>2017-04-26T14:15:10Z</time>
      </trkpt>
      <trkpt lat="47.95346" lon="-2.54749">
        <ele>107.021614</ele>
        <time>2017-04-26T14:19:20Z</time>
      </trkpt>
      <trkpt lat="47.95355" lon="-2.54737">
        <ele>106.91968</ele>
        <time>2017-04-26T14:19:25Z</time>
      </trkpt>
      <trkpt lat="47.95358" lon="-2.54724">
        <ele>106.44439</ele>
        <time>2017-04-26T14:19:30Z</time>
      </trkpt>
      <trkpt lat="47.95361" lon="-2.54708">
        <ele>105.41937</ele>
        <time>2017-04-26T14:19:36Z</time>
      </trkpt>
      <trkpt lat="47.95363" lon="-2.54692">
        <ele>104.64597</ele>
        <time>2017-04-26T14:19:42Z</time>
      </trkpt>
      <trkpt lat="47.95364" lon="-2.54677">
        <ele>104.659225</ele>
        <time>2017-04-26T14:19:47Z</time>
      </trkpt>
      <trkpt lat="47.95369" lon="-2.54667">
        <ele>104.96011</ele>
        <time>2017-04-26T14:19:53Z</time>
      </trkpt>
      <trkpt lat="47.95377" lon="-2.5467">
        <ele>105.16477</ele>
        <time>2017-04-26T14:19:59Z</time>
      </trkpt>
      <trkpt lat="47.95385" lon="-2.54661">
        <ele>105.05262</ele>
        <time>2017-04-26T14:20:04Z</time>
      </trkpt>
      <trkpt lat="47.95393" lon="-2.5466">
        <ele>105.380035</ele>
        <time>2017-04-26T14:20:10Z</time>
      </trkpt>
    </trkseg>
  </trk>
</gpx>